<?xml version="1.0" encoding="UTF-8" standalone="no" ?>
<gpx xmlns="http://www.topografix.com/GPX/1/1" xmlns:xsi="http://www.w3.org/2001/XMLSchema-instance" xsi:schemaLocation="http://www.topografix.com/GPX/1/1 http://www.topografix.com/GPX/1/1/gpx.xsd" version="1.1" creator="VisuGPX - https://www.visugpx.com">
  <metadata>
    <name>BRM300 Merville - 16 mai 2009</name>
    <desc><![CDATA[BRM300 - Contrôle à Auxi-le Chateau  - Foucarmont - Crecy en Ponthieu
fort vent de face à l'aller]]></desc>
  </metadata>
  <trk>
    <name><![CDATA[2009-05-16-veloD-BRM300]]></name>
    <trkseg>
      <trkpt lat="50.64929" lon="2.63632">
        <ele>25.612305</ele>
        <time>2009-05-16T04:56:11Z</time>
      </trkpt>
      <trkpt lat="50.64926" lon="2.63618">
        <ele>25.131714</ele>
        <time>2009-05-16T04:56:35Z</time>
      </trkpt>
      <trkpt lat="50.64925" lon="2.63611">
        <ele>25.131714</ele>
        <time>2009-05-16T04:56:38Z</time>
      </trkpt>
      <trkpt lat="50.64927" lon="2.63594">
        <ele>24.651001</ele>
        <time>2009-05-16T04:56:45Z</time>
      </trkpt>
      <trkpt lat="50.64918" lon="2.63579">
        <ele>24.651001</ele>
        <time>2009-05-16T04:56:51Z</time>
      </trkpt>
      <trkpt lat="50.6491" lon="2.63575">
        <ele>24.170288</ele>
        <time>2009-05-16T04:56:56Z</time>
      </trkpt>
      <trkpt lat="50.64863" lon="2.63577">
        <ele>24.170288</ele>
        <time>2009-05-16T04:57:10Z</time>
      </trkpt>
      <trkpt lat="50.64818" lon="2.63588">
        <ele>23.689575</ele>
        <time>2009-05-16T04:57:22Z</time>
      </trkpt>
      <trkpt lat="50.64772" lon="2.63595">
        <ele>23.208984</ele>
        <time>2009-05-16T04:57:33Z</time>
      </trkpt>
      <trkpt lat="50.64704" lon="2.63607">
        <ele>23.208984</ele>
        <time>2009-05-16T04:57:47Z</time>
      </trkpt>
      <trkpt lat="50.64649" lon="2.63617">
        <ele>24.651001</ele>
        <time>2009-05-16T04:58:01Z</time>
      </trkpt>
      <trkpt lat="50.64648" lon="2.63618">
        <ele>24.651001</ele>
        <time>2009-05-16T04:58:10Z</time>
      </trkpt>
      <trkpt lat="50.64641" lon="2.63629">
        <ele>23.208984</ele>
        <time>2009-05-16T04:58:15Z</time>
      </trkpt>
      <trkpt lat="50.64633" lon="2.63648">
        <ele>23.208984</ele>
        <time>2009-05-16T04:58:18Z</time>
      </trkpt>
      <trkpt lat="50.6461" lon="2.63705">
        <ele>23.689575</ele>
        <time>2009-05-16T04:58:26Z</time>
      </trkpt>
      <trkpt lat="50.64566" lon="2.63806">
        <ele>23.208984</ele>
        <time>2009-05-16T04:58:41Z</time>
      </trkpt>
      <trkpt lat="50.64547" lon="2.63838">
        <ele>23.689575</ele>
        <time>2009-05-16T04:58:46Z</time>
      </trkpt>
      <trkpt lat="50.64533" lon="2.63847">
        <ele>23.689575</ele>
        <time>2009-05-16T04:58:49Z</time>
      </trkpt>
      <trkpt lat="50.64522" lon="2.6385">
        <ele>23.689575</ele>
        <time>2009-05-16T04:58:51Z</time>
      </trkpt>
      <trkpt lat="50.64492" lon="2.63864">
        <ele>23.208984</ele>
        <time>2009-05-16T04:58:57Z</time>
      </trkpt>
      <trkpt lat="50.64412" lon="2.63907">
        <ele>23.208984</ele>
        <time>2009-05-16T04:59:12Z</time>
      </trkpt>
      <trkpt lat="50.64398" lon="2.63913">
        <ele>23.208984</ele>
        <time>2009-05-16T04:59:15Z</time>
      </trkpt>
      <trkpt lat="50.64321" lon="2.63938">
        <ele>22.247559</ele>
        <time>2009-05-16T04:59:29Z</time>
      </trkpt>
      <trkpt lat="50.64241" lon="2.63969">
        <ele>21.286377</ele>
        <time>2009-05-16T04:59:44Z</time>
      </trkpt>
      <trkpt lat="50.64154" lon="2.64002">
        <ele>21.286377</ele>
        <time>2009-05-16T05:00:00Z</time>
      </trkpt>
      <trkpt lat="50.64098" lon="2.64017">
        <ele>20.805664</ele>
        <time>2009-05-16T05:00:10Z</time>
      </trkpt>
      <trkpt lat="50.64011" lon="2.64039">
        <ele>21.286377</ele>
        <time>2009-05-16T05:00:25Z</time>
      </trkpt>
      <trkpt lat="50.64004" lon="2.64041">
        <ele>21.286377</ele>
        <time>2009-05-16T05:00:26Z</time>
      </trkpt>
      <trkpt lat="50.63978" lon="2.64043">
        <ele>21.286377</ele>
        <time>2009-05-16T05:00:31Z</time>
      </trkpt>
      <trkpt lat="50.63957" lon="2.64032">
        <ele>21.766968</ele>
        <time>2009-05-16T05:00:36Z</time>
      </trkpt>
      <trkpt lat="50.63943" lon="2.64025">
        <ele>21.766968</ele>
        <time>2009-05-16T05:00:39Z</time>
      </trkpt>
      <trkpt lat="50.63931" lon="2.63999">
        <ele>22.247559</ele>
        <time>2009-05-16T05:00:44Z</time>
      </trkpt>
      <trkpt lat="50.6395" lon="2.63864">
        <ele>20.805664</ele>
        <time>2009-05-16T05:00:59Z</time>
      </trkpt>
      <trkpt lat="50.63963" lon="2.63762">
        <ele>21.286377</ele>
        <time>2009-05-16T05:01:10Z</time>
      </trkpt>
      <trkpt lat="50.63963" lon="2.63736">
        <ele>21.286377</ele>
        <time>2009-05-16T05:01:13Z</time>
      </trkpt>
      <trkpt lat="50.63959" lon="2.6371">
        <ele>20.805664</ele>
        <time>2009-05-16T05:01:16Z</time>
      </trkpt>
      <trkpt lat="50.63953" lon="2.63687">
        <ele>20.805664</ele>
        <time>2009-05-16T05:01:19Z</time>
      </trkpt>
      <trkpt lat="50.63939" lon="2.63661">
        <ele>20.805664</ele>
        <time>2009-05-16T05:01:23Z</time>
      </trkpt>
      <trkpt lat="50.63872" lon="2.63572">
        <ele>20.805664</ele>
        <time>2009-05-16T05:01:39Z</time>
      </trkpt>
      <trkpt lat="50.63846" lon="2.63548">
        <ele>20.324951</ele>
        <time>2009-05-16T05:01:44Z</time>
      </trkpt>
      <trkpt lat="50.6381" lon="2.63527">
        <ele>19.36377</ele>
        <time>2009-05-16T05:01:49Z</time>
      </trkpt>
      <trkpt lat="50.63714" lon="2.63532">
        <ele>19.36377</ele>
        <time>2009-05-16T05:02:04Z</time>
      </trkpt>
      <trkpt lat="50.63708" lon="2.63534">
        <ele>19.36377</ele>
        <time>2009-05-16T05:02:05Z</time>
      </trkpt>
      <trkpt lat="50.63696" lon="2.63537">
        <ele>19.84436</ele>
        <time>2009-05-16T05:02:07Z</time>
      </trkpt>
      <trkpt lat="50.6362" lon="2.63499">
        <ele>19.36377</ele>
        <time>2009-05-16T05:02:20Z</time>
      </trkpt>
      <trkpt lat="50.6358" lon="2.6347">
        <ele>19.36377</ele>
        <time>2009-05-16T05:02:27Z</time>
      </trkpt>
      <trkpt lat="50.63556" lon="2.63436">
        <ele>19.36377</ele>
        <time>2009-05-16T05:02:32Z</time>
      </trkpt>
      <trkpt lat="50.63526" lon="2.63345">
        <ele>18.883057</ele>
        <time>2009-05-16T05:02:42Z</time>
      </trkpt>
      <trkpt lat="50.63477" lon="2.63202">
        <ele>20.324951</ele>
        <time>2009-05-16T05:02:58Z</time>
      </trkpt>
      <trkpt lat="50.63422" lon="2.6308">
        <ele>19.84436</ele>
        <time>2009-05-16T05:03:13Z</time>
      </trkpt>
      <trkpt lat="50.63399" lon="2.63044">
        <ele>19.84436</ele>
        <time>2009-05-16T05:03:18Z</time>
      </trkpt>
      <trkpt lat="50.63391" lon="2.63026">
        <ele>19.84436</ele>
        <time>2009-05-16T05:03:20Z</time>
      </trkpt>
      <trkpt lat="50.63361" lon="2.62879">
        <ele>20.324951</ele>
        <time>2009-05-16T05:03:35Z</time>
      </trkpt>
      <trkpt lat="50.63324" lon="2.62766">
        <ele>19.84436</ele>
        <time>2009-05-16T05:03:47Z</time>
      </trkpt>
      <trkpt lat="50.63286" lon="2.62603">
        <ele>20.324951</ele>
        <time>2009-05-16T05:04:04Z</time>
      </trkpt>
      <trkpt lat="50.63267" lon="2.62501">
        <ele>20.324951</ele>
        <time>2009-05-16T05:04:14Z</time>
      </trkpt>
      <trkpt lat="50.63242" lon="2.62485">
        <ele>20.805664</ele>
        <time>2009-05-16T05:04:19Z</time>
      </trkpt>
      <trkpt lat="50.63229" lon="2.62491">
        <ele>20.805664</ele>
        <time>2009-05-16T05:04:21Z</time>
      </trkpt>
      <trkpt lat="50.63199" lon="2.62458">
        <ele>20.324951</ele>
        <time>2009-05-16T05:04:27Z</time>
      </trkpt>
      <trkpt lat="50.6315" lon="2.62289">
        <ele>19.84436</ele>
        <time>2009-05-16T05:04:45Z</time>
      </trkpt>
      <trkpt lat="50.63103" lon="2.62152">
        <ele>19.36377</ele>
        <time>2009-05-16T05:05:00Z</time>
      </trkpt>
      <trkpt lat="50.63085" lon="2.62062">
        <ele>19.84436</ele>
        <time>2009-05-16T05:05:09Z</time>
      </trkpt>
      <trkpt lat="50.63053" lon="2.62038">
        <ele>19.36377</ele>
        <time>2009-05-16T05:05:15Z</time>
      </trkpt>
      <trkpt lat="50.63014" lon="2.62045">
        <ele>19.36377</ele>
        <time>2009-05-16T05:05:21Z</time>
      </trkpt>
      <trkpt lat="50.62974" lon="2.62008">
        <ele>19.84436</ele>
        <time>2009-05-16T05:05:29Z</time>
      </trkpt>
      <trkpt lat="50.62937" lon="2.61833">
        <ele>19.36377</ele>
        <time>2009-05-16T05:05:47Z</time>
      </trkpt>
      <trkpt lat="50.62893" lon="2.61659">
        <ele>19.36377</ele>
        <time>2009-05-16T05:06:05Z</time>
      </trkpt>
      <trkpt lat="50.62859" lon="2.61638">
        <ele>19.36377</ele>
        <time>2009-05-16T05:06:11Z</time>
      </trkpt>
      <trkpt lat="50.62725" lon="2.61669">
        <ele>18.402344</ele>
        <time>2009-05-16T05:06:31Z</time>
      </trkpt>
      <trkpt lat="50.6263" lon="2.61652">
        <ele>19.36377</ele>
        <time>2009-05-16T05:06:46Z</time>
      </trkpt>
      <trkpt lat="50.62561" lon="2.61628">
        <ele>18.402344</ele>
        <time>2009-05-16T05:06:57Z</time>
      </trkpt>
      <trkpt lat="50.62548" lon="2.61627">
        <ele>18.402344</ele>
        <time>2009-05-16T05:06:59Z</time>
      </trkpt>
      <trkpt lat="50.62524" lon="2.61639">
        <ele>18.883057</ele>
        <time>2009-05-16T05:07:03Z</time>
      </trkpt>
      <trkpt lat="50.62514" lon="2.6165">
        <ele>18.402344</ele>
        <time>2009-05-16T05:07:05Z</time>
      </trkpt>
      <trkpt lat="50.62477" lon="2.61647">
        <ele>19.36377</ele>
        <time>2009-05-16T05:07:12Z</time>
      </trkpt>
      <trkpt lat="50.62435" lon="2.6158">
        <ele>19.36377</ele>
        <time>2009-05-16T05:07:22Z</time>
      </trkpt>
      <trkpt lat="50.62398" lon="2.61501">
        <ele>19.84436</ele>
        <time>2009-05-16T05:07:34Z</time>
      </trkpt>
      <trkpt lat="50.62339" lon="2.6139">
        <ele>19.36377</ele>
        <time>2009-05-16T05:07:48Z</time>
      </trkpt>
      <trkpt lat="50.62313" lon="2.61345">
        <ele>19.36377</ele>
        <time>2009-05-16T05:07:54Z</time>
      </trkpt>
      <trkpt lat="50.62278" lon="2.61246">
        <ele>19.36377</ele>
        <time>2009-05-16T05:08:05Z</time>
      </trkpt>
      <trkpt lat="50.62247" lon="2.61188">
        <ele>19.84436</ele>
        <time>2009-05-16T05:08:13Z</time>
      </trkpt>
      <trkpt lat="50.62238" lon="2.6113">
        <ele>20.324951</ele>
        <time>2009-05-16T05:08:19Z</time>
      </trkpt>
      <trkpt lat="50.62225" lon="2.61064">
        <ele>18.883057</ele>
        <time>2009-05-16T05:08:27Z</time>
      </trkpt>
      <trkpt lat="50.62124" lon="2.60984">
        <ele>19.36377</ele>
        <time>2009-05-16T05:08:44Z</time>
      </trkpt>
      <trkpt lat="50.6209" lon="2.60969">
        <ele>19.36377</ele>
        <time>2009-05-16T05:08:49Z</time>
      </trkpt>
      <trkpt lat="50.62025" lon="2.60903">
        <ele>19.84436</ele>
        <time>2009-05-16T05:09:01Z</time>
      </trkpt>
      <trkpt lat="50.62008" lon="2.60887">
        <ele>19.36377</ele>
        <time>2009-05-16T05:09:04Z</time>
      </trkpt>
      <trkpt lat="50.61922" lon="2.60834">
        <ele>19.36377</ele>
        <time>2009-05-16T05:09:18Z</time>
      </trkpt>
      <trkpt lat="50.61866" lon="2.60758">
        <ele>18.883057</ele>
        <time>2009-05-16T05:09:29Z</time>
      </trkpt>
      <trkpt lat="50.61825" lon="2.60641">
        <ele>18.883057</ele>
        <time>2009-05-16T05:09:42Z</time>
      </trkpt>
      <trkpt lat="50.61747" lon="2.605">
        <ele>18.883057</ele>
        <time>2009-05-16T05:10:00Z</time>
      </trkpt>
      <trkpt lat="50.61699" lon="2.60349">
        <ele>19.36377</ele>
        <time>2009-05-16T05:10:16Z</time>
      </trkpt>
      <trkpt lat="50.61677" lon="2.60215">
        <ele>19.36377</ele>
        <time>2009-05-16T05:10:29Z</time>
      </trkpt>
      <trkpt lat="50.61666" lon="2.60178">
        <ele>19.84436</ele>
        <time>2009-05-16T05:10:33Z</time>
      </trkpt>
      <trkpt lat="50.6159" lon="2.60049">
        <ele>19.36377</ele>
        <time>2009-05-16T05:10:50Z</time>
      </trkpt>
      <trkpt lat="50.61499" lon="2.5995">
        <ele>19.36377</ele>
        <time>2009-05-16T05:11:06Z</time>
      </trkpt>
      <trkpt lat="50.61403" lon="2.59878">
        <ele>19.36377</ele>
        <time>2009-05-16T05:11:22Z</time>
      </trkpt>
      <trkpt lat="50.61291" lon="2.59837">
        <ele>18.883057</ele>
        <time>2009-05-16T05:11:39Z</time>
      </trkpt>
      <trkpt lat="50.61192" lon="2.5984">
        <ele>19.36377</ele>
        <time>2009-05-16T05:11:54Z</time>
      </trkpt>
      <trkpt lat="50.61086" lon="2.59822">
        <ele>18.883057</ele>
        <time>2009-05-16T05:12:10Z</time>
      </trkpt>
      <trkpt lat="50.60991" lon="2.59803">
        <ele>19.84436</ele>
        <time>2009-05-16T05:12:24Z</time>
      </trkpt>
      <trkpt lat="50.60886" lon="2.5975">
        <ele>19.84436</ele>
        <time>2009-05-16T05:12:41Z</time>
      </trkpt>
      <trkpt lat="50.60823" lon="2.59656">
        <ele>19.84436</ele>
        <time>2009-05-16T05:12:54Z</time>
      </trkpt>
      <trkpt lat="50.60756" lon="2.59496">
        <ele>19.84436</ele>
        <time>2009-05-16T05:13:12Z</time>
      </trkpt>
      <trkpt lat="50.60712" lon="2.5935">
        <ele>20.324951</ele>
        <time>2009-05-16T05:13:27Z</time>
      </trkpt>
      <trkpt lat="50.60679" lon="2.59176">
        <ele>19.36377</ele>
        <time>2009-05-16T05:13:44Z</time>
      </trkpt>
      <trkpt lat="50.60644" lon="2.59066">
        <ele>19.36377</ele>
        <time>2009-05-16T05:13:56Z</time>
      </trkpt>
      <trkpt lat="50.60559" lon="2.58922">
        <ele>19.36377</ele>
        <time>2009-05-16T05:14:15Z</time>
      </trkpt>
      <trkpt lat="50.60481" lon="2.58765">
        <ele>19.36377</ele>
        <time>2009-05-16T05:14:34Z</time>
      </trkpt>
      <trkpt lat="50.60425" lon="2.58611">
        <ele>19.84436</ele>
        <time>2009-05-16T05:14:51Z</time>
      </trkpt>
      <trkpt lat="50.60382" lon="2.58471">
        <ele>19.36377</ele>
        <time>2009-05-16T05:15:06Z</time>
      </trkpt>
      <trkpt lat="50.60338" lon="2.58317">
        <ele>19.84436</ele>
        <time>2009-05-16T05:15:22Z</time>
      </trkpt>
      <trkpt lat="50.60311" lon="2.58168">
        <ele>19.84436</ele>
        <time>2009-05-16T05:15:37Z</time>
      </trkpt>
      <trkpt lat="50.60278" lon="2.58055">
        <ele>19.84436</ele>
        <time>2009-05-16T05:15:49Z</time>
      </trkpt>
      <trkpt lat="50.60272" lon="2.58023">
        <ele>19.84436</ele>
        <time>2009-05-16T05:15:52Z</time>
      </trkpt>
      <trkpt lat="50.60278" lon="2.57885">
        <ele>19.84436</ele>
        <time>2009-05-16T05:16:05Z</time>
      </trkpt>
      <trkpt lat="50.60276" lon="2.57721">
        <ele>19.36377</ele>
        <time>2009-05-16T05:16:20Z</time>
      </trkpt>
      <trkpt lat="50.60275" lon="2.57712">
        <ele>19.36377</ele>
        <time>2009-05-16T05:16:21Z</time>
      </trkpt>
      <trkpt lat="50.60262" lon="2.57663">
        <ele>19.36377</ele>
        <time>2009-05-16T05:16:26Z</time>
      </trkpt>
      <trkpt lat="50.60246" lon="2.57629">
        <ele>19.36377</ele>
        <time>2009-05-16T05:16:30Z</time>
      </trkpt>
      <trkpt lat="50.60183" lon="2.57531">
        <ele>19.84436</ele>
        <time>2009-05-16T05:16:43Z</time>
      </trkpt>
      <trkpt lat="50.60164" lon="2.57486">
        <ele>20.324951</ele>
        <time>2009-05-16T05:16:48Z</time>
      </trkpt>
      <trkpt lat="50.60141" lon="2.57377">
        <ele>20.324951</ele>
        <time>2009-05-16T05:16:59Z</time>
      </trkpt>
      <trkpt lat="50.60095" lon="2.572">
        <ele>19.84436</ele>
        <time>2009-05-16T05:17:17Z</time>
      </trkpt>
      <trkpt lat="50.60079" lon="2.57167">
        <ele>19.84436</ele>
        <time>2009-05-16T05:17:21Z</time>
      </trkpt>
      <trkpt lat="50.59997" lon="2.57039">
        <ele>19.84436</ele>
        <time>2009-05-16T05:17:38Z</time>
      </trkpt>
      <trkpt lat="50.59946" lon="2.56986">
        <ele>19.84436</ele>
        <time>2009-05-16T05:17:47Z</time>
      </trkpt>
      <trkpt lat="50.59884" lon="2.56856">
        <ele>19.84436</ele>
        <time>2009-05-16T05:18:02Z</time>
      </trkpt>
      <trkpt lat="50.59842" lon="2.56721">
        <ele>20.324951</ele>
        <time>2009-05-16T05:18:16Z</time>
      </trkpt>
      <trkpt lat="50.5978" lon="2.56601">
        <ele>19.84436</ele>
        <time>2009-05-16T05:18:30Z</time>
      </trkpt>
      <trkpt lat="50.59729" lon="2.56457">
        <ele>19.84436</ele>
        <time>2009-05-16T05:18:45Z</time>
      </trkpt>
      <trkpt lat="50.59691" lon="2.56316">
        <ele>19.36377</ele>
        <time>2009-05-16T05:18:59Z</time>
      </trkpt>
      <trkpt lat="50.59672" lon="2.56274">
        <ele>19.84436</ele>
        <time>2009-05-16T05:19:04Z</time>
      </trkpt>
      <trkpt lat="50.59677" lon="2.56234">
        <ele>20.324951</ele>
        <time>2009-05-16T05:19:10Z</time>
      </trkpt>
      <trkpt lat="50.59694" lon="2.56225">
        <ele>19.84436</ele>
        <time>2009-05-16T05:19:13Z</time>
      </trkpt>
      <trkpt lat="50.59761" lon="2.56183">
        <ele>20.324951</ele>
        <time>2009-05-16T05:19:25Z</time>
      </trkpt>
      <trkpt lat="50.59811" lon="2.5615">
        <ele>20.324951</ele>
        <time>2009-05-16T05:19:34Z</time>
      </trkpt>
      <trkpt lat="50.5982" lon="2.56118">
        <ele>19.84436</ele>
        <time>2009-05-16T05:19:38Z</time>
      </trkpt>
      <trkpt lat="50.59803" lon="2.55992">
        <ele>19.84436</ele>
        <time>2009-05-16T05:19:50Z</time>
      </trkpt>
      <trkpt lat="50.59781" lon="2.5585">
        <ele>19.36377</ele>
        <time>2009-05-16T05:20:04Z</time>
      </trkpt>
      <trkpt lat="50.59774" lon="2.55809">
        <ele>19.84436</ele>
        <time>2009-05-16T05:20:08Z</time>
      </trkpt>
      <trkpt lat="50.59788" lon="2.55742">
        <ele>19.36377</ele>
        <time>2009-05-16T05:20:15Z</time>
      </trkpt>
      <trkpt lat="50.59797" lon="2.55713">
        <ele>19.36377</ele>
        <time>2009-05-16T05:20:18Z</time>
      </trkpt>
      <trkpt lat="50.59803" lon="2.55672">
        <ele>19.36377</ele>
        <time>2009-05-16T05:20:22Z</time>
      </trkpt>
      <trkpt lat="50.59802" lon="2.55641">
        <ele>19.84436</ele>
        <time>2009-05-16T05:20:25Z</time>
      </trkpt>
      <trkpt lat="50.59822" lon="2.55588">
        <ele>19.36377</ele>
        <time>2009-05-16T05:20:31Z</time>
      </trkpt>
      <trkpt lat="50.59858" lon="2.55561">
        <ele>19.84436</ele>
        <time>2009-05-16T05:20:37Z</time>
      </trkpt>
      <trkpt lat="50.59869" lon="2.55518">
        <ele>19.36377</ele>
        <time>2009-05-16T05:20:42Z</time>
      </trkpt>
      <trkpt lat="50.59834" lon="2.55351">
        <ele>19.36377</ele>
        <time>2009-05-16T05:20:58Z</time>
      </trkpt>
      <trkpt lat="50.59796" lon="2.55214">
        <ele>19.36377</ele>
        <time>2009-05-16T05:21:12Z</time>
      </trkpt>
      <trkpt lat="50.5979" lon="2.55051">
        <ele>19.36377</ele>
        <time>2009-05-16T05:21:27Z</time>
      </trkpt>
      <trkpt lat="50.5978" lon="2.54873">
        <ele>19.84436</ele>
        <time>2009-05-16T05:21:43Z</time>
      </trkpt>
      <trkpt lat="50.59755" lon="2.54668">
        <ele>19.84436</ele>
        <time>2009-05-16T05:22:02Z</time>
      </trkpt>
      <trkpt lat="50.59759" lon="2.54493">
        <ele>19.84436</ele>
        <time>2009-05-16T05:22:18Z</time>
      </trkpt>
      <trkpt lat="50.59758" lon="2.54482">
        <ele>19.84436</ele>
        <time>2009-05-16T05:22:19Z</time>
      </trkpt>
      <trkpt lat="50.59731" lon="2.54409">
        <ele>19.84436</ele>
        <time>2009-05-16T05:22:27Z</time>
      </trkpt>
      <trkpt lat="50.59645" lon="2.54294">
        <ele>19.84436</ele>
        <time>2009-05-16T05:22:43Z</time>
      </trkpt>
      <trkpt lat="50.59573" lon="2.54196">
        <ele>22.728271</ele>
        <time>2009-05-16T05:22:57Z</time>
      </trkpt>
      <trkpt lat="50.595" lon="2.54103">
        <ele>23.689575</ele>
        <time>2009-05-16T05:23:11Z</time>
      </trkpt>
      <trkpt lat="50.59441" lon="2.54026">
        <ele>25.131714</ele>
        <time>2009-05-16T05:23:23Z</time>
      </trkpt>
      <trkpt lat="50.59389" lon="2.5396">
        <ele>26.573608</ele>
        <time>2009-05-16T05:23:34Z</time>
      </trkpt>
      <trkpt lat="50.59329" lon="2.53879">
        <ele>23.208984</ele>
        <time>2009-05-16T05:23:46Z</time>
      </trkpt>
      <trkpt lat="50.59319" lon="2.53866">
        <ele>22.728271</ele>
        <time>2009-05-16T05:23:48Z</time>
      </trkpt>
      <trkpt lat="50.59321" lon="2.53837">
        <ele>22.728271</ele>
        <time>2009-05-16T05:23:55Z</time>
      </trkpt>
      <trkpt lat="50.59324" lon="2.53835">
        <ele>22.247559</ele>
        <time>2009-05-16T05:23:56Z</time>
      </trkpt>
      <trkpt lat="50.59363" lon="2.53806">
        <ele>21.286377</ele>
        <time>2009-05-16T05:24:04Z</time>
      </trkpt>
      <trkpt lat="50.59393" lon="2.53783">
        <ele>19.84436</ele>
        <time>2009-05-16T05:24:11Z</time>
      </trkpt>
      <trkpt lat="50.59479" lon="2.53716">
        <ele>19.36377</ele>
        <time>2009-05-16T05:24:26Z</time>
      </trkpt>
      <trkpt lat="50.59498" lon="2.53691">
        <ele>19.36377</ele>
        <time>2009-05-16T05:24:30Z</time>
      </trkpt>
      <trkpt lat="50.59563" lon="2.53557">
        <ele>19.84436</ele>
        <time>2009-05-16T05:24:47Z</time>
      </trkpt>
      <trkpt lat="50.59578" lon="2.53522">
        <ele>19.84436</ele>
        <time>2009-05-16T05:24:51Z</time>
      </trkpt>
      <trkpt lat="50.59564" lon="2.53458">
        <ele>19.36377</ele>
        <time>2009-05-16T05:24:58Z</time>
      </trkpt>
      <trkpt lat="50.59512" lon="2.53341">
        <ele>19.36377</ele>
        <time>2009-05-16T05:25:12Z</time>
      </trkpt>
      <trkpt lat="50.59475" lon="2.53214">
        <ele>19.36377</ele>
        <time>2009-05-16T05:25:26Z</time>
      </trkpt>
      <trkpt lat="50.59477" lon="2.53075">
        <ele>19.84436</ele>
        <time>2009-05-16T05:25:40Z</time>
      </trkpt>
      <trkpt lat="50.59479" lon="2.53066">
        <ele>19.84436</ele>
        <time>2009-05-16T05:25:41Z</time>
      </trkpt>
      <trkpt lat="50.59514" lon="2.52954">
        <ele>19.84436</ele>
        <time>2009-05-16T05:25:53Z</time>
      </trkpt>
      <trkpt lat="50.59513" lon="2.5291">
        <ele>19.84436</ele>
        <time>2009-05-16T05:25:57Z</time>
      </trkpt>
      <trkpt lat="50.59478" lon="2.52754">
        <ele>19.84436</ele>
        <time>2009-05-16T05:26:12Z</time>
      </trkpt>
      <trkpt lat="50.59452" lon="2.52719">
        <ele>19.36377</ele>
        <time>2009-05-16T05:26:17Z</time>
      </trkpt>
      <trkpt lat="50.59389" lon="2.52662">
        <ele>19.36377</ele>
        <time>2009-05-16T05:26:27Z</time>
      </trkpt>
      <trkpt lat="50.59324" lon="2.52566">
        <ele>18.883057</ele>
        <time>2009-05-16T05:26:40Z</time>
      </trkpt>
      <trkpt lat="50.59253" lon="2.52476">
        <ele>18.883057</ele>
        <time>2009-05-16T05:26:53Z</time>
      </trkpt>
      <trkpt lat="50.5918" lon="2.5235">
        <ele>19.36377</ele>
        <time>2009-05-16T05:27:09Z</time>
      </trkpt>
      <trkpt lat="50.59113" lon="2.52223">
        <ele>19.84436</ele>
        <time>2009-05-16T05:27:24Z</time>
      </trkpt>
      <trkpt lat="50.59052" lon="2.52093">
        <ele>19.84436</ele>
        <time>2009-05-16T05:27:39Z</time>
      </trkpt>
      <trkpt lat="50.58993" lon="2.51972">
        <ele>19.84436</ele>
        <time>2009-05-16T05:27:53Z</time>
      </trkpt>
      <trkpt lat="50.5897" lon="2.51884">
        <ele>20.805664</ele>
        <time>2009-05-16T05:28:04Z</time>
      </trkpt>
      <trkpt lat="50.58949" lon="2.51868">
        <ele>20.324951</ele>
        <time>2009-05-16T05:28:08Z</time>
      </trkpt>
      <trkpt lat="50.58907" lon="2.51848">
        <ele>19.84436</ele>
        <time>2009-05-16T05:28:15Z</time>
      </trkpt>
      <trkpt lat="50.58815" lon="2.51858">
        <ele>19.84436</ele>
        <time>2009-05-16T05:28:29Z</time>
      </trkpt>
      <trkpt lat="50.58787" lon="2.51836">
        <ele>19.84436</ele>
        <time>2009-05-16T05:28:35Z</time>
      </trkpt>
      <trkpt lat="50.58748" lon="2.51729">
        <ele>20.324951</ele>
        <time>2009-05-16T05:28:46Z</time>
      </trkpt>
      <trkpt lat="50.58687" lon="2.51656">
        <ele>19.84436</ele>
        <time>2009-05-16T05:28:57Z</time>
      </trkpt>
      <trkpt lat="50.58606" lon="2.51599">
        <ele>19.36377</ele>
        <time>2009-05-16T05:29:10Z</time>
      </trkpt>
      <trkpt lat="50.58594" lon="2.51588">
        <ele>19.36377</ele>
        <time>2009-05-16T05:29:12Z</time>
      </trkpt>
      <trkpt lat="50.58502" lon="2.51457">
        <ele>20.324951</ele>
        <time>2009-05-16T05:29:30Z</time>
      </trkpt>
      <trkpt lat="50.58484" lon="2.51442">
        <ele>19.84436</ele>
        <time>2009-05-16T05:29:33Z</time>
      </trkpt>
      <trkpt lat="50.58404" lon="2.51422">
        <ele>19.84436</ele>
        <time>2009-05-16T05:29:45Z</time>
      </trkpt>
      <trkpt lat="50.58311" lon="2.51374">
        <ele>20.324951</ele>
        <time>2009-05-16T05:29:59Z</time>
      </trkpt>
      <trkpt lat="50.58306" lon="2.51368">
        <ele>20.324951</ele>
        <time>2009-05-16T05:30:00Z</time>
      </trkpt>
      <trkpt lat="50.58287" lon="2.51336">
        <ele>20.805664</ele>
        <time>2009-05-16T05:30:04Z</time>
      </trkpt>
      <trkpt lat="50.58239" lon="2.51171">
        <ele>20.324951</ele>
        <time>2009-05-16T05:30:20Z</time>
      </trkpt>
      <trkpt lat="50.58179" lon="2.51045">
        <ele>21.286377</ele>
        <time>2009-05-16T05:30:34Z</time>
      </trkpt>
      <trkpt lat="50.58092" lon="2.50916">
        <ele>19.84436</ele>
        <time>2009-05-16T05:30:51Z</time>
      </trkpt>
      <trkpt lat="50.58035" lon="2.50794">
        <ele>19.36377</ele>
        <time>2009-05-16T05:31:05Z</time>
      </trkpt>
      <trkpt lat="50.58001" lon="2.50666">
        <ele>20.324951</ele>
        <time>2009-05-16T05:31:17Z</time>
      </trkpt>
      <trkpt lat="50.57966" lon="2.50509">
        <ele>20.324951</ele>
        <time>2009-05-16T05:31:31Z</time>
      </trkpt>
      <trkpt lat="50.57916" lon="2.50352">
        <ele>20.324951</ele>
        <time>2009-05-16T05:31:46Z</time>
      </trkpt>
      <trkpt lat="50.57856" lon="2.50174">
        <ele>20.805664</ele>
        <time>2009-05-16T05:32:03Z</time>
      </trkpt>
      <trkpt lat="50.57798" lon="2.49986">
        <ele>21.286377</ele>
        <time>2009-05-16T05:32:21Z</time>
      </trkpt>
      <trkpt lat="50.57747" lon="2.49819">
        <ele>20.805664</ele>
        <time>2009-05-16T05:32:37Z</time>
      </trkpt>
      <trkpt lat="50.5768" lon="2.49609">
        <ele>20.805664</ele>
        <time>2009-05-16T05:32:57Z</time>
      </trkpt>
      <trkpt lat="50.57624" lon="2.49461">
        <ele>21.286377</ele>
        <time>2009-05-16T05:33:12Z</time>
      </trkpt>
      <trkpt lat="50.57553" lon="2.4931">
        <ele>20.805664</ele>
        <time>2009-05-16T05:33:28Z</time>
      </trkpt>
      <trkpt lat="50.57476" lon="2.49152">
        <ele>20.805664</ele>
        <time>2009-05-16T05:33:45Z</time>
      </trkpt>
      <trkpt lat="50.5739" lon="2.49008">
        <ele>20.805664</ele>
        <time>2009-05-16T05:34:02Z</time>
      </trkpt>
      <trkpt lat="50.57344" lon="2.48939">
        <ele>21.286377</ele>
        <time>2009-05-16T05:34:11Z</time>
      </trkpt>
      <trkpt lat="50.57337" lon="2.48892">
        <ele>21.286377</ele>
        <time>2009-05-16T05:34:16Z</time>
      </trkpt>
      <trkpt lat="50.57338" lon="2.48836">
        <ele>20.805664</ele>
        <time>2009-05-16T05:34:21Z</time>
      </trkpt>
      <trkpt lat="50.57326" lon="2.48747">
        <ele>20.324951</ele>
        <time>2009-05-16T05:34:29Z</time>
      </trkpt>
      <trkpt lat="50.57308" lon="2.487">
        <ele>20.324951</ele>
        <time>2009-05-16T05:34:34Z</time>
      </trkpt>
      <trkpt lat="50.57247" lon="2.48606">
        <ele>20.324951</ele>
        <time>2009-05-16T05:34:46Z</time>
      </trkpt>
      <trkpt lat="50.57183" lon="2.48508">
        <ele>20.805664</ele>
        <time>2009-05-16T05:34:58Z</time>
      </trkpt>
      <trkpt lat="50.5713" lon="2.48424">
        <ele>20.805664</ele>
        <time>2009-05-16T05:35:08Z</time>
      </trkpt>
      <trkpt lat="50.57033" lon="2.48297">
        <ele>20.324951</ele>
        <time>2009-05-16T05:35:25Z</time>
      </trkpt>
      <trkpt lat="50.56966" lon="2.48218">
        <ele>21.286377</ele>
        <time>2009-05-16T05:35:36Z</time>
      </trkpt>
      <trkpt lat="50.56888" lon="2.48118">
        <ele>21.766968</ele>
        <time>2009-05-16T05:35:50Z</time>
      </trkpt>
      <trkpt lat="50.56825" lon="2.48015">
        <ele>24.170288</ele>
        <time>2009-05-16T05:36:03Z</time>
      </trkpt>
      <trkpt lat="50.56769" lon="2.47896">
        <ele>26.092896</ele>
        <time>2009-05-16T05:36:16Z</time>
      </trkpt>
      <trkpt lat="50.56728" lon="2.47793">
        <ele>27.054321</ele>
        <time>2009-05-16T05:36:28Z</time>
      </trkpt>
      <trkpt lat="50.56725" lon="2.47786">
        <ele>26.573608</ele>
        <time>2009-05-16T05:36:29Z</time>
      </trkpt>
      <trkpt lat="50.56704" lon="2.47739">
        <ele>27.534912</ele>
        <time>2009-05-16T05:36:37Z</time>
      </trkpt>
      <trkpt lat="50.56691" lon="2.4774">
        <ele>27.054321</ele>
        <time>2009-05-16T05:36:41Z</time>
      </trkpt>
      <trkpt lat="50.56675" lon="2.47752">
        <ele>26.573608</ele>
        <time>2009-05-16T05:36:44Z</time>
      </trkpt>
      <trkpt lat="50.56595" lon="2.47805">
        <ele>25.612305</ele>
        <time>2009-05-16T05:36:56Z</time>
      </trkpt>
      <trkpt lat="50.56568" lon="2.4784">
        <ele>25.131714</ele>
        <time>2009-05-16T05:37:01Z</time>
      </trkpt>
      <trkpt lat="50.56513" lon="2.47979">
        <ele>24.651001</ele>
        <time>2009-05-16T05:37:16Z</time>
      </trkpt>
      <trkpt lat="50.56498" lon="2.48002">
        <ele>24.651001</ele>
        <time>2009-05-16T05:37:19Z</time>
      </trkpt>
      <trkpt lat="50.56487" lon="2.48014">
        <ele>24.651001</ele>
        <time>2009-05-16T05:37:21Z</time>
      </trkpt>
      <trkpt lat="50.56405" lon="2.48047">
        <ele>25.612305</ele>
        <time>2009-05-16T05:37:34Z</time>
      </trkpt>
      <trkpt lat="50.56399" lon="2.48048">
        <ele>26.092896</ele>
        <time>2009-05-16T05:37:35Z</time>
      </trkpt>
      <trkpt lat="50.56352" lon="2.48071">
        <ele>27.534912</ele>
        <time>2009-05-16T05:37:43Z</time>
      </trkpt>
      <trkpt lat="50.56342" lon="2.48082">
        <ele>28.015503</ele>
        <time>2009-05-16T05:37:45Z</time>
      </trkpt>
      <trkpt lat="50.56332" lon="2.48093">
        <ele>28.496216</ele>
        <time>2009-05-16T05:37:47Z</time>
      </trkpt>
      <trkpt lat="50.56322" lon="2.48104">
        <ele>28.496216</ele>
        <time>2009-05-16T05:37:49Z</time>
      </trkpt>
      <trkpt lat="50.5627" lon="2.4814">
        <ele>29.45752</ele>
        <time>2009-05-16T05:37:58Z</time>
      </trkpt>
      <trkpt lat="50.56188" lon="2.48225">
        <ele>29.93811</ele>
        <time>2009-05-16T05:38:13Z</time>
      </trkpt>
      <trkpt lat="50.56156" lon="2.48213">
        <ele>29.45752</ele>
        <time>2009-05-16T05:38:19Z</time>
      </trkpt>
      <trkpt lat="50.56128" lon="2.48117">
        <ele>29.93811</ele>
        <time>2009-05-16T05:38:30Z</time>
      </trkpt>
      <trkpt lat="50.56116" lon="2.48084">
        <ele>29.93811</ele>
        <time>2009-05-16T05:38:34Z</time>
      </trkpt>
      <trkpt lat="50.56094" lon="2.48051">
        <ele>29.93811</ele>
        <time>2009-05-16T05:38:38Z</time>
      </trkpt>
      <trkpt lat="50.56004" lon="2.47993">
        <ele>30.418823</ele>
        <time>2009-05-16T05:38:53Z</time>
      </trkpt>
      <trkpt lat="50.55927" lon="2.47952">
        <ele>30.899536</ele>
        <time>2009-05-16T05:39:05Z</time>
      </trkpt>
      <trkpt lat="50.5584" lon="2.47902">
        <ele>31.380127</ele>
        <time>2009-05-16T05:39:19Z</time>
      </trkpt>
      <trkpt lat="50.55745" lon="2.47851">
        <ele>30.899536</ele>
        <time>2009-05-16T05:39:34Z</time>
      </trkpt>
      <trkpt lat="50.55663" lon="2.47805">
        <ele>29.45752</ele>
        <time>2009-05-16T05:39:47Z</time>
      </trkpt>
      <trkpt lat="50.55544" lon="2.47743">
        <ele>28.015503</ele>
        <time>2009-05-16T05:40:05Z</time>
      </trkpt>
      <trkpt lat="50.55431" lon="2.4768">
        <ele>27.054321</ele>
        <time>2009-05-16T05:40:22Z</time>
      </trkpt>
      <trkpt lat="50.55335" lon="2.47627">
        <ele>27.534912</ele>
        <time>2009-05-16T05:40:37Z</time>
      </trkpt>
      <trkpt lat="50.55229" lon="2.47569">
        <ele>27.534912</ele>
        <time>2009-05-16T05:40:54Z</time>
      </trkpt>
      <trkpt lat="50.55135" lon="2.47518">
        <ele>27.534912</ele>
        <time>2009-05-16T05:41:09Z</time>
      </trkpt>
      <trkpt lat="50.55092" lon="2.4749">
        <ele>28.015503</ele>
        <time>2009-05-16T05:41:16Z</time>
      </trkpt>
      <trkpt lat="50.55005" lon="2.47391">
        <ele>29.93811</ele>
        <time>2009-05-16T05:41:32Z</time>
      </trkpt>
      <trkpt lat="50.54993" lon="2.47381">
        <ele>29.93811</ele>
        <time>2009-05-16T05:41:34Z</time>
      </trkpt>
      <trkpt lat="50.549" lon="2.47318">
        <ele>32.341553</ele>
        <time>2009-05-16T05:41:50Z</time>
      </trkpt>
      <trkpt lat="50.54818" lon="2.47263">
        <ele>35.225464</ele>
        <time>2009-05-16T05:42:04Z</time>
      </trkpt>
      <trkpt lat="50.54734" lon="2.47205">
        <ele>38.109375</ele>
        <time>2009-05-16T05:42:18Z</time>
      </trkpt>
      <trkpt lat="50.54639" lon="2.47141">
        <ele>40.512817</ele>
        <time>2009-05-16T05:42:34Z</time>
      </trkpt>
      <trkpt lat="50.54539" lon="2.47111">
        <ele>38.590088</ele>
        <time>2009-05-16T05:42:49Z</time>
      </trkpt>
      <trkpt lat="50.54433" lon="2.47134">
        <ele>38.109375</ele>
        <time>2009-05-16T05:43:04Z</time>
      </trkpt>
      <trkpt lat="50.54384" lon="2.47122">
        <ele>38.590088</ele>
        <time>2009-05-16T05:43:11Z</time>
      </trkpt>
      <trkpt lat="50.54281" lon="2.47062">
        <ele>40.993408</ele>
        <time>2009-05-16T05:43:28Z</time>
      </trkpt>
      <trkpt lat="50.54204" lon="2.47015">
        <ele>42.435425</ele>
        <time>2009-05-16T05:43:41Z</time>
      </trkpt>
      <trkpt lat="50.5414" lon="2.46954">
        <ele>43.877319</ele>
        <time>2009-05-16T05:43:53Z</time>
      </trkpt>
      <trkpt lat="50.54087" lon="2.46858">
        <ele>45.799927</ele>
        <time>2009-05-16T05:44:06Z</time>
      </trkpt>
      <trkpt lat="50.54057" lon="2.46809">
        <ele>46.28064</ele>
        <time>2009-05-16T05:44:13Z</time>
      </trkpt>
      <trkpt lat="50.54037" lon="2.46786">
        <ele>46.28064</ele>
        <time>2009-05-16T05:44:17Z</time>
      </trkpt>
      <trkpt lat="50.54002" lon="2.46758">
        <ele>47.241821</ele>
        <time>2009-05-16T05:44:23Z</time>
      </trkpt>
      <trkpt lat="50.53918" lon="2.46691">
        <ele>48.68396</ele>
        <time>2009-05-16T05:44:38Z</time>
      </trkpt>
      <trkpt lat="50.53898" lon="2.46672">
        <ele>48.68396</ele>
        <time>2009-05-16T05:44:42Z</time>
      </trkpt>
      <trkpt lat="50.5388" lon="2.46646">
        <ele>50.125977</ele>
        <time>2009-05-16T05:44:46Z</time>
      </trkpt>
      <trkpt lat="50.53876" lon="2.46589">
        <ele>51.567871</ele>
        <time>2009-05-16T05:44:53Z</time>
      </trkpt>
      <trkpt lat="50.53881" lon="2.46574">
        <ele>51.567871</ele>
        <time>2009-05-16T05:44:55Z</time>
      </trkpt>
      <trkpt lat="50.53874" lon="2.46525">
        <ele>53.490479</ele>
        <time>2009-05-16T05:45:02Z</time>
      </trkpt>
      <trkpt lat="50.53869" lon="2.4652">
        <ele>53.971191</ele>
        <time>2009-05-16T05:45:03Z</time>
      </trkpt>
      <trkpt lat="50.53822" lon="2.46478">
        <ele>55.893799</ele>
        <time>2009-05-16T05:45:13Z</time>
      </trkpt>
      <trkpt lat="50.5376" lon="2.46405">
        <ele>58.297119</ele>
        <time>2009-05-16T05:45:27Z</time>
      </trkpt>
      <trkpt lat="50.53694" lon="2.46314">
        <ele>58.77771</ele>
        <time>2009-05-16T05:45:42Z</time>
      </trkpt>
      <trkpt lat="50.5363" lon="2.46245">
        <ele>60.219727</ele>
        <time>2009-05-16T05:45:55Z</time>
      </trkpt>
      <trkpt lat="50.53584" lon="2.46213">
        <ele>63.103638</ele>
        <time>2009-05-16T05:46:05Z</time>
      </trkpt>
      <trkpt lat="50.53565" lon="2.46199">
        <ele>64.545654</ele>
        <time>2009-05-16T05:46:09Z</time>
      </trkpt>
      <trkpt lat="50.53518" lon="2.46164">
        <ele>68.390869</ele>
        <time>2009-05-16T05:46:20Z</time>
      </trkpt>
      <trkpt lat="50.53477" lon="2.46132">
        <ele>71.755493</ele>
        <time>2009-05-16T05:46:30Z</time>
      </trkpt>
      <trkpt lat="50.53426" lon="2.46096">
        <ele>75.120239</ele>
        <time>2009-05-16T05:46:42Z</time>
      </trkpt>
      <trkpt lat="50.53405" lon="2.46081">
        <ele>75.60083</ele>
        <time>2009-05-16T05:46:47Z</time>
      </trkpt>
      <trkpt lat="50.53337" lon="2.46029">
        <ele>78.484741</ele>
        <time>2009-05-16T05:47:02Z</time>
      </trkpt>
      <trkpt lat="50.53275" lon="2.45984">
        <ele>79.446045</ele>
        <time>2009-05-16T05:47:15Z</time>
      </trkpt>
      <trkpt lat="50.53236" lon="2.45956">
        <ele>79.926636</ele>
        <time>2009-05-16T05:47:23Z</time>
      </trkpt>
      <trkpt lat="50.53145" lon="2.45888">
        <ele>81.368774</ele>
        <time>2009-05-16T05:47:41Z</time>
      </trkpt>
      <trkpt lat="50.53072" lon="2.45831">
        <ele>82.330078</ele>
        <time>2009-05-16T05:47:56Z</time>
      </trkpt>
      <trkpt lat="50.53006" lon="2.45785">
        <ele>83.291382</ele>
        <time>2009-05-16T05:48:10Z</time>
      </trkpt>
      <trkpt lat="50.52982" lon="2.45765">
        <ele>83.771973</ele>
        <time>2009-05-16T05:48:15Z</time>
      </trkpt>
      <trkpt lat="50.52962" lon="2.45744">
        <ele>83.771973</ele>
        <time>2009-05-16T05:48:20Z</time>
      </trkpt>
      <trkpt lat="50.52954" lon="2.45707">
        <ele>84.733398</ele>
        <time>2009-05-16T05:48:26Z</time>
      </trkpt>
      <trkpt lat="50.52947" lon="2.45658">
        <ele>85.213989</ele>
        <time>2009-05-16T05:48:34Z</time>
      </trkpt>
      <trkpt lat="50.52923" lon="2.45648">
        <ele>85.213989</ele>
        <time>2009-05-16T05:48:40Z</time>
      </trkpt>
      <trkpt lat="50.52886" lon="2.4565">
        <ele>84.733398</ele>
        <time>2009-05-16T05:48:49Z</time>
      </trkpt>
      <trkpt lat="50.52859" lon="2.4565">
        <ele>84.733398</ele>
        <time>2009-05-16T05:48:55Z</time>
      </trkpt>
      <trkpt lat="50.52808" lon="2.45675">
        <ele>86.175293</ele>
        <time>2009-05-16T05:49:06Z</time>
      </trkpt>
      <trkpt lat="50.52803" lon="2.45676">
        <ele>86.175293</ele>
        <time>2009-05-16T05:49:07Z</time>
      </trkpt>
      <trkpt lat="50.52779" lon="2.45678">
        <ele>85.69458</ele>
        <time>2009-05-16T05:49:12Z</time>
      </trkpt>
      <trkpt lat="50.52707" lon="2.45676">
        <ele>88.098022</ele>
        <time>2009-05-16T05:49:27Z</time>
      </trkpt>
      <trkpt lat="50.52652" lon="2.45677">
        <ele>89.059326</ele>
        <time>2009-05-16T05:49:38Z</time>
      </trkpt>
      <trkpt lat="50.5256" lon="2.45675">
        <ele>90.981934</ele>
        <time>2009-05-16T05:49:57Z</time>
      </trkpt>
      <trkpt lat="50.52531" lon="2.45675">
        <ele>91.462524</ele>
        <time>2009-05-16T05:50:03Z</time>
      </trkpt>
      <trkpt lat="50.52451" lon="2.45675">
        <ele>91.943237</ele>
        <time>2009-05-16T05:50:19Z</time>
      </trkpt>
      <trkpt lat="50.52385" lon="2.45672">
        <ele>92.42395</ele>
        <time>2009-05-16T05:50:32Z</time>
      </trkpt>
      <trkpt lat="50.52295" lon="2.45672">
        <ele>92.42395</ele>
        <time>2009-05-16T05:50:49Z</time>
      </trkpt>
      <trkpt lat="50.5229" lon="2.45672">
        <ele>92.42395</ele>
        <time>2009-05-16T05:50:50Z</time>
      </trkpt>
      <trkpt lat="50.52219" lon="2.45671">
        <ele>91.462524</ele>
        <time>2009-05-16T05:51:03Z</time>
      </trkpt>
      <trkpt lat="50.5212" lon="2.4567">
        <ele>88.578735</ele>
        <time>2009-05-16T05:51:19Z</time>
      </trkpt>
      <trkpt lat="50.52013" lon="2.45662">
        <ele>86.175293</ele>
        <time>2009-05-16T05:51:35Z</time>
      </trkpt>
      <trkpt lat="50.51946" lon="2.45612">
        <ele>86.175293</ele>
        <time>2009-05-16T05:51:47Z</time>
      </trkpt>
      <trkpt lat="50.51937" lon="2.45598">
        <ele>85.69458</ele>
        <time>2009-05-16T05:51:49Z</time>
      </trkpt>
      <trkpt lat="50.51873" lon="2.45501">
        <ele>87.617188</ele>
        <time>2009-05-16T05:52:04Z</time>
      </trkpt>
      <trkpt lat="50.5182" lon="2.45423">
        <ele>89.059326</ele>
        <time>2009-05-16T05:52:17Z</time>
      </trkpt>
      <trkpt lat="50.51764" lon="2.45341">
        <ele>90.981934</ele>
        <time>2009-05-16T05:52:30Z</time>
      </trkpt>
      <trkpt lat="50.51717" lon="2.45271">
        <ele>92.42395</ele>
        <time>2009-05-16T05:52:42Z</time>
      </trkpt>
      <trkpt lat="50.51664" lon="2.45195">
        <ele>93.385132</ele>
        <time>2009-05-16T05:52:55Z</time>
      </trkpt>
      <trkpt lat="50.51615" lon="2.45124">
        <ele>94.346558</ele>
        <time>2009-05-16T05:53:07Z</time>
      </trkpt>
      <trkpt lat="50.51563" lon="2.45047">
        <ele>94.827148</ele>
        <time>2009-05-16T05:53:20Z</time>
      </trkpt>
      <trkpt lat="50.51503" lon="2.44961">
        <ele>95.307739</ele>
        <time>2009-05-16T05:53:34Z</time>
      </trkpt>
      <trkpt lat="50.5144" lon="2.44867">
        <ele>96.269287</ele>
        <time>2009-05-16T05:53:49Z</time>
      </trkpt>
      <trkpt lat="50.51436" lon="2.44861">
        <ele>96.749878</ele>
        <time>2009-05-16T05:53:50Z</time>
      </trkpt>
      <trkpt lat="50.51413" lon="2.44826">
        <ele>97.230469</ele>
        <time>2009-05-16T05:53:56Z</time>
      </trkpt>
      <trkpt lat="50.51396" lon="2.44805">
        <ele>97.230469</ele>
        <time>2009-05-16T05:54:00Z</time>
      </trkpt>
      <trkpt lat="50.51352" lon="2.44737">
        <ele>98.672485</ele>
        <time>2009-05-16T05:54:12Z</time>
      </trkpt>
      <trkpt lat="50.51279" lon="2.44632">
        <ele>100.114502</ele>
        <time>2009-05-16T05:54:29Z</time>
      </trkpt>
      <trkpt lat="50.51226" lon="2.44553">
        <ele>101.075684</ele>
        <time>2009-05-16T05:54:42Z</time>
      </trkpt>
      <trkpt lat="50.51187" lon="2.44498">
        <ele>102.037109</ele>
        <time>2009-05-16T05:54:52Z</time>
      </trkpt>
      <trkpt lat="50.51146" lon="2.44437">
        <ele>102.998291</ele>
        <time>2009-05-16T05:55:02Z</time>
      </trkpt>
      <trkpt lat="50.51076" lon="2.44331">
        <ele>103.959717</ele>
        <time>2009-05-16T05:55:19Z</time>
      </trkpt>
      <trkpt lat="50.51016" lon="2.44245">
        <ele>104.44043</ele>
        <time>2009-05-16T05:55:33Z</time>
      </trkpt>
      <trkpt lat="50.50941" lon="2.44138">
        <ele>104.44043</ele>
        <time>2009-05-16T05:55:50Z</time>
      </trkpt>
      <trkpt lat="50.50882" lon="2.44048">
        <ele>102.998291</ele>
        <time>2009-05-16T05:56:04Z</time>
      </trkpt>
      <trkpt lat="50.50805" lon="2.43937">
        <ele>103.479004</ele>
        <time>2009-05-16T05:56:21Z</time>
      </trkpt>
      <trkpt lat="50.50733" lon="2.4383">
        <ele>102.037109</ele>
        <time>2009-05-16T05:56:37Z</time>
      </trkpt>
      <trkpt lat="50.50661" lon="2.43725">
        <ele>101.556396</ele>
        <time>2009-05-16T05:56:53Z</time>
      </trkpt>
      <trkpt lat="50.50601" lon="2.43637">
        <ele>104.921021</ele>
        <time>2009-05-16T05:57:08Z</time>
      </trkpt>
      <trkpt lat="50.5058" lon="2.43605">
        <ele>106.363037</ele>
        <time>2009-05-16T05:57:14Z</time>
      </trkpt>
      <trkpt lat="50.50524" lon="2.43523">
        <ele>108.285645</ele>
        <time>2009-05-16T05:57:29Z</time>
      </trkpt>
      <trkpt lat="50.50468" lon="2.43442">
        <ele>109.727661</ele>
        <time>2009-05-16T05:57:43Z</time>
      </trkpt>
      <trkpt lat="50.50414" lon="2.43363">
        <ele>110.688843</ele>
        <time>2009-05-16T05:57:58Z</time>
      </trkpt>
      <trkpt lat="50.50407" lon="2.43353">
        <ele>110.688843</ele>
        <time>2009-05-16T05:58:00Z</time>
      </trkpt>
      <trkpt lat="50.50347" lon="2.43265">
        <ele>112.611572</ele>
        <time>2009-05-16T05:58:15Z</time>
      </trkpt>
      <trkpt lat="50.50286" lon="2.43176">
        <ele>114.053589</ele>
        <time>2009-05-16T05:58:30Z</time>
      </trkpt>
      <trkpt lat="50.50234" lon="2.43101">
        <ele>115.495605</ele>
        <time>2009-05-16T05:58:43Z</time>
      </trkpt>
      <trkpt lat="50.50169" lon="2.43001">
        <ele>116.9375</ele>
        <time>2009-05-16T05:58:59Z</time>
      </trkpt>
      <trkpt lat="50.50104" lon="2.42911">
        <ele>116.456787</ele>
        <time>2009-05-16T05:59:14Z</time>
      </trkpt>
      <trkpt lat="50.50026" lon="2.42795">
        <ele>115.495605</ele>
        <time>2009-05-16T05:59:31Z</time>
      </trkpt>
      <trkpt lat="50.49967" lon="2.42708">
        <ele>114.053589</ele>
        <time>2009-05-16T05:59:43Z</time>
      </trkpt>
      <trkpt lat="50.49945" lon="2.42683">
        <ele>114.053589</ele>
        <time>2009-05-16T05:59:47Z</time>
      </trkpt>
      <trkpt lat="50.49843" lon="2.42646">
        <ele>114.53418</ele>
        <time>2009-05-16T06:00:03Z</time>
      </trkpt>
      <trkpt lat="50.49748" lon="2.42621">
        <ele>114.53418</ele>
        <time>2009-05-16T06:00:18Z</time>
      </trkpt>
      <trkpt lat="50.49742" lon="2.4262">
        <ele>114.53418</ele>
        <time>2009-05-16T06:00:19Z</time>
      </trkpt>
      <trkpt lat="50.49717" lon="2.42611">
        <ele>114.53418</ele>
        <time>2009-05-16T06:00:23Z</time>
      </trkpt>
      <trkpt lat="50.49698" lon="2.42599">
        <ele>115.495605</ele>
        <time>2009-05-16T06:00:26Z</time>
      </trkpt>
      <trkpt lat="50.49665" lon="2.42595">
        <ele>115.495605</ele>
        <time>2009-05-16T06:00:31Z</time>
      </trkpt>
      <trkpt lat="50.49551" lon="2.42627">
        <ele>115.976196</ele>
        <time>2009-05-16T06:00:49Z</time>
      </trkpt>
      <trkpt lat="50.49491" lon="2.42631">
        <ele>115.976196</ele>
        <time>2009-05-16T06:00:58Z</time>
      </trkpt>
      <trkpt lat="50.49465" lon="2.42604">
        <ele>116.9375</ele>
        <time>2009-05-16T06:01:03Z</time>
      </trkpt>
      <trkpt lat="50.49447" lon="2.42542">
        <ele>117.898804</ele>
        <time>2009-05-16T06:01:10Z</time>
      </trkpt>
      <trkpt lat="50.49432" lon="2.42504">
        <ele>118.379395</ele>
        <time>2009-05-16T06:01:15Z</time>
      </trkpt>
      <trkpt lat="50.49391" lon="2.42455">
        <ele>120.782837</ele>
        <time>2009-05-16T06:01:24Z</time>
      </trkpt>
      <trkpt lat="50.49327" lon="2.42385">
        <ele>122.705444</ele>
        <time>2009-05-16T06:01:38Z</time>
      </trkpt>
      <trkpt lat="50.49318" lon="2.42373">
        <ele>123.186157</ele>
        <time>2009-05-16T06:01:40Z</time>
      </trkpt>
      <trkpt lat="50.4925" lon="2.42298">
        <ele>126.069946</ele>
        <time>2009-05-16T06:01:55Z</time>
      </trkpt>
      <trkpt lat="50.4919" lon="2.42231">
        <ele>128.473389</ele>
        <time>2009-05-16T06:02:09Z</time>
      </trkpt>
      <trkpt lat="50.49117" lon="2.42151">
        <ele>130.876709</ele>
        <time>2009-05-16T06:02:25Z</time>
      </trkpt>
      <trkpt lat="50.49042" lon="2.42071">
        <ele>128.954102</ele>
        <time>2009-05-16T06:02:40Z</time>
      </trkpt>
      <trkpt lat="50.49011" lon="2.42035">
        <ele>125.589355</ele>
        <time>2009-05-16T06:02:45Z</time>
      </trkpt>
      <trkpt lat="50.49004" lon="2.42027">
        <ele>125.589355</ele>
        <time>2009-05-16T06:02:46Z</time>
      </trkpt>
      <trkpt lat="50.48968" lon="2.4199">
        <ele>122.224731</ele>
        <time>2009-05-16T06:02:51Z</time>
      </trkpt>
      <trkpt lat="50.48945" lon="2.41966">
        <ele>120.302124</ele>
        <time>2009-05-16T06:02:54Z</time>
      </trkpt>
      <trkpt lat="50.48921" lon="2.41938">
        <ele>116.9375</ele>
        <time>2009-05-16T06:02:57Z</time>
      </trkpt>
      <trkpt lat="50.48913" lon="2.41928">
        <ele>116.456787</ele>
        <time>2009-05-16T06:02:58Z</time>
      </trkpt>
      <trkpt lat="50.48868" lon="2.4188">
        <ele>113.092285</ele>
        <time>2009-05-16T06:03:03Z</time>
      </trkpt>
      <trkpt lat="50.4884" lon="2.41849">
        <ele>111.169556</ele>
        <time>2009-05-16T06:03:06Z</time>
      </trkpt>
      <trkpt lat="50.48802" lon="2.41808">
        <ele>107.805054</ele>
        <time>2009-05-16T06:03:10Z</time>
      </trkpt>
      <trkpt lat="50.48766" lon="2.41767">
        <ele>104.921021</ele>
        <time>2009-05-16T06:03:14Z</time>
      </trkpt>
      <trkpt lat="50.48667" lon="2.41658">
        <ele>101.556396</ele>
        <time>2009-05-16T06:03:26Z</time>
      </trkpt>
      <trkpt lat="50.48603" lon="2.41605">
        <ele>98.191895</ele>
        <time>2009-05-16T06:03:34Z</time>
      </trkpt>
      <trkpt lat="50.48536" lon="2.41578">
        <ele>95.307739</ele>
        <time>2009-05-16T06:03:41Z</time>
      </trkpt>
      <trkpt lat="50.48493" lon="2.41563">
        <ele>91.943237</ele>
        <time>2009-05-16T06:03:45Z</time>
      </trkpt>
      <trkpt lat="50.48448" lon="2.41546">
        <ele>87.136597</ele>
        <time>2009-05-16T06:03:49Z</time>
      </trkpt>
      <trkpt lat="50.48406" lon="2.41521">
        <ele>84.252686</ele>
        <time>2009-05-16T06:03:53Z</time>
      </trkpt>
      <trkpt lat="50.48381" lon="2.41444">
        <ele>81.368774</ele>
        <time>2009-05-16T06:03:58Z</time>
      </trkpt>
      <trkpt lat="50.48381" lon="2.41427">
        <ele>80.888184</ele>
        <time>2009-05-16T06:03:59Z</time>
      </trkpt>
      <trkpt lat="50.48389" lon="2.4125">
        <ele>80.888184</ele>
        <time>2009-05-16T06:04:11Z</time>
      </trkpt>
      <trkpt lat="50.48394" lon="2.41189">
        <ele>80.888184</ele>
        <time>2009-05-16T06:04:16Z</time>
      </trkpt>
      <trkpt lat="50.48393" lon="2.41058">
        <ele>81.849365</ele>
        <time>2009-05-16T06:04:28Z</time>
      </trkpt>
      <trkpt lat="50.48395" lon="2.41038">
        <ele>81.849365</ele>
        <time>2009-05-16T06:04:30Z</time>
      </trkpt>
      <trkpt lat="50.48398" lon="2.41019">
        <ele>81.849365</ele>
        <time>2009-05-16T06:04:32Z</time>
      </trkpt>
      <trkpt lat="50.48382" lon="2.40979">
        <ele>81.368774</ele>
        <time>2009-05-16T06:04:39Z</time>
      </trkpt>
      <trkpt lat="50.48369" lon="2.40979">
        <ele>80.888184</ele>
        <time>2009-05-16T06:04:41Z</time>
      </trkpt>
      <trkpt lat="50.48348" lon="2.40982">
        <ele>80.407471</ele>
        <time>2009-05-16T06:04:44Z</time>
      </trkpt>
      <trkpt lat="50.48307" lon="2.40981">
        <ele>79.446045</ele>
        <time>2009-05-16T06:04:51Z</time>
      </trkpt>
      <trkpt lat="50.48296" lon="2.40917">
        <ele>79.926636</ele>
        <time>2009-05-16T06:04:57Z</time>
      </trkpt>
      <trkpt lat="50.48305" lon="2.40793">
        <ele>79.926636</ele>
        <time>2009-05-16T06:05:09Z</time>
      </trkpt>
      <trkpt lat="50.48307" lon="2.40774">
        <ele>79.926636</ele>
        <time>2009-05-16T06:05:11Z</time>
      </trkpt>
      <trkpt lat="50.48287" lon="2.40729">
        <ele>79.926636</ele>
        <time>2009-05-16T06:05:17Z</time>
      </trkpt>
      <trkpt lat="50.4823" lon="2.40672">
        <ele>79.446045</ele>
        <time>2009-05-16T06:05:27Z</time>
      </trkpt>
      <trkpt lat="50.48212" lon="2.40642">
        <ele>79.926636</ele>
        <time>2009-05-16T06:05:31Z</time>
      </trkpt>
      <trkpt lat="50.48207" lon="2.40624">
        <ele>79.926636</ele>
        <time>2009-05-16T06:05:33Z</time>
      </trkpt>
      <trkpt lat="50.48203" lon="2.40595">
        <ele>80.407471</ele>
        <time>2009-05-16T06:05:36Z</time>
      </trkpt>
      <trkpt lat="50.48205" lon="2.40555">
        <ele>80.888184</ele>
        <time>2009-05-16T06:05:40Z</time>
      </trkpt>
      <trkpt lat="50.48208" lon="2.40527">
        <ele>81.368774</ele>
        <time>2009-05-16T06:05:43Z</time>
      </trkpt>
      <trkpt lat="50.4819" lon="2.40491">
        <ele>82.330078</ele>
        <time>2009-05-16T06:05:49Z</time>
      </trkpt>
      <trkpt lat="50.48184" lon="2.40492">
        <ele>82.330078</ele>
        <time>2009-05-16T06:05:50Z</time>
      </trkpt>
      <trkpt lat="50.48122" lon="2.40513">
        <ele>83.291382</ele>
        <time>2009-05-16T06:06:01Z</time>
      </trkpt>
      <trkpt lat="50.48061" lon="2.40478">
        <ele>84.252686</ele>
        <time>2009-05-16T06:06:13Z</time>
      </trkpt>
      <trkpt lat="50.48003" lon="2.40421">
        <ele>87.136597</ele>
        <time>2009-05-16T06:06:26Z</time>
      </trkpt>
      <trkpt lat="50.47935" lon="2.40354">
        <ele>89.059326</ele>
        <time>2009-05-16T06:06:41Z</time>
      </trkpt>
      <trkpt lat="50.47852" lon="2.40289">
        <ele>89.539917</ele>
        <time>2009-05-16T06:06:58Z</time>
      </trkpt>
      <trkpt lat="50.47767" lon="2.40234">
        <ele>88.098022</ele>
        <time>2009-05-16T06:07:13Z</time>
      </trkpt>
      <trkpt lat="50.47727" lon="2.40202">
        <ele>87.617188</ele>
        <time>2009-05-16T06:07:20Z</time>
      </trkpt>
      <trkpt lat="50.47708" lon="2.40173">
        <ele>87.617188</ele>
        <time>2009-05-16T06:07:24Z</time>
      </trkpt>
      <trkpt lat="50.47645" lon="2.40096">
        <ele>87.617188</ele>
        <time>2009-05-16T06:07:37Z</time>
      </trkpt>
      <trkpt lat="50.4759" lon="2.39998">
        <ele>88.098022</ele>
        <time>2009-05-16T06:07:50Z</time>
      </trkpt>
      <trkpt lat="50.47553" lon="2.39876">
        <ele>89.059326</ele>
        <time>2009-05-16T06:08:04Z</time>
      </trkpt>
      <trkpt lat="50.47513" lon="2.39732">
        <ele>90.501343</ele>
        <time>2009-05-16T06:08:20Z</time>
      </trkpt>
      <trkpt lat="50.47474" lon="2.39619">
        <ele>91.943237</ele>
        <time>2009-05-16T06:08:33Z</time>
      </trkpt>
      <trkpt lat="50.47453" lon="2.3947">
        <ele>92.904541</ele>
        <time>2009-05-16T06:08:49Z</time>
      </trkpt>
      <trkpt lat="50.47428" lon="2.39321">
        <ele>93.865845</ele>
        <time>2009-05-16T06:09:05Z</time>
      </trkpt>
      <trkpt lat="50.47393" lon="2.39201">
        <ele>94.827148</ele>
        <time>2009-05-16T06:09:19Z</time>
      </trkpt>
      <trkpt lat="50.47377" lon="2.39152">
        <ele>95.307739</ele>
        <time>2009-05-16T06:09:25Z</time>
      </trkpt>
      <trkpt lat="50.47369" lon="2.39103">
        <ele>96.269287</ele>
        <time>2009-05-16T06:09:31Z</time>
      </trkpt>
      <trkpt lat="50.47354" lon="2.39102">
        <ele>96.269287</ele>
        <time>2009-05-16T06:09:36Z</time>
      </trkpt>
      <trkpt lat="50.47333" lon="2.39098">
        <ele>96.749878</ele>
        <time>2009-05-16T06:09:40Z</time>
      </trkpt>
      <trkpt lat="50.47301" lon="2.39076">
        <ele>98.191895</ele>
        <time>2009-05-16T06:09:48Z</time>
      </trkpt>
      <trkpt lat="50.47266" lon="2.39032">
        <ele>99.633789</ele>
        <time>2009-05-16T06:10:01Z</time>
      </trkpt>
      <trkpt lat="50.47245" lon="2.39005">
        <ele>99.633789</ele>
        <time>2009-05-16T06:11:17Z</time>
      </trkpt>
      <trkpt lat="50.47238" lon="2.38992">
        <ele>99.633789</ele>
        <time>2009-05-16T06:11:19Z</time>
      </trkpt>
      <trkpt lat="50.47214" lon="2.38925">
        <ele>101.556396</ele>
        <time>2009-05-16T06:11:27Z</time>
      </trkpt>
      <trkpt lat="50.47187" lon="2.38817">
        <ele>103.479004</ele>
        <time>2009-05-16T06:11:41Z</time>
      </trkpt>
      <trkpt lat="50.47178" lon="2.38753">
        <ele>104.44043</ele>
        <time>2009-05-16T06:11:49Z</time>
      </trkpt>
      <trkpt lat="50.47138" lon="2.38601">
        <ele>106.363037</ele>
        <time>2009-05-16T06:12:08Z</time>
      </trkpt>
      <trkpt lat="50.47121" lon="2.38542">
        <ele>107.324341</ele>
        <time>2009-05-16T06:12:16Z</time>
      </trkpt>
      <trkpt lat="50.47087" lon="2.38426">
        <ele>108.766235</ele>
        <time>2009-05-16T06:12:32Z</time>
      </trkpt>
      <trkpt lat="50.47054" lon="2.38324">
        <ele>110.208252</ele>
        <time>2009-05-16T06:12:47Z</time>
      </trkpt>
      <trkpt lat="50.47018" lon="2.38199">
        <ele>112.130981</ele>
        <time>2009-05-16T06:13:05Z</time>
      </trkpt>
      <trkpt lat="50.46995" lon="2.38128">
        <ele>113.572998</ele>
        <time>2009-05-16T06:13:16Z</time>
      </trkpt>
      <trkpt lat="50.46988" lon="2.38108">
        <ele>114.053589</ele>
        <time>2009-05-16T06:13:19Z</time>
      </trkpt>
      <trkpt lat="50.46957" lon="2.38012">
        <ele>116.456787</ele>
        <time>2009-05-16T06:13:34Z</time>
      </trkpt>
      <trkpt lat="50.46951" lon="2.37992">
        <ele>116.456787</ele>
        <time>2009-05-16T06:13:37Z</time>
      </trkpt>
      <trkpt lat="50.46925" lon="2.37878">
        <ele>118.860107</ele>
        <time>2009-05-16T06:13:52Z</time>
      </trkpt>
      <trkpt lat="50.46893" lon="2.37751">
        <ele>120.302124</ele>
        <time>2009-05-16T06:14:09Z</time>
      </trkpt>
      <trkpt lat="50.4687" lon="2.37614">
        <ele>123.186157</ele>
        <time>2009-05-16T06:14:27Z</time>
      </trkpt>
      <trkpt lat="50.4685" lon="2.37491">
        <ele>125.108765</ele>
        <time>2009-05-16T06:14:43Z</time>
      </trkpt>
      <trkpt lat="50.46834" lon="2.37365">
        <ele>127.031372</ele>
        <time>2009-05-16T06:14:59Z</time>
      </trkpt>
      <trkpt lat="50.46824" lon="2.37245">
        <ele>129.434692</ele>
        <time>2009-05-16T06:15:14Z</time>
      </trkpt>
      <trkpt lat="50.46814" lon="2.37153">
        <ele>131.3573</ele>
        <time>2009-05-16T06:15:26Z</time>
      </trkpt>
      <trkpt lat="50.46786" lon="2.37114">
        <ele>134.241211</ele>
        <time>2009-05-16T06:15:35Z</time>
      </trkpt>
      <trkpt lat="50.46741" lon="2.37103">
        <ele>138.086548</ele>
        <time>2009-05-16T06:15:46Z</time>
      </trkpt>
      <trkpt lat="50.46705" lon="2.37084">
        <ele>141.45105</ele>
        <time>2009-05-16T06:15:56Z</time>
      </trkpt>
      <trkpt lat="50.46667" lon="2.37047">
        <ele>144.815796</ele>
        <time>2009-05-16T06:16:09Z</time>
      </trkpt>
      <trkpt lat="50.46627" lon="2.37023">
        <ele>148.18042</ele>
        <time>2009-05-16T06:16:22Z</time>
      </trkpt>
      <trkpt lat="50.46625" lon="2.37018">
        <ele>148.661011</ele>
        <time>2009-05-16T06:16:34Z</time>
      </trkpt>
      <trkpt lat="50.46625" lon="2.37017">
        <ele>148.661011</ele>
        <time>2009-05-16T06:16:43Z</time>
      </trkpt>
      <trkpt lat="50.46632" lon="2.36967">
        <ele>149.141602</ele>
        <time>2009-05-16T06:16:54Z</time>
      </trkpt>
      <trkpt lat="50.46647" lon="2.36861">
        <ele>151.544922</ele>
        <time>2009-05-16T06:17:08Z</time>
      </trkpt>
      <trkpt lat="50.4666" lon="2.36759">
        <ele>152.506348</ele>
        <time>2009-05-16T06:17:22Z</time>
      </trkpt>
      <trkpt lat="50.46661" lon="2.36751">
        <ele>152.025757</ele>
        <time>2009-05-16T06:17:23Z</time>
      </trkpt>
      <trkpt lat="50.46671" lon="2.36662">
        <ele>152.025757</ele>
        <time>2009-05-16T06:17:34Z</time>
      </trkpt>
      <trkpt lat="50.46672" lon="2.36572">
        <ele>151.544922</ele>
        <time>2009-05-16T06:17:44Z</time>
      </trkpt>
      <trkpt lat="50.46659" lon="2.36427">
        <ele>152.506348</ele>
        <time>2009-05-16T06:18:01Z</time>
      </trkpt>
      <trkpt lat="50.46652" lon="2.36289">
        <ele>152.986938</ele>
        <time>2009-05-16T06:18:17Z</time>
      </trkpt>
      <trkpt lat="50.46637" lon="2.36134">
        <ele>154.428955</ele>
        <time>2009-05-16T06:18:35Z</time>
      </trkpt>
      <trkpt lat="50.46593" lon="2.36038">
        <ele>156.351563</ele>
        <time>2009-05-16T06:18:49Z</time>
      </trkpt>
      <trkpt lat="50.4654" lon="2.35935">
        <ele>157.793579</ele>
        <time>2009-05-16T06:19:05Z</time>
      </trkpt>
      <trkpt lat="50.46507" lon="2.35858">
        <ele>158.754761</ele>
        <time>2009-05-16T06:19:16Z</time>
      </trkpt>
      <trkpt lat="50.46464" lon="2.3574">
        <ele>160.196899</ele>
        <time>2009-05-16T06:19:32Z</time>
      </trkpt>
      <trkpt lat="50.46446" lon="2.35659">
        <ele>161.638916</ele>
        <time>2009-05-16T06:19:43Z</time>
      </trkpt>
      <trkpt lat="50.46452" lon="2.35622">
        <ele>162.600098</ele>
        <time>2009-05-16T06:19:49Z</time>
      </trkpt>
      <trkpt lat="50.46461" lon="2.35588">
        <ele>162.600098</ele>
        <time>2009-05-16T06:19:54Z</time>
      </trkpt>
      <trkpt lat="50.46457" lon="2.35463">
        <ele>163.561523</ele>
        <time>2009-05-16T06:20:08Z</time>
      </trkpt>
      <trkpt lat="50.46419" lon="2.35352">
        <ele>165.003418</ele>
        <time>2009-05-16T06:20:22Z</time>
      </trkpt>
      <trkpt lat="50.46409" lon="2.3532">
        <ele>165.484131</ele>
        <time>2009-05-16T06:20:26Z</time>
      </trkpt>
      <trkpt lat="50.46403" lon="2.35297">
        <ele>165.964722</ele>
        <time>2009-05-16T06:20:29Z</time>
      </trkpt>
      <trkpt lat="50.46367" lon="2.35204">
        <ele>167.887329</ele>
        <time>2009-05-16T06:20:42Z</time>
      </trkpt>
      <trkpt lat="50.4633" lon="2.35094">
        <ele>168.848755</ele>
        <time>2009-05-16T06:20:56Z</time>
      </trkpt>
      <trkpt lat="50.46306" lon="2.34998">
        <ele>169.329468</ele>
        <time>2009-05-16T06:21:08Z</time>
      </trkpt>
      <trkpt lat="50.46275" lon="2.34881">
        <ele>169.810059</ele>
        <time>2009-05-16T06:21:22Z</time>
      </trkpt>
      <trkpt lat="50.46265" lon="2.34848">
        <ele>170.290649</ele>
        <time>2009-05-16T06:21:26Z</time>
      </trkpt>
      <trkpt lat="50.4621" lon="2.34731">
        <ele>169.329468</ele>
        <time>2009-05-16T06:21:41Z</time>
      </trkpt>
      <trkpt lat="50.46129" lon="2.34612">
        <ele>168.368042</ele>
        <time>2009-05-16T06:21:57Z</time>
      </trkpt>
      <trkpt lat="50.46041" lon="2.34476">
        <ele>166.926025</ele>
        <time>2009-05-16T06:22:14Z</time>
      </trkpt>
      <trkpt lat="50.45927" lon="2.34322">
        <ele>165.003418</ele>
        <time>2009-05-16T06:22:34Z</time>
      </trkpt>
      <trkpt lat="50.45823" lon="2.34193">
        <ele>162.600098</ele>
        <time>2009-05-16T06:22:51Z</time>
      </trkpt>
      <trkpt lat="50.45702" lon="2.34031">
        <ele>159.235474</ele>
        <time>2009-05-16T06:23:11Z</time>
      </trkpt>
      <trkpt lat="50.456" lon="2.33893">
        <ele>157.793579</ele>
        <time>2009-05-16T06:23:28Z</time>
      </trkpt>
      <trkpt lat="50.4548" lon="2.33738">
        <ele>156.351563</ele>
        <time>2009-05-16T06:23:48Z</time>
      </trkpt>
      <trkpt lat="50.45364" lon="2.33602">
        <ele>153.467651</ele>
        <time>2009-05-16T06:24:07Z</time>
      </trkpt>
      <trkpt lat="50.45288" lon="2.33491">
        <ele>152.506348</ele>
        <time>2009-05-16T06:24:20Z</time>
      </trkpt>
      <trkpt lat="50.45196" lon="2.33387">
        <ele>149.622314</ele>
        <time>2009-05-16T06:24:34Z</time>
      </trkpt>
      <trkpt lat="50.45088" lon="2.3328">
        <ele>148.18042</ele>
        <time>2009-05-16T06:24:50Z</time>
      </trkpt>
      <trkpt lat="50.45032" lon="2.33217">
        <ele>147.699707</ele>
        <time>2009-05-16T06:24:59Z</time>
      </trkpt>
      <trkpt lat="50.44945" lon="2.33156">
        <ele>150.103027</ele>
        <time>2009-05-16T06:25:13Z</time>
      </trkpt>
      <trkpt lat="50.44869" lon="2.33076">
        <ele>152.506348</ele>
        <time>2009-05-16T06:25:27Z</time>
      </trkpt>
      <trkpt lat="50.44847" lon="2.33051">
        <ele>153.467651</ele>
        <time>2009-05-16T06:25:31Z</time>
      </trkpt>
      <trkpt lat="50.44813" lon="2.32978">
        <ele>153.467651</ele>
        <time>2009-05-16T06:25:40Z</time>
      </trkpt>
      <trkpt lat="50.44755" lon="2.32912">
        <ele>152.506348</ele>
        <time>2009-05-16T06:25:51Z</time>
      </trkpt>
      <trkpt lat="50.44717" lon="2.32797">
        <ele>151.064209</ele>
        <time>2009-05-16T06:26:03Z</time>
      </trkpt>
      <trkpt lat="50.4467" lon="2.3267">
        <ele>150.583618</ele>
        <time>2009-05-16T06:26:17Z</time>
      </trkpt>
      <trkpt lat="50.44613" lon="2.32542">
        <ele>150.103027</ele>
        <time>2009-05-16T06:26:32Z</time>
      </trkpt>
      <trkpt lat="50.44603" lon="2.32527">
        <ele>149.622314</ele>
        <time>2009-05-16T06:26:34Z</time>
      </trkpt>
      <trkpt lat="50.4456" lon="2.32525">
        <ele>149.622314</ele>
        <time>2009-05-16T06:26:41Z</time>
      </trkpt>
      <trkpt lat="50.44519" lon="2.3253">
        <ele>148.18042</ele>
        <time>2009-05-16T06:26:47Z</time>
      </trkpt>
      <trkpt lat="50.44472" lon="2.32497">
        <ele>147.218994</ele>
        <time>2009-05-16T06:26:54Z</time>
      </trkpt>
      <trkpt lat="50.44405" lon="2.32483">
        <ele>143.373657</ele>
        <time>2009-05-16T06:27:02Z</time>
      </trkpt>
      <trkpt lat="50.44376" lon="2.32481">
        <ele>140.970459</ele>
        <time>2009-05-16T06:27:05Z</time>
      </trkpt>
      <trkpt lat="50.44328" lon="2.32453">
        <ele>136.644653</ele>
        <time>2009-05-16T06:27:10Z</time>
      </trkpt>
      <trkpt lat="50.44308" lon="2.32434">
        <ele>135.202515</ele>
        <time>2009-05-16T06:27:12Z</time>
      </trkpt>
      <trkpt lat="50.44277" lon="2.32405">
        <ele>130.876709</ele>
        <time>2009-05-16T06:27:15Z</time>
      </trkpt>
      <trkpt lat="50.44226" lon="2.32358">
        <ele>127.511963</ele>
        <time>2009-05-16T06:27:20Z</time>
      </trkpt>
      <trkpt lat="50.44184" lon="2.32325">
        <ele>124.147339</ele>
        <time>2009-05-16T06:27:24Z</time>
      </trkpt>
      <trkpt lat="50.44136" lon="2.32275">
        <ele>120.782837</ele>
        <time>2009-05-16T06:27:29Z</time>
      </trkpt>
      <trkpt lat="50.44108" lon="2.32241">
        <ele>117.418213</ele>
        <time>2009-05-16T06:27:32Z</time>
      </trkpt>
      <trkpt lat="50.44072" lon="2.32199">
        <ele>115.495605</ele>
        <time>2009-05-16T06:27:36Z</time>
      </trkpt>
      <trkpt lat="50.44044" lon="2.32171">
        <ele>113.572998</ele>
        <time>2009-05-16T06:27:39Z</time>
      </trkpt>
      <trkpt lat="50.43965" lon="2.3214">
        <ele>111.169556</ele>
        <time>2009-05-16T06:27:47Z</time>
      </trkpt>
      <trkpt lat="50.43904" lon="2.32051">
        <ele>108.285645</ele>
        <time>2009-05-16T06:27:56Z</time>
      </trkpt>
      <trkpt lat="50.43831" lon="2.31906">
        <ele>105.882446</ele>
        <time>2009-05-16T06:28:09Z</time>
      </trkpt>
      <trkpt lat="50.43805" lon="2.31828">
        <ele>106.843628</ele>
        <time>2009-05-16T06:28:16Z</time>
      </trkpt>
      <trkpt lat="50.43798" lon="2.31808">
        <ele>107.805054</ele>
        <time>2009-05-16T06:28:18Z</time>
      </trkpt>
      <trkpt lat="50.43732" lon="2.31722">
        <ele>109.727661</ele>
        <time>2009-05-16T06:28:30Z</time>
      </trkpt>
      <trkpt lat="50.43628" lon="2.31592">
        <ele>108.285645</ele>
        <time>2009-05-16T06:28:48Z</time>
      </trkpt>
      <trkpt lat="50.43562" lon="2.315">
        <ele>104.921021</ele>
        <time>2009-05-16T06:28:59Z</time>
      </trkpt>
      <trkpt lat="50.43489" lon="2.31414">
        <ele>101.556396</ele>
        <time>2009-05-16T06:29:10Z</time>
      </trkpt>
      <trkpt lat="50.43418" lon="2.31364">
        <ele>98.672485</ele>
        <time>2009-05-16T06:29:19Z</time>
      </trkpt>
      <trkpt lat="50.43342" lon="2.31312">
        <ele>95.307739</ele>
        <time>2009-05-16T06:29:28Z</time>
      </trkpt>
      <trkpt lat="50.4332" lon="2.31284">
        <ele>94.346558</ele>
        <time>2009-05-16T06:29:31Z</time>
      </trkpt>
      <trkpt lat="50.43249" lon="2.31112">
        <ele>91.943237</ele>
        <time>2009-05-16T06:29:46Z</time>
      </trkpt>
      <trkpt lat="50.4318" lon="2.3096">
        <ele>89.539917</ele>
        <time>2009-05-16T06:30:01Z</time>
      </trkpt>
      <trkpt lat="50.43166" lon="2.30948">
        <ele>89.059326</ele>
        <time>2009-05-16T06:30:03Z</time>
      </trkpt>
      <trkpt lat="50.43112" lon="2.30939">
        <ele>88.098022</ele>
        <time>2009-05-16T06:30:10Z</time>
      </trkpt>
      <trkpt lat="50.4298" lon="2.30969">
        <ele>85.69458</ele>
        <time>2009-05-16T06:30:27Z</time>
      </trkpt>
      <trkpt lat="50.42883" lon="2.3095">
        <ele>83.291382</ele>
        <time>2009-05-16T06:30:39Z</time>
      </trkpt>
      <trkpt lat="50.42778" lon="2.30874">
        <ele>82.330078</ele>
        <time>2009-05-16T06:30:54Z</time>
      </trkpt>
      <trkpt lat="50.42688" lon="2.30772">
        <ele>82.810791</ele>
        <time>2009-05-16T06:31:09Z</time>
      </trkpt>
      <trkpt lat="50.42581" lon="2.3072">
        <ele>80.888184</ele>
        <time>2009-05-16T06:31:24Z</time>
      </trkpt>
      <trkpt lat="50.42451" lon="2.30681">
        <ele>78.484741</ele>
        <time>2009-05-16T06:31:41Z</time>
      </trkpt>
      <trkpt lat="50.42343" lon="2.30668">
        <ele>78.965454</ele>
        <time>2009-05-16T06:31:56Z</time>
      </trkpt>
      <trkpt lat="50.42243" lon="2.30655">
        <ele>79.446045</ele>
        <time>2009-05-16T06:32:11Z</time>
      </trkpt>
      <trkpt lat="50.42197" lon="2.30638">
        <ele>77.042847</ele>
        <time>2009-05-16T06:32:17Z</time>
      </trkpt>
      <trkpt lat="50.42146" lon="2.30621">
        <ele>73.678223</ele>
        <time>2009-05-16T06:32:23Z</time>
      </trkpt>
      <trkpt lat="50.42103" lon="2.30602">
        <ele>71.755493</ele>
        <time>2009-05-16T06:32:28Z</time>
      </trkpt>
      <trkpt lat="50.42072" lon="2.3059">
        <ele>71.274902</ele>
        <time>2009-05-16T06:32:32Z</time>
      </trkpt>
      <trkpt lat="50.42036" lon="2.30582">
        <ele>71.755493</ele>
        <time>2009-05-16T06:32:37Z</time>
      </trkpt>
      <trkpt lat="50.41968" lon="2.30606">
        <ele>71.274902</ele>
        <time>2009-05-16T06:32:47Z</time>
      </trkpt>
      <trkpt lat="50.4194" lon="2.30578">
        <ele>71.755493</ele>
        <time>2009-05-16T06:32:53Z</time>
      </trkpt>
      <trkpt lat="50.41936" lon="2.30556">
        <ele>71.755493</ele>
        <time>2009-05-16T06:32:55Z</time>
      </trkpt>
      <trkpt lat="50.41921" lon="2.30474">
        <ele>71.274902</ele>
        <time>2009-05-16T06:33:03Z</time>
      </trkpt>
      <trkpt lat="50.41908" lon="2.30462">
        <ele>71.755493</ele>
        <time>2009-05-16T06:33:07Z</time>
      </trkpt>
      <trkpt lat="50.41895" lon="2.30465">
        <ele>72.716919</ele>
        <time>2009-05-16T06:33:10Z</time>
      </trkpt>
      <trkpt lat="50.41866" lon="2.30468">
        <ele>75.60083</ele>
        <time>2009-05-16T06:33:17Z</time>
      </trkpt>
      <trkpt lat="50.41852" lon="2.30471">
        <ele>77.523438</ele>
        <time>2009-05-16T06:33:21Z</time>
      </trkpt>
      <trkpt lat="50.41833" lon="2.30488">
        <ele>81.368774</ele>
        <time>2009-05-16T06:33:27Z</time>
      </trkpt>
      <trkpt lat="50.41829" lon="2.30493">
        <ele>82.330078</ele>
        <time>2009-05-16T06:33:29Z</time>
      </trkpt>
      <trkpt lat="50.41818" lon="2.30508">
        <ele>84.733398</ele>
        <time>2009-05-16T06:33:33Z</time>
      </trkpt>
      <trkpt lat="50.41793" lon="2.30526">
        <ele>88.578735</ele>
        <time>2009-05-16T06:33:39Z</time>
      </trkpt>
      <trkpt lat="50.41775" lon="2.30537">
        <ele>90.981934</ele>
        <time>2009-05-16T06:33:44Z</time>
      </trkpt>
      <trkpt lat="50.41742" lon="2.3056">
        <ele>93.865845</ele>
        <time>2009-05-16T06:33:57Z</time>
      </trkpt>
      <trkpt lat="50.41706" lon="2.30588">
        <ele>92.904541</ele>
        <time>2009-05-16T06:34:09Z</time>
      </trkpt>
      <trkpt lat="50.41648" lon="2.30632">
        <ele>93.385132</ele>
        <time>2009-05-16T06:34:23Z</time>
      </trkpt>
      <trkpt lat="50.4162" lon="2.3065">
        <ele>91.462524</ele>
        <time>2009-05-16T06:34:29Z</time>
      </trkpt>
      <trkpt lat="50.41558" lon="2.30693">
        <ele>88.098022</ele>
        <time>2009-05-16T06:34:40Z</time>
      </trkpt>
      <trkpt lat="50.41542" lon="2.30705">
        <ele>89.059326</ele>
        <time>2009-05-16T06:34:43Z</time>
      </trkpt>
      <trkpt lat="50.41532" lon="2.3071">
        <ele>89.539917</ele>
        <time>2009-05-16T06:34:45Z</time>
      </trkpt>
      <trkpt lat="50.4147" lon="2.30747">
        <ele>88.098022</ele>
        <time>2009-05-16T06:34:56Z</time>
      </trkpt>
      <trkpt lat="50.41373" lon="2.30782">
        <ele>89.539917</ele>
        <time>2009-05-16T06:35:13Z</time>
      </trkpt>
      <trkpt lat="50.41292" lon="2.30818">
        <ele>90.02063</ele>
        <time>2009-05-16T06:35:28Z</time>
      </trkpt>
      <trkpt lat="50.41287" lon="2.30821">
        <ele>90.501343</ele>
        <time>2009-05-16T06:35:29Z</time>
      </trkpt>
      <trkpt lat="50.41204" lon="2.30844">
        <ele>93.865845</ele>
        <time>2009-05-16T06:35:44Z</time>
      </trkpt>
      <trkpt lat="50.41161" lon="2.30851">
        <ele>94.827148</ele>
        <time>2009-05-16T06:35:52Z</time>
      </trkpt>
      <trkpt lat="50.41086" lon="2.30871">
        <ele>98.191895</ele>
        <time>2009-05-16T06:36:07Z</time>
      </trkpt>
      <trkpt lat="50.4104" lon="2.30887">
        <ele>100.114502</ele>
        <time>2009-05-16T06:36:17Z</time>
      </trkpt>
      <trkpt lat="50.41024" lon="2.30895">
        <ele>101.075684</ele>
        <time>2009-05-16T06:36:21Z</time>
      </trkpt>
      <trkpt lat="50.41013" lon="2.30897">
        <ele>101.075684</ele>
        <time>2009-05-16T06:36:24Z</time>
      </trkpt>
      <trkpt lat="50.40997" lon="2.30886">
        <ele>99.153076</ele>
        <time>2009-05-16T06:36:28Z</time>
      </trkpt>
      <trkpt lat="50.40978" lon="2.30849">
        <ele>95.307739</ele>
        <time>2009-05-16T06:36:32Z</time>
      </trkpt>
      <trkpt lat="50.40956" lon="2.30802">
        <ele>91.462524</ele>
        <time>2009-05-16T06:36:36Z</time>
      </trkpt>
      <trkpt lat="50.40937" lon="2.30767">
        <ele>88.098022</ele>
        <time>2009-05-16T06:36:39Z</time>
      </trkpt>
      <trkpt lat="50.40904" lon="2.3074">
        <ele>85.213989</ele>
        <time>2009-05-16T06:36:43Z</time>
      </trkpt>
      <trkpt lat="50.40885" lon="2.30737">
        <ele>84.252686</ele>
        <time>2009-05-16T06:36:45Z</time>
      </trkpt>
      <trkpt lat="50.40848" lon="2.30736">
        <ele>81.849365</ele>
        <time>2009-05-16T06:36:49Z</time>
      </trkpt>
      <trkpt lat="50.40817" lon="2.30719">
        <ele>79.446045</ele>
        <time>2009-05-16T06:36:53Z</time>
      </trkpt>
      <trkpt lat="50.40805" lon="2.30683">
        <ele>77.523438</ele>
        <time>2009-05-16T06:36:56Z</time>
      </trkpt>
      <trkpt lat="50.40801" lon="2.30566">
        <ele>73.678223</ele>
        <time>2009-05-16T06:37:04Z</time>
      </trkpt>
      <trkpt lat="50.40778" lon="2.30535">
        <ele>73.678223</ele>
        <time>2009-05-16T06:37:11Z</time>
      </trkpt>
      <trkpt lat="50.40733" lon="2.30571">
        <ele>75.120239</ele>
        <time>2009-05-16T06:37:21Z</time>
      </trkpt>
      <trkpt lat="50.40712" lon="2.30543">
        <ele>74.158813</ele>
        <time>2009-05-16T06:37:27Z</time>
      </trkpt>
      <trkpt lat="50.40706" lon="2.30525">
        <ele>74.158813</ele>
        <time>2009-05-16T06:37:29Z</time>
      </trkpt>
      <trkpt lat="50.40677" lon="2.305">
        <ele>73.678223</ele>
        <time>2009-05-16T06:37:35Z</time>
      </trkpt>
      <trkpt lat="50.4063" lon="2.30485">
        <ele>74.639526</ele>
        <time>2009-05-16T06:37:44Z</time>
      </trkpt>
      <trkpt lat="50.40627" lon="2.30471">
        <ele>74.639526</ele>
        <time>2009-05-16T06:37:46Z</time>
      </trkpt>
      <trkpt lat="50.40604" lon="2.30396">
        <ele>74.158813</ele>
        <time>2009-05-16T06:37:57Z</time>
      </trkpt>
      <trkpt lat="50.40567" lon="2.30263">
        <ele>73.678223</ele>
        <time>2009-05-16T06:38:13Z</time>
      </trkpt>
      <trkpt lat="50.40565" lon="2.30256">
        <ele>73.678223</ele>
        <time>2009-05-16T06:38:14Z</time>
      </trkpt>
      <trkpt lat="50.40537" lon="2.3023">
        <ele>73.678223</ele>
        <time>2009-05-16T06:38:21Z</time>
      </trkpt>
      <trkpt lat="50.40516" lon="2.30232">
        <ele>74.158813</ele>
        <time>2009-05-16T06:38:25Z</time>
      </trkpt>
      <trkpt lat="50.40478" lon="2.3025">
        <ele>75.120239</ele>
        <time>2009-05-16T06:38:34Z</time>
      </trkpt>
      <trkpt lat="50.40459" lon="2.3023">
        <ele>77.042847</ele>
        <time>2009-05-16T06:38:43Z</time>
      </trkpt>
      <trkpt lat="50.40459" lon="2.30229">
        <ele>77.042847</ele>
        <time>2009-05-16T06:39:08Z</time>
      </trkpt>
      <trkpt lat="50.40445" lon="2.30212">
        <ele>77.042847</ele>
        <time>2009-05-16T06:40:22Z</time>
      </trkpt>
      <trkpt lat="50.40405" lon="2.30151">
        <ele>79.446045</ele>
        <time>2009-05-16T06:40:33Z</time>
      </trkpt>
      <trkpt lat="50.40391" lon="2.3013">
        <ele>81.368774</ele>
        <time>2009-05-16T06:40:37Z</time>
      </trkpt>
      <trkpt lat="50.40386" lon="2.3012">
        <ele>81.849365</ele>
        <time>2009-05-16T06:40:39Z</time>
      </trkpt>
      <trkpt lat="50.40359" lon="2.30079">
        <ele>84.733398</ele>
        <time>2009-05-16T06:40:47Z</time>
      </trkpt>
      <trkpt lat="50.40349" lon="2.30062">
        <ele>85.213989</ele>
        <time>2009-05-16T06:40:50Z</time>
      </trkpt>
      <trkpt lat="50.40337" lon="2.30044">
        <ele>86.175293</ele>
        <time>2009-05-16T06:40:54Z</time>
      </trkpt>
      <trkpt lat="50.40314" lon="2.30006">
        <ele>89.539917</ele>
        <time>2009-05-16T06:41:02Z</time>
      </trkpt>
      <trkpt lat="50.40286" lon="2.29962">
        <ele>92.904541</ele>
        <time>2009-05-16T06:41:13Z</time>
      </trkpt>
      <trkpt lat="50.40257" lon="2.29921">
        <ele>95.788452</ele>
        <time>2009-05-16T06:41:25Z</time>
      </trkpt>
      <trkpt lat="50.40229" lon="2.29886">
        <ele>99.153076</ele>
        <time>2009-05-16T06:41:36Z</time>
      </trkpt>
      <trkpt lat="50.40186" lon="2.2985">
        <ele>102.037109</ele>
        <time>2009-05-16T06:41:51Z</time>
      </trkpt>
      <trkpt lat="50.40149" lon="2.29818">
        <ele>105.401733</ele>
        <time>2009-05-16T06:42:04Z</time>
      </trkpt>
      <trkpt lat="50.40116" lon="2.2979">
        <ele>108.285645</ele>
        <time>2009-05-16T06:42:16Z</time>
      </trkpt>
      <trkpt lat="50.40069" lon="2.29748">
        <ele>111.169556</ele>
        <time>2009-05-16T06:42:32Z</time>
      </trkpt>
      <trkpt lat="50.4002" lon="2.29701">
        <ele>114.53418</ele>
        <time>2009-05-16T06:42:48Z</time>
      </trkpt>
      <trkpt lat="50.39997" lon="2.29672">
        <ele>115.014893</ele>
        <time>2009-05-16T06:42:56Z</time>
      </trkpt>
      <trkpt lat="50.39993" lon="2.29626">
        <ele>115.014893</ele>
        <time>2009-05-16T06:43:03Z</time>
      </trkpt>
      <trkpt lat="50.40014" lon="2.2949">
        <ele>117.418213</ele>
        <time>2009-05-16T06:43:20Z</time>
      </trkpt>
      <trkpt lat="50.40023" lon="2.29386">
        <ele>119.821411</ele>
        <time>2009-05-16T06:43:34Z</time>
      </trkpt>
      <trkpt lat="50.40027" lon="2.29343">
        <ele>120.782837</ele>
        <time>2009-05-16T06:43:40Z</time>
      </trkpt>
      <trkpt lat="50.40056" lon="2.29234">
        <ele>122.705444</ele>
        <time>2009-05-16T06:43:56Z</time>
      </trkpt>
      <trkpt lat="50.40063" lon="2.29208">
        <ele>122.705444</ele>
        <time>2009-05-16T06:44:00Z</time>
      </trkpt>
      <trkpt lat="50.40066" lon="2.29172">
        <ele>122.705444</ele>
        <time>2009-05-16T06:44:05Z</time>
      </trkpt>
      <trkpt lat="50.40062" lon="2.29144">
        <ele>123.186157</ele>
        <time>2009-05-16T06:44:09Z</time>
      </trkpt>
      <trkpt lat="50.40055" lon="2.29119">
        <ele>123.666748</ele>
        <time>2009-05-16T06:44:13Z</time>
      </trkpt>
      <trkpt lat="50.40048" lon="2.291">
        <ele>123.666748</ele>
        <time>2009-05-16T06:44:16Z</time>
      </trkpt>
      <trkpt lat="50.40006" lon="2.28995">
        <ele>123.186157</ele>
        <time>2009-05-16T06:44:33Z</time>
      </trkpt>
      <trkpt lat="50.39998" lon="2.28974">
        <ele>123.666748</ele>
        <time>2009-05-16T06:44:36Z</time>
      </trkpt>
      <trkpt lat="50.39987" lon="2.28936">
        <ele>123.666748</ele>
        <time>2009-05-16T06:44:41Z</time>
      </trkpt>
      <trkpt lat="50.3998" lon="2.28894">
        <ele>123.666748</ele>
        <time>2009-05-16T06:44:46Z</time>
      </trkpt>
      <trkpt lat="50.39965" lon="2.28752">
        <ele>123.666748</ele>
        <time>2009-05-16T06:45:03Z</time>
      </trkpt>
      <trkpt lat="50.39962" lon="2.28727">
        <ele>124.147339</ele>
        <time>2009-05-16T06:45:06Z</time>
      </trkpt>
      <trkpt lat="50.39954" lon="2.28676">
        <ele>124.147339</ele>
        <time>2009-05-16T06:45:12Z</time>
      </trkpt>
      <trkpt lat="50.39932" lon="2.28558">
        <ele>124.147339</ele>
        <time>2009-05-16T06:45:26Z</time>
      </trkpt>
      <trkpt lat="50.39922" lon="2.28498">
        <ele>124.628052</ele>
        <time>2009-05-16T06:45:33Z</time>
      </trkpt>
      <trkpt lat="50.39929" lon="2.28386">
        <ele>125.108765</ele>
        <time>2009-05-16T06:45:46Z</time>
      </trkpt>
      <trkpt lat="50.39932" lon="2.2826">
        <ele>126.069946</ele>
        <time>2009-05-16T06:46:00Z</time>
      </trkpt>
      <trkpt lat="50.39936" lon="2.28098">
        <ele>126.069946</ele>
        <time>2009-05-16T06:46:17Z</time>
      </trkpt>
      <trkpt lat="50.39947" lon="2.27952">
        <ele>126.069946</ele>
        <time>2009-05-16T06:46:32Z</time>
      </trkpt>
      <trkpt lat="50.39949" lon="2.27912">
        <ele>126.069946</ele>
        <time>2009-05-16T06:46:36Z</time>
      </trkpt>
      <trkpt lat="50.39948" lon="2.27772">
        <ele>127.031372</ele>
        <time>2009-05-16T06:46:50Z</time>
      </trkpt>
      <trkpt lat="50.39953" lon="2.27635">
        <ele>127.031372</ele>
        <time>2009-05-16T06:47:04Z</time>
      </trkpt>
      <trkpt lat="50.39974" lon="2.27446">
        <ele>125.589355</ele>
        <time>2009-05-16T06:47:22Z</time>
      </trkpt>
      <trkpt lat="50.39978" lon="2.27402">
        <ele>125.108765</ele>
        <time>2009-05-16T06:47:26Z</time>
      </trkpt>
      <trkpt lat="50.39987" lon="2.2728">
        <ele>123.666748</ele>
        <time>2009-05-16T06:47:38Z</time>
      </trkpt>
      <trkpt lat="50.39995" lon="2.27237">
        <ele>123.666748</ele>
        <time>2009-05-16T06:47:43Z</time>
      </trkpt>
      <trkpt lat="50.40011" lon="2.27203">
        <ele>122.705444</ele>
        <time>2009-05-16T06:47:47Z</time>
      </trkpt>
      <trkpt lat="50.40019" lon="2.27177">
        <ele>122.224731</ele>
        <time>2009-05-16T06:47:50Z</time>
      </trkpt>
      <trkpt lat="50.40014" lon="2.27122">
        <ele>121.26355</ele>
        <time>2009-05-16T06:47:57Z</time>
      </trkpt>
      <trkpt lat="50.39968" lon="2.27015">
        <ele>122.224731</ele>
        <time>2009-05-16T06:48:11Z</time>
      </trkpt>
      <trkpt lat="50.3995" lon="2.26894">
        <ele>124.628052</ele>
        <time>2009-05-16T06:48:25Z</time>
      </trkpt>
      <trkpt lat="50.39923" lon="2.26783">
        <ele>127.511963</ele>
        <time>2009-05-16T06:48:40Z</time>
      </trkpt>
      <trkpt lat="50.3992" lon="2.26777">
        <ele>127.511963</ele>
        <time>2009-05-16T06:48:41Z</time>
      </trkpt>
      <trkpt lat="50.39877" lon="2.26693">
        <ele>130.876709</ele>
        <time>2009-05-16T06:48:55Z</time>
      </trkpt>
      <trkpt lat="50.39852" lon="2.26664">
        <ele>131.837891</ele>
        <time>2009-05-16T06:49:01Z</time>
      </trkpt>
      <trkpt lat="50.39833" lon="2.26636">
        <ele>130.876709</ele>
        <time>2009-05-16T06:49:06Z</time>
      </trkpt>
      <trkpt lat="50.39816" lon="2.2658">
        <ele>130.395996</ele>
        <time>2009-05-16T06:49:13Z</time>
      </trkpt>
      <trkpt lat="50.39813" lon="2.26562">
        <ele>129.915283</ele>
        <time>2009-05-16T06:49:15Z</time>
      </trkpt>
      <trkpt lat="50.39761" lon="2.26447">
        <ele>127.511963</ele>
        <time>2009-05-16T06:49:28Z</time>
      </trkpt>
      <trkpt lat="50.39699" lon="2.26342">
        <ele>126.069946</ele>
        <time>2009-05-16T06:49:41Z</time>
      </trkpt>
      <trkpt lat="50.39631" lon="2.26225">
        <ele>124.628052</ele>
        <time>2009-05-16T06:49:56Z</time>
      </trkpt>
      <trkpt lat="50.39566" lon="2.26116">
        <ele>126.069946</ele>
        <time>2009-05-16T06:50:11Z</time>
      </trkpt>
      <trkpt lat="50.3951" lon="2.25992">
        <ele>127.511963</ele>
        <time>2009-05-16T06:50:27Z</time>
      </trkpt>
      <trkpt lat="50.39455" lon="2.25878">
        <ele>127.992554</ele>
        <time>2009-05-16T06:50:42Z</time>
      </trkpt>
      <trkpt lat="50.39399" lon="2.2579">
        <ele>129.915283</ele>
        <time>2009-05-16T06:50:56Z</time>
      </trkpt>
      <trkpt lat="50.39352" lon="2.25724">
        <ele>132.799316</ele>
        <time>2009-05-16T06:51:09Z</time>
      </trkpt>
      <trkpt lat="50.39346" lon="2.25715">
        <ele>133.279907</ele>
        <time>2009-05-16T06:51:11Z</time>
      </trkpt>
      <trkpt lat="50.39329" lon="2.25697">
        <ele>136.16394</ele>
        <time>2009-05-16T06:51:16Z</time>
      </trkpt>
      <trkpt lat="50.39304" lon="2.25667">
        <ele>139.047852</ele>
        <time>2009-05-16T06:51:24Z</time>
      </trkpt>
      <trkpt lat="50.3929" lon="2.25655">
        <ele>140.970459</ele>
        <time>2009-05-16T06:51:28Z</time>
      </trkpt>
      <trkpt lat="50.39256" lon="2.2564">
        <ele>144.335205</ele>
        <time>2009-05-16T06:51:38Z</time>
      </trkpt>
      <trkpt lat="50.39245" lon="2.25639">
        <ele>145.7771</ele>
        <time>2009-05-16T06:51:41Z</time>
      </trkpt>
      <trkpt lat="50.39213" lon="2.25634">
        <ele>149.141602</ele>
        <time>2009-05-16T06:51:50Z</time>
      </trkpt>
      <trkpt lat="50.39149" lon="2.25619">
        <ele>150.583618</ele>
        <time>2009-05-16T06:52:06Z</time>
      </trkpt>
      <trkpt lat="50.39086" lon="2.25568">
        <ele>147.699707</ele>
        <time>2009-05-16T06:52:19Z</time>
      </trkpt>
      <trkpt lat="50.39048" lon="2.25515">
        <ele>143.85437</ele>
        <time>2009-05-16T06:52:27Z</time>
      </trkpt>
      <trkpt lat="50.39039" lon="2.25501">
        <ele>143.373657</ele>
        <time>2009-05-16T06:52:29Z</time>
      </trkpt>
      <trkpt lat="50.39013" lon="2.25466">
        <ele>140.970459</ele>
        <time>2009-05-16T06:52:34Z</time>
      </trkpt>
      <trkpt lat="50.38954" lon="2.25439">
        <ele>135.683105</ele>
        <time>2009-05-16T06:52:42Z</time>
      </trkpt>
      <trkpt lat="50.3893" lon="2.25431">
        <ele>134.241211</ele>
        <time>2009-05-16T06:52:45Z</time>
      </trkpt>
      <trkpt lat="50.38883" lon="2.25416">
        <ele>132.318604</ele>
        <time>2009-05-16T06:52:51Z</time>
      </trkpt>
      <trkpt lat="50.38859" lon="2.25407">
        <ele>130.395996</ele>
        <time>2009-05-16T06:52:54Z</time>
      </trkpt>
      <trkpt lat="50.38796" lon="2.25379">
        <ele>127.031372</ele>
        <time>2009-05-16T06:53:02Z</time>
      </trkpt>
      <trkpt lat="50.38788" lon="2.25376">
        <ele>126.550659</ele>
        <time>2009-05-16T06:53:03Z</time>
      </trkpt>
      <trkpt lat="50.38696" lon="2.2531">
        <ele>123.666748</ele>
        <time>2009-05-16T06:53:16Z</time>
      </trkpt>
      <trkpt lat="50.38626" lon="2.25219">
        <ele>123.186157</ele>
        <time>2009-05-16T06:53:30Z</time>
      </trkpt>
      <trkpt lat="50.38596" lon="2.25179">
        <ele>122.705444</ele>
        <time>2009-05-16T06:53:37Z</time>
      </trkpt>
      <trkpt lat="50.38525" lon="2.25123">
        <ele>122.224731</ele>
        <time>2009-05-16T06:53:49Z</time>
      </trkpt>
      <trkpt lat="50.38434" lon="2.25045">
        <ele>121.26355</ele>
        <time>2009-05-16T06:54:05Z</time>
      </trkpt>
      <trkpt lat="50.38343" lon="2.24997">
        <ele>120.302124</ele>
        <time>2009-05-16T06:54:20Z</time>
      </trkpt>
      <trkpt lat="50.3824" lon="2.24942">
        <ele>119.34082</ele>
        <time>2009-05-16T06:54:37Z</time>
      </trkpt>
      <trkpt lat="50.38168" lon="2.24899">
        <ele>121.26355</ele>
        <time>2009-05-16T06:54:50Z</time>
      </trkpt>
      <trkpt lat="50.381" lon="2.24837">
        <ele>124.147339</ele>
        <time>2009-05-16T06:55:04Z</time>
      </trkpt>
      <trkpt lat="50.37997" lon="2.24743">
        <ele>122.224731</ele>
        <time>2009-05-16T06:55:23Z</time>
      </trkpt>
      <trkpt lat="50.379" lon="2.24665">
        <ele>122.224731</ele>
        <time>2009-05-16T06:55:40Z</time>
      </trkpt>
      <trkpt lat="50.37807" lon="2.24615">
        <ele>125.108765</ele>
        <time>2009-05-16T06:55:57Z</time>
      </trkpt>
      <trkpt lat="50.37756" lon="2.24588">
        <ele>127.031372</ele>
        <time>2009-05-16T06:56:07Z</time>
      </trkpt>
      <trkpt lat="50.37704" lon="2.24544">
        <ele>127.511963</ele>
        <time>2009-05-16T06:56:18Z</time>
      </trkpt>
      <trkpt lat="50.37658" lon="2.24456">
        <ele>127.511963</ele>
        <time>2009-05-16T06:56:30Z</time>
      </trkpt>
      <trkpt lat="50.37654" lon="2.24375">
        <ele>126.550659</ele>
        <time>2009-05-16T06:56:38Z</time>
      </trkpt>
      <trkpt lat="50.37658" lon="2.24365">
        <ele>126.550659</ele>
        <time>2009-05-16T06:56:39Z</time>
      </trkpt>
      <trkpt lat="50.37665" lon="2.24345">
        <ele>126.550659</ele>
        <time>2009-05-16T06:56:41Z</time>
      </trkpt>
      <trkpt lat="50.3767" lon="2.24276">
        <ele>125.108765</ele>
        <time>2009-05-16T06:56:47Z</time>
      </trkpt>
      <trkpt lat="50.37652" lon="2.2408">
        <ele>122.705444</ele>
        <time>2009-05-16T06:57:03Z</time>
      </trkpt>
      <trkpt lat="50.37639" lon="2.24037">
        <ele>122.224731</ele>
        <time>2009-05-16T06:57:07Z</time>
      </trkpt>
      <trkpt lat="50.37595" lon="2.23956">
        <ele>122.224731</ele>
        <time>2009-05-16T06:57:16Z</time>
      </trkpt>
      <trkpt lat="50.37587" lon="2.23936">
        <ele>122.224731</ele>
        <time>2009-05-16T06:57:18Z</time>
      </trkpt>
      <trkpt lat="50.37575" lon="2.23856">
        <ele>122.224731</ele>
        <time>2009-05-16T06:57:25Z</time>
      </trkpt>
      <trkpt lat="50.37566" lon="2.2381">
        <ele>122.224731</ele>
        <time>2009-05-16T06:57:29Z</time>
      </trkpt>
      <trkpt lat="50.37554" lon="2.2378">
        <ele>121.26355</ele>
        <time>2009-05-16T06:57:32Z</time>
      </trkpt>
      <trkpt lat="50.37546" lon="2.2376">
        <ele>121.744141</ele>
        <time>2009-05-16T06:57:34Z</time>
      </trkpt>
      <trkpt lat="50.37539" lon="2.23717">
        <ele>121.26355</ele>
        <time>2009-05-16T06:57:38Z</time>
      </trkpt>
      <trkpt lat="50.37538" lon="2.23669">
        <ele>121.744141</ele>
        <time>2009-05-16T06:57:42Z</time>
      </trkpt>
      <trkpt lat="50.37543" lon="2.23633">
        <ele>121.26355</ele>
        <time>2009-05-16T06:57:45Z</time>
      </trkpt>
      <trkpt lat="50.37561" lon="2.23579">
        <ele>120.782837</ele>
        <time>2009-05-16T06:57:50Z</time>
      </trkpt>
      <trkpt lat="50.37551" lon="2.23488">
        <ele>119.34082</ele>
        <time>2009-05-16T06:57:58Z</time>
      </trkpt>
      <trkpt lat="50.37485" lon="2.23357">
        <ele>116.9375</ele>
        <time>2009-05-16T06:58:12Z</time>
      </trkpt>
      <trkpt lat="50.37476" lon="2.23288">
        <ele>116.9375</ele>
        <time>2009-05-16T06:58:18Z</time>
      </trkpt>
      <trkpt lat="50.37464" lon="2.2325">
        <ele>115.976196</ele>
        <time>2009-05-16T06:58:22Z</time>
      </trkpt>
      <trkpt lat="50.37393" lon="2.23149">
        <ele>115.976196</ele>
        <time>2009-05-16T06:58:35Z</time>
      </trkpt>
      <trkpt lat="50.37318" lon="2.23054">
        <ele>116.9375</ele>
        <time>2009-05-16T06:58:49Z</time>
      </trkpt>
      <trkpt lat="50.37251" lon="2.22998">
        <ele>116.9375</ele>
        <time>2009-05-16T06:59:01Z</time>
      </trkpt>
      <trkpt lat="50.37181" lon="2.22914">
        <ele>119.821411</ele>
        <time>2009-05-16T06:59:16Z</time>
      </trkpt>
      <trkpt lat="50.37105" lon="2.22832">
        <ele>122.224731</ele>
        <time>2009-05-16T06:59:32Z</time>
      </trkpt>
      <trkpt lat="50.3704" lon="2.22769">
        <ele>122.224731</ele>
        <time>2009-05-16T06:59:45Z</time>
      </trkpt>
      <trkpt lat="50.36959" lon="2.22712">
        <ele>121.26355</ele>
        <time>2009-05-16T06:59:59Z</time>
      </trkpt>
      <trkpt lat="50.36879" lon="2.22667">
        <ele>117.898804</ele>
        <time>2009-05-16T07:00:12Z</time>
      </trkpt>
      <trkpt lat="50.36835" lon="2.22643">
        <ele>114.53418</ele>
        <time>2009-05-16T07:00:18Z</time>
      </trkpt>
      <trkpt lat="50.36741" lon="2.22589">
        <ele>115.976196</ele>
        <time>2009-05-16T07:00:32Z</time>
      </trkpt>
      <trkpt lat="50.36676" lon="2.22546">
        <ele>119.34082</ele>
        <time>2009-05-16T07:00:45Z</time>
      </trkpt>
      <trkpt lat="50.36614" lon="2.225">
        <ele>122.224731</ele>
        <time>2009-05-16T07:00:58Z</time>
      </trkpt>
      <trkpt lat="50.3655" lon="2.22447">
        <ele>124.628052</ele>
        <time>2009-05-16T07:01:12Z</time>
      </trkpt>
      <trkpt lat="50.36484" lon="2.22425">
        <ele>126.069946</ele>
        <time>2009-05-16T07:01:25Z</time>
      </trkpt>
      <trkpt lat="50.36396" lon="2.22416">
        <ele>127.511963</ele>
        <time>2009-05-16T07:01:41Z</time>
      </trkpt>
      <trkpt lat="50.36385" lon="2.22412">
        <ele>127.992554</ele>
        <time>2009-05-16T07:01:43Z</time>
      </trkpt>
      <trkpt lat="50.36356" lon="2.22368">
        <ele>129.434692</ele>
        <time>2009-05-16T07:01:51Z</time>
      </trkpt>
      <trkpt lat="50.36343" lon="2.2225">
        <ele>129.915283</ele>
        <time>2009-05-16T07:02:03Z</time>
      </trkpt>
      <trkpt lat="50.36315" lon="2.2209">
        <ele>129.434692</ele>
        <time>2009-05-16T07:02:18Z</time>
      </trkpt>
      <trkpt lat="50.36246" lon="2.21912">
        <ele>126.550659</ele>
        <time>2009-05-16T07:02:35Z</time>
      </trkpt>
      <trkpt lat="50.36169" lon="2.21744">
        <ele>124.147339</ele>
        <time>2009-05-16T07:02:51Z</time>
      </trkpt>
      <trkpt lat="50.36103" lon="2.21599">
        <ele>122.224731</ele>
        <time>2009-05-16T07:03:05Z</time>
      </trkpt>
      <trkpt lat="50.36045" lon="2.21448">
        <ele>121.26355</ele>
        <time>2009-05-16T07:03:19Z</time>
      </trkpt>
      <trkpt lat="50.35977" lon="2.21297">
        <ele>119.821411</ele>
        <time>2009-05-16T07:03:33Z</time>
      </trkpt>
      <trkpt lat="50.35929" lon="2.21171">
        <ele>118.860107</ele>
        <time>2009-05-16T07:03:44Z</time>
      </trkpt>
      <trkpt lat="50.3588" lon="2.21104">
        <ele>116.456787</ele>
        <time>2009-05-16T07:03:51Z</time>
      </trkpt>
      <trkpt lat="50.35835" lon="2.20964">
        <ele>114.53418</ele>
        <time>2009-05-16T07:04:02Z</time>
      </trkpt>
      <trkpt lat="50.35799" lon="2.20801">
        <ele>112.130981</ele>
        <time>2009-05-16T07:04:14Z</time>
      </trkpt>
      <trkpt lat="50.35772" lon="2.20731">
        <ele>110.688843</ele>
        <time>2009-05-16T07:04:20Z</time>
      </trkpt>
      <trkpt lat="50.35758" lon="2.207">
        <ele>110.208252</ele>
        <time>2009-05-16T07:04:23Z</time>
      </trkpt>
      <trkpt lat="50.35714" lon="2.20678">
        <ele>107.324341</ele>
        <time>2009-05-16T07:04:29Z</time>
      </trkpt>
      <trkpt lat="50.35696" lon="2.20682">
        <ele>105.882446</ele>
        <time>2009-05-16T07:04:31Z</time>
      </trkpt>
      <trkpt lat="50.35677" lon="2.2069">
        <ele>104.44043</ele>
        <time>2009-05-16T07:04:33Z</time>
      </trkpt>
      <trkpt lat="50.3565" lon="2.20711">
        <ele>102.998291</ele>
        <time>2009-05-16T07:04:36Z</time>
      </trkpt>
      <trkpt lat="50.35544" lon="2.20753">
        <ele>99.153076</ele>
        <time>2009-05-16T07:04:47Z</time>
      </trkpt>
      <trkpt lat="50.35534" lon="2.20754">
        <ele>99.633789</ele>
        <time>2009-05-16T07:04:48Z</time>
      </trkpt>
      <trkpt lat="50.355" lon="2.20747">
        <ele>100.114502</ele>
        <time>2009-05-16T07:04:52Z</time>
      </trkpt>
      <trkpt lat="50.35479" lon="2.20732">
        <ele>101.556396</ele>
        <time>2009-05-16T07:04:55Z</time>
      </trkpt>
      <trkpt lat="50.35453" lon="2.20714">
        <ele>102.998291</ele>
        <time>2009-05-16T07:04:59Z</time>
      </trkpt>
      <trkpt lat="50.35355" lon="2.20687">
        <ele>105.882446</ele>
        <time>2009-05-16T07:05:14Z</time>
      </trkpt>
      <trkpt lat="50.35271" lon="2.20659">
        <ele>108.766235</ele>
        <time>2009-05-16T07:05:28Z</time>
      </trkpt>
      <trkpt lat="50.35225" lon="2.2064">
        <ele>111.650269</ele>
        <time>2009-05-16T07:05:36Z</time>
      </trkpt>
      <trkpt lat="50.35122" lon="2.20603">
        <ele>109.246948</ele>
        <time>2009-05-16T07:05:53Z</time>
      </trkpt>
      <trkpt lat="50.35027" lon="2.20591">
        <ele>107.805054</ele>
        <time>2009-05-16T07:06:07Z</time>
      </trkpt>
      <trkpt lat="50.34905" lon="2.20574">
        <ele>107.805054</ele>
        <time>2009-05-16T07:06:24Z</time>
      </trkpt>
      <trkpt lat="50.34839" lon="2.20566">
        <ele>109.727661</ele>
        <time>2009-05-16T07:06:36Z</time>
      </trkpt>
      <trkpt lat="50.34763" lon="2.20556">
        <ele>111.650269</ele>
        <time>2009-05-16T07:06:50Z</time>
      </trkpt>
      <trkpt lat="50.34677" lon="2.20547">
        <ele>113.092285</ele>
        <time>2009-05-16T07:07:08Z</time>
      </trkpt>
      <trkpt lat="50.3466" lon="2.20546">
        <ele>113.092285</ele>
        <time>2009-05-16T07:07:12Z</time>
      </trkpt>
      <trkpt lat="50.34642" lon="2.20543">
        <ele>114.053589</ele>
        <time>2009-05-16T07:07:16Z</time>
      </trkpt>
      <trkpt lat="50.34612" lon="2.20521">
        <ele>113.572998</ele>
        <time>2009-05-16T07:07:24Z</time>
      </trkpt>
      <trkpt lat="50.34588" lon="2.20481">
        <ele>113.572998</ele>
        <time>2009-05-16T07:07:31Z</time>
      </trkpt>
      <trkpt lat="50.34578" lon="2.20463">
        <ele>114.053589</ele>
        <time>2009-05-16T07:07:34Z</time>
      </trkpt>
      <trkpt lat="50.34527" lon="2.20383">
        <ele>115.014893</ele>
        <time>2009-05-16T07:07:49Z</time>
      </trkpt>
      <trkpt lat="50.34475" lon="2.20298">
        <ele>115.976196</ele>
        <time>2009-05-16T07:08:03Z</time>
      </trkpt>
      <trkpt lat="50.34441" lon="2.2025">
        <ele>115.976196</ele>
        <time>2009-05-16T07:08:12Z</time>
      </trkpt>
      <trkpt lat="50.34351" lon="2.20175">
        <ele>114.053589</ele>
        <time>2009-05-16T07:08:29Z</time>
      </trkpt>
      <trkpt lat="50.34299" lon="2.20146">
        <ele>113.092285</ele>
        <time>2009-05-16T07:08:38Z</time>
      </trkpt>
      <trkpt lat="50.3427" lon="2.20099">
        <ele>114.53418</ele>
        <time>2009-05-16T07:08:45Z</time>
      </trkpt>
      <trkpt lat="50.34237" lon="2.19963">
        <ele>115.495605</ele>
        <time>2009-05-16T07:09:01Z</time>
      </trkpt>
      <trkpt lat="50.34202" lon="2.19828">
        <ele>116.456787</ele>
        <time>2009-05-16T07:09:16Z</time>
      </trkpt>
      <trkpt lat="50.34195" lon="2.19798">
        <ele>115.495605</ele>
        <time>2009-05-16T07:09:19Z</time>
      </trkpt>
      <trkpt lat="50.34158" lon="2.19658">
        <ele>114.53418</ele>
        <time>2009-05-16T07:09:33Z</time>
      </trkpt>
      <trkpt lat="50.34103" lon="2.19538">
        <ele>112.611572</ele>
        <time>2009-05-16T07:09:47Z</time>
      </trkpt>
      <trkpt lat="50.34035" lon="2.19409">
        <ele>111.169556</ele>
        <time>2009-05-16T07:10:03Z</time>
      </trkpt>
      <trkpt lat="50.33978" lon="2.193">
        <ele>110.208252</ele>
        <time>2009-05-16T07:10:16Z</time>
      </trkpt>
      <trkpt lat="50.33898" lon="2.19193">
        <ele>108.766235</ele>
        <time>2009-05-16T07:10:32Z</time>
      </trkpt>
      <trkpt lat="50.33843" lon="2.19084">
        <ele>110.688843</ele>
        <time>2009-05-16T07:10:46Z</time>
      </trkpt>
      <trkpt lat="50.33812" lon="2.18945">
        <ele>112.611572</ele>
        <time>2009-05-16T07:11:01Z</time>
      </trkpt>
      <trkpt lat="50.33779" lon="2.18808">
        <ele>113.572998</ele>
        <time>2009-05-16T07:11:16Z</time>
      </trkpt>
      <trkpt lat="50.33747" lon="2.18668">
        <ele>114.53418</ele>
        <time>2009-05-16T07:11:31Z</time>
      </trkpt>
      <trkpt lat="50.33711" lon="2.18548">
        <ele>114.53418</ele>
        <time>2009-05-16T07:11:45Z</time>
      </trkpt>
      <trkpt lat="50.33661" lon="2.18444">
        <ele>115.976196</ele>
        <time>2009-05-16T07:11:59Z</time>
      </trkpt>
      <trkpt lat="50.3362" lon="2.18317">
        <ele>116.456787</ele>
        <time>2009-05-16T07:12:15Z</time>
      </trkpt>
      <trkpt lat="50.33569" lon="2.18217">
        <ele>116.9375</ele>
        <time>2009-05-16T07:12:29Z</time>
      </trkpt>
      <trkpt lat="50.33509" lon="2.18117">
        <ele>116.9375</ele>
        <time>2009-05-16T07:12:43Z</time>
      </trkpt>
      <trkpt lat="50.33445" lon="2.1801">
        <ele>116.456787</ele>
        <time>2009-05-16T07:12:58Z</time>
      </trkpt>
      <trkpt lat="50.33392" lon="2.17868">
        <ele>117.898804</ele>
        <time>2009-05-16T07:13:14Z</time>
      </trkpt>
      <trkpt lat="50.3335" lon="2.17706">
        <ele>116.9375</ele>
        <time>2009-05-16T07:13:30Z</time>
      </trkpt>
      <trkpt lat="50.33297" lon="2.1754">
        <ele>115.976196</ele>
        <time>2009-05-16T07:13:47Z</time>
      </trkpt>
      <trkpt lat="50.33233" lon="2.17346">
        <ele>115.014893</ele>
        <time>2009-05-16T07:14:07Z</time>
      </trkpt>
      <trkpt lat="50.33179" lon="2.17202">
        <ele>112.611572</ele>
        <time>2009-05-16T07:14:22Z</time>
      </trkpt>
      <trkpt lat="50.33106" lon="2.17113">
        <ele>111.169556</ele>
        <time>2009-05-16T07:14:35Z</time>
      </trkpt>
      <trkpt lat="50.33007" lon="2.17053">
        <ele>109.246948</ele>
        <time>2009-05-16T07:14:50Z</time>
      </trkpt>
      <trkpt lat="50.3291" lon="2.16998">
        <ele>108.285645</ele>
        <time>2009-05-16T07:15:05Z</time>
      </trkpt>
      <trkpt lat="50.32804" lon="2.16916">
        <ele>107.805054</ele>
        <time>2009-05-16T07:15:22Z</time>
      </trkpt>
      <trkpt lat="50.32724" lon="2.16809">
        <ele>106.363037</ele>
        <time>2009-05-16T07:15:37Z</time>
      </trkpt>
      <trkpt lat="50.32657" lon="2.16679">
        <ele>105.882446</ele>
        <time>2009-05-16T07:15:52Z</time>
      </trkpt>
      <trkpt lat="50.32592" lon="2.16527">
        <ele>102.5177</ele>
        <time>2009-05-16T07:16:07Z</time>
      </trkpt>
      <trkpt lat="50.32512" lon="2.16445">
        <ele>99.633789</ele>
        <time>2009-05-16T07:16:19Z</time>
      </trkpt>
      <trkpt lat="50.32472" lon="2.16418">
        <ele>95.788452</ele>
        <time>2009-05-16T07:16:24Z</time>
      </trkpt>
      <trkpt lat="50.32415" lon="2.16381">
        <ele>91.943237</ele>
        <time>2009-05-16T07:16:31Z</time>
      </trkpt>
      <trkpt lat="50.32392" lon="2.16361">
        <ele>89.539917</ele>
        <time>2009-05-16T07:16:34Z</time>
      </trkpt>
      <trkpt lat="50.32385" lon="2.16354">
        <ele>89.539917</ele>
        <time>2009-05-16T07:16:35Z</time>
      </trkpt>
      <trkpt lat="50.32364" lon="2.16323">
        <ele>88.098022</ele>
        <time>2009-05-16T07:16:38Z</time>
      </trkpt>
      <trkpt lat="50.3234" lon="2.16254">
        <ele>83.771973</ele>
        <time>2009-05-16T07:16:43Z</time>
      </trkpt>
      <trkpt lat="50.3232" lon="2.16183">
        <ele>80.407471</ele>
        <time>2009-05-16T07:16:48Z</time>
      </trkpt>
      <trkpt lat="50.32316" lon="2.1617">
        <ele>79.926636</ele>
        <time>2009-05-16T07:16:49Z</time>
      </trkpt>
      <trkpt lat="50.32285" lon="2.16136">
        <ele>76.562134</ele>
        <time>2009-05-16T07:16:54Z</time>
      </trkpt>
      <trkpt lat="50.32256" lon="2.16143">
        <ele>74.639526</ele>
        <time>2009-05-16T07:16:58Z</time>
      </trkpt>
      <trkpt lat="50.3224" lon="2.16121">
        <ele>71.274902</ele>
        <time>2009-05-16T07:17:01Z</time>
      </trkpt>
      <trkpt lat="50.32247" lon="2.16082">
        <ele>69.832886</ele>
        <time>2009-05-16T07:17:04Z</time>
      </trkpt>
      <trkpt lat="50.32276" lon="2.16018">
        <ele>65.50708</ele>
        <time>2009-05-16T07:17:09Z</time>
      </trkpt>
      <trkpt lat="50.32282" lon="2.16006">
        <ele>65.50708</ele>
        <time>2009-05-16T07:17:10Z</time>
      </trkpt>
      <trkpt lat="50.32288" lon="2.15994">
        <ele>64.545654</ele>
        <time>2009-05-16T07:17:11Z</time>
      </trkpt>
      <trkpt lat="50.32288" lon="2.15925">
        <ele>60.700317</ele>
        <time>2009-05-16T07:17:17Z</time>
      </trkpt>
      <trkpt lat="50.32247" lon="2.15927">
        <ele>57.816528</ele>
        <time>2009-05-16T07:17:22Z</time>
      </trkpt>
      <trkpt lat="50.32211" lon="2.15951">
        <ele>53.971191</ele>
        <time>2009-05-16T07:17:26Z</time>
      </trkpt>
      <trkpt lat="50.32183" lon="2.15968">
        <ele>51.087158</ele>
        <time>2009-05-16T07:17:29Z</time>
      </trkpt>
      <trkpt lat="50.32147" lon="2.15988">
        <ele>46.76123</ele>
        <time>2009-05-16T07:17:33Z</time>
      </trkpt>
      <trkpt lat="50.32118" lon="2.15986">
        <ele>44.358032</ele>
        <time>2009-05-16T07:17:36Z</time>
      </trkpt>
      <trkpt lat="50.32084" lon="2.15962">
        <ele>43.877319</ele>
        <time>2009-05-16T07:17:40Z</time>
      </trkpt>
      <trkpt lat="50.32058" lon="2.15931">
        <ele>44.358032</ele>
        <time>2009-05-16T07:17:44Z</time>
      </trkpt>
      <trkpt lat="50.31993" lon="2.15801">
        <ele>43.396606</ele>
        <time>2009-05-16T07:17:59Z</time>
      </trkpt>
      <trkpt lat="50.31955" lon="2.15772">
        <ele>43.877319</ele>
        <time>2009-05-16T07:18:05Z</time>
      </trkpt>
      <trkpt lat="50.31905" lon="2.1575">
        <ele>44.358032</ele>
        <time>2009-05-16T07:18:13Z</time>
      </trkpt>
      <trkpt lat="50.31836" lon="2.15672">
        <ele>45.799927</ele>
        <time>2009-05-16T07:18:27Z</time>
      </trkpt>
      <trkpt lat="50.31831" lon="2.15665">
        <ele>45.799927</ele>
        <time>2009-05-16T07:18:28Z</time>
      </trkpt>
      <trkpt lat="50.31801" lon="2.15617">
        <ele>47.241821</ele>
        <time>2009-05-16T07:18:38Z</time>
      </trkpt>
      <trkpt lat="50.31793" lon="2.15601">
        <ele>46.28064</ele>
        <time>2009-05-16T07:18:43Z</time>
      </trkpt>
      <trkpt lat="50.31779" lon="2.15576">
        <ele>46.28064</ele>
        <time>2009-05-16T07:18:47Z</time>
      </trkpt>
      <trkpt lat="50.31773" lon="2.15562">
        <ele>46.28064</ele>
        <time>2009-05-16T07:18:49Z</time>
      </trkpt>
      <trkpt lat="50.31764" lon="2.15535">
        <ele>46.76123</ele>
        <time>2009-05-16T07:18:52Z</time>
      </trkpt>
      <trkpt lat="50.31709" lon="2.15412">
        <ele>49.164551</ele>
        <time>2009-05-16T07:19:08Z</time>
      </trkpt>
      <trkpt lat="50.31698" lon="2.15392">
        <ele>49.164551</ele>
        <time>2009-05-16T07:19:11Z</time>
      </trkpt>
      <trkpt lat="50.31656" lon="2.15383">
        <ele>50.606567</ele>
        <time>2009-05-16T07:19:19Z</time>
      </trkpt>
      <trkpt lat="50.31634" lon="2.15403">
        <ele>51.087158</ele>
        <time>2009-05-16T07:19:24Z</time>
      </trkpt>
      <trkpt lat="50.31615" lon="2.15414">
        <ele>51.087158</ele>
        <time>2009-05-16T07:19:28Z</time>
      </trkpt>
      <trkpt lat="50.31581" lon="2.15394">
        <ele>52.048584</ele>
        <time>2009-05-16T07:19:35Z</time>
      </trkpt>
      <trkpt lat="50.31529" lon="2.15302">
        <ele>54.451782</ele>
        <time>2009-05-16T07:19:50Z</time>
      </trkpt>
      <trkpt lat="50.31478" lon="2.15244">
        <ele>56.374512</ele>
        <time>2009-05-16T07:20:03Z</time>
      </trkpt>
      <trkpt lat="50.3144" lon="2.15205">
        <ele>58.297119</ele>
        <time>2009-05-16T07:20:13Z</time>
      </trkpt>
      <trkpt lat="50.31419" lon="2.15186">
        <ele>59.258423</ele>
        <time>2009-05-16T07:20:18Z</time>
      </trkpt>
      <trkpt lat="50.31413" lon="2.15178">
        <ele>60.219727</ele>
        <time>2009-05-16T07:20:20Z</time>
      </trkpt>
      <trkpt lat="50.31378" lon="2.15148">
        <ele>63.103638</ele>
        <time>2009-05-16T07:20:29Z</time>
      </trkpt>
      <trkpt lat="50.31338" lon="2.15117">
        <ele>66.468262</ele>
        <time>2009-05-16T07:20:39Z</time>
      </trkpt>
      <trkpt lat="50.313" lon="2.15084">
        <ele>70.313477</ele>
        <time>2009-05-16T07:20:49Z</time>
      </trkpt>
      <trkpt lat="50.31261" lon="2.15057">
        <ele>73.678223</ele>
        <time>2009-05-16T07:20:59Z</time>
      </trkpt>
      <trkpt lat="50.31229" lon="2.15036">
        <ele>76.562134</ele>
        <time>2009-05-16T07:21:08Z</time>
      </trkpt>
      <trkpt lat="50.31195" lon="2.14997">
        <ele>79.446045</ele>
        <time>2009-05-16T07:21:22Z</time>
      </trkpt>
      <trkpt lat="50.31164" lon="2.14973">
        <ele>81.368774</ele>
        <time>2009-05-16T07:21:34Z</time>
      </trkpt>
      <trkpt lat="50.31134" lon="2.1495">
        <ele>82.810791</ele>
        <time>2009-05-16T07:21:48Z</time>
      </trkpt>
      <trkpt lat="50.31101" lon="2.14923">
        <ele>83.771973</ele>
        <time>2009-05-16T07:22:01Z</time>
      </trkpt>
      <trkpt lat="50.31043" lon="2.14884">
        <ele>86.656006</ele>
        <time>2009-05-16T07:22:19Z</time>
      </trkpt>
      <trkpt lat="50.3101" lon="2.14859">
        <ele>88.098022</ele>
        <time>2009-05-16T07:22:30Z</time>
      </trkpt>
      <trkpt lat="50.31001" lon="2.14853">
        <ele>89.059326</ele>
        <time>2009-05-16T07:22:39Z</time>
      </trkpt>
      <trkpt lat="50.30997" lon="2.14849">
        <ele>89.059326</ele>
        <time>2009-05-16T07:23:39Z</time>
      </trkpt>
      <trkpt lat="50.30977" lon="2.14833">
        <ele>89.539917</ele>
        <time>2009-05-16T07:24:01Z</time>
      </trkpt>
      <trkpt lat="50.30928" lon="2.14791">
        <ele>91.462524</ele>
        <time>2009-05-16T07:24:13Z</time>
      </trkpt>
      <trkpt lat="50.30875" lon="2.14736">
        <ele>93.385132</ele>
        <time>2009-05-16T07:24:27Z</time>
      </trkpt>
      <trkpt lat="50.3082" lon="2.1468">
        <ele>95.307739</ele>
        <time>2009-05-16T07:24:40Z</time>
      </trkpt>
      <trkpt lat="50.30757" lon="2.14607">
        <ele>96.269287</ele>
        <time>2009-05-16T07:24:56Z</time>
      </trkpt>
      <trkpt lat="50.3072" lon="2.1454">
        <ele>99.633789</ele>
        <time>2009-05-16T07:25:08Z</time>
      </trkpt>
      <trkpt lat="50.30676" lon="2.14457">
        <ele>101.075684</ele>
        <time>2009-05-16T07:25:23Z</time>
      </trkpt>
      <trkpt lat="50.30636" lon="2.14376">
        <ele>103.479004</ele>
        <time>2009-05-16T07:25:38Z</time>
      </trkpt>
      <trkpt lat="50.30626" lon="2.14348">
        <ele>103.959717</ele>
        <time>2009-05-16T07:25:43Z</time>
      </trkpt>
      <trkpt lat="50.30608" lon="2.1429">
        <ele>103.959717</ele>
        <time>2009-05-16T07:25:53Z</time>
      </trkpt>
      <trkpt lat="50.30594" lon="2.14242">
        <ele>104.44043</ele>
        <time>2009-05-16T07:26:01Z</time>
      </trkpt>
      <trkpt lat="50.30565" lon="2.14169">
        <ele>104.921021</ele>
        <time>2009-05-16T07:26:15Z</time>
      </trkpt>
      <trkpt lat="50.30552" lon="2.14143">
        <ele>105.401733</ele>
        <time>2009-05-16T07:26:20Z</time>
      </trkpt>
      <trkpt lat="50.30508" lon="2.14072">
        <ele>105.882446</ele>
        <time>2009-05-16T07:26:35Z</time>
      </trkpt>
      <trkpt lat="50.30496" lon="2.14055">
        <ele>105.882446</ele>
        <time>2009-05-16T07:26:39Z</time>
      </trkpt>
      <trkpt lat="50.30442" lon="2.13991">
        <ele>106.843628</ele>
        <time>2009-05-16T07:26:55Z</time>
      </trkpt>
      <trkpt lat="50.30383" lon="2.13953">
        <ele>107.805054</ele>
        <time>2009-05-16T07:27:09Z</time>
      </trkpt>
      <trkpt lat="50.30316" lon="2.13911">
        <ele>107.805054</ele>
        <time>2009-05-16T07:27:24Z</time>
      </trkpt>
      <trkpt lat="50.30237" lon="2.13834">
        <ele>108.766235</ele>
        <time>2009-05-16T07:27:41Z</time>
      </trkpt>
      <trkpt lat="50.30163" lon="2.13761">
        <ele>109.246948</ele>
        <time>2009-05-16T07:27:56Z</time>
      </trkpt>
      <trkpt lat="50.30093" lon="2.13697">
        <ele>109.727661</ele>
        <time>2009-05-16T07:28:10Z</time>
      </trkpt>
      <trkpt lat="50.30022" lon="2.13626">
        <ele>110.208252</ele>
        <time>2009-05-16T07:28:25Z</time>
      </trkpt>
      <trkpt lat="50.29947" lon="2.13545">
        <ele>110.688843</ele>
        <time>2009-05-16T07:28:42Z</time>
      </trkpt>
      <trkpt lat="50.29887" lon="2.13487">
        <ele>111.169556</ele>
        <time>2009-05-16T07:28:56Z</time>
      </trkpt>
      <trkpt lat="50.29878" lon="2.1348">
        <ele>111.169556</ele>
        <time>2009-05-16T07:28:58Z</time>
      </trkpt>
      <trkpt lat="50.29866" lon="2.13471">
        <ele>111.169556</ele>
        <time>2009-05-16T07:29:01Z</time>
      </trkpt>
      <trkpt lat="50.29789" lon="2.13407">
        <ele>111.169556</ele>
        <time>2009-05-16T07:29:18Z</time>
      </trkpt>
      <trkpt lat="50.29719" lon="2.13351">
        <ele>111.650269</ele>
        <time>2009-05-16T07:29:33Z</time>
      </trkpt>
      <trkpt lat="50.29707" lon="2.13335">
        <ele>111.650269</ele>
        <time>2009-05-16T07:29:36Z</time>
      </trkpt>
      <trkpt lat="50.29663" lon="2.13243">
        <ele>112.611572</ele>
        <time>2009-05-16T07:29:52Z</time>
      </trkpt>
      <trkpt lat="50.29641" lon="2.13192">
        <ele>112.611572</ele>
        <time>2009-05-16T07:30:01Z</time>
      </trkpt>
      <trkpt lat="50.29635" lon="2.13165">
        <ele>113.092285</ele>
        <time>2009-05-16T07:30:05Z</time>
      </trkpt>
      <trkpt lat="50.29632" lon="2.13152">
        <ele>113.092285</ele>
        <time>2009-05-16T07:30:07Z</time>
      </trkpt>
      <trkpt lat="50.29622" lon="2.1312">
        <ele>113.092285</ele>
        <time>2009-05-16T07:30:12Z</time>
      </trkpt>
      <trkpt lat="50.29611" lon="2.13097">
        <ele>113.092285</ele>
        <time>2009-05-16T07:30:16Z</time>
      </trkpt>
      <trkpt lat="50.29574" lon="2.13039">
        <ele>113.572998</ele>
        <time>2009-05-16T07:30:28Z</time>
      </trkpt>
      <trkpt lat="50.29538" lon="2.12981">
        <ele>114.053589</ele>
        <time>2009-05-16T07:30:40Z</time>
      </trkpt>
      <trkpt lat="50.29482" lon="2.1289">
        <ele>114.053589</ele>
        <time>2009-05-16T07:30:57Z</time>
      </trkpt>
      <trkpt lat="50.29431" lon="2.12807">
        <ele>114.53418</ele>
        <time>2009-05-16T07:31:12Z</time>
      </trkpt>
      <trkpt lat="50.29389" lon="2.12743">
        <ele>115.014893</ele>
        <time>2009-05-16T07:31:24Z</time>
      </trkpt>
      <trkpt lat="50.29352" lon="2.12735">
        <ele>115.014893</ele>
        <time>2009-05-16T07:31:32Z</time>
      </trkpt>
      <trkpt lat="50.29249" lon="2.12786">
        <ele>115.495605</ele>
        <time>2009-05-16T07:31:49Z</time>
      </trkpt>
      <trkpt lat="50.29162" lon="2.12859">
        <ele>115.495605</ele>
        <time>2009-05-16T07:32:02Z</time>
      </trkpt>
      <trkpt lat="50.29155" lon="2.12868">
        <ele>115.495605</ele>
        <time>2009-05-16T07:32:03Z</time>
      </trkpt>
      <trkpt lat="50.29127" lon="2.12891">
        <ele>115.014893</ele>
        <time>2009-05-16T07:32:07Z</time>
      </trkpt>
      <trkpt lat="50.29103" lon="2.12897">
        <ele>115.014893</ele>
        <time>2009-05-16T07:32:10Z</time>
      </trkpt>
      <trkpt lat="50.29086" lon="2.12903">
        <ele>115.014893</ele>
        <time>2009-05-16T07:32:12Z</time>
      </trkpt>
      <trkpt lat="50.29031" lon="2.12945">
        <ele>114.053589</ele>
        <time>2009-05-16T07:32:19Z</time>
      </trkpt>
      <trkpt lat="50.29016" lon="2.12956">
        <ele>114.053589</ele>
        <time>2009-05-16T07:32:21Z</time>
      </trkpt>
      <trkpt lat="50.28967" lon="2.12967">
        <ele>113.572998</ele>
        <time>2009-05-16T07:32:27Z</time>
      </trkpt>
      <trkpt lat="50.28936" lon="2.13001">
        <ele>113.572998</ele>
        <time>2009-05-16T07:32:33Z</time>
      </trkpt>
      <trkpt lat="50.2892" lon="2.13027">
        <ele>113.572998</ele>
        <time>2009-05-16T07:32:37Z</time>
      </trkpt>
      <trkpt lat="50.28907" lon="2.13047">
        <ele>113.572998</ele>
        <time>2009-05-16T07:32:40Z</time>
      </trkpt>
      <trkpt lat="50.28899" lon="2.1306">
        <ele>113.572998</ele>
        <time>2009-05-16T07:32:42Z</time>
      </trkpt>
      <trkpt lat="50.2884" lon="2.1307">
        <ele>113.092285</ele>
        <time>2009-05-16T07:32:51Z</time>
      </trkpt>
      <trkpt lat="50.28787" lon="2.13061">
        <ele>112.611572</ele>
        <time>2009-05-16T07:32:58Z</time>
      </trkpt>
      <trkpt lat="50.28772" lon="2.1302">
        <ele>112.611572</ele>
        <time>2009-05-16T07:33:05Z</time>
      </trkpt>
      <trkpt lat="50.28779" lon="2.13001">
        <ele>112.611572</ele>
        <time>2009-05-16T07:33:09Z</time>
      </trkpt>
      <trkpt lat="50.28783" lon="2.12986">
        <ele>112.611572</ele>
        <time>2009-05-16T07:33:11Z</time>
      </trkpt>
      <trkpt lat="50.28788" lon="2.12896">
        <ele>112.130981</ele>
        <time>2009-05-16T07:33:25Z</time>
      </trkpt>
      <trkpt lat="50.28794" lon="2.12826">
        <ele>112.611572</ele>
        <time>2009-05-16T07:33:37Z</time>
      </trkpt>
      <trkpt lat="50.28813" lon="2.12749">
        <ele>112.611572</ele>
        <time>2009-05-16T07:33:52Z</time>
      </trkpt>
      <trkpt lat="50.28828" lon="2.1267">
        <ele>112.611572</ele>
        <time>2009-05-16T07:34:06Z</time>
      </trkpt>
      <trkpt lat="50.28825" lon="2.12615">
        <ele>112.611572</ele>
        <time>2009-05-16T07:34:18Z</time>
      </trkpt>
      <trkpt lat="50.28835" lon="2.12541">
        <ele>113.092285</ele>
        <time>2009-05-16T07:34:30Z</time>
      </trkpt>
      <trkpt lat="50.28846" lon="2.12491">
        <ele>113.572998</ele>
        <time>2009-05-16T07:34:41Z</time>
      </trkpt>
      <trkpt lat="50.28853" lon="2.12428">
        <ele>114.053589</ele>
        <time>2009-05-16T07:34:54Z</time>
      </trkpt>
      <trkpt lat="50.28858" lon="2.12339">
        <ele>114.53418</ele>
        <time>2009-05-16T07:35:08Z</time>
      </trkpt>
      <trkpt lat="50.28855" lon="2.12259">
        <ele>115.014893</ele>
        <time>2009-05-16T07:35:21Z</time>
      </trkpt>
      <trkpt lat="50.28854" lon="2.12181">
        <ele>115.014893</ele>
        <time>2009-05-16T07:35:33Z</time>
      </trkpt>
      <trkpt lat="50.28865" lon="2.1207">
        <ele>115.495605</ele>
        <time>2009-05-16T07:35:50Z</time>
      </trkpt>
      <trkpt lat="50.28863" lon="2.12065">
        <ele>115.495605</ele>
        <time>2009-05-16T07:35:51Z</time>
      </trkpt>
      <trkpt lat="50.28847" lon="2.12054">
        <ele>115.976196</ele>
        <time>2009-05-16T07:35:56Z</time>
      </trkpt>
      <trkpt lat="50.28775" lon="2.12071">
        <ele>115.976196</ele>
        <time>2009-05-16T07:36:11Z</time>
      </trkpt>
      <trkpt lat="50.28683" lon="2.12094">
        <ele>115.976196</ele>
        <time>2009-05-16T07:36:26Z</time>
      </trkpt>
      <trkpt lat="50.28588" lon="2.12091">
        <ele>115.976196</ele>
        <time>2009-05-16T07:36:38Z</time>
      </trkpt>
      <trkpt lat="50.28447" lon="2.12066">
        <ele>115.014893</ele>
        <time>2009-05-16T07:36:54Z</time>
      </trkpt>
      <trkpt lat="50.28328" lon="2.12021">
        <ele>114.053589</ele>
        <time>2009-05-16T07:37:06Z</time>
      </trkpt>
      <trkpt lat="50.28226" lon="2.12025">
        <ele>113.092285</ele>
        <time>2009-05-16T07:37:17Z</time>
      </trkpt>
      <trkpt lat="50.28125" lon="2.12072">
        <ele>111.650269</ele>
        <time>2009-05-16T07:37:27Z</time>
      </trkpt>
      <trkpt lat="50.28004" lon="2.1217">
        <ele>109.727661</ele>
        <time>2009-05-16T07:37:38Z</time>
      </trkpt>
      <trkpt lat="50.27958" lon="2.12179">
        <ele>109.246948</ele>
        <time>2009-05-16T07:37:42Z</time>
      </trkpt>
      <trkpt lat="50.27855" lon="2.12161">
        <ele>107.805054</ele>
        <time>2009-05-16T07:37:54Z</time>
      </trkpt>
      <trkpt lat="50.27825" lon="2.12162">
        <ele>106.843628</ele>
        <time>2009-05-16T07:37:59Z</time>
      </trkpt>
      <trkpt lat="50.27739" lon="2.12188">
        <ele>106.363037</ele>
        <time>2009-05-16T07:38:15Z</time>
      </trkpt>
      <trkpt lat="50.27676" lon="2.12198">
        <ele>105.401733</ele>
        <time>2009-05-16T07:38:27Z</time>
      </trkpt>
      <trkpt lat="50.27615" lon="2.1215">
        <ele>104.921021</ele>
        <time>2009-05-16T07:38:42Z</time>
      </trkpt>
      <trkpt lat="50.27596" lon="2.12135">
        <ele>104.921021</ele>
        <time>2009-05-16T07:38:47Z</time>
      </trkpt>
      <trkpt lat="50.27536" lon="2.12128">
        <ele>104.44043</ele>
        <time>2009-05-16T07:39:03Z</time>
      </trkpt>
      <trkpt lat="50.27485" lon="2.12133">
        <ele>104.44043</ele>
        <time>2009-05-16T07:39:17Z</time>
      </trkpt>
      <trkpt lat="50.27439" lon="2.12147">
        <ele>103.959717</ele>
        <time>2009-05-16T07:39:31Z</time>
      </trkpt>
      <trkpt lat="50.27391" lon="2.12171">
        <ele>103.959717</ele>
        <time>2009-05-16T07:39:45Z</time>
      </trkpt>
      <trkpt lat="50.27347" lon="2.12193">
        <ele>103.959717</ele>
        <time>2009-05-16T07:39:59Z</time>
      </trkpt>
      <trkpt lat="50.27297" lon="2.12215">
        <ele>103.959717</ele>
        <time>2009-05-16T07:40:13Z</time>
      </trkpt>
      <trkpt lat="50.27245" lon="2.1223">
        <ele>103.959717</ele>
        <time>2009-05-16T07:40:27Z</time>
      </trkpt>
      <trkpt lat="50.2716" lon="2.12238">
        <ele>103.959717</ele>
        <time>2009-05-16T07:40:48Z</time>
      </trkpt>
      <trkpt lat="50.27105" lon="2.12244">
        <ele>103.959717</ele>
        <time>2009-05-16T07:41:02Z</time>
      </trkpt>
      <trkpt lat="50.27046" lon="2.12245">
        <ele>103.959717</ele>
        <time>2009-05-16T07:41:18Z</time>
      </trkpt>
      <trkpt lat="50.26988" lon="2.12247">
        <ele>103.959717</ele>
        <time>2009-05-16T07:41:34Z</time>
      </trkpt>
      <trkpt lat="50.26949" lon="2.12248">
        <ele>104.44043</ele>
        <time>2009-05-16T07:41:44Z</time>
      </trkpt>
      <trkpt lat="50.26872" lon="2.1225">
        <ele>104.44043</ele>
        <time>2009-05-16T07:42:03Z</time>
      </trkpt>
      <trkpt lat="50.26843" lon="2.1225">
        <ele>104.921021</ele>
        <time>2009-05-16T07:42:10Z</time>
      </trkpt>
      <trkpt lat="50.26824" lon="2.12252">
        <ele>104.921021</ele>
        <time>2009-05-16T07:42:15Z</time>
      </trkpt>
      <trkpt lat="50.26752" lon="2.12252">
        <ele>105.882446</ele>
        <time>2009-05-16T07:42:33Z</time>
      </trkpt>
      <trkpt lat="50.2669" lon="2.12256">
        <ele>106.363037</ele>
        <time>2009-05-16T07:42:49Z</time>
      </trkpt>
      <trkpt lat="50.26631" lon="2.12272">
        <ele>106.843628</ele>
        <time>2009-05-16T07:43:04Z</time>
      </trkpt>
      <trkpt lat="50.26614" lon="2.12278">
        <ele>106.843628</ele>
        <time>2009-05-16T07:43:08Z</time>
      </trkpt>
      <trkpt lat="50.26551" lon="2.12295">
        <ele>106.843628</ele>
        <time>2009-05-16T07:43:24Z</time>
      </trkpt>
      <trkpt lat="50.26494" lon="2.1231">
        <ele>107.324341</ele>
        <time>2009-05-16T07:43:38Z</time>
      </trkpt>
      <trkpt lat="50.26454" lon="2.12317">
        <ele>107.805054</ele>
        <time>2009-05-16T07:43:47Z</time>
      </trkpt>
      <trkpt lat="50.26406" lon="2.12326">
        <ele>107.805054</ele>
        <time>2009-05-16T07:43:58Z</time>
      </trkpt>
      <trkpt lat="50.26397" lon="2.12326">
        <ele>107.805054</ele>
        <time>2009-05-16T07:44:00Z</time>
      </trkpt>
      <trkpt lat="50.26328" lon="2.12339">
        <ele>108.285645</ele>
        <time>2009-05-16T07:44:14Z</time>
      </trkpt>
      <trkpt lat="50.26266" lon="2.12353">
        <ele>108.285645</ele>
        <time>2009-05-16T07:44:26Z</time>
      </trkpt>
      <trkpt lat="50.26223" lon="2.12348">
        <ele>108.285645</ele>
        <time>2009-05-16T07:44:34Z</time>
      </trkpt>
      <trkpt lat="50.26185" lon="2.12339">
        <ele>108.285645</ele>
        <time>2009-05-16T07:44:42Z</time>
      </trkpt>
      <trkpt lat="50.26164" lon="2.12335">
        <ele>108.766235</ele>
        <time>2009-05-16T07:44:47Z</time>
      </trkpt>
      <trkpt lat="50.26109" lon="2.1232">
        <ele>108.766235</ele>
        <time>2009-05-16T07:45:00Z</time>
      </trkpt>
      <trkpt lat="50.26091" lon="2.12317">
        <ele>108.766235</ele>
        <time>2009-05-16T07:45:04Z</time>
      </trkpt>
      <trkpt lat="50.26045" lon="2.12311">
        <ele>109.246948</ele>
        <time>2009-05-16T07:45:14Z</time>
      </trkpt>
      <trkpt lat="50.25977" lon="2.12303">
        <ele>109.246948</ele>
        <time>2009-05-16T07:45:27Z</time>
      </trkpt>
      <trkpt lat="50.25938" lon="2.12299">
        <ele>109.246948</ele>
        <time>2009-05-16T07:45:34Z</time>
      </trkpt>
      <trkpt lat="50.25846" lon="2.12287">
        <ele>109.246948</ele>
        <time>2009-05-16T07:45:50Z</time>
      </trkpt>
      <trkpt lat="50.25812" lon="2.12282">
        <ele>109.246948</ele>
        <time>2009-05-16T07:45:56Z</time>
      </trkpt>
      <trkpt lat="50.25797" lon="2.12283">
        <ele>109.246948</ele>
        <time>2009-05-16T07:45:59Z</time>
      </trkpt>
      <trkpt lat="50.25714" lon="2.1227">
        <ele>109.246948</ele>
        <time>2009-05-16T07:46:14Z</time>
      </trkpt>
      <trkpt lat="50.25638" lon="2.1226">
        <ele>109.246948</ele>
        <time>2009-05-16T07:46:27Z</time>
      </trkpt>
      <trkpt lat="50.25544" lon="2.12247">
        <ele>109.246948</ele>
        <time>2009-05-16T07:46:42Z</time>
      </trkpt>
      <trkpt lat="50.25472" lon="2.12259">
        <ele>108.766235</ele>
        <time>2009-05-16T07:46:54Z</time>
      </trkpt>
      <trkpt lat="50.25402" lon="2.12282">
        <ele>108.285645</ele>
        <time>2009-05-16T07:47:06Z</time>
      </trkpt>
      <trkpt lat="50.25302" lon="2.12311">
        <ele>108.285645</ele>
        <time>2009-05-16T07:47:21Z</time>
      </trkpt>
      <trkpt lat="50.25203" lon="2.12307">
        <ele>107.805054</ele>
        <time>2009-05-16T07:47:34Z</time>
      </trkpt>
      <trkpt lat="50.25117" lon="2.12289">
        <ele>107.324341</ele>
        <time>2009-05-16T07:47:45Z</time>
      </trkpt>
      <trkpt lat="50.25012" lon="2.12243">
        <ele>106.843628</ele>
        <time>2009-05-16T07:47:56Z</time>
      </trkpt>
      <trkpt lat="50.24909" lon="2.12205">
        <ele>106.363037</ele>
        <time>2009-05-16T07:48:09Z</time>
      </trkpt>
      <trkpt lat="50.24838" lon="2.12168">
        <ele>106.363037</ele>
        <time>2009-05-16T07:48:20Z</time>
      </trkpt>
      <trkpt lat="50.24767" lon="2.12125">
        <ele>105.882446</ele>
        <time>2009-05-16T07:48:32Z</time>
      </trkpt>
      <trkpt lat="50.24746" lon="2.12114">
        <ele>105.882446</ele>
        <time>2009-05-16T07:48:36Z</time>
      </trkpt>
      <trkpt lat="50.24694" lon="2.12086">
        <ele>105.882446</ele>
        <time>2009-05-16T07:48:45Z</time>
      </trkpt>
      <trkpt lat="50.24672" lon="2.1208">
        <ele>105.882446</ele>
        <time>2009-05-16T07:48:49Z</time>
      </trkpt>
      <trkpt lat="50.24575" lon="2.12056">
        <ele>105.401733</ele>
        <time>2009-05-16T07:49:04Z</time>
      </trkpt>
      <trkpt lat="50.24488" lon="2.12046">
        <ele>105.401733</ele>
        <time>2009-05-16T07:49:17Z</time>
      </trkpt>
      <trkpt lat="50.24399" lon="2.12013">
        <ele>104.921021</ele>
        <time>2009-05-16T07:49:29Z</time>
      </trkpt>
      <trkpt lat="50.24313" lon="2.11984">
        <ele>103.959717</ele>
        <time>2009-05-16T07:49:38Z</time>
      </trkpt>
      <trkpt lat="50.24246" lon="2.12018">
        <ele>102.5177</ele>
        <time>2009-05-16T07:49:46Z</time>
      </trkpt>
      <trkpt lat="50.24131" lon="2.12179">
        <ele>100.595093</ele>
        <time>2009-05-16T07:50:03Z</time>
      </trkpt>
      <trkpt lat="50.24109" lon="2.12211">
        <ele>100.114502</ele>
        <time>2009-05-16T07:50:06Z</time>
      </trkpt>
      <trkpt lat="50.24091" lon="2.1223">
        <ele>99.633789</ele>
        <time>2009-05-16T07:50:08Z</time>
      </trkpt>
      <trkpt lat="50.24017" lon="2.12238">
        <ele>98.672485</ele>
        <time>2009-05-16T07:50:15Z</time>
      </trkpt>
      <trkpt lat="50.23967" lon="2.12169">
        <ele>98.191895</ele>
        <time>2009-05-16T07:50:21Z</time>
      </trkpt>
      <trkpt lat="50.23879" lon="2.11949">
        <ele>95.788452</ele>
        <time>2009-05-16T07:50:37Z</time>
      </trkpt>
      <trkpt lat="50.23857" lon="2.11906">
        <ele>95.307739</ele>
        <time>2009-05-16T07:50:41Z</time>
      </trkpt>
      <trkpt lat="50.23751" lon="2.11825">
        <ele>93.385132</ele>
        <time>2009-05-16T07:50:53Z</time>
      </trkpt>
      <trkpt lat="50.23732" lon="2.11812">
        <ele>92.904541</ele>
        <time>2009-05-16T07:50:55Z</time>
      </trkpt>
      <trkpt lat="50.23691" lon="2.11804">
        <ele>92.42395</ele>
        <time>2009-05-16T07:50:59Z</time>
      </trkpt>
      <trkpt lat="50.23647" lon="2.11752">
        <ele>91.462524</ele>
        <time>2009-05-16T07:51:05Z</time>
      </trkpt>
      <trkpt lat="50.23592" lon="2.11594">
        <ele>89.539917</ele>
        <time>2009-05-16T07:51:20Z</time>
      </trkpt>
      <trkpt lat="50.23536" lon="2.11512">
        <ele>88.098022</ele>
        <time>2009-05-16T07:51:31Z</time>
      </trkpt>
      <trkpt lat="50.23461" lon="2.11426">
        <ele>86.175293</ele>
        <time>2009-05-16T07:51:44Z</time>
      </trkpt>
      <trkpt lat="50.23447" lon="2.1141">
        <ele>86.175293</ele>
        <time>2009-05-16T07:51:47Z</time>
      </trkpt>
      <trkpt lat="50.23426" lon="2.11398">
        <ele>85.69458</ele>
        <time>2009-05-16T07:51:51Z</time>
      </trkpt>
      <trkpt lat="50.23393" lon="2.11396">
        <ele>84.733398</ele>
        <time>2009-05-16T07:51:56Z</time>
      </trkpt>
      <trkpt lat="50.23337" lon="2.11452">
        <ele>83.291382</ele>
        <time>2009-05-16T07:52:06Z</time>
      </trkpt>
      <trkpt lat="50.23323" lon="2.11471">
        <ele>83.291382</ele>
        <time>2009-05-16T07:52:09Z</time>
      </trkpt>
      <trkpt lat="50.23265" lon="2.1153">
        <ele>78.965454</ele>
        <time>2009-05-16T07:52:21Z</time>
      </trkpt>
      <trkpt lat="50.2324" lon="2.11546">
        <ele>80.407471</ele>
        <time>2009-05-16T07:52:26Z</time>
      </trkpt>
      <trkpt lat="50.23224" lon="2.11552">
        <ele>80.407471</ele>
        <time>2009-05-16T07:52:29Z</time>
      </trkpt>
      <trkpt lat="50.23197" lon="2.11572">
        <ele>79.446045</ele>
        <time>2009-05-16T07:52:35Z</time>
      </trkpt>
      <trkpt lat="50.23178" lon="2.11587">
        <ele>78.965454</ele>
        <time>2009-05-16T07:52:42Z</time>
      </trkpt>
      <trkpt lat="50.23171" lon="2.1158">
        <ele>78.484741</ele>
        <time>2009-05-16T07:52:47Z</time>
      </trkpt>
      <trkpt lat="50.23158" lon="2.11535">
        <ele>77.042847</ele>
        <time>2009-05-16T07:52:59Z</time>
      </trkpt>
      <trkpt lat="50.23145" lon="2.11501">
        <ele>77.042847</ele>
        <time>2009-05-16T07:53:05Z</time>
      </trkpt>
      <trkpt lat="50.23138" lon="2.11488">
        <ele>76.562134</ele>
        <time>2009-05-16T07:53:07Z</time>
      </trkpt>
      <trkpt lat="50.23104" lon="2.11439">
        <ele>75.60083</ele>
        <time>2009-05-16T07:53:19Z</time>
      </trkpt>
      <trkpt lat="50.23095" lon="2.11431">
        <ele>75.60083</ele>
        <time>2009-05-16T07:53:24Z</time>
      </trkpt>
      <trkpt lat="50.23092" lon="2.1143">
        <ele>74.158813</ele>
        <time>2009-05-16T07:53:40Z</time>
      </trkpt>
      <trkpt lat="50.23091" lon="2.11428">
        <ele>70.794189</ele>
        <time>2009-05-16T07:54:13Z</time>
      </trkpt>
      <trkpt lat="50.23092" lon="2.1143">
        <ele>67.910278</ele>
        <time>2009-05-16T07:54:47Z</time>
      </trkpt>
      <trkpt lat="50.23094" lon="2.11433">
        <ele>65.026367</ele>
        <time>2009-05-16T07:55:25Z</time>
      </trkpt>
      <trkpt lat="50.23099" lon="2.11441">
        <ele>61.661743</ele>
        <time>2009-05-16T07:56:08Z</time>
      </trkpt>
      <trkpt lat="50.23099" lon="2.11441">
        <ele>58.77771</ele>
        <time>2009-05-16T07:56:52Z</time>
      </trkpt>
      <trkpt lat="50.23098" lon="2.1144">
        <ele>55.413086</ele>
        <time>2009-05-16T07:57:38Z</time>
      </trkpt>
      <trkpt lat="50.23098" lon="2.1144">
        <ele>52.048584</ele>
        <time>2009-05-16T07:58:24Z</time>
      </trkpt>
      <trkpt lat="50.23097" lon="2.11439">
        <ele>49.164551</ele>
        <time>2009-05-16T07:59:08Z</time>
      </trkpt>
      <trkpt lat="50.23097" lon="2.11439">
        <ele>46.28064</ele>
        <time>2009-05-16T07:59:58Z</time>
      </trkpt>
      <trkpt lat="50.23096" lon="2.11439">
        <ele>43.396606</ele>
        <time>2009-05-16T08:01:03Z</time>
      </trkpt>
      <trkpt lat="50.23095" lon="2.11439">
        <ele>40.032104</ele>
        <time>2009-05-16T08:02:25Z</time>
      </trkpt>
      <trkpt lat="50.23095" lon="2.11439">
        <ele>37.148071</ele>
        <time>2009-05-16T08:03:50Z</time>
      </trkpt>
      <trkpt lat="50.23096" lon="2.11439">
        <ele>34.26416</ele>
        <time>2009-05-16T08:05:12Z</time>
      </trkpt>
      <trkpt lat="50.23096" lon="2.11438">
        <ele>30.899536</ele>
        <time>2009-05-16T08:06:29Z</time>
      </trkpt>
      <trkpt lat="50.23096" lon="2.11437">
        <ele>28.015503</ele>
        <time>2009-05-16T08:07:51Z</time>
      </trkpt>
      <trkpt lat="50.23096" lon="2.11437">
        <ele>24.651001</ele>
        <time>2009-05-16T08:09:15Z</time>
      </trkpt>
      <trkpt lat="50.23091" lon="2.11434">
        <ele>23.689575</ele>
        <time>2009-05-16T08:10:25Z</time>
      </trkpt>
      <trkpt lat="50.23082" lon="2.11423">
        <ele>23.689575</ele>
        <time>2009-05-16T08:10:29Z</time>
      </trkpt>
      <trkpt lat="50.23045" lon="2.11397">
        <ele>24.170288</ele>
        <time>2009-05-16T08:10:36Z</time>
      </trkpt>
      <trkpt lat="50.23028" lon="2.11384">
        <ele>24.651001</ele>
        <time>2009-05-16T08:10:39Z</time>
      </trkpt>
      <trkpt lat="50.23015" lon="2.11379">
        <ele>25.131714</ele>
        <time>2009-05-16T08:10:41Z</time>
      </trkpt>
      <trkpt lat="50.23003" lon="2.11324">
        <ele>25.612305</ele>
        <time>2009-05-16T08:10:47Z</time>
      </trkpt>
      <trkpt lat="50.23003" lon="2.11249">
        <ele>26.573608</ele>
        <time>2009-05-16T08:10:54Z</time>
      </trkpt>
      <trkpt lat="50.22995" lon="2.11214">
        <ele>26.573608</ele>
        <time>2009-05-16T08:10:58Z</time>
      </trkpt>
      <trkpt lat="50.22947" lon="2.11106">
        <ele>28.015503</ele>
        <time>2009-05-16T08:11:12Z</time>
      </trkpt>
      <trkpt lat="50.22889" lon="2.10995">
        <ele>28.976929</ele>
        <time>2009-05-16T08:11:27Z</time>
      </trkpt>
      <trkpt lat="50.22837" lon="2.10896">
        <ele>29.45752</ele>
        <time>2009-05-16T08:11:40Z</time>
      </trkpt>
      <trkpt lat="50.22777" lon="2.10782">
        <ele>30.899536</ele>
        <time>2009-05-16T08:11:55Z</time>
      </trkpt>
      <trkpt lat="50.22727" lon="2.10685">
        <ele>31.380127</ele>
        <time>2009-05-16T08:12:08Z</time>
      </trkpt>
      <trkpt lat="50.2268" lon="2.106">
        <ele>31.860718</ele>
        <time>2009-05-16T08:12:21Z</time>
      </trkpt>
      <trkpt lat="50.22634" lon="2.10527">
        <ele>32.822266</ele>
        <time>2009-05-16T08:12:33Z</time>
      </trkpt>
      <trkpt lat="50.22568" lon="2.10439">
        <ele>33.302856</ele>
        <time>2009-05-16T08:12:48Z</time>
      </trkpt>
      <trkpt lat="50.22522" lon="2.10368">
        <ele>33.783447</ele>
        <time>2009-05-16T08:12:59Z</time>
      </trkpt>
      <trkpt lat="50.22455" lon="2.10271">
        <ele>34.26416</ele>
        <time>2009-05-16T08:13:14Z</time>
      </trkpt>
      <trkpt lat="50.22386" lon="2.1017">
        <ele>34.744873</ele>
        <time>2009-05-16T08:13:30Z</time>
      </trkpt>
      <trkpt lat="50.22373" lon="2.10154">
        <ele>34.744873</ele>
        <time>2009-05-16T08:13:33Z</time>
      </trkpt>
      <trkpt lat="50.22291" lon="2.1011">
        <ele>35.225464</ele>
        <time>2009-05-16T08:13:48Z</time>
      </trkpt>
      <trkpt lat="50.22201" lon="2.10059">
        <ele>35.706055</ele>
        <time>2009-05-16T08:14:04Z</time>
      </trkpt>
      <trkpt lat="50.22098" lon="2.1">
        <ele>35.706055</ele>
        <time>2009-05-16T08:14:22Z</time>
      </trkpt>
      <trkpt lat="50.22012" lon="2.09954">
        <ele>36.186768</ele>
        <time>2009-05-16T08:14:37Z</time>
      </trkpt>
      <trkpt lat="50.21924" lon="2.0994">
        <ele>36.186768</ele>
        <time>2009-05-16T08:14:52Z</time>
      </trkpt>
      <trkpt lat="50.21833" lon="2.0991">
        <ele>35.706055</ele>
        <time>2009-05-16T08:15:08Z</time>
      </trkpt>
      <trkpt lat="50.21794" lon="2.09882">
        <ele>35.706055</ele>
        <time>2009-05-16T08:15:15Z</time>
      </trkpt>
      <trkpt lat="50.21724" lon="2.09825">
        <ele>35.706055</ele>
        <time>2009-05-16T08:15:28Z</time>
      </trkpt>
      <trkpt lat="50.21652" lon="2.09751">
        <ele>35.225464</ele>
        <time>2009-05-16T08:15:42Z</time>
      </trkpt>
      <trkpt lat="50.21585" lon="2.0968">
        <ele>35.225464</ele>
        <time>2009-05-16T08:15:55Z</time>
      </trkpt>
      <trkpt lat="50.21508" lon="2.09597">
        <ele>35.225464</ele>
        <time>2009-05-16T08:16:10Z</time>
      </trkpt>
      <trkpt lat="50.2143" lon="2.09521">
        <ele>34.744873</ele>
        <time>2009-05-16T08:16:26Z</time>
      </trkpt>
      <trkpt lat="50.21368" lon="2.09456">
        <ele>34.26416</ele>
        <time>2009-05-16T08:16:38Z</time>
      </trkpt>
      <trkpt lat="50.21297" lon="2.09381">
        <ele>33.783447</ele>
        <time>2009-05-16T08:16:52Z</time>
      </trkpt>
      <trkpt lat="50.21222" lon="2.09315">
        <ele>33.783447</ele>
        <time>2009-05-16T08:17:06Z</time>
      </trkpt>
      <trkpt lat="50.21141" lon="2.0929">
        <ele>33.783447</ele>
        <time>2009-05-16T08:17:19Z</time>
      </trkpt>
      <trkpt lat="50.21053" lon="2.09284">
        <ele>33.783447</ele>
        <time>2009-05-16T08:17:33Z</time>
      </trkpt>
      <trkpt lat="50.20955" lon="2.09276">
        <ele>32.822266</ele>
        <time>2009-05-16T08:17:49Z</time>
      </trkpt>
      <trkpt lat="50.20866" lon="2.09268">
        <ele>32.341553</ele>
        <time>2009-05-16T08:18:03Z</time>
      </trkpt>
      <trkpt lat="50.20781" lon="2.09248">
        <ele>31.860718</ele>
        <time>2009-05-16T08:18:17Z</time>
      </trkpt>
      <trkpt lat="50.20722" lon="2.09231">
        <ele>31.860718</ele>
        <time>2009-05-16T08:18:28Z</time>
      </trkpt>
      <trkpt lat="50.20675" lon="2.09214">
        <ele>31.380127</ele>
        <time>2009-05-16T08:18:36Z</time>
      </trkpt>
      <trkpt lat="50.20592" lon="2.09188">
        <ele>30.899536</ele>
        <time>2009-05-16T08:18:50Z</time>
      </trkpt>
      <trkpt lat="50.20504" lon="2.0916">
        <ele>30.418823</ele>
        <time>2009-05-16T08:19:05Z</time>
      </trkpt>
      <trkpt lat="50.20416" lon="2.09125">
        <ele>29.45752</ele>
        <time>2009-05-16T08:19:21Z</time>
      </trkpt>
      <trkpt lat="50.20349" lon="2.09074">
        <ele>29.45752</ele>
        <time>2009-05-16T08:19:35Z</time>
      </trkpt>
      <trkpt lat="50.20281" lon="2.09036">
        <ele>28.976929</ele>
        <time>2009-05-16T08:19:50Z</time>
      </trkpt>
      <trkpt lat="50.20214" lon="2.08999">
        <ele>28.976929</ele>
        <time>2009-05-16T08:20:05Z</time>
      </trkpt>
      <trkpt lat="50.20174" lon="2.0898">
        <ele>28.496216</ele>
        <time>2009-05-16T08:20:15Z</time>
      </trkpt>
      <trkpt lat="50.20159" lon="2.08995">
        <ele>28.496216</ele>
        <time>2009-05-16T08:20:19Z</time>
      </trkpt>
      <trkpt lat="50.20096" lon="2.09101">
        <ele>27.534912</ele>
        <time>2009-05-16T08:20:35Z</time>
      </trkpt>
      <trkpt lat="50.20065" lon="2.09162">
        <ele>26.573608</ele>
        <time>2009-05-16T08:20:43Z</time>
      </trkpt>
      <trkpt lat="50.20042" lon="2.09228">
        <ele>26.092896</ele>
        <time>2009-05-16T08:20:50Z</time>
      </trkpt>
      <trkpt lat="50.19989" lon="2.0926">
        <ele>26.092896</ele>
        <time>2009-05-16T08:20:59Z</time>
      </trkpt>
      <trkpt lat="50.19913" lon="2.09224">
        <ele>27.054321</ele>
        <time>2009-05-16T08:21:14Z</time>
      </trkpt>
      <trkpt lat="50.19857" lon="2.09211">
        <ele>27.534912</ele>
        <time>2009-05-16T08:21:27Z</time>
      </trkpt>
      <trkpt lat="50.19807" lon="2.09195">
        <ele>27.534912</ele>
        <time>2009-05-16T08:21:41Z</time>
      </trkpt>
      <trkpt lat="50.19778" lon="2.09142">
        <ele>27.534912</ele>
        <time>2009-05-16T08:21:52Z</time>
      </trkpt>
      <trkpt lat="50.19771" lon="2.09131">
        <ele>27.534912</ele>
        <time>2009-05-16T08:21:54Z</time>
      </trkpt>
      <trkpt lat="50.19764" lon="2.09121">
        <ele>27.534912</ele>
        <time>2009-05-16T08:21:56Z</time>
      </trkpt>
      <trkpt lat="50.19727" lon="2.0911">
        <ele>27.534912</ele>
        <time>2009-05-16T08:22:03Z</time>
      </trkpt>
      <trkpt lat="50.19626" lon="2.09161">
        <ele>28.496216</ele>
        <time>2009-05-16T08:22:18Z</time>
      </trkpt>
      <trkpt lat="50.196" lon="2.09173">
        <ele>28.496216</ele>
        <time>2009-05-16T08:22:22Z</time>
      </trkpt>
      <trkpt lat="50.19572" lon="2.0914">
        <ele>28.976929</ele>
        <time>2009-05-16T08:22:28Z</time>
      </trkpt>
      <trkpt lat="50.19543" lon="2.09003">
        <ele>28.976929</ele>
        <time>2009-05-16T08:22:43Z</time>
      </trkpt>
      <trkpt lat="50.19485" lon="2.08922">
        <ele>28.976929</ele>
        <time>2009-05-16T08:22:56Z</time>
      </trkpt>
      <trkpt lat="50.19438" lon="2.08862">
        <ele>28.976929</ele>
        <time>2009-05-16T08:23:08Z</time>
      </trkpt>
      <trkpt lat="50.19382" lon="2.08798">
        <ele>29.45752</ele>
        <time>2009-05-16T08:23:24Z</time>
      </trkpt>
      <trkpt lat="50.19363" lon="2.08729">
        <ele>29.93811</ele>
        <time>2009-05-16T08:23:37Z</time>
      </trkpt>
      <trkpt lat="50.19341" lon="2.08653">
        <ele>30.418823</ele>
        <time>2009-05-16T08:23:51Z</time>
      </trkpt>
      <trkpt lat="50.19313" lon="2.08598">
        <ele>30.899536</ele>
        <time>2009-05-16T08:24:03Z</time>
      </trkpt>
      <trkpt lat="50.19273" lon="2.08556">
        <ele>31.380127</ele>
        <time>2009-05-16T08:24:17Z</time>
      </trkpt>
      <trkpt lat="50.19228" lon="2.08537">
        <ele>32.341553</ele>
        <time>2009-05-16T08:24:31Z</time>
      </trkpt>
      <trkpt lat="50.19184" lon="2.08535">
        <ele>33.302856</ele>
        <time>2009-05-16T08:24:44Z</time>
      </trkpt>
      <trkpt lat="50.19134" lon="2.08547">
        <ele>35.225464</ele>
        <time>2009-05-16T08:25:00Z</time>
      </trkpt>
      <trkpt lat="50.19086" lon="2.08545">
        <ele>37.148071</ele>
        <time>2009-05-16T08:25:15Z</time>
      </trkpt>
      <trkpt lat="50.19032" lon="2.08525">
        <ele>38.109375</ele>
        <time>2009-05-16T08:25:31Z</time>
      </trkpt>
      <trkpt lat="50.18981" lon="2.08505">
        <ele>39.55127</ele>
        <time>2009-05-16T08:25:45Z</time>
      </trkpt>
      <trkpt lat="50.18937" lon="2.08484">
        <ele>40.512817</ele>
        <time>2009-05-16T08:25:58Z</time>
      </trkpt>
      <trkpt lat="50.18885" lon="2.0845">
        <ele>41.473999</ele>
        <time>2009-05-16T08:26:11Z</time>
      </trkpt>
      <trkpt lat="50.18877" lon="2.08445">
        <ele>41.473999</ele>
        <time>2009-05-16T08:26:13Z</time>
      </trkpt>
      <trkpt lat="50.18868" lon="2.0844">
        <ele>41.954712</ele>
        <time>2009-05-16T08:26:15Z</time>
      </trkpt>
      <trkpt lat="50.1886" lon="2.08435">
        <ele>41.954712</ele>
        <time>2009-05-16T08:26:17Z</time>
      </trkpt>
      <trkpt lat="50.18839" lon="2.0842">
        <ele>42.435425</ele>
        <time>2009-05-16T08:26:22Z</time>
      </trkpt>
      <trkpt lat="50.18771" lon="2.08373">
        <ele>42.916016</ele>
        <time>2009-05-16T08:26:37Z</time>
      </trkpt>
      <trkpt lat="50.18724" lon="2.0834">
        <ele>43.877319</ele>
        <time>2009-05-16T08:26:47Z</time>
      </trkpt>
      <trkpt lat="50.18659" lon="2.08294">
        <ele>44.358032</ele>
        <time>2009-05-16T08:27:00Z</time>
      </trkpt>
      <trkpt lat="50.18597" lon="2.08226">
        <ele>44.838623</ele>
        <time>2009-05-16T08:27:14Z</time>
      </trkpt>
      <trkpt lat="50.1853" lon="2.08149">
        <ele>45.319214</ele>
        <time>2009-05-16T08:27:30Z</time>
      </trkpt>
      <trkpt lat="50.18466" lon="2.08088">
        <ele>46.28064</ele>
        <time>2009-05-16T08:27:44Z</time>
      </trkpt>
      <trkpt lat="50.18451" lon="2.08068">
        <ele>46.28064</ele>
        <time>2009-05-16T08:27:48Z</time>
      </trkpt>
      <trkpt lat="50.1839" lon="2.07979">
        <ele>47.241821</ele>
        <time>2009-05-16T08:28:04Z</time>
      </trkpt>
      <trkpt lat="50.18348" lon="2.07918">
        <ele>47.722534</ele>
        <time>2009-05-16T08:28:14Z</time>
      </trkpt>
      <trkpt lat="50.18336" lon="2.07898">
        <ele>48.203369</ele>
        <time>2009-05-16T08:28:17Z</time>
      </trkpt>
      <trkpt lat="50.1828" lon="2.0782">
        <ele>48.68396</ele>
        <time>2009-05-16T08:28:29Z</time>
      </trkpt>
      <trkpt lat="50.18256" lon="2.07797">
        <ele>48.68396</ele>
        <time>2009-05-16T08:28:34Z</time>
      </trkpt>
      <trkpt lat="50.18198" lon="2.07726">
        <ele>50.125977</ele>
        <time>2009-05-16T08:28:46Z</time>
      </trkpt>
      <trkpt lat="50.18137" lon="2.07646">
        <ele>50.606567</ele>
        <time>2009-05-16T08:28:59Z</time>
      </trkpt>
      <trkpt lat="50.18054" lon="2.07584">
        <ele>51.087158</ele>
        <time>2009-05-16T08:29:13Z</time>
      </trkpt>
      <trkpt lat="50.18007" lon="2.0755">
        <ele>51.567871</ele>
        <time>2009-05-16T08:29:21Z</time>
      </trkpt>
      <trkpt lat="50.17932" lon="2.07488">
        <ele>51.567871</ele>
        <time>2009-05-16T08:29:34Z</time>
      </trkpt>
      <trkpt lat="50.17855" lon="2.07437">
        <ele>51.567871</ele>
        <time>2009-05-16T08:29:48Z</time>
      </trkpt>
      <trkpt lat="50.17788" lon="2.07392">
        <ele>52.529175</ele>
        <time>2009-05-16T08:30:01Z</time>
      </trkpt>
      <trkpt lat="50.17713" lon="2.07369">
        <ele>53.009766</ele>
        <time>2009-05-16T08:30:14Z</time>
      </trkpt>
      <trkpt lat="50.17641" lon="2.07353">
        <ele>53.490479</ele>
        <time>2009-05-16T08:30:27Z</time>
      </trkpt>
      <trkpt lat="50.17616" lon="2.07335">
        <ele>53.490479</ele>
        <time>2009-05-16T08:30:32Z</time>
      </trkpt>
      <trkpt lat="50.17522" lon="2.07272">
        <ele>54.451782</ele>
        <time>2009-05-16T08:30:49Z</time>
      </trkpt>
      <trkpt lat="50.17504" lon="2.0726">
        <ele>54.451782</ele>
        <time>2009-05-16T08:30:52Z</time>
      </trkpt>
      <trkpt lat="50.17442" lon="2.07208">
        <ele>54.932373</ele>
        <time>2009-05-16T08:31:05Z</time>
      </trkpt>
      <trkpt lat="50.17373" lon="2.07141">
        <ele>55.413086</ele>
        <time>2009-05-16T08:31:19Z</time>
      </trkpt>
      <trkpt lat="50.17303" lon="2.07073">
        <ele>56.374512</ele>
        <time>2009-05-16T08:31:34Z</time>
      </trkpt>
      <trkpt lat="50.17252" lon="2.06995">
        <ele>57.335815</ele>
        <time>2009-05-16T08:31:48Z</time>
      </trkpt>
      <trkpt lat="50.17196" lon="2.06889">
        <ele>58.297119</ele>
        <time>2009-05-16T08:32:05Z</time>
      </trkpt>
      <trkpt lat="50.17143" lon="2.06799">
        <ele>59.258423</ele>
        <time>2009-05-16T08:32:19Z</time>
      </trkpt>
      <trkpt lat="50.17074" lon="2.06722">
        <ele>60.219727</ele>
        <time>2009-05-16T08:32:35Z</time>
      </trkpt>
      <trkpt lat="50.17006" lon="2.06668">
        <ele>61.661743</ele>
        <time>2009-05-16T08:32:50Z</time>
      </trkpt>
      <trkpt lat="50.16937" lon="2.06618">
        <ele>62.622925</ele>
        <time>2009-05-16T08:33:04Z</time>
      </trkpt>
      <trkpt lat="50.16845" lon="2.06554">
        <ele>63.584351</ele>
        <time>2009-05-16T08:33:21Z</time>
      </trkpt>
      <trkpt lat="50.16741" lon="2.06464">
        <ele>64.545654</ele>
        <time>2009-05-16T08:33:41Z</time>
      </trkpt>
      <trkpt lat="50.16679" lon="2.06378">
        <ele>65.50708</ele>
        <time>2009-05-16T08:33:55Z</time>
      </trkpt>
      <trkpt lat="50.16642" lon="2.06341">
        <ele>65.50708</ele>
        <time>2009-05-16T08:34:02Z</time>
      </trkpt>
      <trkpt lat="50.16614" lon="2.06325">
        <ele>65.50708</ele>
        <time>2009-05-16T08:34:07Z</time>
      </trkpt>
      <trkpt lat="50.16597" lon="2.06323">
        <ele>65.50708</ele>
        <time>2009-05-16T08:34:10Z</time>
      </trkpt>
      <trkpt lat="50.16534" lon="2.06339">
        <ele>65.987671</ele>
        <time>2009-05-16T08:34:21Z</time>
      </trkpt>
      <trkpt lat="50.16452" lon="2.06366">
        <ele>65.987671</ele>
        <time>2009-05-16T08:34:35Z</time>
      </trkpt>
      <trkpt lat="50.16441" lon="2.06366">
        <ele>65.987671</ele>
        <time>2009-05-16T08:34:37Z</time>
      </trkpt>
      <trkpt lat="50.16413" lon="2.06358">
        <ele>66.468262</ele>
        <time>2009-05-16T08:34:42Z</time>
      </trkpt>
      <trkpt lat="50.16318" lon="2.06304">
        <ele>66.468262</ele>
        <time>2009-05-16T08:34:59Z</time>
      </trkpt>
      <trkpt lat="50.16237" lon="2.06291">
        <ele>66.948975</ele>
        <time>2009-05-16T08:35:13Z</time>
      </trkpt>
      <trkpt lat="50.16219" lon="2.06289">
        <ele>66.948975</ele>
        <time>2009-05-16T08:35:16Z</time>
      </trkpt>
      <trkpt lat="50.16195" lon="2.06286">
        <ele>66.948975</ele>
        <time>2009-05-16T08:35:20Z</time>
      </trkpt>
      <trkpt lat="50.16122" lon="2.06213">
        <ele>66.948975</ele>
        <time>2009-05-16T08:35:34Z</time>
      </trkpt>
      <trkpt lat="50.16044" lon="2.06117">
        <ele>66.948975</ele>
        <time>2009-05-16T08:35:48Z</time>
      </trkpt>
      <trkpt lat="50.15943" lon="2.05982">
        <ele>66.468262</ele>
        <time>2009-05-16T08:36:04Z</time>
      </trkpt>
      <trkpt lat="50.15857" lon="2.05855">
        <ele>66.468262</ele>
        <time>2009-05-16T08:36:20Z</time>
      </trkpt>
      <trkpt lat="50.1578" lon="2.05801">
        <ele>66.948975</ele>
        <time>2009-05-16T08:36:35Z</time>
      </trkpt>
      <trkpt lat="50.15755" lon="2.05782">
        <ele>66.948975</ele>
        <time>2009-05-16T08:36:40Z</time>
      </trkpt>
      <trkpt lat="50.15686" lon="2.05722">
        <ele>67.910278</ele>
        <time>2009-05-16T08:36:55Z</time>
      </trkpt>
      <trkpt lat="50.15625" lon="2.0564">
        <ele>68.871582</ele>
        <time>2009-05-16T08:37:09Z</time>
      </trkpt>
      <trkpt lat="50.15557" lon="2.05566">
        <ele>69.352295</ele>
        <time>2009-05-16T08:37:22Z</time>
      </trkpt>
      <trkpt lat="50.15498" lon="2.05548">
        <ele>69.352295</ele>
        <time>2009-05-16T08:37:32Z</time>
      </trkpt>
      <trkpt lat="50.15457" lon="2.05553">
        <ele>69.832886</ele>
        <time>2009-05-16T08:37:39Z</time>
      </trkpt>
      <trkpt lat="50.1537" lon="2.0554">
        <ele>70.794189</ele>
        <time>2009-05-16T08:37:54Z</time>
      </trkpt>
      <trkpt lat="50.15285" lon="2.05504">
        <ele>70.794189</ele>
        <time>2009-05-16T08:38:09Z</time>
      </trkpt>
      <trkpt lat="50.15187" lon="2.05456">
        <ele>71.755493</ele>
        <time>2009-05-16T08:38:25Z</time>
      </trkpt>
      <trkpt lat="50.15098" lon="2.05404">
        <ele>72.716919</ele>
        <time>2009-05-16T08:38:40Z</time>
      </trkpt>
      <trkpt lat="50.15004" lon="2.05355">
        <ele>73.197632</ele>
        <time>2009-05-16T08:38:55Z</time>
      </trkpt>
      <trkpt lat="50.14947" lon="2.05328">
        <ele>73.197632</ele>
        <time>2009-05-16T08:39:04Z</time>
      </trkpt>
      <trkpt lat="50.1491" lon="2.05343">
        <ele>73.197632</ele>
        <time>2009-05-16T08:39:10Z</time>
      </trkpt>
      <trkpt lat="50.14857" lon="2.05421">
        <ele>73.678223</ele>
        <time>2009-05-16T08:39:20Z</time>
      </trkpt>
      <trkpt lat="50.14815" lon="2.05436">
        <ele>73.678223</ele>
        <time>2009-05-16T08:39:26Z</time>
      </trkpt>
      <trkpt lat="50.14695" lon="2.05443">
        <ele>73.678223</ele>
        <time>2009-05-16T08:39:41Z</time>
      </trkpt>
      <trkpt lat="50.1462" lon="2.05435">
        <ele>73.678223</ele>
        <time>2009-05-16T08:39:53Z</time>
      </trkpt>
      <trkpt lat="50.1457" lon="2.05434">
        <ele>73.678223</ele>
        <time>2009-05-16T08:40:03Z</time>
      </trkpt>
      <trkpt lat="50.14502" lon="2.05451">
        <ele>74.158813</ele>
        <time>2009-05-16T08:40:18Z</time>
      </trkpt>
      <trkpt lat="50.14468" lon="2.05464">
        <ele>69.352295</ele>
        <time>2009-05-16T08:40:26Z</time>
      </trkpt>
      <trkpt lat="50.14465" lon="2.05467">
        <ele>69.352295</ele>
        <time>2009-05-16T08:40:27Z</time>
      </trkpt>
      <trkpt lat="50.14449" lon="2.05472">
        <ele>67.910278</ele>
        <time>2009-05-16T08:40:31Z</time>
      </trkpt>
      <trkpt lat="50.14442" lon="2.05474">
        <ele>70.794189</ele>
        <time>2009-05-16T08:40:33Z</time>
      </trkpt>
      <trkpt lat="50.14438" lon="2.05476">
        <ele>70.313477</ele>
        <time>2009-05-16T08:40:34Z</time>
      </trkpt>
      <trkpt lat="50.14409" lon="2.05487">
        <ele>66.948975</ele>
        <time>2009-05-16T08:40:42Z</time>
      </trkpt>
      <trkpt lat="50.144" lon="2.05488">
        <ele>68.390869</ele>
        <time>2009-05-16T08:40:45Z</time>
      </trkpt>
      <trkpt lat="50.14356" lon="2.05502">
        <ele>68.871582</ele>
        <time>2009-05-16T08:40:57Z</time>
      </trkpt>
      <trkpt lat="50.1433" lon="2.05513">
        <ele>68.871582</ele>
        <time>2009-05-16T08:41:04Z</time>
      </trkpt>
      <trkpt lat="50.14298" lon="2.05522">
        <ele>72.716919</ele>
        <time>2009-05-16T08:41:12Z</time>
      </trkpt>
      <trkpt lat="50.14294" lon="2.05523">
        <ele>73.197632</ele>
        <time>2009-05-16T08:41:13Z</time>
      </trkpt>
      <trkpt lat="50.14274" lon="2.05527">
        <ele>73.197632</ele>
        <time>2009-05-16T08:41:25Z</time>
      </trkpt>
      <trkpt lat="50.14274" lon="2.05527">
        <ele>70.313477</ele>
        <time>2009-05-16T08:42:56Z</time>
      </trkpt>
      <trkpt lat="50.14255" lon="2.05537">
        <ele>69.832886</ele>
        <time>2009-05-16T08:43:02Z</time>
      </trkpt>
      <trkpt lat="50.1424" lon="2.05545">
        <ele>69.832886</ele>
        <time>2009-05-16T08:43:05Z</time>
      </trkpt>
      <trkpt lat="50.14223" lon="2.05549">
        <ele>75.120239</ele>
        <time>2009-05-16T08:43:08Z</time>
      </trkpt>
      <trkpt lat="50.14218" lon="2.05551">
        <ele>81.368774</ele>
        <time>2009-05-16T08:43:09Z</time>
      </trkpt>
      <trkpt lat="50.14212" lon="2.05552">
        <ele>84.733398</ele>
        <time>2009-05-16T08:43:10Z</time>
      </trkpt>
      <trkpt lat="50.142" lon="2.05556">
        <ele>88.098022</ele>
        <time>2009-05-16T08:43:12Z</time>
      </trkpt>
      <trkpt lat="50.14188" lon="2.0556">
        <ele>91.462524</ele>
        <time>2009-05-16T08:43:14Z</time>
      </trkpt>
      <trkpt lat="50.14164" lon="2.05565">
        <ele>95.307739</ele>
        <time>2009-05-16T08:43:18Z</time>
      </trkpt>
      <trkpt lat="50.14146" lon="2.0557">
        <ele>96.749878</ele>
        <time>2009-05-16T08:43:21Z</time>
      </trkpt>
      <trkpt lat="50.1412" lon="2.05577">
        <ele>100.595093</ele>
        <time>2009-05-16T08:43:25Z</time>
      </trkpt>
      <trkpt lat="50.14039" lon="2.05585">
        <ele>101.075684</ele>
        <time>2009-05-16T08:43:38Z</time>
      </trkpt>
      <trkpt lat="50.14026" lon="2.05581">
        <ele>100.595093</ele>
        <time>2009-05-16T08:43:40Z</time>
      </trkpt>
      <trkpt lat="50.13996" lon="2.05556">
        <ele>101.075684</ele>
        <time>2009-05-16T08:43:45Z</time>
      </trkpt>
      <trkpt lat="50.13926" lon="2.05447">
        <ele>100.595093</ele>
        <time>2009-05-16T08:43:59Z</time>
      </trkpt>
      <trkpt lat="50.13853" lon="2.05327">
        <ele>100.114502</ele>
        <time>2009-05-16T08:44:15Z</time>
      </trkpt>
      <trkpt lat="50.13777" lon="2.05253">
        <ele>99.153076</ele>
        <time>2009-05-16T08:44:28Z</time>
      </trkpt>
      <trkpt lat="50.13672" lon="2.05233">
        <ele>97.711182</ele>
        <time>2009-05-16T08:44:43Z</time>
      </trkpt>
      <trkpt lat="50.13582" lon="2.05172">
        <ele>96.269287</ele>
        <time>2009-05-16T08:44:57Z</time>
      </trkpt>
      <trkpt lat="50.13501" lon="2.05146">
        <ele>94.827148</ele>
        <time>2009-05-16T08:45:10Z</time>
      </trkpt>
      <trkpt lat="50.1343" lon="2.05154">
        <ele>93.385132</ele>
        <time>2009-05-16T08:45:23Z</time>
      </trkpt>
      <trkpt lat="50.13352" lon="2.05142">
        <ele>91.943237</ele>
        <time>2009-05-16T08:45:37Z</time>
      </trkpt>
      <trkpt lat="50.13272" lon="2.05118">
        <ele>90.501343</ele>
        <time>2009-05-16T08:45:51Z</time>
      </trkpt>
      <trkpt lat="50.13183" lon="2.05087">
        <ele>89.059326</ele>
        <time>2009-05-16T08:46:07Z</time>
      </trkpt>
      <trkpt lat="50.13129" lon="2.0505">
        <ele>88.578735</ele>
        <time>2009-05-16T08:46:17Z</time>
      </trkpt>
      <trkpt lat="50.13035" lon="2.04975">
        <ele>87.617188</ele>
        <time>2009-05-16T08:46:35Z</time>
      </trkpt>
      <trkpt lat="50.13009" lon="2.04951">
        <ele>87.136597</ele>
        <time>2009-05-16T08:46:40Z</time>
      </trkpt>
      <trkpt lat="50.12924" lon="2.04839">
        <ele>85.69458</ele>
        <time>2009-05-16T08:46:58Z</time>
      </trkpt>
      <trkpt lat="50.12831" lon="2.04795">
        <ele>84.252686</ele>
        <time>2009-05-16T08:47:13Z</time>
      </trkpt>
      <trkpt lat="50.12734" lon="2.04755">
        <ele>82.330078</ele>
        <time>2009-05-16T08:47:27Z</time>
      </trkpt>
      <trkpt lat="50.12615" lon="2.04704">
        <ele>80.888184</ele>
        <time>2009-05-16T08:47:44Z</time>
      </trkpt>
      <trkpt lat="50.125" lon="2.04661">
        <ele>79.446045</ele>
        <time>2009-05-16T08:48:00Z</time>
      </trkpt>
      <trkpt lat="50.12363" lon="2.04629">
        <ele>78.004028</ele>
        <time>2009-05-16T08:48:14Z</time>
      </trkpt>
      <trkpt lat="50.12252" lon="2.04591">
        <ele>77.042847</ele>
        <time>2009-05-16T08:48:27Z</time>
      </trkpt>
      <trkpt lat="50.12165" lon="2.04531">
        <ele>76.081421</ele>
        <time>2009-05-16T08:48:41Z</time>
      </trkpt>
      <trkpt lat="50.12096" lon="2.04484">
        <ele>75.60083</ele>
        <time>2009-05-16T08:48:54Z</time>
      </trkpt>
      <trkpt lat="50.1208" lon="2.04475">
        <ele>75.60083</ele>
        <time>2009-05-16T08:48:57Z</time>
      </trkpt>
      <trkpt lat="50.12022" lon="2.04476">
        <ele>76.081421</ele>
        <time>2009-05-16T08:49:09Z</time>
      </trkpt>
      <trkpt lat="50.11966" lon="2.04517">
        <ele>77.523438</ele>
        <time>2009-05-16T08:49:21Z</time>
      </trkpt>
      <trkpt lat="50.11908" lon="2.04556">
        <ele>77.042847</ele>
        <time>2009-05-16T08:49:33Z</time>
      </trkpt>
      <trkpt lat="50.11877" lon="2.04576">
        <ele>76.562134</ele>
        <time>2009-05-16T08:49:40Z</time>
      </trkpt>
      <trkpt lat="50.11858" lon="2.04587">
        <ele>76.562134</ele>
        <time>2009-05-16T08:49:44Z</time>
      </trkpt>
      <trkpt lat="50.11781" lon="2.04639">
        <ele>75.60083</ele>
        <time>2009-05-16T08:50:00Z</time>
      </trkpt>
      <trkpt lat="50.11705" lon="2.0469">
        <ele>74.158813</ele>
        <time>2009-05-16T08:50:16Z</time>
      </trkpt>
      <trkpt lat="50.11628" lon="2.04742">
        <ele>73.678223</ele>
        <time>2009-05-16T08:50:31Z</time>
      </trkpt>
      <trkpt lat="50.11547" lon="2.04796">
        <ele>72.236206</ele>
        <time>2009-05-16T08:50:45Z</time>
      </trkpt>
      <trkpt lat="50.11459" lon="2.0486">
        <ele>71.274902</ele>
        <time>2009-05-16T08:50:59Z</time>
      </trkpt>
      <trkpt lat="50.11427" lon="2.04887">
        <ele>70.794189</ele>
        <time>2009-05-16T08:51:04Z</time>
      </trkpt>
      <trkpt lat="50.11401" lon="2.04868">
        <ele>70.313477</ele>
        <time>2009-05-16T08:51:09Z</time>
      </trkpt>
      <trkpt lat="50.11384" lon="2.04806">
        <ele>70.313477</ele>
        <time>2009-05-16T08:51:15Z</time>
      </trkpt>
      <trkpt lat="50.11348" lon="2.04759">
        <ele>69.832886</ele>
        <time>2009-05-16T08:51:23Z</time>
      </trkpt>
      <trkpt lat="50.1134" lon="2.04759">
        <ele>69.832886</ele>
        <time>2009-05-16T08:51:24Z</time>
      </trkpt>
      <trkpt lat="50.11231" lon="2.04769">
        <ele>68.871582</ele>
        <time>2009-05-16T08:51:38Z</time>
      </trkpt>
      <trkpt lat="50.11201" lon="2.04762">
        <ele>68.871582</ele>
        <time>2009-05-16T08:51:42Z</time>
      </trkpt>
      <trkpt lat="50.11121" lon="2.04699">
        <ele>68.390869</ele>
        <time>2009-05-16T08:51:55Z</time>
      </trkpt>
      <trkpt lat="50.11111" lon="2.04689">
        <ele>68.390869</ele>
        <time>2009-05-16T08:51:57Z</time>
      </trkpt>
      <trkpt lat="50.11044" lon="2.04669">
        <ele>68.871582</ele>
        <time>2009-05-16T08:52:08Z</time>
      </trkpt>
      <trkpt lat="50.10969" lon="2.04658">
        <ele>68.871582</ele>
        <time>2009-05-16T08:52:23Z</time>
      </trkpt>
      <trkpt lat="50.10883" lon="2.0465">
        <ele>69.352295</ele>
        <time>2009-05-16T08:52:39Z</time>
      </trkpt>
      <trkpt lat="50.10787" lon="2.0464">
        <ele>69.352295</ele>
        <time>2009-05-16T08:52:56Z</time>
      </trkpt>
      <trkpt lat="50.10708" lon="2.0463">
        <ele>69.832886</ele>
        <time>2009-05-16T08:53:10Z</time>
      </trkpt>
      <trkpt lat="50.10619" lon="2.04619">
        <ele>70.313477</ele>
        <time>2009-05-16T08:53:26Z</time>
      </trkpt>
      <trkpt lat="50.1053" lon="2.04627">
        <ele>70.794189</ele>
        <time>2009-05-16T08:53:41Z</time>
      </trkpt>
      <trkpt lat="50.10438" lon="2.0464">
        <ele>71.755493</ele>
        <time>2009-05-16T08:53:57Z</time>
      </trkpt>
      <trkpt lat="50.10348" lon="2.04633">
        <ele>72.236206</ele>
        <time>2009-05-16T08:54:12Z</time>
      </trkpt>
      <trkpt lat="50.10255" lon="2.04625">
        <ele>73.197632</ele>
        <time>2009-05-16T08:54:27Z</time>
      </trkpt>
      <trkpt lat="50.10177" lon="2.04626">
        <ele>74.158813</ele>
        <time>2009-05-16T08:54:41Z</time>
      </trkpt>
      <trkpt lat="50.10111" lon="2.04629">
        <ele>74.639526</ele>
        <time>2009-05-16T08:54:54Z</time>
      </trkpt>
      <trkpt lat="50.10039" lon="2.04651">
        <ele>75.60083</ele>
        <time>2009-05-16T08:55:09Z</time>
      </trkpt>
      <trkpt lat="50.0997" lon="2.04681">
        <ele>76.562134</ele>
        <time>2009-05-16T08:55:22Z</time>
      </trkpt>
      <trkpt lat="50.09889" lon="2.0473">
        <ele>77.042847</ele>
        <time>2009-05-16T08:55:38Z</time>
      </trkpt>
      <trkpt lat="50.09884" lon="2.04732">
        <ele>77.523438</ele>
        <time>2009-05-16T08:55:39Z</time>
      </trkpt>
      <trkpt lat="50.09864" lon="2.04758">
        <ele>77.523438</ele>
        <time>2009-05-16T08:55:44Z</time>
      </trkpt>
      <trkpt lat="50.09798" lon="2.04834">
        <ele>78.484741</ele>
        <time>2009-05-16T08:56:00Z</time>
      </trkpt>
      <trkpt lat="50.09744" lon="2.04884">
        <ele>79.446045</ele>
        <time>2009-05-16T08:56:13Z</time>
      </trkpt>
      <trkpt lat="50.09735" lon="2.0489">
        <ele>79.446045</ele>
        <time>2009-05-16T08:56:15Z</time>
      </trkpt>
      <trkpt lat="50.09662" lon="2.04939">
        <ele>80.407471</ele>
        <time>2009-05-16T08:56:32Z</time>
      </trkpt>
      <trkpt lat="50.09636" lon="2.04949">
        <ele>80.888184</ele>
        <time>2009-05-16T08:56:38Z</time>
      </trkpt>
      <trkpt lat="50.09577" lon="2.05">
        <ele>81.368774</ele>
        <time>2009-05-16T08:56:52Z</time>
      </trkpt>
      <trkpt lat="50.09573" lon="2.05004">
        <ele>81.368774</ele>
        <time>2009-05-16T08:56:53Z</time>
      </trkpt>
      <trkpt lat="50.0956" lon="2.05018">
        <ele>81.849365</ele>
        <time>2009-05-16T08:56:57Z</time>
      </trkpt>
      <trkpt lat="50.09502" lon="2.05079">
        <ele>82.330078</ele>
        <time>2009-05-16T08:57:12Z</time>
      </trkpt>
      <trkpt lat="50.09479" lon="2.05111">
        <ele>82.810791</ele>
        <time>2009-05-16T08:57:18Z</time>
      </trkpt>
      <trkpt lat="50.09423" lon="2.05215">
        <ele>83.771973</ele>
        <time>2009-05-16T08:57:36Z</time>
      </trkpt>
      <trkpt lat="50.09366" lon="2.0528">
        <ele>84.252686</ele>
        <time>2009-05-16T08:57:50Z</time>
      </trkpt>
      <trkpt lat="50.09328" lon="2.05317">
        <ele>84.733398</ele>
        <time>2009-05-16T08:57:59Z</time>
      </trkpt>
      <trkpt lat="50.09267" lon="2.05373">
        <ele>85.213989</ele>
        <time>2009-05-16T08:58:14Z</time>
      </trkpt>
      <trkpt lat="50.09259" lon="2.05378">
        <ele>85.213989</ele>
        <time>2009-05-16T08:58:16Z</time>
      </trkpt>
      <trkpt lat="50.09238" lon="2.05371">
        <ele>85.69458</ele>
        <time>2009-05-16T08:58:21Z</time>
      </trkpt>
      <trkpt lat="50.09207" lon="2.05325">
        <ele>86.175293</ele>
        <time>2009-05-16T08:58:30Z</time>
      </trkpt>
      <trkpt lat="50.09186" lon="2.05315">
        <ele>86.175293</ele>
        <time>2009-05-16T08:58:35Z</time>
      </trkpt>
      <trkpt lat="50.09105" lon="2.05342">
        <ele>87.136597</ele>
        <time>2009-05-16T08:58:50Z</time>
      </trkpt>
      <trkpt lat="50.09027" lon="2.05341">
        <ele>87.617188</ele>
        <time>2009-05-16T08:59:04Z</time>
      </trkpt>
      <trkpt lat="50.08979" lon="2.05336">
        <ele>88.098022</ele>
        <time>2009-05-16T08:59:13Z</time>
      </trkpt>
      <trkpt lat="50.0888" lon="2.05332">
        <ele>88.578735</ele>
        <time>2009-05-16T08:59:31Z</time>
      </trkpt>
      <trkpt lat="50.08796" lon="2.05342">
        <ele>89.059326</ele>
        <time>2009-05-16T08:59:45Z</time>
      </trkpt>
      <trkpt lat="50.08709" lon="2.05354">
        <ele>89.539917</ele>
        <time>2009-05-16T08:59:59Z</time>
      </trkpt>
      <trkpt lat="50.08622" lon="2.05366">
        <ele>89.539917</ele>
        <time>2009-05-16T09:00:12Z</time>
      </trkpt>
      <trkpt lat="50.08515" lon="2.05384">
        <ele>90.02063</ele>
        <time>2009-05-16T09:00:25Z</time>
      </trkpt>
      <trkpt lat="50.08485" lon="2.05388">
        <ele>90.02063</ele>
        <time>2009-05-16T09:00:28Z</time>
      </trkpt>
      <trkpt lat="50.08389" lon="2.05469">
        <ele>90.02063</ele>
        <time>2009-05-16T09:00:39Z</time>
      </trkpt>
      <trkpt lat="50.08318" lon="2.05542">
        <ele>89.539917</ele>
        <time>2009-05-16T09:00:48Z</time>
      </trkpt>
      <trkpt lat="50.08192" lon="2.05614">
        <ele>89.539917</ele>
        <time>2009-05-16T09:01:03Z</time>
      </trkpt>
      <trkpt lat="50.08057" lon="2.0567">
        <ele>89.059326</ele>
        <time>2009-05-16T09:01:19Z</time>
      </trkpt>
      <trkpt lat="50.07995" lon="2.05692">
        <ele>89.059326</ele>
        <time>2009-05-16T09:01:27Z</time>
      </trkpt>
      <trkpt lat="50.07904" lon="2.0567">
        <ele>88.578735</ele>
        <time>2009-05-16T09:01:40Z</time>
      </trkpt>
      <trkpt lat="50.07865" lon="2.0565">
        <ele>88.578735</ele>
        <time>2009-05-16T09:01:46Z</time>
      </trkpt>
      <trkpt lat="50.07853" lon="2.05641">
        <ele>88.578735</ele>
        <time>2009-05-16T09:01:48Z</time>
      </trkpt>
      <trkpt lat="50.07779" lon="2.05592">
        <ele>88.578735</ele>
        <time>2009-05-16T09:02:00Z</time>
      </trkpt>
      <trkpt lat="50.07684" lon="2.05586">
        <ele>88.578735</ele>
        <time>2009-05-16T09:02:14Z</time>
      </trkpt>
      <trkpt lat="50.07604" lon="2.0564">
        <ele>88.098022</ele>
        <time>2009-05-16T09:02:25Z</time>
      </trkpt>
      <trkpt lat="50.07505" lon="2.05722">
        <ele>87.617188</ele>
        <time>2009-05-16T09:02:38Z</time>
      </trkpt>
      <trkpt lat="50.0746" lon="2.05716">
        <ele>87.617188</ele>
        <time>2009-05-16T09:02:44Z</time>
      </trkpt>
      <trkpt lat="50.07401" lon="2.05667">
        <ele>87.617188</ele>
        <time>2009-05-16T09:02:53Z</time>
      </trkpt>
      <trkpt lat="50.07303" lon="2.05662">
        <ele>87.136597</ele>
        <time>2009-05-16T09:03:07Z</time>
      </trkpt>
      <trkpt lat="50.07202" lon="2.05705">
        <ele>86.656006</ele>
        <time>2009-05-16T09:03:22Z</time>
      </trkpt>
      <trkpt lat="50.07149" lon="2.05721">
        <ele>86.175293</ele>
        <time>2009-05-16T09:03:29Z</time>
      </trkpt>
      <trkpt lat="50.07127" lon="2.05718">
        <ele>86.175293</ele>
        <time>2009-05-16T09:03:32Z</time>
      </trkpt>
      <trkpt lat="50.07013" lon="2.05679">
        <ele>86.175293</ele>
        <time>2009-05-16T09:03:48Z</time>
      </trkpt>
      <trkpt lat="50.06998" lon="2.0568">
        <ele>85.69458</ele>
        <time>2009-05-16T09:03:50Z</time>
      </trkpt>
      <trkpt lat="50.06962" lon="2.05673">
        <ele>85.69458</ele>
        <time>2009-05-16T09:03:55Z</time>
      </trkpt>
      <trkpt lat="50.06871" lon="2.05601">
        <ele>85.69458</ele>
        <time>2009-05-16T09:04:09Z</time>
      </trkpt>
      <trkpt lat="50.06806" lon="2.05494">
        <ele>85.69458</ele>
        <time>2009-05-16T09:04:22Z</time>
      </trkpt>
      <trkpt lat="50.0673" lon="2.05396">
        <ele>85.213989</ele>
        <time>2009-05-16T09:04:36Z</time>
      </trkpt>
      <trkpt lat="50.0666" lon="2.05335">
        <ele>85.213989</ele>
        <time>2009-05-16T09:04:47Z</time>
      </trkpt>
      <trkpt lat="50.06619" lon="2.05306">
        <ele>85.213989</ele>
        <time>2009-05-16T09:04:53Z</time>
      </trkpt>
      <trkpt lat="50.06537" lon="2.05238">
        <ele>84.733398</ele>
        <time>2009-05-16T09:05:05Z</time>
      </trkpt>
      <trkpt lat="50.06525" lon="2.05228">
        <ele>84.733398</ele>
        <time>2009-05-16T09:05:07Z</time>
      </trkpt>
      <trkpt lat="50.06461" lon="2.05233">
        <ele>85.213989</ele>
        <time>2009-05-16T09:05:16Z</time>
      </trkpt>
      <trkpt lat="50.0645" lon="2.05244">
        <ele>85.213989</ele>
        <time>2009-05-16T09:05:18Z</time>
      </trkpt>
      <trkpt lat="50.06415" lon="2.05295">
        <ele>84.733398</ele>
        <time>2009-05-16T09:05:25Z</time>
      </trkpt>
      <trkpt lat="50.06346" lon="2.05406">
        <ele>84.733398</ele>
        <time>2009-05-16T09:05:39Z</time>
      </trkpt>
      <trkpt lat="50.0634" lon="2.0541">
        <ele>84.252686</ele>
        <time>2009-05-16T09:05:40Z</time>
      </trkpt>
      <trkpt lat="50.0623" lon="2.0543">
        <ele>84.252686</ele>
        <time>2009-05-16T09:05:55Z</time>
      </trkpt>
      <trkpt lat="50.06115" lon="2.05408">
        <ele>83.771973</ele>
        <time>2009-05-16T09:06:09Z</time>
      </trkpt>
      <trkpt lat="50.05996" lon="2.05417">
        <ele>82.810791</ele>
        <time>2009-05-16T09:06:22Z</time>
      </trkpt>
      <trkpt lat="50.05885" lon="2.05401">
        <ele>82.810791</ele>
        <time>2009-05-16T09:06:36Z</time>
      </trkpt>
      <trkpt lat="50.05777" lon="2.05392">
        <ele>82.330078</ele>
        <time>2009-05-16T09:06:50Z</time>
      </trkpt>
      <trkpt lat="50.05672" lon="2.05418">
        <ele>81.849365</ele>
        <time>2009-05-16T09:07:04Z</time>
      </trkpt>
      <trkpt lat="50.05627" lon="2.05426">
        <ele>81.849365</ele>
        <time>2009-05-16T09:07:10Z</time>
      </trkpt>
      <trkpt lat="50.05591" lon="2.05478">
        <ele>81.368774</ele>
        <time>2009-05-16T09:07:17Z</time>
      </trkpt>
      <trkpt lat="50.05589" lon="2.05488">
        <ele>81.368774</ele>
        <time>2009-05-16T09:07:18Z</time>
      </trkpt>
      <trkpt lat="50.0555" lon="2.05642">
        <ele>80.888184</ele>
        <time>2009-05-16T09:07:33Z</time>
      </trkpt>
      <trkpt lat="50.05533" lon="2.05675">
        <ele>80.407471</ele>
        <time>2009-05-16T09:07:37Z</time>
      </trkpt>
      <trkpt lat="50.05463" lon="2.05762">
        <ele>79.926636</ele>
        <time>2009-05-16T09:07:51Z</time>
      </trkpt>
      <trkpt lat="50.0539" lon="2.05821">
        <ele>79.446045</ele>
        <time>2009-05-16T09:08:04Z</time>
      </trkpt>
      <trkpt lat="50.05306" lon="2.0588">
        <ele>78.484741</ele>
        <time>2009-05-16T09:08:20Z</time>
      </trkpt>
      <trkpt lat="50.05245" lon="2.05926">
        <ele>78.484741</ele>
        <time>2009-05-16T09:08:34Z</time>
      </trkpt>
      <trkpt lat="50.0519" lon="2.05965">
        <ele>78.484741</ele>
        <time>2009-05-16T09:08:49Z</time>
      </trkpt>
      <trkpt lat="50.05147" lon="2.06005">
        <ele>78.004028</ele>
        <time>2009-05-16T09:09:04Z</time>
      </trkpt>
      <trkpt lat="50.05143" lon="2.06011">
        <ele>77.523438</ele>
        <time>2009-05-16T09:09:15Z</time>
      </trkpt>
      <trkpt lat="50.05131" lon="2.06036">
        <ele>75.120239</ele>
        <time>2009-05-16T09:10:00Z</time>
      </trkpt>
      <trkpt lat="50.05106" lon="2.06073">
        <ele>75.120239</ele>
        <time>2009-05-16T09:10:11Z</time>
      </trkpt>
      <trkpt lat="50.05076" lon="2.06119">
        <ele>75.120239</ele>
        <time>2009-05-16T09:10:25Z</time>
      </trkpt>
      <trkpt lat="50.05043" lon="2.0617">
        <ele>75.120239</ele>
        <time>2009-05-16T09:10:40Z</time>
      </trkpt>
      <trkpt lat="50.05022" lon="2.06204">
        <ele>75.60083</ele>
        <time>2009-05-16T09:10:49Z</time>
      </trkpt>
      <trkpt lat="50.04998" lon="2.06242">
        <ele>74.639526</ele>
        <time>2009-05-16T09:11:02Z</time>
      </trkpt>
      <trkpt lat="50.0497" lon="2.06241">
        <ele>74.639526</ele>
        <time>2009-05-16T09:11:12Z</time>
      </trkpt>
      <trkpt lat="50.0492" lon="2.06205">
        <ele>75.120239</ele>
        <time>2009-05-16T09:11:26Z</time>
      </trkpt>
      <trkpt lat="50.04916" lon="2.06203">
        <ele>75.120239</ele>
        <time>2009-05-16T09:11:27Z</time>
      </trkpt>
      <trkpt lat="50.04893" lon="2.06198">
        <ele>75.120239</ele>
        <time>2009-05-16T09:11:32Z</time>
      </trkpt>
      <trkpt lat="50.04821" lon="2.06189">
        <ele>75.60083</ele>
        <time>2009-05-16T09:11:48Z</time>
      </trkpt>
      <trkpt lat="50.04745" lon="2.06177">
        <ele>76.081421</ele>
        <time>2009-05-16T09:12:02Z</time>
      </trkpt>
      <trkpt lat="50.04653" lon="2.06162">
        <ele>76.562134</ele>
        <time>2009-05-16T09:12:16Z</time>
      </trkpt>
      <trkpt lat="50.04568" lon="2.06124">
        <ele>76.562134</ele>
        <time>2009-05-16T09:12:30Z</time>
      </trkpt>
      <trkpt lat="50.04499" lon="2.06073">
        <ele>76.562134</ele>
        <time>2009-05-16T09:12:43Z</time>
      </trkpt>
      <trkpt lat="50.04478" lon="2.06057">
        <ele>76.562134</ele>
        <time>2009-05-16T09:12:47Z</time>
      </trkpt>
      <trkpt lat="50.044" lon="2.05999">
        <ele>76.562134</ele>
        <time>2009-05-16T09:13:02Z</time>
      </trkpt>
      <trkpt lat="50.04357" lon="2.05974">
        <ele>76.562134</ele>
        <time>2009-05-16T09:13:12Z</time>
      </trkpt>
      <trkpt lat="50.04278" lon="2.05935">
        <ele>77.042847</ele>
        <time>2009-05-16T09:13:31Z</time>
      </trkpt>
      <trkpt lat="50.04216" lon="2.05922">
        <ele>77.042847</ele>
        <time>2009-05-16T09:13:46Z</time>
      </trkpt>
      <trkpt lat="50.04188" lon="2.05895">
        <ele>77.042847</ele>
        <time>2009-05-16T09:13:55Z</time>
      </trkpt>
      <trkpt lat="50.04125" lon="2.05843">
        <ele>77.042847</ele>
        <time>2009-05-16T09:14:11Z</time>
      </trkpt>
      <trkpt lat="50.04043" lon="2.05797">
        <ele>77.042847</ele>
        <time>2009-05-16T09:14:28Z</time>
      </trkpt>
      <trkpt lat="50.04016" lon="2.05777">
        <ele>78.965454</ele>
        <time>2009-05-16T09:14:32Z</time>
      </trkpt>
      <trkpt lat="50.03984" lon="2.05742">
        <ele>78.484741</ele>
        <time>2009-05-16T09:14:37Z</time>
      </trkpt>
      <trkpt lat="50.03917" lon="2.056">
        <ele>78.004028</ele>
        <time>2009-05-16T09:14:50Z</time>
      </trkpt>
      <trkpt lat="50.03879" lon="2.05468">
        <ele>78.004028</ele>
        <time>2009-05-16T09:15:03Z</time>
      </trkpt>
      <trkpt lat="50.03876" lon="2.0546">
        <ele>78.004028</ele>
        <time>2009-05-16T09:15:04Z</time>
      </trkpt>
      <trkpt lat="50.03855" lon="2.05396">
        <ele>78.484741</ele>
        <time>2009-05-16T09:15:11Z</time>
      </trkpt>
      <trkpt lat="50.03842" lon="2.05363">
        <ele>78.004028</ele>
        <time>2009-05-16T09:15:15Z</time>
      </trkpt>
      <trkpt lat="50.03829" lon="2.053">
        <ele>78.484741</ele>
        <time>2009-05-16T09:15:21Z</time>
      </trkpt>
      <trkpt lat="50.03811" lon="2.05237">
        <ele>78.965454</ele>
        <time>2009-05-16T09:15:28Z</time>
      </trkpt>
      <trkpt lat="50.03796" lon="2.05164">
        <ele>78.965454</ele>
        <time>2009-05-16T09:15:35Z</time>
      </trkpt>
      <trkpt lat="50.03788" lon="2.05099">
        <ele>79.446045</ele>
        <time>2009-05-16T09:15:41Z</time>
      </trkpt>
      <trkpt lat="50.0378" lon="2.05025">
        <ele>79.926636</ele>
        <time>2009-05-16T09:15:48Z</time>
      </trkpt>
      <trkpt lat="50.03756" lon="2.04892">
        <ele>80.407471</ele>
        <time>2009-05-16T09:16:00Z</time>
      </trkpt>
      <trkpt lat="50.03709" lon="2.04728">
        <ele>79.926636</ele>
        <time>2009-05-16T09:16:15Z</time>
      </trkpt>
      <trkpt lat="50.03658" lon="2.04634">
        <ele>79.926636</ele>
        <time>2009-05-16T09:16:25Z</time>
      </trkpt>
      <trkpt lat="50.0358" lon="2.04493">
        <ele>79.446045</ele>
        <time>2009-05-16T09:16:41Z</time>
      </trkpt>
      <trkpt lat="50.03509" lon="2.04364">
        <ele>78.965454</ele>
        <time>2009-05-16T09:16:56Z</time>
      </trkpt>
      <trkpt lat="50.03451" lon="2.04224">
        <ele>78.484741</ele>
        <time>2009-05-16T09:17:10Z</time>
      </trkpt>
      <trkpt lat="50.03411" lon="2.04033">
        <ele>78.004028</ele>
        <time>2009-05-16T09:17:26Z</time>
      </trkpt>
      <trkpt lat="50.03367" lon="2.03855">
        <ele>77.042847</ele>
        <time>2009-05-16T09:17:41Z</time>
      </trkpt>
      <trkpt lat="50.03309" lon="2.03674">
        <ele>76.081421</ele>
        <time>2009-05-16T09:17:55Z</time>
      </trkpt>
      <trkpt lat="50.03227" lon="2.03515">
        <ele>74.158813</ele>
        <time>2009-05-16T09:18:08Z</time>
      </trkpt>
      <trkpt lat="50.03126" lon="2.03398">
        <ele>72.716919</ele>
        <time>2009-05-16T09:18:20Z</time>
      </trkpt>
      <trkpt lat="50.03025" lon="2.03293">
        <ele>71.274902</ele>
        <time>2009-05-16T09:18:33Z</time>
      </trkpt>
      <trkpt lat="50.02923" lon="2.0319">
        <ele>69.832886</ele>
        <time>2009-05-16T09:18:47Z</time>
      </trkpt>
      <trkpt lat="50.02831" lon="2.03102">
        <ele>68.871582</ele>
        <time>2009-05-16T09:19:01Z</time>
      </trkpt>
      <trkpt lat="50.02734" lon="2.03061">
        <ele>67.910278</ele>
        <time>2009-05-16T09:19:14Z</time>
      </trkpt>
      <trkpt lat="50.02636" lon="2.03024">
        <ele>66.948975</ele>
        <time>2009-05-16T09:19:26Z</time>
      </trkpt>
      <trkpt lat="50.02535" lon="2.0294">
        <ele>65.50708</ele>
        <time>2009-05-16T09:19:38Z</time>
      </trkpt>
      <trkpt lat="50.02498" lon="2.02891">
        <ele>64.065063</ele>
        <time>2009-05-16T09:19:46Z</time>
      </trkpt>
      <trkpt lat="50.0249" lon="2.02877">
        <ele>63.103638</ele>
        <time>2009-05-16T09:19:52Z</time>
      </trkpt>
      <trkpt lat="50.02473" lon="2.02833">
        <ele>62.142334</ele>
        <time>2009-05-16T09:20:03Z</time>
      </trkpt>
      <trkpt lat="50.0246" lon="2.02816">
        <ele>61.661743</ele>
        <time>2009-05-16T09:20:07Z</time>
      </trkpt>
      <trkpt lat="50.02443" lon="2.0281">
        <ele>61.18103</ele>
        <time>2009-05-16T09:20:11Z</time>
      </trkpt>
      <trkpt lat="50.02396" lon="2.02825">
        <ele>60.219727</ele>
        <time>2009-05-16T09:20:21Z</time>
      </trkpt>
      <trkpt lat="50.02371" lon="2.02814">
        <ele>59.739136</ele>
        <time>2009-05-16T09:20:26Z</time>
      </trkpt>
      <trkpt lat="50.02289" lon="2.02714">
        <ele>57.816528</ele>
        <time>2009-05-16T09:20:44Z</time>
      </trkpt>
      <trkpt lat="50.02225" lon="2.02644">
        <ele>56.374512</ele>
        <time>2009-05-16T09:20:57Z</time>
      </trkpt>
      <trkpt lat="50.02148" lon="2.02559">
        <ele>55.413086</ele>
        <time>2009-05-16T09:21:13Z</time>
      </trkpt>
      <trkpt lat="50.02094" lon="2.02498">
        <ele>54.451782</ele>
        <time>2009-05-16T09:21:24Z</time>
      </trkpt>
      <trkpt lat="50.02085" lon="2.02488">
        <ele>54.451782</ele>
        <time>2009-05-16T09:21:26Z</time>
      </trkpt>
      <trkpt lat="50.02028" lon="2.02425">
        <ele>53.490479</ele>
        <time>2009-05-16T09:21:40Z</time>
      </trkpt>
      <trkpt lat="50.02021" lon="2.02416">
        <ele>53.490479</ele>
        <time>2009-05-16T09:21:42Z</time>
      </trkpt>
      <trkpt lat="50.01992" lon="2.02384">
        <ele>52.529175</ele>
        <time>2009-05-16T09:21:54Z</time>
      </trkpt>
      <trkpt lat="50.01991" lon="2.02382">
        <ele>49.164551</ele>
        <time>2009-05-16T09:22:23Z</time>
      </trkpt>
      <trkpt lat="50.01991" lon="2.02382">
        <ele>46.28064</ele>
        <time>2009-05-16T09:22:55Z</time>
      </trkpt>
      <trkpt lat="50.01986" lon="2.02377">
        <ele>42.916016</ele>
        <time>2009-05-16T09:23:22Z</time>
      </trkpt>
      <trkpt lat="50.01979" lon="2.02371">
        <ele>42.916016</ele>
        <time>2009-05-16T09:23:25Z</time>
      </trkpt>
      <trkpt lat="50.01914" lon="2.02298">
        <ele>42.435425</ele>
        <time>2009-05-16T09:23:39Z</time>
      </trkpt>
      <trkpt lat="50.01846" lon="2.02218">
        <ele>41.954712</ele>
        <time>2009-05-16T09:23:52Z</time>
      </trkpt>
      <trkpt lat="50.01779" lon="2.02134">
        <ele>41.473999</ele>
        <time>2009-05-16T09:24:05Z</time>
      </trkpt>
      <trkpt lat="50.01706" lon="2.02046">
        <ele>41.473999</ele>
        <time>2009-05-16T09:24:19Z</time>
      </trkpt>
      <trkpt lat="50.01622" lon="2.01943">
        <ele>41.473999</ele>
        <time>2009-05-16T09:24:34Z</time>
      </trkpt>
      <trkpt lat="50.01596" lon="2.01909">
        <ele>40.993408</ele>
        <time>2009-05-16T09:24:39Z</time>
      </trkpt>
      <trkpt lat="50.01517" lon="2.01818">
        <ele>40.512817</ele>
        <time>2009-05-16T09:24:53Z</time>
      </trkpt>
      <trkpt lat="50.01448" lon="2.01733">
        <ele>40.032104</ele>
        <time>2009-05-16T09:25:06Z</time>
      </trkpt>
      <trkpt lat="50.01358" lon="2.01627">
        <ele>39.55127</ele>
        <time>2009-05-16T09:25:22Z</time>
      </trkpt>
      <trkpt lat="50.01276" lon="2.01528">
        <ele>39.070679</ele>
        <time>2009-05-16T09:25:37Z</time>
      </trkpt>
      <trkpt lat="50.01204" lon="2.01443">
        <ele>38.590088</ele>
        <time>2009-05-16T09:25:50Z</time>
      </trkpt>
      <trkpt lat="50.01123" lon="2.0135">
        <ele>37.628662</ele>
        <time>2009-05-16T09:26:05Z</time>
      </trkpt>
      <trkpt lat="50.01063" lon="2.01299">
        <ele>36.66748</ele>
        <time>2009-05-16T09:26:17Z</time>
      </trkpt>
      <trkpt lat="50.01018" lon="2.01262">
        <ele>36.186768</ele>
        <time>2009-05-16T09:26:27Z</time>
      </trkpt>
      <trkpt lat="50.01004" lon="2.01203">
        <ele>35.706055</ele>
        <time>2009-05-16T09:26:35Z</time>
      </trkpt>
      <trkpt lat="50.01012" lon="2.01119">
        <ele>35.225464</ele>
        <time>2009-05-16T09:26:44Z</time>
      </trkpt>
      <trkpt lat="50.0104" lon="2.00989">
        <ele>34.26416</ele>
        <time>2009-05-16T09:26:58Z</time>
      </trkpt>
      <trkpt lat="50.01062" lon="2.00891">
        <ele>33.783447</ele>
        <time>2009-05-16T09:27:08Z</time>
      </trkpt>
      <trkpt lat="50.01097" lon="2.0076">
        <ele>33.302856</ele>
        <time>2009-05-16T09:27:22Z</time>
      </trkpt>
      <trkpt lat="50.01133" lon="2.00622">
        <ele>33.302856</ele>
        <time>2009-05-16T09:27:37Z</time>
      </trkpt>
      <trkpt lat="50.01172" lon="2.00482">
        <ele>32.341553</ele>
        <time>2009-05-16T09:27:52Z</time>
      </trkpt>
      <trkpt lat="50.01214" lon="2.00313">
        <ele>30.899536</ele>
        <time>2009-05-16T09:28:08Z</time>
      </trkpt>
      <trkpt lat="50.01239" lon="2.00218">
        <ele>30.899536</ele>
        <time>2009-05-16T09:28:17Z</time>
      </trkpt>
      <trkpt lat="50.01245" lon="2.00198">
        <ele>30.418823</ele>
        <time>2009-05-16T09:28:19Z</time>
      </trkpt>
      <trkpt lat="50.01307" lon="2.00072">
        <ele>29.93811</ele>
        <time>2009-05-16T09:28:32Z</time>
      </trkpt>
      <trkpt lat="50.01334" lon="2.00018">
        <ele>29.45752</ele>
        <time>2009-05-16T09:28:38Z</time>
      </trkpt>
      <trkpt lat="50.01336" lon="1.99954">
        <ele>29.45752</ele>
        <time>2009-05-16T09:28:45Z</time>
      </trkpt>
      <trkpt lat="50.01328" lon="1.9994">
        <ele>28.976929</ele>
        <time>2009-05-16T09:28:47Z</time>
      </trkpt>
      <trkpt lat="50.01327" lon="1.9989">
        <ele>28.496216</ele>
        <time>2009-05-16T09:28:52Z</time>
      </trkpt>
      <trkpt lat="50.01341" lon="1.99839">
        <ele>28.496216</ele>
        <time>2009-05-16T09:28:57Z</time>
      </trkpt>
      <trkpt lat="50.01382" lon="1.99688">
        <ele>28.015503</ele>
        <time>2009-05-16T09:29:12Z</time>
      </trkpt>
      <trkpt lat="50.01408" lon="1.99599">
        <ele>27.534912</ele>
        <time>2009-05-16T09:29:23Z</time>
      </trkpt>
      <trkpt lat="50.01419" lon="1.99569">
        <ele>27.054321</ele>
        <time>2009-05-16T09:29:30Z</time>
      </trkpt>
      <trkpt lat="50.01409" lon="1.99567">
        <ele>26.573608</ele>
        <time>2009-05-16T09:29:34Z</time>
      </trkpt>
      <trkpt lat="50.01395" lon="1.99578">
        <ele>26.573608</ele>
        <time>2009-05-16T09:29:37Z</time>
      </trkpt>
      <trkpt lat="50.01305" lon="1.99614">
        <ele>25.612305</ele>
        <time>2009-05-16T09:29:51Z</time>
      </trkpt>
      <trkpt lat="50.01286" lon="1.99618">
        <ele>25.612305</ele>
        <time>2009-05-16T09:29:54Z</time>
      </trkpt>
      <trkpt lat="50.01192" lon="1.99636">
        <ele>24.651001</ele>
        <time>2009-05-16T09:30:09Z</time>
      </trkpt>
      <trkpt lat="50.01127" lon="1.99652">
        <ele>24.170288</ele>
        <time>2009-05-16T09:30:20Z</time>
      </trkpt>
      <trkpt lat="50.01061" lon="1.99714">
        <ele>23.208984</ele>
        <time>2009-05-16T09:30:34Z</time>
      </trkpt>
      <trkpt lat="50.01029" lon="1.99796">
        <ele>23.208984</ele>
        <time>2009-05-16T09:30:46Z</time>
      </trkpt>
      <trkpt lat="50.01011" lon="1.99785">
        <ele>22.728271</ele>
        <time>2009-05-16T09:30:53Z</time>
      </trkpt>
      <trkpt lat="50.01009" lon="1.99769">
        <ele>22.728271</ele>
        <time>2009-05-16T09:30:55Z</time>
      </trkpt>
      <trkpt lat="50.00995" lon="1.99723">
        <ele>22.728271</ele>
        <time>2009-05-16T09:31:01Z</time>
      </trkpt>
      <trkpt lat="50.0097" lon="1.99641">
        <ele>22.247559</ele>
        <time>2009-05-16T09:31:11Z</time>
      </trkpt>
      <trkpt lat="50.00965" lon="1.99617">
        <ele>22.247559</ele>
        <time>2009-05-16T09:31:14Z</time>
      </trkpt>
      <trkpt lat="50.00939" lon="1.996">
        <ele>22.247559</ele>
        <time>2009-05-16T09:31:21Z</time>
      </trkpt>
      <trkpt lat="50.00927" lon="1.99626">
        <ele>21.766968</ele>
        <time>2009-05-16T09:31:26Z</time>
      </trkpt>
      <trkpt lat="50.00941" lon="1.99705">
        <ele>21.766968</ele>
        <time>2009-05-16T09:31:39Z</time>
      </trkpt>
      <trkpt lat="50.00922" lon="1.99756">
        <ele>21.286377</ele>
        <time>2009-05-16T09:31:50Z</time>
      </trkpt>
      <trkpt lat="50.00884" lon="1.99759">
        <ele>20.805664</ele>
        <time>2009-05-16T09:32:01Z</time>
      </trkpt>
      <trkpt lat="50.00849" lon="1.99735">
        <ele>21.286377</ele>
        <time>2009-05-16T09:32:13Z</time>
      </trkpt>
      <trkpt lat="50.00822" lon="1.99707">
        <ele>21.766968</ele>
        <time>2009-05-16T09:32:25Z</time>
      </trkpt>
      <trkpt lat="50.00782" lon="1.99694">
        <ele>22.247559</ele>
        <time>2009-05-16T09:32:39Z</time>
      </trkpt>
      <trkpt lat="50.0073" lon="1.99705">
        <ele>22.247559</ele>
        <time>2009-05-16T09:32:54Z</time>
      </trkpt>
      <trkpt lat="50.0071" lon="1.99701">
        <ele>22.247559</ele>
        <time>2009-05-16T09:33:00Z</time>
      </trkpt>
      <trkpt lat="50.0065" lon="1.99701">
        <ele>22.728271</ele>
        <time>2009-05-16T09:33:16Z</time>
      </trkpt>
      <trkpt lat="50.00582" lon="1.99731">
        <ele>23.208984</ele>
        <time>2009-05-16T09:33:35Z</time>
      </trkpt>
      <trkpt lat="50.00527" lon="1.99769">
        <ele>23.689575</ele>
        <time>2009-05-16T09:33:51Z</time>
      </trkpt>
      <trkpt lat="50.00465" lon="1.99803">
        <ele>23.689575</ele>
        <time>2009-05-16T09:34:08Z</time>
      </trkpt>
      <trkpt lat="50.00412" lon="1.99822">
        <ele>24.170288</ele>
        <time>2009-05-16T09:34:22Z</time>
      </trkpt>
      <trkpt lat="50.00354" lon="1.99842">
        <ele>24.170288</ele>
        <time>2009-05-16T09:34:37Z</time>
      </trkpt>
      <trkpt lat="50.00283" lon="1.99878">
        <ele>24.651001</ele>
        <time>2009-05-16T09:34:56Z</time>
      </trkpt>
      <trkpt lat="50.00215" lon="1.99907">
        <ele>25.131714</ele>
        <time>2009-05-16T09:35:12Z</time>
      </trkpt>
      <trkpt lat="50.00139" lon="1.9993">
        <ele>26.092896</ele>
        <time>2009-05-16T09:35:29Z</time>
      </trkpt>
      <trkpt lat="50.00074" lon="1.99932">
        <ele>27.054321</ele>
        <time>2009-05-16T09:35:44Z</time>
      </trkpt>
      <trkpt lat="50.00046" lon="1.99933">
        <ele>27.534912</ele>
        <time>2009-05-16T09:35:54Z</time>
      </trkpt>
      <trkpt lat="50.0001" lon="1.99934">
        <ele>28.496216</ele>
        <time>2009-05-16T09:36:06Z</time>
      </trkpt>
      <trkpt lat="49.99962" lon="1.99936">
        <ele>28.976929</ele>
        <time>2009-05-16T09:36:17Z</time>
      </trkpt>
      <trkpt lat="49.99873" lon="1.99946">
        <ele>29.93811</ele>
        <time>2009-05-16T09:36:35Z</time>
      </trkpt>
      <trkpt lat="49.99791" lon="1.99955">
        <ele>30.418823</ele>
        <time>2009-05-16T09:36:51Z</time>
      </trkpt>
      <trkpt lat="49.99722" lon="1.99959">
        <ele>31.380127</ele>
        <time>2009-05-16T09:37:05Z</time>
      </trkpt>
      <trkpt lat="49.99637" lon="1.99959">
        <ele>32.341553</ele>
        <time>2009-05-16T09:37:21Z</time>
      </trkpt>
      <trkpt lat="49.99555" lon="1.99954">
        <ele>33.302856</ele>
        <time>2009-05-16T09:37:37Z</time>
      </trkpt>
      <trkpt lat="49.99479" lon="1.99943">
        <ele>33.783447</ele>
        <time>2009-05-16T09:37:52Z</time>
      </trkpt>
      <trkpt lat="49.99441" lon="1.99937">
        <ele>34.26416</ele>
        <time>2009-05-16T09:37:59Z</time>
      </trkpt>
      <trkpt lat="49.99338" lon="1.99929">
        <ele>35.225464</ele>
        <time>2009-05-16T09:38:17Z</time>
      </trkpt>
      <trkpt lat="49.99293" lon="1.99919">
        <ele>35.706055</ele>
        <time>2009-05-16T09:38:25Z</time>
      </trkpt>
      <trkpt lat="49.9921" lon="1.99875">
        <ele>36.66748</ele>
        <time>2009-05-16T09:38:41Z</time>
      </trkpt>
      <trkpt lat="49.99129" lon="1.99836">
        <ele>37.628662</ele>
        <time>2009-05-16T09:38:57Z</time>
      </trkpt>
      <trkpt lat="49.99044" lon="1.99804">
        <ele>38.109375</ele>
        <time>2009-05-16T09:39:13Z</time>
      </trkpt>
      <trkpt lat="49.98954" lon="1.99775">
        <ele>39.070679</ele>
        <time>2009-05-16T09:39:30Z</time>
      </trkpt>
      <trkpt lat="49.98943" lon="1.9977">
        <ele>39.070679</ele>
        <time>2009-05-16T09:39:32Z</time>
      </trkpt>
      <trkpt lat="49.98861" lon="1.99742">
        <ele>39.55127</ele>
        <time>2009-05-16T09:39:47Z</time>
      </trkpt>
      <trkpt lat="49.9884" lon="1.99732">
        <ele>39.55127</ele>
        <time>2009-05-16T09:39:51Z</time>
      </trkpt>
      <trkpt lat="49.98771" lon="1.99683">
        <ele>40.512817</ele>
        <time>2009-05-16T09:40:06Z</time>
      </trkpt>
      <trkpt lat="49.98692" lon="1.99629">
        <ele>41.473999</ele>
        <time>2009-05-16T09:40:21Z</time>
      </trkpt>
      <trkpt lat="49.98609" lon="1.99569">
        <ele>42.435425</ele>
        <time>2009-05-16T09:40:36Z</time>
      </trkpt>
      <trkpt lat="49.98598" lon="1.99564">
        <ele>42.435425</ele>
        <time>2009-05-16T09:40:38Z</time>
      </trkpt>
      <trkpt lat="49.98514" lon="1.995">
        <ele>43.396606</ele>
        <time>2009-05-16T09:40:54Z</time>
      </trkpt>
      <trkpt lat="49.98498" lon="1.99489">
        <ele>43.396606</ele>
        <time>2009-05-16T09:40:57Z</time>
      </trkpt>
      <trkpt lat="49.98422" lon="1.99438">
        <ele>43.877319</ele>
        <time>2009-05-16T09:41:11Z</time>
      </trkpt>
      <trkpt lat="49.98353" lon="1.99394">
        <ele>44.838623</ele>
        <time>2009-05-16T09:41:23Z</time>
      </trkpt>
      <trkpt lat="49.98269" lon="1.99358">
        <ele>44.838623</ele>
        <time>2009-05-16T09:41:37Z</time>
      </trkpt>
      <trkpt lat="49.98171" lon="1.99317">
        <ele>44.838623</ele>
        <time>2009-05-16T09:41:53Z</time>
      </trkpt>
      <trkpt lat="49.98088" lon="1.99284">
        <ele>44.838623</ele>
        <time>2009-05-16T09:42:06Z</time>
      </trkpt>
      <trkpt lat="49.97979" lon="1.99238">
        <ele>44.358032</ele>
        <time>2009-05-16T09:42:22Z</time>
      </trkpt>
      <trkpt lat="49.97884" lon="1.99204">
        <ele>43.877319</ele>
        <time>2009-05-16T09:42:36Z</time>
      </trkpt>
      <trkpt lat="49.97797" lon="1.99171">
        <ele>43.877319</ele>
        <time>2009-05-16T09:42:51Z</time>
      </trkpt>
      <trkpt lat="49.97709" lon="1.99135">
        <ele>42.916016</ele>
        <time>2009-05-16T09:43:06Z</time>
      </trkpt>
      <trkpt lat="49.97617" lon="1.99101">
        <ele>41.954712</ele>
        <time>2009-05-16T09:43:21Z</time>
      </trkpt>
      <trkpt lat="49.97535" lon="1.99069">
        <ele>41.473999</ele>
        <time>2009-05-16T09:43:36Z</time>
      </trkpt>
      <trkpt lat="49.97444" lon="1.99033">
        <ele>40.993408</ele>
        <time>2009-05-16T09:43:53Z</time>
      </trkpt>
      <trkpt lat="49.97355" lon="1.99">
        <ele>40.032104</ele>
        <time>2009-05-16T09:44:10Z</time>
      </trkpt>
      <trkpt lat="49.97314" lon="1.99001">
        <ele>40.032104</ele>
        <time>2009-05-16T09:44:17Z</time>
      </trkpt>
      <trkpt lat="49.97229" lon="1.9905">
        <ele>39.55127</ele>
        <time>2009-05-16T09:44:30Z</time>
      </trkpt>
      <trkpt lat="49.97149" lon="1.99099">
        <ele>38.109375</ele>
        <time>2009-05-16T09:44:45Z</time>
      </trkpt>
      <trkpt lat="49.97114" lon="1.99107">
        <ele>37.628662</ele>
        <time>2009-05-16T09:44:52Z</time>
      </trkpt>
      <trkpt lat="49.97048" lon="1.99074">
        <ele>37.628662</ele>
        <time>2009-05-16T09:45:06Z</time>
      </trkpt>
      <trkpt lat="49.97019" lon="1.9906">
        <ele>37.148071</ele>
        <time>2009-05-16T09:45:12Z</time>
      </trkpt>
      <trkpt lat="49.96931" lon="1.99032">
        <ele>36.186768</ele>
        <time>2009-05-16T09:45:29Z</time>
      </trkpt>
      <trkpt lat="49.96847" lon="1.99028">
        <ele>35.225464</ele>
        <time>2009-05-16T09:45:45Z</time>
      </trkpt>
      <trkpt lat="49.96778" lon="1.99021">
        <ele>34.26416</ele>
        <time>2009-05-16T09:45:58Z</time>
      </trkpt>
      <trkpt lat="49.96693" lon="1.99021">
        <ele>33.302856</ele>
        <time>2009-05-16T09:46:14Z</time>
      </trkpt>
      <trkpt lat="49.96648" lon="1.99025">
        <ele>33.302856</ele>
        <time>2009-05-16T09:46:22Z</time>
      </trkpt>
      <trkpt lat="49.96555" lon="1.99034">
        <ele>31.860718</ele>
        <time>2009-05-16T09:46:38Z</time>
      </trkpt>
      <trkpt lat="49.9647" lon="1.99033">
        <ele>30.899536</ele>
        <time>2009-05-16T09:46:53Z</time>
      </trkpt>
      <trkpt lat="49.96386" lon="1.9901">
        <ele>29.93811</ele>
        <time>2009-05-16T09:47:08Z</time>
      </trkpt>
      <trkpt lat="49.96296" lon="1.98986">
        <ele>28.496216</ele>
        <time>2009-05-16T09:47:24Z</time>
      </trkpt>
      <trkpt lat="49.96251" lon="1.98976">
        <ele>28.015503</ele>
        <time>2009-05-16T09:47:32Z</time>
      </trkpt>
      <trkpt lat="49.96162" lon="1.98991">
        <ele>27.054321</ele>
        <time>2009-05-16T09:47:49Z</time>
      </trkpt>
      <trkpt lat="49.96118" lon="1.99002">
        <ele>27.054321</ele>
        <time>2009-05-16T09:47:58Z</time>
      </trkpt>
      <trkpt lat="49.96099" lon="1.99011">
        <ele>26.573608</ele>
        <time>2009-05-16T09:48:02Z</time>
      </trkpt>
      <trkpt lat="49.96084" lon="1.99023">
        <ele>26.573608</ele>
        <time>2009-05-16T09:48:05Z</time>
      </trkpt>
      <trkpt lat="49.9607" lon="1.99037">
        <ele>34.26416</ele>
        <time>2009-05-16T09:48:08Z</time>
      </trkpt>
      <trkpt lat="49.96065" lon="1.99041">
        <ele>46.28064</ele>
        <time>2009-05-16T09:48:09Z</time>
      </trkpt>
      <trkpt lat="49.9606" lon="1.99045">
        <ele>58.77771</ele>
        <time>2009-05-16T09:48:10Z</time>
      </trkpt>
      <trkpt lat="49.96056" lon="1.99049">
        <ele>71.755493</ele>
        <time>2009-05-16T09:48:11Z</time>
      </trkpt>
      <trkpt lat="49.96051" lon="1.99052">
        <ele>77.042847</ele>
        <time>2009-05-16T09:48:12Z</time>
      </trkpt>
      <trkpt lat="49.96047" lon="1.99056">
        <ele>85.213989</ele>
        <time>2009-05-16T09:48:13Z</time>
      </trkpt>
      <trkpt lat="49.96034" lon="1.99065">
        <ele>94.346558</ele>
        <time>2009-05-16T09:48:16Z</time>
      </trkpt>
      <trkpt lat="49.96024" lon="1.9907">
        <ele>95.307739</ele>
        <time>2009-05-16T09:48:18Z</time>
      </trkpt>
      <trkpt lat="49.95978" lon="1.99084">
        <ele>94.346558</ele>
        <time>2009-05-16T09:48:27Z</time>
      </trkpt>
      <trkpt lat="49.95938" lon="1.99074">
        <ele>92.904541</ele>
        <time>2009-05-16T09:48:38Z</time>
      </trkpt>
      <trkpt lat="49.95933" lon="1.99072">
        <ele>92.904541</ele>
        <time>2009-05-16T09:48:39Z</time>
      </trkpt>
      <trkpt lat="49.95845" lon="1.99026">
        <ele>91.462524</ele>
        <time>2009-05-16T09:48:54Z</time>
      </trkpt>
      <trkpt lat="49.95827" lon="1.98979">
        <ele>90.981934</ele>
        <time>2009-05-16T09:49:00Z</time>
      </trkpt>
      <trkpt lat="49.95833" lon="1.98947">
        <ele>90.501343</ele>
        <time>2009-05-16T09:49:03Z</time>
      </trkpt>
      <trkpt lat="49.95833" lon="1.98897">
        <ele>90.02063</ele>
        <time>2009-05-16T09:49:08Z</time>
      </trkpt>
      <trkpt lat="49.95828" lon="1.98878">
        <ele>90.02063</ele>
        <time>2009-05-16T09:49:10Z</time>
      </trkpt>
      <trkpt lat="49.95767" lon="1.98775">
        <ele>90.02063</ele>
        <time>2009-05-16T09:49:24Z</time>
      </trkpt>
      <trkpt lat="49.95681" lon="1.98689">
        <ele>89.059326</ele>
        <time>2009-05-16T09:49:39Z</time>
      </trkpt>
      <trkpt lat="49.95661" lon="1.98679">
        <ele>89.059326</ele>
        <time>2009-05-16T09:49:42Z</time>
      </trkpt>
      <trkpt lat="49.95606" lon="1.9867">
        <ele>88.578735</ele>
        <time>2009-05-16T09:49:50Z</time>
      </trkpt>
      <trkpt lat="49.95515" lon="1.98614">
        <ele>88.098022</ele>
        <time>2009-05-16T09:50:04Z</time>
      </trkpt>
      <trkpt lat="49.95502" lon="1.98607">
        <ele>88.098022</ele>
        <time>2009-05-16T09:50:06Z</time>
      </trkpt>
      <trkpt lat="49.95416" lon="1.986">
        <ele>87.136597</ele>
        <time>2009-05-16T09:50:19Z</time>
      </trkpt>
      <trkpt lat="49.95378" lon="1.98598">
        <ele>87.136597</ele>
        <time>2009-05-16T09:50:25Z</time>
      </trkpt>
      <trkpt lat="49.95314" lon="1.98544">
        <ele>87.136597</ele>
        <time>2009-05-16T09:50:38Z</time>
      </trkpt>
      <trkpt lat="49.95249" lon="1.98485">
        <ele>87.136597</ele>
        <time>2009-05-16T09:50:52Z</time>
      </trkpt>
      <trkpt lat="49.95227" lon="1.98441">
        <ele>87.136597</ele>
        <time>2009-05-16T09:50:58Z</time>
      </trkpt>
      <trkpt lat="49.95196" lon="1.98308">
        <ele>87.136597</ele>
        <time>2009-05-16T09:51:12Z</time>
      </trkpt>
      <trkpt lat="49.95164" lon="1.9816">
        <ele>86.656006</ele>
        <time>2009-05-16T09:51:27Z</time>
      </trkpt>
      <trkpt lat="49.95145" lon="1.98012">
        <ele>86.175293</ele>
        <time>2009-05-16T09:51:41Z</time>
      </trkpt>
      <trkpt lat="49.95124" lon="1.9787">
        <ele>86.175293</ele>
        <time>2009-05-16T09:51:55Z</time>
      </trkpt>
      <trkpt lat="49.95115" lon="1.97842">
        <ele>86.175293</ele>
        <time>2009-05-16T09:51:58Z</time>
      </trkpt>
      <trkpt lat="49.951" lon="1.97809">
        <ele>86.175293</ele>
        <time>2009-05-16T09:52:02Z</time>
      </trkpt>
      <trkpt lat="49.95027" lon="1.97696">
        <ele>86.175293</ele>
        <time>2009-05-16T09:52:16Z</time>
      </trkpt>
      <trkpt lat="49.94936" lon="1.976">
        <ele>85.69458</ele>
        <time>2009-05-16T09:52:30Z</time>
      </trkpt>
      <trkpt lat="49.94864" lon="1.97538">
        <ele>85.69458</ele>
        <time>2009-05-16T09:52:42Z</time>
      </trkpt>
      <trkpt lat="49.94848" lon="1.97525">
        <ele>85.213989</ele>
        <time>2009-05-16T09:52:45Z</time>
      </trkpt>
      <trkpt lat="49.94784" lon="1.97436">
        <ele>85.213989</ele>
        <time>2009-05-16T09:52:59Z</time>
      </trkpt>
      <trkpt lat="49.94719" lon="1.97325">
        <ele>85.69458</ele>
        <time>2009-05-16T09:53:14Z</time>
      </trkpt>
      <trkpt lat="49.94659" lon="1.97194">
        <ele>85.69458</ele>
        <time>2009-05-16T09:53:30Z</time>
      </trkpt>
      <trkpt lat="49.94632" lon="1.97126">
        <ele>85.213989</ele>
        <time>2009-05-16T09:53:38Z</time>
      </trkpt>
      <trkpt lat="49.94607" lon="1.9706">
        <ele>85.69458</ele>
        <time>2009-05-16T09:53:46Z</time>
      </trkpt>
      <trkpt lat="49.94545" lon="1.96893">
        <ele>85.69458</ele>
        <time>2009-05-16T09:54:06Z</time>
      </trkpt>
      <trkpt lat="49.94524" lon="1.96835">
        <ele>85.213989</ele>
        <time>2009-05-16T09:54:13Z</time>
      </trkpt>
      <trkpt lat="49.94466" lon="1.96677">
        <ele>85.213989</ele>
        <time>2009-05-16T09:54:32Z</time>
      </trkpt>
      <trkpt lat="49.94406" lon="1.96547">
        <ele>85.213989</ele>
        <time>2009-05-16T09:54:48Z</time>
      </trkpt>
      <trkpt lat="49.94359" lon="1.9644">
        <ele>85.213989</ele>
        <time>2009-05-16T09:55:01Z</time>
      </trkpt>
      <trkpt lat="49.94325" lon="1.9633">
        <ele>85.69458</ele>
        <time>2009-05-16T09:55:14Z</time>
      </trkpt>
      <trkpt lat="49.94321" lon="1.96311">
        <ele>85.69458</ele>
        <time>2009-05-16T09:55:17Z</time>
      </trkpt>
      <trkpt lat="49.94296" lon="1.96209">
        <ele>86.175293</ele>
        <time>2009-05-16T09:55:30Z</time>
      </trkpt>
      <trkpt lat="49.94254" lon="1.96082">
        <ele>86.175293</ele>
        <time>2009-05-16T09:55:44Z</time>
      </trkpt>
      <trkpt lat="49.94193" lon="1.95966">
        <ele>86.175293</ele>
        <time>2009-05-16T09:55:59Z</time>
      </trkpt>
      <trkpt lat="49.94131" lon="1.9585">
        <ele>86.175293</ele>
        <time>2009-05-16T09:56:13Z</time>
      </trkpt>
      <trkpt lat="49.9407" lon="1.95734">
        <ele>86.175293</ele>
        <time>2009-05-16T09:56:27Z</time>
      </trkpt>
      <trkpt lat="49.94005" lon="1.95615">
        <ele>85.69458</ele>
        <time>2009-05-16T09:56:41Z</time>
      </trkpt>
      <trkpt lat="49.93952" lon="1.9552">
        <ele>85.213989</ele>
        <time>2009-05-16T09:56:53Z</time>
      </trkpt>
      <trkpt lat="49.93867" lon="1.95445">
        <ele>85.213989</ele>
        <time>2009-05-16T09:57:08Z</time>
      </trkpt>
      <trkpt lat="49.93763" lon="1.95368">
        <ele>84.733398</ele>
        <time>2009-05-16T09:57:25Z</time>
      </trkpt>
      <trkpt lat="49.93668" lon="1.95305">
        <ele>84.733398</ele>
        <time>2009-05-16T09:57:40Z</time>
      </trkpt>
      <trkpt lat="49.93562" lon="1.95231">
        <ele>84.252686</ele>
        <time>2009-05-16T09:57:56Z</time>
      </trkpt>
      <trkpt lat="49.93473" lon="1.95142">
        <ele>83.771973</ele>
        <time>2009-05-16T09:58:11Z</time>
      </trkpt>
      <trkpt lat="49.93385" lon="1.95053">
        <ele>83.771973</ele>
        <time>2009-05-16T09:58:27Z</time>
      </trkpt>
      <trkpt lat="49.93295" lon="1.95005">
        <ele>83.771973</ele>
        <time>2009-05-16T09:58:42Z</time>
      </trkpt>
      <trkpt lat="49.93229" lon="1.94965">
        <ele>83.291382</ele>
        <time>2009-05-16T09:58:54Z</time>
      </trkpt>
      <trkpt lat="49.93152" lon="1.949">
        <ele>83.291382</ele>
        <time>2009-05-16T09:59:08Z</time>
      </trkpt>
      <trkpt lat="49.93131" lon="1.94882">
        <ele>82.810791</ele>
        <time>2009-05-16T09:59:12Z</time>
      </trkpt>
      <trkpt lat="49.93083" lon="1.94832">
        <ele>82.330078</ele>
        <time>2009-05-16T09:59:22Z</time>
      </trkpt>
      <trkpt lat="49.93051" lon="1.94791">
        <ele>81.849365</ele>
        <time>2009-05-16T09:59:32Z</time>
      </trkpt>
      <trkpt lat="49.93034" lon="1.94786">
        <ele>81.368774</ele>
        <time>2009-05-16T09:59:36Z</time>
      </trkpt>
      <trkpt lat="49.92945" lon="1.94809">
        <ele>81.368774</ele>
        <time>2009-05-16T09:59:51Z</time>
      </trkpt>
      <trkpt lat="49.92934" lon="1.94807">
        <ele>81.368774</ele>
        <time>2009-05-16T09:59:53Z</time>
      </trkpt>
      <trkpt lat="49.92846" lon="1.94761">
        <ele>80.888184</ele>
        <time>2009-05-16T10:00:07Z</time>
      </trkpt>
      <trkpt lat="49.92771" lon="1.94722">
        <ele>81.368774</ele>
        <time>2009-05-16T10:00:18Z</time>
      </trkpt>
      <trkpt lat="49.92685" lon="1.94674">
        <ele>81.368774</ele>
        <time>2009-05-16T10:00:32Z</time>
      </trkpt>
      <trkpt lat="49.92596" lon="1.94629">
        <ele>80.407471</ele>
        <time>2009-05-16T10:00:47Z</time>
      </trkpt>
      <trkpt lat="49.92526" lon="1.94603">
        <ele>79.926636</ele>
        <time>2009-05-16T10:00:59Z</time>
      </trkpt>
      <trkpt lat="49.92452" lon="1.94556">
        <ele>78.965454</ele>
        <time>2009-05-16T10:01:12Z</time>
      </trkpt>
      <trkpt lat="49.92375" lon="1.94481">
        <ele>78.965454</ele>
        <time>2009-05-16T10:01:26Z</time>
      </trkpt>
      <trkpt lat="49.92365" lon="1.94468">
        <ele>78.484741</ele>
        <time>2009-05-16T10:01:28Z</time>
      </trkpt>
      <trkpt lat="49.92332" lon="1.944">
        <ele>78.484741</ele>
        <time>2009-05-16T10:01:37Z</time>
      </trkpt>
      <trkpt lat="49.92313" lon="1.94374">
        <ele>78.484741</ele>
        <time>2009-05-16T10:01:41Z</time>
      </trkpt>
      <trkpt lat="49.92299" lon="1.94361">
        <ele>78.004028</ele>
        <time>2009-05-16T10:01:44Z</time>
      </trkpt>
      <trkpt lat="49.92276" lon="1.94329">
        <ele>78.004028</ele>
        <time>2009-05-16T10:01:50Z</time>
      </trkpt>
      <trkpt lat="49.92216" lon="1.94237">
        <ele>77.042847</ele>
        <time>2009-05-16T10:02:06Z</time>
      </trkpt>
      <trkpt lat="49.92151" lon="1.9415">
        <ele>76.562134</ele>
        <time>2009-05-16T10:02:22Z</time>
      </trkpt>
      <trkpt lat="49.92062" lon="1.94063">
        <ele>76.562134</ele>
        <time>2009-05-16T10:02:37Z</time>
      </trkpt>
      <trkpt lat="49.91965" lon="1.94016">
        <ele>76.081421</ele>
        <time>2009-05-16T10:02:49Z</time>
      </trkpt>
      <trkpt lat="49.91922" lon="1.94">
        <ele>76.081421</ele>
        <time>2009-05-16T10:02:54Z</time>
      </trkpt>
      <trkpt lat="49.91906" lon="1.9399">
        <ele>76.081421</ele>
        <time>2009-05-16T10:02:56Z</time>
      </trkpt>
      <trkpt lat="49.9187" lon="1.93947">
        <ele>76.562134</ele>
        <time>2009-05-16T10:03:02Z</time>
      </trkpt>
      <trkpt lat="49.91847" lon="1.93904">
        <ele>76.562134</ele>
        <time>2009-05-16T10:03:07Z</time>
      </trkpt>
      <trkpt lat="49.91805" lon="1.93807">
        <ele>76.081421</ele>
        <time>2009-05-16T10:03:19Z</time>
      </trkpt>
      <trkpt lat="49.91764" lon="1.93713">
        <ele>76.081421</ele>
        <time>2009-05-16T10:03:32Z</time>
      </trkpt>
      <trkpt lat="49.91717" lon="1.93627">
        <ele>76.562134</ele>
        <time>2009-05-16T10:03:46Z</time>
      </trkpt>
      <trkpt lat="49.91663" lon="1.93565">
        <ele>76.081421</ele>
        <time>2009-05-16T10:03:59Z</time>
      </trkpt>
      <trkpt lat="49.91604" lon="1.93484">
        <ele>75.60083</ele>
        <time>2009-05-16T10:04:14Z</time>
      </trkpt>
      <trkpt lat="49.91553" lon="1.93378">
        <ele>75.60083</ele>
        <time>2009-05-16T10:04:29Z</time>
      </trkpt>
      <trkpt lat="49.91525" lon="1.93321">
        <ele>75.60083</ele>
        <time>2009-05-16T10:04:37Z</time>
      </trkpt>
      <trkpt lat="49.91474" lon="1.93204">
        <ele>75.60083</ele>
        <time>2009-05-16T10:04:53Z</time>
      </trkpt>
      <trkpt lat="49.91456" lon="1.93147">
        <ele>75.60083</ele>
        <time>2009-05-16T10:04:59Z</time>
      </trkpt>
      <trkpt lat="49.9146" lon="1.93086">
        <ele>75.60083</ele>
        <time>2009-05-16T10:05:05Z</time>
      </trkpt>
      <trkpt lat="49.91466" lon="1.93069">
        <ele>75.120239</ele>
        <time>2009-05-16T10:05:07Z</time>
      </trkpt>
      <trkpt lat="49.91478" lon="1.93011">
        <ele>75.120239</ele>
        <time>2009-05-16T10:05:13Z</time>
      </trkpt>
      <trkpt lat="49.9148" lon="1.92981">
        <ele>75.120239</ele>
        <time>2009-05-16T10:05:16Z</time>
      </trkpt>
      <trkpt lat="49.91478" lon="1.9296">
        <ele>74.639526</ele>
        <time>2009-05-16T10:05:18Z</time>
      </trkpt>
      <trkpt lat="49.91467" lon="1.92911">
        <ele>75.120239</ele>
        <time>2009-05-16T10:05:23Z</time>
      </trkpt>
      <trkpt lat="49.91399" lon="1.92771">
        <ele>74.639526</ele>
        <time>2009-05-16T10:05:39Z</time>
      </trkpt>
      <trkpt lat="49.91341" lon="1.92633">
        <ele>74.158813</ele>
        <time>2009-05-16T10:05:54Z</time>
      </trkpt>
      <trkpt lat="49.91333" lon="1.92581">
        <ele>74.158813</ele>
        <time>2009-05-16T10:05:59Z</time>
      </trkpt>
      <trkpt lat="49.91317" lon="1.92439">
        <ele>73.678223</ele>
        <time>2009-05-16T10:06:14Z</time>
      </trkpt>
      <trkpt lat="49.91271" lon="1.92318">
        <ele>73.678223</ele>
        <time>2009-05-16T10:06:29Z</time>
      </trkpt>
      <trkpt lat="49.91211" lon="1.92212">
        <ele>73.197632</ele>
        <time>2009-05-16T10:06:45Z</time>
      </trkpt>
      <trkpt lat="49.91203" lon="1.92201">
        <ele>73.197632</ele>
        <time>2009-05-16T10:06:47Z</time>
      </trkpt>
      <trkpt lat="49.91147" lon="1.9211">
        <ele>73.197632</ele>
        <time>2009-05-16T10:07:02Z</time>
      </trkpt>
      <trkpt lat="49.91104" lon="1.92016">
        <ele>72.716919</ele>
        <time>2009-05-16T10:07:16Z</time>
      </trkpt>
      <trkpt lat="49.91055" lon="1.91923">
        <ele>71.755493</ele>
        <time>2009-05-16T10:07:30Z</time>
      </trkpt>
      <trkpt lat="49.91042" lon="1.91897">
        <ele>71.274902</ele>
        <time>2009-05-16T10:07:34Z</time>
      </trkpt>
      <trkpt lat="49.91001" lon="1.91792">
        <ele>70.794189</ele>
        <time>2009-05-16T10:07:50Z</time>
      </trkpt>
      <trkpt lat="49.90995" lon="1.91757">
        <ele>70.313477</ele>
        <time>2009-05-16T10:07:54Z</time>
      </trkpt>
      <trkpt lat="49.91003" lon="1.91641">
        <ele>70.313477</ele>
        <time>2009-05-16T10:08:07Z</time>
      </trkpt>
      <trkpt lat="49.91005" lon="1.91614">
        <ele>70.313477</ele>
        <time>2009-05-16T10:08:10Z</time>
      </trkpt>
      <trkpt lat="49.91005" lon="1.91587">
        <ele>69.832886</ele>
        <time>2009-05-16T10:08:13Z</time>
      </trkpt>
      <trkpt lat="49.91002" lon="1.91569">
        <ele>69.832886</ele>
        <time>2009-05-16T10:08:15Z</time>
      </trkpt>
      <trkpt lat="49.91" lon="1.91552">
        <ele>69.832886</ele>
        <time>2009-05-16T10:08:17Z</time>
      </trkpt>
      <trkpt lat="49.90975" lon="1.91417">
        <ele>69.832886</ele>
        <time>2009-05-16T10:08:34Z</time>
      </trkpt>
      <trkpt lat="49.90965" lon="1.9137">
        <ele>67.910278</ele>
        <time>2009-05-16T10:08:40Z</time>
      </trkpt>
      <trkpt lat="49.90962" lon="1.91354">
        <ele>69.352295</ele>
        <time>2009-05-16T10:08:42Z</time>
      </trkpt>
      <trkpt lat="49.90942" lon="1.91236">
        <ele>68.871582</ele>
        <time>2009-05-16T10:08:58Z</time>
      </trkpt>
      <trkpt lat="49.90933" lon="1.9118">
        <ele>68.871582</ele>
        <time>2009-05-16T10:09:06Z</time>
      </trkpt>
      <trkpt lat="49.90915" lon="1.91082">
        <ele>69.352295</ele>
        <time>2009-05-16T10:09:21Z</time>
      </trkpt>
      <trkpt lat="49.90903" lon="1.90994">
        <ele>69.832886</ele>
        <time>2009-05-16T10:09:35Z</time>
      </trkpt>
      <trkpt lat="49.90878" lon="1.90897">
        <ele>70.313477</ele>
        <time>2009-05-16T10:09:52Z</time>
      </trkpt>
      <trkpt lat="49.9085" lon="1.90815">
        <ele>70.794189</ele>
        <time>2009-05-16T10:10:07Z</time>
      </trkpt>
      <trkpt lat="49.90822" lon="1.90729">
        <ele>71.755493</ele>
        <time>2009-05-16T10:10:23Z</time>
      </trkpt>
      <trkpt lat="49.90803" lon="1.90656">
        <ele>72.236206</ele>
        <time>2009-05-16T10:10:37Z</time>
      </trkpt>
      <trkpt lat="49.90793" lon="1.90613">
        <ele>72.716919</ele>
        <time>2009-05-16T10:10:45Z</time>
      </trkpt>
      <trkpt lat="49.90787" lon="1.90593">
        <ele>77.042847</ele>
        <time>2009-05-16T10:10:49Z</time>
      </trkpt>
      <trkpt lat="49.90763" lon="1.90517">
        <ele>78.004028</ele>
        <time>2009-05-16T10:11:03Z</time>
      </trkpt>
      <trkpt lat="49.90739" lon="1.90469">
        <ele>78.484741</ele>
        <time>2009-05-16T10:11:12Z</time>
      </trkpt>
      <trkpt lat="49.90685" lon="1.90413">
        <ele>78.965454</ele>
        <time>2009-05-16T10:11:27Z</time>
      </trkpt>
      <trkpt lat="49.90671" lon="1.90393">
        <ele>79.446045</ele>
        <time>2009-05-16T10:11:31Z</time>
      </trkpt>
      <trkpt lat="49.90664" lon="1.90377">
        <ele>79.446045</ele>
        <time>2009-05-16T10:11:34Z</time>
      </trkpt>
      <trkpt lat="49.90649" lon="1.90324">
        <ele>80.407471</ele>
        <time>2009-05-16T10:11:43Z</time>
      </trkpt>
      <trkpt lat="49.90618" lon="1.90259">
        <ele>81.368774</ele>
        <time>2009-05-16T10:11:56Z</time>
      </trkpt>
      <trkpt lat="49.90615" lon="1.90254">
        <ele>81.368774</ele>
        <time>2009-05-16T10:11:57Z</time>
      </trkpt>
      <trkpt lat="49.90581" lon="1.90186">
        <ele>82.810791</ele>
        <time>2009-05-16T10:12:11Z</time>
      </trkpt>
      <trkpt lat="49.90579" lon="1.9018">
        <ele>82.330078</ele>
        <time>2009-05-16T10:12:12Z</time>
      </trkpt>
      <trkpt lat="49.90552" lon="1.9008">
        <ele>83.771973</ele>
        <time>2009-05-16T10:12:29Z</time>
      </trkpt>
      <trkpt lat="49.90546" lon="1.90063">
        <ele>83.771973</ele>
        <time>2009-05-16T10:12:32Z</time>
      </trkpt>
      <trkpt lat="49.90533" lon="1.90039">
        <ele>83.771973</ele>
        <time>2009-05-16T10:12:37Z</time>
      </trkpt>
      <trkpt lat="49.90485" lon="1.89955">
        <ele>84.733398</ele>
        <time>2009-05-16T10:12:53Z</time>
      </trkpt>
      <trkpt lat="49.9045" lon="1.8987">
        <ele>85.213989</ele>
        <time>2009-05-16T10:13:06Z</time>
      </trkpt>
      <trkpt lat="49.90417" lon="1.89774">
        <ele>84.733398</ele>
        <time>2009-05-16T10:13:20Z</time>
      </trkpt>
      <trkpt lat="49.90392" lon="1.89695">
        <ele>84.733398</ele>
        <time>2009-05-16T10:13:31Z</time>
      </trkpt>
      <trkpt lat="49.90335" lon="1.89599">
        <ele>84.733398</ele>
        <time>2009-05-16T10:13:47Z</time>
      </trkpt>
      <trkpt lat="49.90302" lon="1.89551">
        <ele>84.733398</ele>
        <time>2009-05-16T10:13:55Z</time>
      </trkpt>
      <trkpt lat="49.90286" lon="1.89529">
        <ele>85.213989</ele>
        <time>2009-05-16T10:13:59Z</time>
      </trkpt>
      <trkpt lat="49.90257" lon="1.89487">
        <ele>85.213989</ele>
        <time>2009-05-16T10:14:06Z</time>
      </trkpt>
      <trkpt lat="49.90238" lon="1.89459">
        <ele>85.69458</ele>
        <time>2009-05-16T10:14:11Z</time>
      </trkpt>
      <trkpt lat="49.90176" lon="1.89372">
        <ele>85.69458</ele>
        <time>2009-05-16T10:14:28Z</time>
      </trkpt>
      <trkpt lat="49.9011" lon="1.8928">
        <ele>85.213989</ele>
        <time>2009-05-16T10:14:44Z</time>
      </trkpt>
      <trkpt lat="49.90036" lon="1.89176">
        <ele>85.213989</ele>
        <time>2009-05-16T10:15:02Z</time>
      </trkpt>
      <trkpt lat="49.89969" lon="1.8908">
        <ele>84.733398</ele>
        <time>2009-05-16T10:15:18Z</time>
      </trkpt>
      <trkpt lat="49.89928" lon="1.89017">
        <ele>84.252686</ele>
        <time>2009-05-16T10:15:29Z</time>
      </trkpt>
      <trkpt lat="49.89879" lon="1.88927">
        <ele>83.771973</ele>
        <time>2009-05-16T10:15:43Z</time>
      </trkpt>
      <trkpt lat="49.89829" lon="1.88843">
        <ele>83.291382</ele>
        <time>2009-05-16T10:15:57Z</time>
      </trkpt>
      <trkpt lat="49.89822" lon="1.88831">
        <ele>83.291382</ele>
        <time>2009-05-16T10:15:59Z</time>
      </trkpt>
      <trkpt lat="49.89753" lon="1.88741">
        <ele>83.291382</ele>
        <time>2009-05-16T10:16:15Z</time>
      </trkpt>
      <trkpt lat="49.89705" lon="1.88684">
        <ele>83.771973</ele>
        <time>2009-05-16T10:16:26Z</time>
      </trkpt>
      <trkpt lat="49.89676" lon="1.88659">
        <ele>83.771973</ele>
        <time>2009-05-16T10:16:32Z</time>
      </trkpt>
      <trkpt lat="49.89602" lon="1.88591">
        <ele>82.810791</ele>
        <time>2009-05-16T10:16:48Z</time>
      </trkpt>
      <trkpt lat="49.89535" lon="1.88522">
        <ele>83.291382</ele>
        <time>2009-05-16T10:17:03Z</time>
      </trkpt>
      <trkpt lat="49.895" lon="1.88487">
        <ele>83.291382</ele>
        <time>2009-05-16T10:17:11Z</time>
      </trkpt>
      <trkpt lat="49.89467" lon="1.88444">
        <ele>83.291382</ele>
        <time>2009-05-16T10:17:19Z</time>
      </trkpt>
      <trkpt lat="49.89398" lon="1.88371">
        <ele>82.810791</ele>
        <time>2009-05-16T10:17:35Z</time>
      </trkpt>
      <trkpt lat="49.89327" lon="1.88329">
        <ele>81.368774</ele>
        <time>2009-05-16T10:17:49Z</time>
      </trkpt>
      <trkpt lat="49.89266" lon="1.88259">
        <ele>78.484741</ele>
        <time>2009-05-16T10:18:03Z</time>
      </trkpt>
      <trkpt lat="49.89209" lon="1.88159">
        <ele>77.042847</ele>
        <time>2009-05-16T10:18:19Z</time>
      </trkpt>
      <trkpt lat="49.89185" lon="1.88105">
        <ele>77.042847</ele>
        <time>2009-05-16T10:18:27Z</time>
      </trkpt>
      <trkpt lat="49.89174" lon="1.88063">
        <ele>76.562134</ele>
        <time>2009-05-16T10:18:39Z</time>
      </trkpt>
      <trkpt lat="49.89174" lon="1.88063">
        <ele>73.678223</ele>
        <time>2009-05-16T10:19:15Z</time>
      </trkpt>
      <trkpt lat="49.89173" lon="1.88061">
        <ele>70.794189</ele>
        <time>2009-05-16T10:19:43Z</time>
      </trkpt>
      <trkpt lat="49.89173" lon="1.88061">
        <ele>81.849365</ele>
        <time>2009-05-16T10:19:46Z</time>
      </trkpt>
      <trkpt lat="49.89173" lon="1.88061">
        <ele>90.501343</ele>
        <time>2009-05-16T10:19:47Z</time>
      </trkpt>
      <trkpt lat="49.89173" lon="1.8806">
        <ele>95.788452</ele>
        <time>2009-05-16T10:19:48Z</time>
      </trkpt>
      <trkpt lat="49.89173" lon="1.8806">
        <ele>108.766235</ele>
        <time>2009-05-16T10:19:49Z</time>
      </trkpt>
      <trkpt lat="49.89173" lon="1.8806">
        <ele>118.860107</ele>
        <time>2009-05-16T10:19:50Z</time>
      </trkpt>
      <trkpt lat="49.89173" lon="1.8806">
        <ele>126.069946</ele>
        <time>2009-05-16T10:19:51Z</time>
      </trkpt>
      <trkpt lat="49.89173" lon="1.88059">
        <ele>126.550659</ele>
        <time>2009-05-16T10:19:53Z</time>
      </trkpt>
      <trkpt lat="49.89173" lon="1.88059">
        <ele>123.666748</ele>
        <time>2009-05-16T10:20:03Z</time>
      </trkpt>
      <trkpt lat="49.89173" lon="1.88059">
        <ele>123.186157</ele>
        <time>2009-05-16T10:20:04Z</time>
      </trkpt>
      <trkpt lat="49.89173" lon="1.88058">
        <ele>120.302124</ele>
        <time>2009-05-16T10:20:13Z</time>
      </trkpt>
      <trkpt lat="49.89173" lon="1.88059">
        <ele>128.954102</ele>
        <time>2009-05-16T10:20:18Z</time>
      </trkpt>
      <trkpt lat="49.89173" lon="1.88059">
        <ele>129.915283</ele>
        <time>2009-05-16T10:20:20Z</time>
      </trkpt>
      <trkpt lat="49.89173" lon="1.88058">
        <ele>127.031372</ele>
        <time>2009-05-16T10:20:44Z</time>
      </trkpt>
      <trkpt lat="49.89173" lon="1.88058">
        <ele>123.666748</ele>
        <time>2009-05-16T10:20:59Z</time>
      </trkpt>
      <trkpt lat="49.89173" lon="1.88059">
        <ele>121.26355</ele>
        <time>2009-05-16T10:21:50Z</time>
      </trkpt>
      <trkpt lat="49.89166" lon="1.88047">
        <ele>120.302124</ele>
        <time>2009-05-16T10:21:54Z</time>
      </trkpt>
      <trkpt lat="49.89161" lon="1.88037">
        <ele>120.302124</ele>
        <time>2009-05-16T10:21:56Z</time>
      </trkpt>
      <trkpt lat="49.89115" lon="1.87956">
        <ele>120.782837</ele>
        <time>2009-05-16T10:22:09Z</time>
      </trkpt>
      <trkpt lat="49.8908" lon="1.87892">
        <ele>117.418213</ele>
        <time>2009-05-16T10:22:19Z</time>
      </trkpt>
      <trkpt lat="49.89062" lon="1.87861">
        <ele>117.898804</ele>
        <time>2009-05-16T10:22:24Z</time>
      </trkpt>
      <trkpt lat="49.89055" lon="1.87847">
        <ele>118.379395</ele>
        <time>2009-05-16T10:22:26Z</time>
      </trkpt>
      <trkpt lat="49.89008" lon="1.87763">
        <ele>119.34082</ele>
        <time>2009-05-16T10:22:40Z</time>
      </trkpt>
      <trkpt lat="49.88992" lon="1.87733">
        <ele>118.860107</ele>
        <time>2009-05-16T10:22:45Z</time>
      </trkpt>
      <trkpt lat="49.88939" lon="1.87623">
        <ele>119.821411</ele>
        <time>2009-05-16T10:23:03Z</time>
      </trkpt>
      <trkpt lat="49.88924" lon="1.87587">
        <ele>120.302124</ele>
        <time>2009-05-16T10:23:09Z</time>
      </trkpt>
      <trkpt lat="49.88919" lon="1.87574">
        <ele>120.302124</ele>
        <time>2009-05-16T10:23:11Z</time>
      </trkpt>
      <trkpt lat="49.88914" lon="1.87562">
        <ele>120.302124</ele>
        <time>2009-05-16T10:23:13Z</time>
      </trkpt>
      <trkpt lat="49.88893" lon="1.87512">
        <ele>120.782837</ele>
        <time>2009-05-16T10:23:21Z</time>
      </trkpt>
      <trkpt lat="49.88846" lon="1.87405">
        <ele>120.782837</ele>
        <time>2009-05-16T10:23:37Z</time>
      </trkpt>
      <trkpt lat="49.88791" lon="1.87284">
        <ele>119.821411</ele>
        <time>2009-05-16T10:23:55Z</time>
      </trkpt>
      <trkpt lat="49.8873" lon="1.87167">
        <ele>119.34082</ele>
        <time>2009-05-16T10:24:12Z</time>
      </trkpt>
      <trkpt lat="49.88662" lon="1.87042">
        <ele>118.860107</ele>
        <time>2009-05-16T10:24:30Z</time>
      </trkpt>
      <trkpt lat="49.88602" lon="1.86925">
        <ele>119.34082</ele>
        <time>2009-05-16T10:24:47Z</time>
      </trkpt>
      <trkpt lat="49.88543" lon="1.86809">
        <ele>119.34082</ele>
        <time>2009-05-16T10:25:04Z</time>
      </trkpt>
      <trkpt lat="49.88497" lon="1.86709">
        <ele>119.34082</ele>
        <time>2009-05-16T10:25:18Z</time>
      </trkpt>
      <trkpt lat="49.88441" lon="1.86579">
        <ele>118.860107</ele>
        <time>2009-05-16T10:25:35Z</time>
      </trkpt>
      <trkpt lat="49.88414" lon="1.8652">
        <ele>118.379395</ele>
        <time>2009-05-16T10:25:43Z</time>
      </trkpt>
      <trkpt lat="49.88364" lon="1.86407">
        <ele>118.379395</ele>
        <time>2009-05-16T10:25:58Z</time>
      </trkpt>
      <trkpt lat="49.88315" lon="1.86299">
        <ele>118.379395</ele>
        <time>2009-05-16T10:26:12Z</time>
      </trkpt>
      <trkpt lat="49.88256" lon="1.86168">
        <ele>117.898804</ele>
        <time>2009-05-16T10:26:29Z</time>
      </trkpt>
      <trkpt lat="49.88198" lon="1.86026">
        <ele>118.379395</ele>
        <time>2009-05-16T10:26:47Z</time>
      </trkpt>
      <trkpt lat="49.88145" lon="1.85919">
        <ele>118.860107</ele>
        <time>2009-05-16T10:27:02Z</time>
      </trkpt>
      <trkpt lat="49.88079" lon="1.85812">
        <ele>119.34082</ele>
        <time>2009-05-16T10:27:18Z</time>
      </trkpt>
      <trkpt lat="49.88019" lon="1.85715">
        <ele>120.782837</ele>
        <time>2009-05-16T10:27:33Z</time>
      </trkpt>
      <trkpt lat="49.87979" lon="1.8562">
        <ele>122.224731</ele>
        <time>2009-05-16T10:27:47Z</time>
      </trkpt>
      <trkpt lat="49.87973" lon="1.85603">
        <ele>122.705444</ele>
        <time>2009-05-16T10:27:49Z</time>
      </trkpt>
      <trkpt lat="49.87927" lon="1.85473">
        <ele>123.186157</ele>
        <time>2009-05-16T10:28:06Z</time>
      </trkpt>
      <trkpt lat="49.87881" lon="1.85345">
        <ele>123.186157</ele>
        <time>2009-05-16T10:28:23Z</time>
      </trkpt>
      <trkpt lat="49.87841" lon="1.8524">
        <ele>124.147339</ele>
        <time>2009-05-16T10:28:38Z</time>
      </trkpt>
      <trkpt lat="49.87793" lon="1.85151">
        <ele>125.589355</ele>
        <time>2009-05-16T10:28:52Z</time>
      </trkpt>
      <trkpt lat="49.87741" lon="1.85059">
        <ele>126.550659</ele>
        <time>2009-05-16T10:29:07Z</time>
      </trkpt>
      <trkpt lat="49.87683" lon="1.8495">
        <ele>127.031372</ele>
        <time>2009-05-16T10:29:24Z</time>
      </trkpt>
      <trkpt lat="49.87635" lon="1.84861">
        <ele>126.550659</ele>
        <time>2009-05-16T10:29:38Z</time>
      </trkpt>
      <trkpt lat="49.87589" lon="1.84756">
        <ele>126.069946</ele>
        <time>2009-05-16T10:29:53Z</time>
      </trkpt>
      <trkpt lat="49.87559" lon="1.84624">
        <ele>125.108765</ele>
        <time>2009-05-16T10:30:10Z</time>
      </trkpt>
      <trkpt lat="49.87555" lon="1.84608">
        <ele>125.108765</ele>
        <time>2009-05-16T10:30:12Z</time>
      </trkpt>
      <trkpt lat="49.87522" lon="1.84485">
        <ele>125.108765</ele>
        <time>2009-05-16T10:30:28Z</time>
      </trkpt>
      <trkpt lat="49.8749" lon="1.84355">
        <ele>124.628052</ele>
        <time>2009-05-16T10:30:45Z</time>
      </trkpt>
      <trkpt lat="49.87456" lon="1.84253">
        <ele>124.628052</ele>
        <time>2009-05-16T10:30:59Z</time>
      </trkpt>
      <trkpt lat="49.87399" lon="1.84166">
        <ele>125.108765</ele>
        <time>2009-05-16T10:31:14Z</time>
      </trkpt>
      <trkpt lat="49.87379" lon="1.8411">
        <ele>125.589355</ele>
        <time>2009-05-16T10:31:22Z</time>
      </trkpt>
      <trkpt lat="49.87373" lon="1.83974">
        <ele>126.550659</ele>
        <time>2009-05-16T10:31:37Z</time>
      </trkpt>
      <trkpt lat="49.87368" lon="1.83795">
        <ele>127.031372</ele>
        <time>2009-05-16T10:31:55Z</time>
      </trkpt>
      <trkpt lat="49.87362" lon="1.83623">
        <ele>127.992554</ele>
        <time>2009-05-16T10:32:12Z</time>
      </trkpt>
      <trkpt lat="49.87355" lon="1.8348">
        <ele>127.992554</ele>
        <time>2009-05-16T10:32:28Z</time>
      </trkpt>
      <trkpt lat="49.87336" lon="1.83339">
        <ele>127.992554</ele>
        <time>2009-05-16T10:32:45Z</time>
      </trkpt>
      <trkpt lat="49.87325" lon="1.8327">
        <ele>127.992554</ele>
        <time>2009-05-16T10:32:53Z</time>
      </trkpt>
      <trkpt lat="49.87319" lon="1.83244">
        <ele>127.992554</ele>
        <time>2009-05-16T10:32:56Z</time>
      </trkpt>
      <trkpt lat="49.873" lon="1.8321">
        <ele>127.992554</ele>
        <time>2009-05-16T10:33:01Z</time>
      </trkpt>
      <trkpt lat="49.87238" lon="1.83115">
        <ele>128.473389</ele>
        <time>2009-05-16T10:33:16Z</time>
      </trkpt>
      <trkpt lat="49.87201" lon="1.83007">
        <ele>129.434692</ele>
        <time>2009-05-16T10:33:30Z</time>
      </trkpt>
      <trkpt lat="49.87182" lon="1.82905">
        <ele>130.395996</ele>
        <time>2009-05-16T10:33:42Z</time>
      </trkpt>
      <trkpt lat="49.8714" lon="1.82816">
        <ele>131.3573</ele>
        <time>2009-05-16T10:33:55Z</time>
      </trkpt>
      <trkpt lat="49.87115" lon="1.82783">
        <ele>131.837891</ele>
        <time>2009-05-16T10:34:06Z</time>
      </trkpt>
      <trkpt lat="49.87112" lon="1.82779">
        <ele>132.318604</ele>
        <time>2009-05-16T10:34:07Z</time>
      </trkpt>
      <trkpt lat="49.87059" lon="1.82718">
        <ele>133.279907</ele>
        <time>2009-05-16T10:34:19Z</time>
      </trkpt>
      <trkpt lat="49.87047" lon="1.82699">
        <ele>133.760498</ele>
        <time>2009-05-16T10:34:22Z</time>
      </trkpt>
      <trkpt lat="49.87033" lon="1.82621">
        <ele>134.721924</ele>
        <time>2009-05-16T10:34:32Z</time>
      </trkpt>
      <trkpt lat="49.87015" lon="1.82474">
        <ele>135.202515</ele>
        <time>2009-05-16T10:34:48Z</time>
      </trkpt>
      <trkpt lat="49.86992" lon="1.82335">
        <ele>135.202515</ele>
        <time>2009-05-16T10:35:04Z</time>
      </trkpt>
      <trkpt lat="49.86967" lon="1.82199">
        <ele>137.605835</ele>
        <time>2009-05-16T10:35:20Z</time>
      </trkpt>
      <trkpt lat="49.86947" lon="1.82065">
        <ele>141.45105</ele>
        <time>2009-05-16T10:35:36Z</time>
      </trkpt>
      <trkpt lat="49.86946" lon="1.82057">
        <ele>147.218994</ele>
        <time>2009-05-16T10:35:37Z</time>
      </trkpt>
      <trkpt lat="49.86945" lon="1.82048">
        <ele>157.793579</ele>
        <time>2009-05-16T10:35:38Z</time>
      </trkpt>
      <trkpt lat="49.86944" lon="1.8204">
        <ele>167.887329</ele>
        <time>2009-05-16T10:35:39Z</time>
      </trkpt>
      <trkpt lat="49.86942" lon="1.82032">
        <ele>173.655273</ele>
        <time>2009-05-16T10:35:40Z</time>
      </trkpt>
      <trkpt lat="49.86939" lon="1.82006">
        <ele>176.539307</ele>
        <time>2009-05-16T10:35:43Z</time>
      </trkpt>
      <trkpt lat="49.86916" lon="1.81892">
        <ele>175.577881</ele>
        <time>2009-05-16T10:35:57Z</time>
      </trkpt>
      <trkpt lat="49.8689" lon="1.81772">
        <ele>176.058594</ele>
        <time>2009-05-16T10:36:12Z</time>
      </trkpt>
      <trkpt lat="49.86875" lon="1.81712">
        <ele>176.058594</ele>
        <time>2009-05-16T10:36:20Z</time>
      </trkpt>
      <trkpt lat="49.86838" lon="1.81675">
        <ele>176.539307</ele>
        <time>2009-05-16T10:36:29Z</time>
      </trkpt>
      <trkpt lat="49.86752" lon="1.81673">
        <ele>177.50061</ele>
        <time>2009-05-16T10:36:44Z</time>
      </trkpt>
      <trkpt lat="49.86728" lon="1.81673">
        <ele>177.50061</ele>
        <time>2009-05-16T10:36:48Z</time>
      </trkpt>
      <trkpt lat="49.86685" lon="1.81644">
        <ele>177.981201</ele>
        <time>2009-05-16T10:36:56Z</time>
      </trkpt>
      <trkpt lat="49.86632" lon="1.81541">
        <ele>178.942627</ele>
        <time>2009-05-16T10:37:11Z</time>
      </trkpt>
      <trkpt lat="49.8658" lon="1.81431">
        <ele>178.942627</ele>
        <time>2009-05-16T10:37:26Z</time>
      </trkpt>
      <trkpt lat="49.86528" lon="1.81324">
        <ele>178.461914</ele>
        <time>2009-05-16T10:37:39Z</time>
      </trkpt>
      <trkpt lat="49.86505" lon="1.81304">
        <ele>177.981201</ele>
        <time>2009-05-16T10:37:42Z</time>
      </trkpt>
      <trkpt lat="49.86415" lon="1.81312">
        <ele>178.942627</ele>
        <time>2009-05-16T10:37:51Z</time>
      </trkpt>
      <trkpt lat="49.86364" lon="1.81374">
        <ele>179.423218</ele>
        <time>2009-05-16T10:37:57Z</time>
      </trkpt>
      <trkpt lat="49.86339" lon="1.81449">
        <ele>180.384521</ele>
        <time>2009-05-16T10:38:02Z</time>
      </trkpt>
      <trkpt lat="49.86253" lon="1.81574">
        <ele>181.345825</ele>
        <time>2009-05-16T10:38:12Z</time>
      </trkpt>
      <trkpt lat="49.8621" lon="1.81698">
        <ele>182.307129</ele>
        <time>2009-05-16T10:38:20Z</time>
      </trkpt>
      <trkpt lat="49.86157" lon="1.81733">
        <ele>182.787842</ele>
        <time>2009-05-16T10:38:26Z</time>
      </trkpt>
      <trkpt lat="49.86137" lon="1.81724">
        <ele>183.268433</ele>
        <time>2009-05-16T10:38:28Z</time>
      </trkpt>
      <trkpt lat="49.86116" lon="1.8171">
        <ele>183.749023</ele>
        <time>2009-05-16T10:38:30Z</time>
      </trkpt>
      <trkpt lat="49.86057" lon="1.81718">
        <ele>183.749023</ele>
        <time>2009-05-16T10:38:34Z</time>
      </trkpt>
      <trkpt lat="49.85994" lon="1.81743">
        <ele>183.749023</ele>
        <time>2009-05-16T10:38:40Z</time>
      </trkpt>
      <trkpt lat="49.85895" lon="1.81711">
        <ele>183.749023</ele>
        <time>2009-05-16T10:38:49Z</time>
      </trkpt>
      <trkpt lat="49.85806" lon="1.81723">
        <ele>183.268433</ele>
        <time>2009-05-16T10:38:57Z</time>
      </trkpt>
      <trkpt lat="49.85771" lon="1.81761">
        <ele>183.268433</ele>
        <time>2009-05-16T10:39:02Z</time>
      </trkpt>
      <trkpt lat="49.85761" lon="1.81792">
        <ele>183.268433</ele>
        <time>2009-05-16T10:39:05Z</time>
      </trkpt>
      <trkpt lat="49.85746" lon="1.81828">
        <ele>182.787842</ele>
        <time>2009-05-16T10:39:09Z</time>
      </trkpt>
      <trkpt lat="49.85708" lon="1.81846">
        <ele>182.307129</ele>
        <time>2009-05-16T10:39:16Z</time>
      </trkpt>
      <trkpt lat="49.85703" lon="1.81839">
        <ele>182.307129</ele>
        <time>2009-05-16T10:39:17Z</time>
      </trkpt>
      <trkpt lat="49.85688" lon="1.81808">
        <ele>181.826416</ele>
        <time>2009-05-16T10:39:21Z</time>
      </trkpt>
      <trkpt lat="49.85672" lon="1.81778">
        <ele>181.826416</ele>
        <time>2009-05-16T10:39:25Z</time>
      </trkpt>
      <trkpt lat="49.85663" lon="1.81763">
        <ele>181.826416</ele>
        <time>2009-05-16T10:39:27Z</time>
      </trkpt>
      <trkpt lat="49.85652" lon="1.81729">
        <ele>181.826416</ele>
        <time>2009-05-16T10:39:31Z</time>
      </trkpt>
      <trkpt lat="49.85643" lon="1.81707">
        <ele>181.345825</ele>
        <time>2009-05-16T10:39:34Z</time>
      </trkpt>
      <trkpt lat="49.85609" lon="1.81659">
        <ele>180.865234</ele>
        <time>2009-05-16T10:39:45Z</time>
      </trkpt>
      <trkpt lat="49.85594" lon="1.81656">
        <ele>180.384521</ele>
        <time>2009-05-16T10:39:49Z</time>
      </trkpt>
      <trkpt lat="49.85588" lon="1.81666">
        <ele>180.384521</ele>
        <time>2009-05-16T10:39:51Z</time>
      </trkpt>
      <trkpt lat="49.85536" lon="1.81707">
        <ele>179.903809</ele>
        <time>2009-05-16T10:40:04Z</time>
      </trkpt>
      <trkpt lat="49.855" lon="1.81742">
        <ele>178.942627</ele>
        <time>2009-05-16T10:40:15Z</time>
      </trkpt>
      <trkpt lat="49.85455" lon="1.81767">
        <ele>177.50061</ele>
        <time>2009-05-16T10:40:28Z</time>
      </trkpt>
      <trkpt lat="49.85407" lon="1.81782">
        <ele>176.058594</ele>
        <time>2009-05-16T10:40:42Z</time>
      </trkpt>
      <trkpt lat="49.85362" lon="1.81754">
        <ele>175.09729</ele>
        <time>2009-05-16T10:40:56Z</time>
      </trkpt>
      <trkpt lat="49.85341" lon="1.81701">
        <ele>174.616577</ele>
        <time>2009-05-16T10:41:08Z</time>
      </trkpt>
      <trkpt lat="49.85321" lon="1.81621">
        <ele>172.213257</ele>
        <time>2009-05-16T10:41:25Z</time>
      </trkpt>
      <trkpt lat="49.85307" lon="1.81593">
        <ele>171.252075</ele>
        <time>2009-05-16T10:41:32Z</time>
      </trkpt>
      <trkpt lat="49.85304" lon="1.81573">
        <ele>171.252075</ele>
        <time>2009-05-16T10:41:36Z</time>
      </trkpt>
      <trkpt lat="49.85286" lon="1.8148">
        <ele>168.368042</ele>
        <time>2009-05-16T10:41:54Z</time>
      </trkpt>
      <trkpt lat="49.85258" lon="1.81391">
        <ele>166.445313</ele>
        <time>2009-05-16T10:42:13Z</time>
      </trkpt>
      <trkpt lat="49.85241" lon="1.8133">
        <ele>166.926025</ele>
        <time>2009-05-16T10:42:27Z</time>
      </trkpt>
      <trkpt lat="49.85231" lon="1.81272">
        <ele>167.887329</ele>
        <time>2009-05-16T10:42:40Z</time>
      </trkpt>
      <trkpt lat="49.85225" lon="1.81212">
        <ele>168.848755</ele>
        <time>2009-05-16T10:42:52Z</time>
      </trkpt>
      <trkpt lat="49.85226" lon="1.81148">
        <ele>169.329468</ele>
        <time>2009-05-16T10:43:06Z</time>
      </trkpt>
      <trkpt lat="49.85233" lon="1.81092">
        <ele>169.810059</ele>
        <time>2009-05-16T10:43:17Z</time>
      </trkpt>
      <trkpt lat="49.85242" lon="1.81025">
        <ele>170.771362</ele>
        <time>2009-05-16T10:43:29Z</time>
      </trkpt>
      <trkpt lat="49.85246" lon="1.80972">
        <ele>171.252075</ele>
        <time>2009-05-16T10:43:39Z</time>
      </trkpt>
      <trkpt lat="49.85246" lon="1.809">
        <ele>171.732666</ele>
        <time>2009-05-16T10:43:51Z</time>
      </trkpt>
      <trkpt lat="49.85231" lon="1.80811">
        <ele>172.213257</ele>
        <time>2009-05-16T10:44:05Z</time>
      </trkpt>
      <trkpt lat="49.85223" lon="1.80787">
        <ele>172.213257</ele>
        <time>2009-05-16T10:44:09Z</time>
      </trkpt>
      <trkpt lat="49.85209" lon="1.80747">
        <ele>172.69397</ele>
        <time>2009-05-16T10:44:16Z</time>
      </trkpt>
      <trkpt lat="49.85175" lon="1.80656">
        <ele>174.135864</ele>
        <time>2009-05-16T10:44:31Z</time>
      </trkpt>
      <trkpt lat="49.85168" lon="1.80637">
        <ele>174.616577</ele>
        <time>2009-05-16T10:44:34Z</time>
      </trkpt>
      <trkpt lat="49.85143" lon="1.80577">
        <ele>175.577881</ele>
        <time>2009-05-16T10:44:44Z</time>
      </trkpt>
      <trkpt lat="49.851" lon="1.80479">
        <ele>177.02002</ele>
        <time>2009-05-16T10:45:01Z</time>
      </trkpt>
      <trkpt lat="49.85089" lon="1.80456">
        <ele>177.50061</ele>
        <time>2009-05-16T10:45:05Z</time>
      </trkpt>
      <trkpt lat="49.85057" lon="1.8039">
        <ele>177.981201</ele>
        <time>2009-05-16T10:45:16Z</time>
      </trkpt>
      <trkpt lat="49.85038" lon="1.80344">
        <ele>178.461914</ele>
        <time>2009-05-16T10:45:23Z</time>
      </trkpt>
      <trkpt lat="49.85027" lon="1.80319">
        <ele>178.942627</ele>
        <time>2009-05-16T10:45:27Z</time>
      </trkpt>
      <trkpt lat="49.85021" lon="1.803">
        <ele>179.423218</ele>
        <time>2009-05-16T10:45:30Z</time>
      </trkpt>
      <trkpt lat="49.85006" lon="1.8027">
        <ele>179.903809</ele>
        <time>2009-05-16T10:45:35Z</time>
      </trkpt>
      <trkpt lat="49.84995" lon="1.80247">
        <ele>180.384521</ele>
        <time>2009-05-16T10:45:39Z</time>
      </trkpt>
      <trkpt lat="49.84944" lon="1.80143">
        <ele>181.345825</ele>
        <time>2009-05-16T10:45:57Z</time>
      </trkpt>
      <trkpt lat="49.84928" lon="1.80113">
        <ele>181.826416</ele>
        <time>2009-05-16T10:46:02Z</time>
      </trkpt>
      <trkpt lat="49.84891" lon="1.80021">
        <ele>182.307129</ele>
        <time>2009-05-16T10:46:16Z</time>
      </trkpt>
      <trkpt lat="49.84851" lon="1.79908">
        <ele>182.307129</ele>
        <time>2009-05-16T10:46:32Z</time>
      </trkpt>
      <trkpt lat="49.84829" lon="1.79845">
        <ele>182.787842</ele>
        <time>2009-05-16T10:46:41Z</time>
      </trkpt>
      <trkpt lat="49.8482" lon="1.79822">
        <ele>182.787842</ele>
        <time>2009-05-16T10:46:45Z</time>
      </trkpt>
      <trkpt lat="49.8481" lon="1.79798">
        <ele>183.268433</ele>
        <time>2009-05-16T10:46:49Z</time>
      </trkpt>
      <trkpt lat="49.84805" lon="1.79783">
        <ele>183.268433</ele>
        <time>2009-05-16T10:46:51Z</time>
      </trkpt>
      <trkpt lat="49.84773" lon="1.7972">
        <ele>184.710571</ele>
        <time>2009-05-16T10:47:01Z</time>
      </trkpt>
      <trkpt lat="49.84766" lon="1.79708">
        <ele>185.191162</ele>
        <time>2009-05-16T10:47:03Z</time>
      </trkpt>
      <trkpt lat="49.84752" lon="1.79684">
        <ele>185.671753</ele>
        <time>2009-05-16T10:47:07Z</time>
      </trkpt>
      <trkpt lat="49.847" lon="1.79586">
        <ele>187.59436</ele>
        <time>2009-05-16T10:47:23Z</time>
      </trkpt>
      <trkpt lat="49.84667" lon="1.79489">
        <ele>189.036377</ele>
        <time>2009-05-16T10:47:37Z</time>
      </trkpt>
      <trkpt lat="49.84646" lon="1.79376">
        <ele>190.478394</ele>
        <time>2009-05-16T10:47:51Z</time>
      </trkpt>
      <trkpt lat="49.84641" lon="1.79343">
        <ele>190.958984</ele>
        <time>2009-05-16T10:47:55Z</time>
      </trkpt>
      <trkpt lat="49.84602" lon="1.79223">
        <ele>191.439575</ele>
        <time>2009-05-16T10:48:10Z</time>
      </trkpt>
      <trkpt lat="49.84539" lon="1.79126">
        <ele>192.401123</ele>
        <time>2009-05-16T10:48:25Z</time>
      </trkpt>
      <trkpt lat="49.84476" lon="1.79032">
        <ele>192.881714</ele>
        <time>2009-05-16T10:48:40Z</time>
      </trkpt>
      <trkpt lat="49.8442" lon="1.78914">
        <ele>193.362305</ele>
        <time>2009-05-16T10:48:55Z</time>
      </trkpt>
      <trkpt lat="49.8437" lon="1.78797">
        <ele>191.920288</ele>
        <time>2009-05-16T10:49:09Z</time>
      </trkpt>
      <trkpt lat="49.84333" lon="1.78659">
        <ele>191.920288</ele>
        <time>2009-05-16T10:49:23Z</time>
      </trkpt>
      <trkpt lat="49.84329" lon="1.78637">
        <ele>191.920288</ele>
        <time>2009-05-16T10:49:25Z</time>
      </trkpt>
      <trkpt lat="49.84324" lon="1.78553">
        <ele>192.401123</ele>
        <time>2009-05-16T10:49:34Z</time>
      </trkpt>
      <trkpt lat="49.84342" lon="1.78427">
        <ele>192.881714</ele>
        <time>2009-05-16T10:49:49Z</time>
      </trkpt>
      <trkpt lat="49.84364" lon="1.78334">
        <ele>193.362305</ele>
        <time>2009-05-16T10:50:01Z</time>
      </trkpt>
      <trkpt lat="49.84366" lon="1.78297">
        <ele>193.843018</ele>
        <time>2009-05-16T10:50:06Z</time>
      </trkpt>
      <trkpt lat="49.84353" lon="1.78192">
        <ele>194.32373</ele>
        <time>2009-05-16T10:50:20Z</time>
      </trkpt>
      <trkpt lat="49.84346" lon="1.78115">
        <ele>194.804321</ele>
        <time>2009-05-16T10:50:30Z</time>
      </trkpt>
      <trkpt lat="49.84346" lon="1.78077">
        <ele>195.284912</ele>
        <time>2009-05-16T10:50:35Z</time>
      </trkpt>
      <trkpt lat="49.84337" lon="1.78039">
        <ele>195.765625</ele>
        <time>2009-05-16T10:50:41Z</time>
      </trkpt>
      <trkpt lat="49.84304" lon="1.7799">
        <ele>195.765625</ele>
        <time>2009-05-16T10:50:51Z</time>
      </trkpt>
      <trkpt lat="49.84295" lon="1.77971">
        <ele>196.246338</ele>
        <time>2009-05-16T10:50:54Z</time>
      </trkpt>
      <trkpt lat="49.8429" lon="1.77958">
        <ele>196.246338</ele>
        <time>2009-05-16T10:50:56Z</time>
      </trkpt>
      <trkpt lat="49.84273" lon="1.77928">
        <ele>196.246338</ele>
        <time>2009-05-16T10:51:01Z</time>
      </trkpt>
      <trkpt lat="49.84258" lon="1.779">
        <ele>196.726929</ele>
        <time>2009-05-16T10:51:06Z</time>
      </trkpt>
      <trkpt lat="49.84214" lon="1.77818">
        <ele>197.688232</ele>
        <time>2009-05-16T10:51:19Z</time>
      </trkpt>
      <trkpt lat="49.84211" lon="1.77812">
        <ele>197.688232</ele>
        <time>2009-05-16T10:51:20Z</time>
      </trkpt>
      <trkpt lat="49.84202" lon="1.77782">
        <ele>197.688232</ele>
        <time>2009-05-16T10:51:24Z</time>
      </trkpt>
      <trkpt lat="49.84179" lon="1.77664">
        <ele>198.649536</ele>
        <time>2009-05-16T10:51:38Z</time>
      </trkpt>
      <trkpt lat="49.84167" lon="1.77604">
        <ele>198.649536</ele>
        <time>2009-05-16T10:51:45Z</time>
      </trkpt>
      <trkpt lat="49.84155" lon="1.77573">
        <ele>198.649536</ele>
        <time>2009-05-16T10:51:49Z</time>
      </trkpt>
      <trkpt lat="49.84093" lon="1.77474">
        <ele>199.61084</ele>
        <time>2009-05-16T10:52:04Z</time>
      </trkpt>
      <trkpt lat="49.84034" lon="1.77389">
        <ele>200.572266</ele>
        <time>2009-05-16T10:52:18Z</time>
      </trkpt>
      <trkpt lat="49.8396" lon="1.77311">
        <ele>202.014282</ele>
        <time>2009-05-16T10:52:33Z</time>
      </trkpt>
      <trkpt lat="49.83907" lon="1.77201">
        <ele>202.494873</ele>
        <time>2009-05-16T10:52:48Z</time>
      </trkpt>
      <trkpt lat="49.8387" lon="1.77114">
        <ele>202.975464</ele>
        <time>2009-05-16T10:52:59Z</time>
      </trkpt>
      <trkpt lat="49.83833" lon="1.76965">
        <ele>203.93689</ele>
        <time>2009-05-16T10:53:16Z</time>
      </trkpt>
      <trkpt lat="49.83792" lon="1.76812">
        <ele>204.41748</ele>
        <time>2009-05-16T10:53:33Z</time>
      </trkpt>
      <trkpt lat="49.83754" lon="1.76681">
        <ele>204.898071</ele>
        <time>2009-05-16T10:53:48Z</time>
      </trkpt>
      <trkpt lat="49.83741" lon="1.76618">
        <ele>204.898071</ele>
        <time>2009-05-16T10:53:55Z</time>
      </trkpt>
      <trkpt lat="49.83711" lon="1.76526">
        <ele>205.378784</ele>
        <time>2009-05-16T10:54:10Z</time>
      </trkpt>
      <trkpt lat="49.83709" lon="1.76519">
        <ele>205.378784</ele>
        <time>2009-05-16T10:54:11Z</time>
      </trkpt>
      <trkpt lat="49.83703" lon="1.76503">
        <ele>205.859497</ele>
        <time>2009-05-16T10:54:13Z</time>
      </trkpt>
      <trkpt lat="49.83699" lon="1.7647">
        <ele>205.859497</ele>
        <time>2009-05-16T10:54:17Z</time>
      </trkpt>
      <trkpt lat="49.83701" lon="1.76433">
        <ele>205.859497</ele>
        <time>2009-05-16T10:54:21Z</time>
      </trkpt>
      <trkpt lat="49.83677" lon="1.76282">
        <ele>205.859497</ele>
        <time>2009-05-16T10:54:37Z</time>
      </trkpt>
      <trkpt lat="49.83644" lon="1.7617">
        <ele>206.340088</ele>
        <time>2009-05-16T10:54:50Z</time>
      </trkpt>
      <trkpt lat="49.83587" lon="1.76041">
        <ele>206.820679</ele>
        <time>2009-05-16T10:55:06Z</time>
      </trkpt>
      <trkpt lat="49.83532" lon="1.75914">
        <ele>206.820679</ele>
        <time>2009-05-16T10:55:22Z</time>
      </trkpt>
      <trkpt lat="49.8347" lon="1.75779">
        <ele>205.859497</ele>
        <time>2009-05-16T10:55:39Z</time>
      </trkpt>
      <trkpt lat="49.83428" lon="1.75677">
        <ele>205.378784</ele>
        <time>2009-05-16T10:55:53Z</time>
      </trkpt>
      <trkpt lat="49.83403" lon="1.7557">
        <ele>204.898071</ele>
        <time>2009-05-16T10:56:06Z</time>
      </trkpt>
      <trkpt lat="49.8338" lon="1.75446">
        <ele>203.93689</ele>
        <time>2009-05-16T10:56:21Z</time>
      </trkpt>
      <trkpt lat="49.83356" lon="1.75325">
        <ele>202.494873</ele>
        <time>2009-05-16T10:56:36Z</time>
      </trkpt>
      <trkpt lat="49.83332" lon="1.75177">
        <ele>201.533569</ele>
        <time>2009-05-16T10:56:54Z</time>
      </trkpt>
      <trkpt lat="49.83327" lon="1.75144">
        <ele>201.533569</ele>
        <time>2009-05-16T10:56:58Z</time>
      </trkpt>
      <trkpt lat="49.83318" lon="1.74992">
        <ele>201.533569</ele>
        <time>2009-05-16T10:57:15Z</time>
      </trkpt>
      <trkpt lat="49.83305" lon="1.74841">
        <ele>202.014282</ele>
        <time>2009-05-16T10:57:31Z</time>
      </trkpt>
      <trkpt lat="49.83285" lon="1.74716">
        <ele>202.975464</ele>
        <time>2009-05-16T10:57:44Z</time>
      </trkpt>
      <trkpt lat="49.83284" lon="1.74677">
        <ele>202.975464</ele>
        <time>2009-05-16T10:57:48Z</time>
      </trkpt>
      <trkpt lat="49.83305" lon="1.74609">
        <ele>203.456177</ele>
        <time>2009-05-16T10:57:56Z</time>
      </trkpt>
      <trkpt lat="49.83378" lon="1.74531">
        <ele>202.975464</ele>
        <time>2009-05-16T10:58:09Z</time>
      </trkpt>
      <trkpt lat="49.834" lon="1.74445">
        <ele>202.494873</ele>
        <time>2009-05-16T10:58:17Z</time>
      </trkpt>
      <trkpt lat="49.83378" lon="1.74399">
        <ele>202.494873</ele>
        <time>2009-05-16T10:58:21Z</time>
      </trkpt>
      <trkpt lat="49.83284" lon="1.7427">
        <ele>202.014282</ele>
        <time>2009-05-16T10:58:33Z</time>
      </trkpt>
      <trkpt lat="49.83206" lon="1.74102">
        <ele>201.533569</ele>
        <time>2009-05-16T10:58:46Z</time>
      </trkpt>
      <trkpt lat="49.83171" lon="1.74067">
        <ele>201.052856</ele>
        <time>2009-05-16T10:58:50Z</time>
      </trkpt>
      <trkpt lat="49.8315" lon="1.74059">
        <ele>201.052856</ele>
        <time>2009-05-16T10:58:52Z</time>
      </trkpt>
      <trkpt lat="49.83119" lon="1.73981">
        <ele>200.572266</ele>
        <time>2009-05-16T10:58:58Z</time>
      </trkpt>
      <trkpt lat="49.83147" lon="1.73929">
        <ele>200.572266</ele>
        <time>2009-05-16T10:59:02Z</time>
      </trkpt>
      <trkpt lat="49.83204" lon="1.73862">
        <ele>200.091675</ele>
        <time>2009-05-16T10:59:08Z</time>
      </trkpt>
      <trkpt lat="49.83211" lon="1.73774">
        <ele>199.61084</ele>
        <time>2009-05-16T10:59:14Z</time>
      </trkpt>
      <trkpt lat="49.8319" lon="1.73736">
        <ele>199.61084</ele>
        <time>2009-05-16T10:59:17Z</time>
      </trkpt>
      <trkpt lat="49.83154" lon="1.73693">
        <ele>199.61084</ele>
        <time>2009-05-16T10:59:21Z</time>
      </trkpt>
      <trkpt lat="49.83135" lon="1.73596">
        <ele>199.130127</ele>
        <time>2009-05-16T10:59:27Z</time>
      </trkpt>
      <trkpt lat="49.83162" lon="1.73537">
        <ele>198.649536</ele>
        <time>2009-05-16T10:59:31Z</time>
      </trkpt>
      <trkpt lat="49.83183" lon="1.73516">
        <ele>198.649536</ele>
        <time>2009-05-16T10:59:33Z</time>
      </trkpt>
      <trkpt lat="49.83204" lon="1.7343">
        <ele>197.688232</ele>
        <time>2009-05-16T10:59:38Z</time>
      </trkpt>
      <trkpt lat="49.83186" lon="1.73233">
        <ele>194.804321</ele>
        <time>2009-05-16T10:59:49Z</time>
      </trkpt>
      <trkpt lat="49.83178" lon="1.73178">
        <ele>193.362305</ele>
        <time>2009-05-16T10:59:56Z</time>
      </trkpt>
      <trkpt lat="49.83175" lon="1.73156">
        <ele>192.881714</ele>
        <time>2009-05-16T11:00:00Z</time>
      </trkpt>
      <trkpt lat="49.83176" lon="1.73114">
        <ele>191.920288</ele>
        <time>2009-05-16T11:00:04Z</time>
      </trkpt>
      <trkpt lat="49.83216" lon="1.72954">
        <ele>189.516968</ele>
        <time>2009-05-16T11:00:15Z</time>
      </trkpt>
      <trkpt lat="49.83253" lon="1.7284">
        <ele>187.59436</ele>
        <time>2009-05-16T11:00:23Z</time>
      </trkpt>
      <trkpt lat="49.83259" lon="1.72785">
        <ele>187.11377</ele>
        <time>2009-05-16T11:00:27Z</time>
      </trkpt>
      <trkpt lat="49.83291" lon="1.72721">
        <ele>186.152466</ele>
        <time>2009-05-16T11:00:33Z</time>
      </trkpt>
      <trkpt lat="49.83316" lon="1.72698">
        <ele>185.191162</ele>
        <time>2009-05-16T11:00:36Z</time>
      </trkpt>
      <trkpt lat="49.83343" lon="1.72655">
        <ele>184.229858</ele>
        <time>2009-05-16T11:00:40Z</time>
      </trkpt>
      <trkpt lat="49.83361" lon="1.7261">
        <ele>183.749023</ele>
        <time>2009-05-16T11:00:44Z</time>
      </trkpt>
      <trkpt lat="49.83378" lon="1.72514">
        <ele>181.826416</ele>
        <time>2009-05-16T11:00:53Z</time>
      </trkpt>
      <trkpt lat="49.83364" lon="1.72401">
        <ele>179.423218</ele>
        <time>2009-05-16T11:01:04Z</time>
      </trkpt>
      <trkpt lat="49.83361" lon="1.72384">
        <ele>179.423218</ele>
        <time>2009-05-16T11:01:06Z</time>
      </trkpt>
      <trkpt lat="49.83362" lon="1.72358">
        <ele>177.981201</ele>
        <time>2009-05-16T11:01:09Z</time>
      </trkpt>
      <trkpt lat="49.83367" lon="1.72279">
        <ele>176.539307</ele>
        <time>2009-05-16T11:01:17Z</time>
      </trkpt>
      <trkpt lat="49.83356" lon="1.72167">
        <ele>173.174683</ele>
        <time>2009-05-16T11:01:29Z</time>
      </trkpt>
      <trkpt lat="49.83347" lon="1.72053">
        <ele>171.252075</ele>
        <time>2009-05-16T11:01:42Z</time>
      </trkpt>
      <trkpt lat="49.83347" lon="1.72037">
        <ele>171.252075</ele>
        <time>2009-05-16T11:01:44Z</time>
      </trkpt>
      <trkpt lat="49.83366" lon="1.71986">
        <ele>169.810059</ele>
        <time>2009-05-16T11:01:51Z</time>
      </trkpt>
      <trkpt lat="49.83379" lon="1.71962">
        <ele>168.848755</ele>
        <time>2009-05-16T11:01:55Z</time>
      </trkpt>
      <trkpt lat="49.83414" lon="1.7194">
        <ele>168.368042</ele>
        <time>2009-05-16T11:02:01Z</time>
      </trkpt>
      <trkpt lat="49.83495" lon="1.71927">
        <ele>165.003418</ele>
        <time>2009-05-16T11:02:13Z</time>
      </trkpt>
      <trkpt lat="49.83526" lon="1.71932">
        <ele>163.561523</ele>
        <time>2009-05-16T11:02:18Z</time>
      </trkpt>
      <trkpt lat="49.83542" lon="1.71931">
        <ele>163.080811</ele>
        <time>2009-05-16T11:02:21Z</time>
      </trkpt>
      <trkpt lat="49.83557" lon="1.71924">
        <ele>162.600098</ele>
        <time>2009-05-16T11:02:24Z</time>
      </trkpt>
      <trkpt lat="49.83609" lon="1.71857">
        <ele>160.67749</ele>
        <time>2009-05-16T11:02:37Z</time>
      </trkpt>
      <trkpt lat="49.83614" lon="1.71844">
        <ele>160.196899</ele>
        <time>2009-05-16T11:02:39Z</time>
      </trkpt>
      <trkpt lat="49.83618" lon="1.71813">
        <ele>159.716187</ele>
        <time>2009-05-16T11:02:44Z</time>
      </trkpt>
      <trkpt lat="49.83618" lon="1.71787">
        <ele>158.754761</ele>
        <time>2009-05-16T11:02:48Z</time>
      </trkpt>
      <trkpt lat="49.83605" lon="1.71688">
        <ele>155.870972</ele>
        <time>2009-05-16T11:03:04Z</time>
      </trkpt>
      <trkpt lat="49.83595" lon="1.71624">
        <ele>152.506348</ele>
        <time>2009-05-16T11:03:15Z</time>
      </trkpt>
      <trkpt lat="49.83586" lon="1.71557">
        <ele>149.622314</ele>
        <time>2009-05-16T11:03:26Z</time>
      </trkpt>
      <trkpt lat="49.83574" lon="1.71464">
        <ele>146.738403</ele>
        <time>2009-05-16T11:03:43Z</time>
      </trkpt>
      <trkpt lat="49.83577" lon="1.71412">
        <ele>145.7771</ele>
        <time>2009-05-16T11:03:53Z</time>
      </trkpt>
      <trkpt lat="49.83574" lon="1.71335">
        <ele>144.335205</ele>
        <time>2009-05-16T11:04:07Z</time>
      </trkpt>
      <trkpt lat="49.83592" lon="1.71234">
        <ele>144.335205</ele>
        <time>2009-05-16T11:04:26Z</time>
      </trkpt>
      <trkpt lat="49.83596" lon="1.71168">
        <ele>143.85437</ele>
        <time>2009-05-16T11:04:39Z</time>
      </trkpt>
      <trkpt lat="49.83571" lon="1.71111">
        <ele>143.373657</ele>
        <time>2009-05-16T11:04:52Z</time>
      </trkpt>
      <trkpt lat="49.83533" lon="1.71084">
        <ele>140.009155</ele>
        <time>2009-05-16T11:05:04Z</time>
      </trkpt>
      <trkpt lat="49.83514" lon="1.71062">
        <ele>137.125244</ele>
        <time>2009-05-16T11:05:11Z</time>
      </trkpt>
      <trkpt lat="49.83496" lon="1.71017">
        <ele>133.760498</ele>
        <time>2009-05-16T11:05:22Z</time>
      </trkpt>
      <trkpt lat="49.83479" lon="1.70938">
        <ele>131.3573</ele>
        <time>2009-05-16T11:05:39Z</time>
      </trkpt>
      <trkpt lat="49.83468" lon="1.70886">
        <ele>127.992554</ele>
        <time>2009-05-16T11:05:50Z</time>
      </trkpt>
      <trkpt lat="49.83459" lon="1.70836">
        <ele>124.628052</ele>
        <time>2009-05-16T11:06:00Z</time>
      </trkpt>
      <trkpt lat="49.83472" lon="1.70776">
        <ele>122.705444</ele>
        <time>2009-05-16T11:06:13Z</time>
      </trkpt>
      <trkpt lat="49.83511" lon="1.70768">
        <ele>121.26355</ele>
        <time>2009-05-16T11:06:25Z</time>
      </trkpt>
      <trkpt lat="49.83562" lon="1.70771">
        <ele>118.379395</ele>
        <time>2009-05-16T11:06:39Z</time>
      </trkpt>
      <trkpt lat="49.83611" lon="1.70728">
        <ele>115.976196</ele>
        <time>2009-05-16T11:06:54Z</time>
      </trkpt>
      <trkpt lat="49.83619" lon="1.70715">
        <ele>115.495605</ele>
        <time>2009-05-16T11:06:57Z</time>
      </trkpt>
      <trkpt lat="49.83631" lon="1.70681">
        <ele>115.495605</ele>
        <time>2009-05-16T11:07:03Z</time>
      </trkpt>
      <trkpt lat="49.83629" lon="1.70613">
        <ele>113.572998</ele>
        <time>2009-05-16T11:07:16Z</time>
      </trkpt>
      <trkpt lat="49.83618" lon="1.70574">
        <ele>110.688843</ele>
        <time>2009-05-16T11:07:24Z</time>
      </trkpt>
      <trkpt lat="49.83613" lon="1.70553">
        <ele>108.766235</ele>
        <time>2009-05-16T11:07:28Z</time>
      </trkpt>
      <trkpt lat="49.83608" lon="1.70534">
        <ele>106.843628</ele>
        <time>2009-05-16T11:07:32Z</time>
      </trkpt>
      <trkpt lat="49.83586" lon="1.70445">
        <ele>103.959717</ele>
        <time>2009-05-16T11:07:49Z</time>
      </trkpt>
      <trkpt lat="49.83565" lon="1.70365">
        <ele>101.075684</ele>
        <time>2009-05-16T11:08:05Z</time>
      </trkpt>
      <trkpt lat="49.83547" lon="1.70296">
        <ele>101.075684</ele>
        <time>2009-05-16T11:08:19Z</time>
      </trkpt>
      <trkpt lat="49.8353" lon="1.70219">
        <ele>98.672485</ele>
        <time>2009-05-16T11:08:35Z</time>
      </trkpt>
      <trkpt lat="49.83521" lon="1.70185">
        <ele>97.230469</ele>
        <time>2009-05-16T11:08:43Z</time>
      </trkpt>
      <trkpt lat="49.8352" lon="1.70176">
        <ele>99.153076</ele>
        <time>2009-05-16T11:08:45Z</time>
      </trkpt>
      <trkpt lat="49.83518" lon="1.70171">
        <ele>122.705444</ele>
        <time>2009-05-16T11:08:46Z</time>
      </trkpt>
      <trkpt lat="49.83517" lon="1.70166">
        <ele>126.550659</ele>
        <time>2009-05-16T11:08:47Z</time>
      </trkpt>
      <trkpt lat="49.83515" lon="1.70156">
        <ele>129.434692</ele>
        <time>2009-05-16T11:08:49Z</time>
      </trkpt>
      <trkpt lat="49.83503" lon="1.70102">
        <ele>129.434692</ele>
        <time>2009-05-16T11:09:01Z</time>
      </trkpt>
      <trkpt lat="49.83491" lon="1.7004">
        <ele>130.395996</ele>
        <time>2009-05-16T11:09:15Z</time>
      </trkpt>
      <trkpt lat="49.83476" lon="1.6997">
        <ele>129.915283</ele>
        <time>2009-05-16T11:09:30Z</time>
      </trkpt>
      <trkpt lat="49.83466" lon="1.69899">
        <ele>130.395996</ele>
        <time>2009-05-16T11:09:45Z</time>
      </trkpt>
      <trkpt lat="49.83457" lon="1.6982">
        <ele>133.279907</ele>
        <time>2009-05-16T11:10:01Z</time>
      </trkpt>
      <trkpt lat="49.83444" lon="1.69768">
        <ele>135.202515</ele>
        <time>2009-05-16T11:10:13Z</time>
      </trkpt>
      <trkpt lat="49.83433" lon="1.69683">
        <ele>137.605835</ele>
        <time>2009-05-16T11:10:29Z</time>
      </trkpt>
      <trkpt lat="49.83431" lon="1.69663">
        <ele>149.622314</ele>
        <time>2009-05-16T11:10:33Z</time>
      </trkpt>
      <trkpt lat="49.8343" lon="1.69658">
        <ele>162.600098</ele>
        <time>2009-05-16T11:10:34Z</time>
      </trkpt>
      <trkpt lat="49.83429" lon="1.6965">
        <ele>164.522705</ele>
        <time>2009-05-16T11:10:36Z</time>
      </trkpt>
      <trkpt lat="49.83427" lon="1.696">
        <ele>165.484131</ele>
        <time>2009-05-16T11:10:47Z</time>
      </trkpt>
      <trkpt lat="49.83418" lon="1.69536">
        <ele>165.003418</ele>
        <time>2009-05-16T11:10:59Z</time>
      </trkpt>
      <trkpt lat="49.83408" lon="1.69483">
        <ele>165.964722</ele>
        <time>2009-05-16T11:11:09Z</time>
      </trkpt>
      <trkpt lat="49.83407" lon="1.69417">
        <ele>166.926025</ele>
        <time>2009-05-16T11:11:22Z</time>
      </trkpt>
      <trkpt lat="49.83408" lon="1.69349">
        <ele>167.406738</ele>
        <time>2009-05-16T11:11:35Z</time>
      </trkpt>
      <trkpt lat="49.83413" lon="1.69259">
        <ele>168.848755</ele>
        <time>2009-05-16T11:11:51Z</time>
      </trkpt>
      <trkpt lat="49.83421" lon="1.69179">
        <ele>170.290649</ele>
        <time>2009-05-16T11:12:06Z</time>
      </trkpt>
      <trkpt lat="49.83436" lon="1.69102">
        <ele>170.771362</ele>
        <time>2009-05-16T11:12:20Z</time>
      </trkpt>
      <trkpt lat="49.83437" lon="1.69085">
        <ele>170.771362</ele>
        <time>2009-05-16T11:12:23Z</time>
      </trkpt>
      <trkpt lat="49.83437" lon="1.69071">
        <ele>170.771362</ele>
        <time>2009-05-16T11:12:25Z</time>
      </trkpt>
      <trkpt lat="49.8343" lon="1.6897">
        <ele>170.771362</ele>
        <time>2009-05-16T11:12:41Z</time>
      </trkpt>
      <trkpt lat="49.83424" lon="1.68895">
        <ele>171.252075</ele>
        <time>2009-05-16T11:12:53Z</time>
      </trkpt>
      <trkpt lat="49.83416" lon="1.68824">
        <ele>170.771362</ele>
        <time>2009-05-16T11:13:03Z</time>
      </trkpt>
      <trkpt lat="49.83398" lon="1.68709">
        <ele>170.771362</ele>
        <time>2009-05-16T11:13:18Z</time>
      </trkpt>
      <trkpt lat="49.83389" lon="1.68639">
        <ele>170.771362</ele>
        <time>2009-05-16T11:13:27Z</time>
      </trkpt>
      <trkpt lat="49.83378" lon="1.68511">
        <ele>171.252075</ele>
        <time>2009-05-16T11:13:43Z</time>
      </trkpt>
      <trkpt lat="49.83377" lon="1.68504">
        <ele>171.252075</ele>
        <time>2009-05-16T11:13:44Z</time>
      </trkpt>
      <trkpt lat="49.83372" lon="1.68469">
        <ele>171.732666</ele>
        <time>2009-05-16T11:13:49Z</time>
      </trkpt>
      <trkpt lat="49.83367" lon="1.68447">
        <ele>172.213257</ele>
        <time>2009-05-16T11:13:52Z</time>
      </trkpt>
      <trkpt lat="49.83348" lon="1.68343">
        <ele>173.174683</ele>
        <time>2009-05-16T11:14:06Z</time>
      </trkpt>
      <trkpt lat="49.83324" lon="1.68223">
        <ele>175.09729</ele>
        <time>2009-05-16T11:14:20Z</time>
      </trkpt>
      <trkpt lat="49.83306" lon="1.6808">
        <ele>178.461914</ele>
        <time>2009-05-16T11:14:35Z</time>
      </trkpt>
      <trkpt lat="49.83295" lon="1.67947">
        <ele>181.826416</ele>
        <time>2009-05-16T11:14:49Z</time>
      </trkpt>
      <trkpt lat="49.83282" lon="1.67789">
        <ele>183.268433</ele>
        <time>2009-05-16T11:15:05Z</time>
      </trkpt>
      <trkpt lat="49.83271" lon="1.6765">
        <ele>184.710571</ele>
        <time>2009-05-16T11:15:19Z</time>
      </trkpt>
      <trkpt lat="49.83259" lon="1.67518">
        <ele>185.671753</ele>
        <time>2009-05-16T11:15:33Z</time>
      </trkpt>
      <trkpt lat="49.83251" lon="1.67395">
        <ele>186.633179</ele>
        <time>2009-05-16T11:15:46Z</time>
      </trkpt>
      <trkpt lat="49.83242" lon="1.67267">
        <ele>188.555786</ele>
        <time>2009-05-16T11:16:00Z</time>
      </trkpt>
      <trkpt lat="49.83239" lon="1.67232">
        <ele>189.516968</ele>
        <time>2009-05-16T11:16:04Z</time>
      </trkpt>
      <trkpt lat="49.83237" lon="1.67198">
        <ele>190.478394</ele>
        <time>2009-05-16T11:16:08Z</time>
      </trkpt>
      <trkpt lat="49.83233" lon="1.67155">
        <ele>190.958984</ele>
        <time>2009-05-16T11:16:13Z</time>
      </trkpt>
      <trkpt lat="49.83226" lon="1.67076">
        <ele>193.362305</ele>
        <time>2009-05-16T11:16:22Z</time>
      </trkpt>
      <trkpt lat="49.83216" lon="1.66966">
        <ele>195.284912</ele>
        <time>2009-05-16T11:16:34Z</time>
      </trkpt>
      <trkpt lat="49.83204" lon="1.66847">
        <ele>198.168945</ele>
        <time>2009-05-16T11:16:47Z</time>
      </trkpt>
      <trkpt lat="49.83202" lon="1.66823">
        <ele>198.649536</ele>
        <time>2009-05-16T11:16:50Z</time>
      </trkpt>
      <trkpt lat="49.83193" lon="1.66717">
        <ele>200.572266</ele>
        <time>2009-05-16T11:17:02Z</time>
      </trkpt>
      <trkpt lat="49.83176" lon="1.66583">
        <ele>202.975464</ele>
        <time>2009-05-16T11:17:17Z</time>
      </trkpt>
      <trkpt lat="49.83168" lon="1.66459">
        <ele>203.456177</ele>
        <time>2009-05-16T11:17:31Z</time>
      </trkpt>
      <trkpt lat="49.83158" lon="1.66343">
        <ele>202.975464</ele>
        <time>2009-05-16T11:17:44Z</time>
      </trkpt>
      <trkpt lat="49.8315" lon="1.66217">
        <ele>201.533569</ele>
        <time>2009-05-16T11:17:58Z</time>
      </trkpt>
      <trkpt lat="49.83148" lon="1.66163">
        <ele>201.052856</ele>
        <time>2009-05-16T11:18:04Z</time>
      </trkpt>
      <trkpt lat="49.83161" lon="1.66015">
        <ele>199.61084</ele>
        <time>2009-05-16T11:18:20Z</time>
      </trkpt>
      <trkpt lat="49.83172" lon="1.6588">
        <ele>198.168945</ele>
        <time>2009-05-16T11:18:35Z</time>
      </trkpt>
      <trkpt lat="49.83174" lon="1.65845">
        <ele>198.168945</ele>
        <time>2009-05-16T11:18:39Z</time>
      </trkpt>
      <trkpt lat="49.83169" lon="1.65711">
        <ele>197.688232</ele>
        <time>2009-05-16T11:18:54Z</time>
      </trkpt>
      <trkpt lat="49.8316" lon="1.65594">
        <ele>196.726929</ele>
        <time>2009-05-16T11:19:07Z</time>
      </trkpt>
      <trkpt lat="49.83165" lon="1.65461">
        <ele>195.765625</ele>
        <time>2009-05-16T11:19:22Z</time>
      </trkpt>
      <trkpt lat="49.83184" lon="1.65322">
        <ele>194.804321</ele>
        <time>2009-05-16T11:19:38Z</time>
      </trkpt>
      <trkpt lat="49.83188" lon="1.65286">
        <ele>194.804321</ele>
        <time>2009-05-16T11:19:42Z</time>
      </trkpt>
      <trkpt lat="49.83199" lon="1.6514">
        <ele>196.246338</ele>
        <time>2009-05-16T11:19:58Z</time>
      </trkpt>
      <trkpt lat="49.832" lon="1.65122">
        <ele>196.726929</ele>
        <time>2009-05-16T11:20:00Z</time>
      </trkpt>
      <trkpt lat="49.83203" lon="1.65055">
        <ele>198.168945</ele>
        <time>2009-05-16T11:20:07Z</time>
      </trkpt>
      <trkpt lat="49.83217" lon="1.64971">
        <ele>199.130127</ele>
        <time>2009-05-16T11:20:16Z</time>
      </trkpt>
      <trkpt lat="49.8324" lon="1.64834">
        <ele>201.052856</ele>
        <time>2009-05-16T11:20:29Z</time>
      </trkpt>
      <trkpt lat="49.83268" lon="1.64702">
        <ele>201.533569</ele>
        <time>2009-05-16T11:20:42Z</time>
      </trkpt>
      <trkpt lat="49.83271" lon="1.64675">
        <ele>201.533569</ele>
        <time>2009-05-16T11:20:45Z</time>
      </trkpt>
      <trkpt lat="49.83272" lon="1.64628">
        <ele>201.533569</ele>
        <time>2009-05-16T11:20:50Z</time>
      </trkpt>
      <trkpt lat="49.8327" lon="1.64527">
        <ele>198.168945</ele>
        <time>2009-05-16T11:21:03Z</time>
      </trkpt>
      <trkpt lat="49.83267" lon="1.64432">
        <ele>195.284912</ele>
        <time>2009-05-16T11:21:15Z</time>
      </trkpt>
      <trkpt lat="49.8326" lon="1.64326">
        <ele>192.401123</ele>
        <time>2009-05-16T11:21:28Z</time>
      </trkpt>
      <trkpt lat="49.83236" lon="1.64196">
        <ele>190.478394</ele>
        <time>2009-05-16T11:21:44Z</time>
      </trkpt>
      <trkpt lat="49.8322" lon="1.64108">
        <ele>190.478394</ele>
        <time>2009-05-16T11:21:54Z</time>
      </trkpt>
      <trkpt lat="49.83224" lon="1.64036">
        <ele>190.958984</ele>
        <time>2009-05-16T11:22:01Z</time>
      </trkpt>
      <trkpt lat="49.83264" lon="1.6391">
        <ele>191.920288</ele>
        <time>2009-05-16T11:22:15Z</time>
      </trkpt>
      <trkpt lat="49.83285" lon="1.63807">
        <ele>193.362305</ele>
        <time>2009-05-16T11:22:28Z</time>
      </trkpt>
      <trkpt lat="49.83286" lon="1.63791">
        <ele>193.362305</ele>
        <time>2009-05-16T11:22:30Z</time>
      </trkpt>
      <trkpt lat="49.8329" lon="1.63659">
        <ele>194.804321</ele>
        <time>2009-05-16T11:22:45Z</time>
      </trkpt>
      <trkpt lat="49.8329" lon="1.63559">
        <ele>195.765625</ele>
        <time>2009-05-16T11:22:56Z</time>
      </trkpt>
      <trkpt lat="49.83287" lon="1.63476">
        <ele>196.726929</ele>
        <time>2009-05-16T11:23:06Z</time>
      </trkpt>
      <trkpt lat="49.83272" lon="1.6338">
        <ele>197.688232</ele>
        <time>2009-05-16T11:23:18Z</time>
      </trkpt>
      <trkpt lat="49.83253" lon="1.63276">
        <ele>196.726929</ele>
        <time>2009-05-16T11:23:34Z</time>
      </trkpt>
      <trkpt lat="49.8325" lon="1.63255">
        <ele>196.246338</ele>
        <time>2009-05-16T11:23:37Z</time>
      </trkpt>
      <trkpt lat="49.83231" lon="1.63144">
        <ele>194.32373</ele>
        <time>2009-05-16T11:23:51Z</time>
      </trkpt>
      <trkpt lat="49.83227" lon="1.63122">
        <ele>194.32373</ele>
        <time>2009-05-16T11:23:54Z</time>
      </trkpt>
      <trkpt lat="49.83216" lon="1.63055">
        <ele>193.843018</ele>
        <time>2009-05-16T11:24:06Z</time>
      </trkpt>
      <trkpt lat="49.83216" lon="1.63054">
        <ele>190.478394</ele>
        <time>2009-05-16T11:24:33Z</time>
      </trkpt>
      <trkpt lat="49.83215" lon="1.6305">
        <ele>187.59436</ele>
        <time>2009-05-16T11:24:43Z</time>
      </trkpt>
      <trkpt lat="49.83211" lon="1.63029">
        <ele>186.152466</ele>
        <time>2009-05-16T11:24:47Z</time>
      </trkpt>
      <trkpt lat="49.83196" lon="1.62926">
        <ele>183.268433</ele>
        <time>2009-05-16T11:24:58Z</time>
      </trkpt>
      <trkpt lat="49.83187" lon="1.62854">
        <ele>182.787842</ele>
        <time>2009-05-16T11:25:06Z</time>
      </trkpt>
      <trkpt lat="49.83176" lon="1.62735">
        <ele>182.787842</ele>
        <time>2009-05-16T11:25:20Z</time>
      </trkpt>
      <trkpt lat="49.83173" lon="1.62672">
        <ele>182.307129</ele>
        <time>2009-05-16T11:25:27Z</time>
      </trkpt>
      <trkpt lat="49.83169" lon="1.62546">
        <ele>183.749023</ele>
        <time>2009-05-16T11:25:42Z</time>
      </trkpt>
      <trkpt lat="49.83167" lon="1.62447">
        <ele>184.229858</ele>
        <time>2009-05-16T11:25:54Z</time>
      </trkpt>
      <trkpt lat="49.83164" lon="1.62319">
        <ele>185.671753</ele>
        <time>2009-05-16T11:26:09Z</time>
      </trkpt>
      <trkpt lat="49.83162" lon="1.62246">
        <ele>187.59436</ele>
        <time>2009-05-16T11:26:18Z</time>
      </trkpt>
      <trkpt lat="49.83179" lon="1.62113">
        <ele>188.075073</ele>
        <time>2009-05-16T11:26:34Z</time>
      </trkpt>
      <trkpt lat="49.83198" lon="1.61985">
        <ele>189.516968</ele>
        <time>2009-05-16T11:26:49Z</time>
      </trkpt>
      <trkpt lat="49.83211" lon="1.61852">
        <ele>189.997681</ele>
        <time>2009-05-16T11:27:04Z</time>
      </trkpt>
      <trkpt lat="49.8322" lon="1.61722">
        <ele>190.478394</ele>
        <time>2009-05-16T11:27:18Z</time>
      </trkpt>
      <trkpt lat="49.83243" lon="1.61607">
        <ele>190.958984</ele>
        <time>2009-05-16T11:27:33Z</time>
      </trkpt>
      <trkpt lat="49.83257" lon="1.61549">
        <ele>190.958984</ele>
        <time>2009-05-16T11:27:40Z</time>
      </trkpt>
      <trkpt lat="49.83276" lon="1.61423">
        <ele>189.516968</ele>
        <time>2009-05-16T11:27:54Z</time>
      </trkpt>
      <trkpt lat="49.83286" lon="1.61262">
        <ele>189.036377</ele>
        <time>2009-05-16T11:28:11Z</time>
      </trkpt>
      <trkpt lat="49.83288" lon="1.61207">
        <ele>189.036377</ele>
        <time>2009-05-16T11:28:17Z</time>
      </trkpt>
      <trkpt lat="49.83292" lon="1.6115">
        <ele>189.036377</ele>
        <time>2009-05-16T11:28:23Z</time>
      </trkpt>
      <trkpt lat="49.83323" lon="1.61081">
        <ele>188.555786</ele>
        <time>2009-05-16T11:28:32Z</time>
      </trkpt>
      <trkpt lat="49.83351" lon="1.61075">
        <ele>188.075073</ele>
        <time>2009-05-16T11:28:36Z</time>
      </trkpt>
      <trkpt lat="49.83365" lon="1.61068">
        <ele>188.075073</ele>
        <time>2009-05-16T11:28:38Z</time>
      </trkpt>
      <trkpt lat="49.83396" lon="1.61028">
        <ele>188.075073</ele>
        <time>2009-05-16T11:28:44Z</time>
      </trkpt>
      <trkpt lat="49.83431" lon="1.60951">
        <ele>187.59436</ele>
        <time>2009-05-16T11:28:54Z</time>
      </trkpt>
      <trkpt lat="49.83436" lon="1.609">
        <ele>187.59436</ele>
        <time>2009-05-16T11:29:00Z</time>
      </trkpt>
      <trkpt lat="49.83417" lon="1.60742">
        <ele>186.633179</ele>
        <time>2009-05-16T11:29:16Z</time>
      </trkpt>
      <trkpt lat="49.83402" lon="1.60594">
        <ele>187.59436</ele>
        <time>2009-05-16T11:29:30Z</time>
      </trkpt>
      <trkpt lat="49.83409" lon="1.60454">
        <ele>188.555786</ele>
        <time>2009-05-16T11:29:44Z</time>
      </trkpt>
      <trkpt lat="49.83437" lon="1.60316">
        <ele>189.997681</ele>
        <time>2009-05-16T11:29:58Z</time>
      </trkpt>
      <trkpt lat="49.83477" lon="1.60175">
        <ele>190.958984</ele>
        <time>2009-05-16T11:30:13Z</time>
      </trkpt>
      <trkpt lat="49.8353" lon="1.60023">
        <ele>191.439575</ele>
        <time>2009-05-16T11:30:29Z</time>
      </trkpt>
      <trkpt lat="49.83583" lon="1.59884">
        <ele>190.958984</ele>
        <time>2009-05-16T11:30:44Z</time>
      </trkpt>
      <trkpt lat="49.83643" lon="1.59732">
        <ele>191.439575</ele>
        <time>2009-05-16T11:31:01Z</time>
      </trkpt>
      <trkpt lat="49.83689" lon="1.59614">
        <ele>191.439575</ele>
        <time>2009-05-16T11:31:14Z</time>
      </trkpt>
      <trkpt lat="49.83748" lon="1.59449">
        <ele>192.401123</ele>
        <time>2009-05-16T11:31:31Z</time>
      </trkpt>
      <trkpt lat="49.83785" lon="1.59285">
        <ele>193.843018</ele>
        <time>2009-05-16T11:31:47Z</time>
      </trkpt>
      <trkpt lat="49.83822" lon="1.59123">
        <ele>195.765625</ele>
        <time>2009-05-16T11:32:03Z</time>
      </trkpt>
      <trkpt lat="49.83835" lon="1.59061">
        <ele>196.246338</ele>
        <time>2009-05-16T11:32:09Z</time>
      </trkpt>
      <trkpt lat="49.83874" lon="1.58891">
        <ele>198.168945</ele>
        <time>2009-05-16T11:32:25Z</time>
      </trkpt>
      <trkpt lat="49.83911" lon="1.58732">
        <ele>199.130127</ele>
        <time>2009-05-16T11:32:40Z</time>
      </trkpt>
      <trkpt lat="49.83963" lon="1.58568">
        <ele>200.091675</ele>
        <time>2009-05-16T11:32:56Z</time>
      </trkpt>
      <trkpt lat="49.84028" lon="1.58408">
        <ele>200.091675</ele>
        <time>2009-05-16T11:33:12Z</time>
      </trkpt>
      <trkpt lat="49.84098" lon="1.58251">
        <ele>199.61084</ele>
        <time>2009-05-16T11:33:26Z</time>
      </trkpt>
      <trkpt lat="49.84191" lon="1.58114">
        <ele>199.61084</ele>
        <time>2009-05-16T11:33:38Z</time>
      </trkpt>
      <trkpt lat="49.84269" lon="1.57951">
        <ele>199.61084</ele>
        <time>2009-05-16T11:33:49Z</time>
      </trkpt>
      <trkpt lat="49.84343" lon="1.57735">
        <ele>198.649536</ele>
        <time>2009-05-16T11:34:02Z</time>
      </trkpt>
      <trkpt lat="49.84456" lon="1.57545">
        <ele>198.649536</ele>
        <time>2009-05-16T11:34:15Z</time>
      </trkpt>
      <trkpt lat="49.84581" lon="1.57361">
        <ele>197.688232</ele>
        <time>2009-05-16T11:34:27Z</time>
      </trkpt>
      <trkpt lat="49.84659" lon="1.57211">
        <ele>197.20752</ele>
        <time>2009-05-16T11:34:37Z</time>
      </trkpt>
      <trkpt lat="49.84712" lon="1.57091">
        <ele>196.726929</ele>
        <time>2009-05-16T11:34:45Z</time>
      </trkpt>
      <trkpt lat="49.84788" lon="1.56981">
        <ele>196.726929</ele>
        <time>2009-05-16T11:34:56Z</time>
      </trkpt>
      <trkpt lat="49.84794" lon="1.56978">
        <ele>196.726929</ele>
        <time>2009-05-16T11:34:58Z</time>
      </trkpt>
      <trkpt lat="49.84804" lon="1.56969">
        <ele>196.246338</ele>
        <time>2009-05-16T11:35:08Z</time>
      </trkpt>
      <trkpt lat="49.84804" lon="1.56969">
        <ele>194.804321</ele>
        <time>2009-05-16T11:35:34Z</time>
      </trkpt>
      <trkpt lat="49.84802" lon="1.56968">
        <ele>191.439575</ele>
        <time>2009-05-16T11:36:05Z</time>
      </trkpt>
      <trkpt lat="49.84801" lon="1.56967">
        <ele>188.555786</ele>
        <time>2009-05-16T11:36:48Z</time>
      </trkpt>
      <trkpt lat="49.848" lon="1.56966">
        <ele>185.671753</ele>
        <time>2009-05-16T11:37:30Z</time>
      </trkpt>
      <trkpt lat="49.848" lon="1.56965">
        <ele>182.307129</ele>
        <time>2009-05-16T11:38:02Z</time>
      </trkpt>
      <trkpt lat="49.848" lon="1.56965">
        <ele>179.423218</ele>
        <time>2009-05-16T11:38:39Z</time>
      </trkpt>
      <trkpt lat="49.848" lon="1.56965">
        <ele>176.058594</ele>
        <time>2009-05-16T11:39:01Z</time>
      </trkpt>
      <trkpt lat="49.84799" lon="1.56965">
        <ele>173.174683</ele>
        <time>2009-05-16T11:39:17Z</time>
      </trkpt>
      <trkpt lat="49.84799" lon="1.56964">
        <ele>169.810059</ele>
        <time>2009-05-16T11:39:36Z</time>
      </trkpt>
      <trkpt lat="49.84799" lon="1.56964">
        <ele>166.926025</ele>
        <time>2009-05-16T11:39:53Z</time>
      </trkpt>
      <trkpt lat="49.84799" lon="1.56964">
        <ele>165.003418</ele>
        <time>2009-05-16T11:40:03Z</time>
      </trkpt>
      <trkpt lat="49.84787" lon="1.56953">
        <ele>163.080811</ele>
        <time>2009-05-16T11:40:49Z</time>
      </trkpt>
      <trkpt lat="49.84788" lon="1.56958">
        <ele>160.196899</ele>
        <time>2009-05-16T11:42:43Z</time>
      </trkpt>
      <trkpt lat="49.84789" lon="1.56959">
        <ele>157.312866</ele>
        <time>2009-05-16T11:44:02Z</time>
      </trkpt>
      <trkpt lat="49.84783" lon="1.56959">
        <ele>154.428955</ele>
        <time>2009-05-16T11:45:43Z</time>
      </trkpt>
      <trkpt lat="49.84786" lon="1.56967">
        <ele>151.064209</ele>
        <time>2009-05-16T11:46:29Z</time>
      </trkpt>
      <trkpt lat="49.84785" lon="1.56965">
        <ele>148.18042</ele>
        <time>2009-05-16T11:47:16Z</time>
      </trkpt>
      <trkpt lat="49.84786" lon="1.56966">
        <ele>144.815796</ele>
        <time>2009-05-16T11:48:04Z</time>
      </trkpt>
      <trkpt lat="49.84792" lon="1.56971">
        <ele>141.931763</ele>
        <time>2009-05-16T11:48:45Z</time>
      </trkpt>
      <trkpt lat="49.84795" lon="1.56971">
        <ele>139.047852</ele>
        <time>2009-05-16T11:49:17Z</time>
      </trkpt>
      <trkpt lat="49.84807" lon="1.56981">
        <ele>137.125244</ele>
        <time>2009-05-16T11:49:48Z</time>
      </trkpt>
      <trkpt lat="49.84811" lon="1.56985">
        <ele>134.241211</ele>
        <time>2009-05-16T11:50:25Z</time>
      </trkpt>
      <trkpt lat="49.84803" lon="1.56973">
        <ele>132.318604</ele>
        <time>2009-05-16T11:50:59Z</time>
      </trkpt>
      <trkpt lat="49.84801" lon="1.5697">
        <ele>135.683105</ele>
        <time>2009-05-16T11:56:00Z</time>
      </trkpt>
      <trkpt lat="49.84801" lon="1.5697">
        <ele>138.567261</ele>
        <time>2009-05-16T11:57:04Z</time>
      </trkpt>
      <trkpt lat="49.84801" lon="1.5697">
        <ele>141.45105</ele>
        <time>2009-05-16T11:58:36Z</time>
      </trkpt>
      <trkpt lat="49.84801" lon="1.56969">
        <ele>144.815796</ele>
        <time>2009-05-16T11:59:51Z</time>
      </trkpt>
      <trkpt lat="49.84806" lon="1.56975">
        <ele>144.335205</ele>
        <time>2009-05-16T12:00:52Z</time>
      </trkpt>
      <trkpt lat="49.84802" lon="1.56967">
        <ele>145.7771</ele>
        <time>2009-05-16T12:01:19Z</time>
      </trkpt>
      <trkpt lat="49.84801" lon="1.56962">
        <ele>146.257813</ele>
        <time>2009-05-16T12:01:30Z</time>
      </trkpt>
      <trkpt lat="49.84818" lon="1.5692">
        <ele>146.257813</ele>
        <time>2009-05-16T12:01:42Z</time>
      </trkpt>
      <trkpt lat="49.84843" lon="1.56862">
        <ele>145.7771</ele>
        <time>2009-05-16T12:01:51Z</time>
      </trkpt>
      <trkpt lat="49.84863" lon="1.56817">
        <ele>146.257813</ele>
        <time>2009-05-16T12:01:57Z</time>
      </trkpt>
      <trkpt lat="49.84874" lon="1.56779">
        <ele>146.257813</ele>
        <time>2009-05-16T12:02:01Z</time>
      </trkpt>
      <trkpt lat="49.84878" lon="1.56745">
        <ele>146.738403</ele>
        <time>2009-05-16T12:02:08Z</time>
      </trkpt>
      <trkpt lat="49.84867" lon="1.5674">
        <ele>146.738403</ele>
        <time>2009-05-16T12:02:11Z</time>
      </trkpt>
      <trkpt lat="49.84789" lon="1.56736">
        <ele>147.699707</ele>
        <time>2009-05-16T12:02:23Z</time>
      </trkpt>
      <trkpt lat="49.84759" lon="1.56748">
        <ele>148.18042</ele>
        <time>2009-05-16T12:02:27Z</time>
      </trkpt>
      <trkpt lat="49.84735" lon="1.56708">
        <ele>148.661011</ele>
        <time>2009-05-16T12:02:32Z</time>
      </trkpt>
      <trkpt lat="49.84711" lon="1.56616">
        <ele>149.141602</ele>
        <time>2009-05-16T12:02:38Z</time>
      </trkpt>
      <trkpt lat="49.84673" lon="1.56539">
        <ele>150.103027</ele>
        <time>2009-05-16T12:02:44Z</time>
      </trkpt>
      <trkpt lat="49.84632" lon="1.56473">
        <ele>150.103027</ele>
        <time>2009-05-16T12:02:51Z</time>
      </trkpt>
      <trkpt lat="49.84624" lon="1.56399">
        <ele>150.583618</ele>
        <time>2009-05-16T12:02:58Z</time>
      </trkpt>
      <trkpt lat="49.84633" lon="1.56379">
        <ele>150.103027</ele>
        <time>2009-05-16T12:03:00Z</time>
      </trkpt>
      <trkpt lat="49.84691" lon="1.56251">
        <ele>151.544922</ele>
        <time>2009-05-16T12:03:14Z</time>
      </trkpt>
      <trkpt lat="49.84764" lon="1.56175">
        <ele>152.025757</ele>
        <time>2009-05-16T12:03:26Z</time>
      </trkpt>
      <trkpt lat="49.8477" lon="1.56171">
        <ele>152.506348</ele>
        <time>2009-05-16T12:03:27Z</time>
      </trkpt>
      <trkpt lat="49.84848" lon="1.5615">
        <ele>152.986938</ele>
        <time>2009-05-16T12:03:40Z</time>
      </trkpt>
      <trkpt lat="49.84877" lon="1.56137">
        <ele>152.986938</ele>
        <time>2009-05-16T12:03:46Z</time>
      </trkpt>
      <trkpt lat="49.84908" lon="1.56114">
        <ele>152.506348</ele>
        <time>2009-05-16T12:03:52Z</time>
      </trkpt>
      <trkpt lat="49.8498" lon="1.56031">
        <ele>152.506348</ele>
        <time>2009-05-16T12:04:08Z</time>
      </trkpt>
      <trkpt lat="49.85064" lon="1.5593">
        <ele>152.986938</ele>
        <time>2009-05-16T12:04:27Z</time>
      </trkpt>
      <trkpt lat="49.8511" lon="1.55876">
        <ele>153.467651</ele>
        <time>2009-05-16T12:04:38Z</time>
      </trkpt>
      <trkpt lat="49.85142" lon="1.55837">
        <ele>148.18042</ele>
        <time>2009-05-16T12:04:47Z</time>
      </trkpt>
      <trkpt lat="49.85145" lon="1.55834">
        <ele>144.335205</ele>
        <time>2009-05-16T12:04:48Z</time>
      </trkpt>
      <trkpt lat="49.85149" lon="1.5583">
        <ele>140.009155</ele>
        <time>2009-05-16T12:04:49Z</time>
      </trkpt>
      <trkpt lat="49.85154" lon="1.55824">
        <ele>144.815796</ele>
        <time>2009-05-16T12:04:51Z</time>
      </trkpt>
      <trkpt lat="49.85157" lon="1.5582">
        <ele>142.893066</ele>
        <time>2009-05-16T12:04:52Z</time>
      </trkpt>
      <trkpt lat="49.85163" lon="1.55816">
        <ele>148.18042</ele>
        <time>2009-05-16T12:04:54Z</time>
      </trkpt>
      <trkpt lat="49.85165" lon="1.55813">
        <ele>143.85437</ele>
        <time>2009-05-16T12:04:55Z</time>
      </trkpt>
      <trkpt lat="49.85215" lon="1.55757">
        <ele>145.7771</ele>
        <time>2009-05-16T12:05:11Z</time>
      </trkpt>
      <trkpt lat="49.85244" lon="1.55728">
        <ele>145.7771</ele>
        <time>2009-05-16T12:05:20Z</time>
      </trkpt>
      <trkpt lat="49.85269" lon="1.55697">
        <ele>144.815796</ele>
        <time>2009-05-16T12:05:26Z</time>
      </trkpt>
      <trkpt lat="49.85349" lon="1.55634">
        <ele>144.335205</ele>
        <time>2009-05-16T12:05:39Z</time>
      </trkpt>
      <trkpt lat="49.85398" lon="1.55602">
        <ele>147.218994</ele>
        <time>2009-05-16T12:05:49Z</time>
      </trkpt>
      <trkpt lat="49.85449" lon="1.55567">
        <ele>150.583618</ele>
        <time>2009-05-16T12:06:01Z</time>
      </trkpt>
      <trkpt lat="49.85457" lon="1.55561">
        <ele>151.064209</ele>
        <time>2009-05-16T12:06:03Z</time>
      </trkpt>
      <trkpt lat="49.85539" lon="1.55504">
        <ele>151.544922</ele>
        <time>2009-05-16T12:06:23Z</time>
      </trkpt>
      <trkpt lat="49.85601" lon="1.55453">
        <ele>151.064209</ele>
        <time>2009-05-16T12:06:39Z</time>
      </trkpt>
      <trkpt lat="49.85677" lon="1.55445">
        <ele>151.064209</ele>
        <time>2009-05-16T12:06:51Z</time>
      </trkpt>
      <trkpt lat="49.8579" lon="1.55453">
        <ele>151.064209</ele>
        <time>2009-05-16T12:07:04Z</time>
      </trkpt>
      <trkpt lat="49.85866" lon="1.55474">
        <ele>151.064209</ele>
        <time>2009-05-16T12:07:11Z</time>
      </trkpt>
      <trkpt lat="49.85887" lon="1.55488">
        <ele>151.064209</ele>
        <time>2009-05-16T12:07:13Z</time>
      </trkpt>
      <trkpt lat="49.85975" lon="1.556">
        <ele>151.064209</ele>
        <time>2009-05-16T12:07:23Z</time>
      </trkpt>
      <trkpt lat="49.85983" lon="1.5561">
        <ele>151.064209</ele>
        <time>2009-05-16T12:07:24Z</time>
      </trkpt>
      <trkpt lat="49.86033" lon="1.55607">
        <ele>152.025757</ele>
        <time>2009-05-16T12:07:30Z</time>
      </trkpt>
      <trkpt lat="49.86048" lon="1.55545">
        <ele>152.025757</ele>
        <time>2009-05-16T12:07:36Z</time>
      </trkpt>
      <trkpt lat="49.8604" lon="1.55535">
        <ele>152.025757</ele>
        <time>2009-05-16T12:07:38Z</time>
      </trkpt>
      <trkpt lat="49.8601" lon="1.55498">
        <ele>152.506348</ele>
        <time>2009-05-16T12:07:44Z</time>
      </trkpt>
      <trkpt lat="49.85985" lon="1.55389">
        <ele>153.948364</ele>
        <time>2009-05-16T12:07:56Z</time>
      </trkpt>
      <trkpt lat="49.85968" lon="1.55258">
        <ele>155.870972</ele>
        <time>2009-05-16T12:08:11Z</time>
      </trkpt>
      <trkpt lat="49.85941" lon="1.55114">
        <ele>156.832153</ele>
        <time>2009-05-16T12:08:27Z</time>
      </trkpt>
      <trkpt lat="49.85908" lon="1.55">
        <ele>158.27417</ele>
        <time>2009-05-16T12:08:42Z</time>
      </trkpt>
      <trkpt lat="49.85901" lon="1.54929">
        <ele>158.754761</ele>
        <time>2009-05-16T12:08:55Z</time>
      </trkpt>
      <trkpt lat="49.85913" lon="1.54916">
        <ele>158.754761</ele>
        <time>2009-05-16T12:08:59Z</time>
      </trkpt>
      <trkpt lat="49.85922" lon="1.54904">
        <ele>159.235474</ele>
        <time>2009-05-16T12:09:02Z</time>
      </trkpt>
      <trkpt lat="49.85982" lon="1.54832">
        <ele>159.716187</ele>
        <time>2009-05-16T12:09:19Z</time>
      </trkpt>
      <trkpt lat="49.86008" lon="1.54781">
        <ele>159.716187</ele>
        <time>2009-05-16T12:09:29Z</time>
      </trkpt>
      <trkpt lat="49.86014" lon="1.54765">
        <ele>159.235474</ele>
        <time>2009-05-16T12:09:32Z</time>
      </trkpt>
      <trkpt lat="49.8604" lon="1.54657">
        <ele>159.235474</ele>
        <time>2009-05-16T12:09:50Z</time>
      </trkpt>
      <trkpt lat="49.86061" lon="1.54532">
        <ele>160.196899</ele>
        <time>2009-05-16T12:10:10Z</time>
      </trkpt>
      <trkpt lat="49.86078" lon="1.54453">
        <ele>160.67749</ele>
        <time>2009-05-16T12:10:24Z</time>
      </trkpt>
      <trkpt lat="49.86102" lon="1.54349">
        <ele>161.638916</ele>
        <time>2009-05-16T12:10:42Z</time>
      </trkpt>
      <trkpt lat="49.86121" lon="1.54261">
        <ele>162.119507</ele>
        <time>2009-05-16T12:10:57Z</time>
      </trkpt>
      <trkpt lat="49.86139" lon="1.54183">
        <ele>162.600098</ele>
        <time>2009-05-16T12:11:11Z</time>
      </trkpt>
      <trkpt lat="49.86161" lon="1.54086">
        <ele>163.561523</ele>
        <time>2009-05-16T12:11:28Z</time>
      </trkpt>
      <trkpt lat="49.86159" lon="1.53982">
        <ele>165.003418</ele>
        <time>2009-05-16T12:11:44Z</time>
      </trkpt>
      <trkpt lat="49.86155" lon="1.53955">
        <ele>165.003418</ele>
        <time>2009-05-16T12:11:48Z</time>
      </trkpt>
      <trkpt lat="49.86125" lon="1.53902">
        <ele>165.964722</ele>
        <time>2009-05-16T12:11:57Z</time>
      </trkpt>
      <trkpt lat="49.86113" lon="1.53892">
        <ele>165.964722</ele>
        <time>2009-05-16T12:12:00Z</time>
      </trkpt>
      <trkpt lat="49.86093" lon="1.53831">
        <ele>166.926025</ele>
        <time>2009-05-16T12:12:10Z</time>
      </trkpt>
      <trkpt lat="49.86098" lon="1.53788">
        <ele>167.406738</ele>
        <time>2009-05-16T12:12:16Z</time>
      </trkpt>
      <trkpt lat="49.86129" lon="1.53751">
        <ele>168.368042</ele>
        <time>2009-05-16T12:12:25Z</time>
      </trkpt>
      <trkpt lat="49.86144" lon="1.53757">
        <ele>168.368042</ele>
        <time>2009-05-16T12:12:29Z</time>
      </trkpt>
      <trkpt lat="49.86172" lon="1.53786">
        <ele>168.848755</ele>
        <time>2009-05-16T12:12:42Z</time>
      </trkpt>
      <trkpt lat="49.86196" lon="1.53815">
        <ele>168.848755</ele>
        <time>2009-05-16T12:12:52Z</time>
      </trkpt>
      <trkpt lat="49.86234" lon="1.53844">
        <ele>168.848755</ele>
        <time>2009-05-16T12:13:06Z</time>
      </trkpt>
      <trkpt lat="49.86273" lon="1.53833">
        <ele>168.368042</ele>
        <time>2009-05-16T12:13:18Z</time>
      </trkpt>
      <trkpt lat="49.86316" lon="1.53845">
        <ele>167.887329</ele>
        <time>2009-05-16T12:13:31Z</time>
      </trkpt>
      <trkpt lat="49.86362" lon="1.53845">
        <ele>166.926025</ele>
        <time>2009-05-16T12:13:45Z</time>
      </trkpt>
      <trkpt lat="49.86398" lon="1.5382">
        <ele>165.964722</ele>
        <time>2009-05-16T12:13:59Z</time>
      </trkpt>
      <trkpt lat="49.86388" lon="1.53765">
        <ele>166.445313</ele>
        <time>2009-05-16T12:14:10Z</time>
      </trkpt>
      <trkpt lat="49.86397" lon="1.53715">
        <ele>166.926025</ele>
        <time>2009-05-16T12:14:20Z</time>
      </trkpt>
      <trkpt lat="49.86417" lon="1.53661">
        <ele>166.926025</ele>
        <time>2009-05-16T12:14:32Z</time>
      </trkpt>
      <trkpt lat="49.86444" lon="1.53595">
        <ele>166.445313</ele>
        <time>2009-05-16T12:14:46Z</time>
      </trkpt>
      <trkpt lat="49.86467" lon="1.53529">
        <ele>166.445313</ele>
        <time>2009-05-16T12:14:59Z</time>
      </trkpt>
      <trkpt lat="49.86472" lon="1.53517">
        <ele>166.445313</ele>
        <time>2009-05-16T12:15:01Z</time>
      </trkpt>
      <trkpt lat="49.86481" lon="1.53488">
        <ele>166.926025</ele>
        <time>2009-05-16T12:15:06Z</time>
      </trkpt>
      <trkpt lat="49.86499" lon="1.53433">
        <ele>163.561523</ele>
        <time>2009-05-16T12:15:15Z</time>
      </trkpt>
      <trkpt lat="49.86502" lon="1.53427">
        <ele>166.445313</ele>
        <time>2009-05-16T12:15:16Z</time>
      </trkpt>
      <trkpt lat="49.86506" lon="1.53414">
        <ele>167.406738</ele>
        <time>2009-05-16T12:15:18Z</time>
      </trkpt>
      <trkpt lat="49.86524" lon="1.53365">
        <ele>167.406738</ele>
        <time>2009-05-16T12:15:26Z</time>
      </trkpt>
      <trkpt lat="49.86546" lon="1.53306">
        <ele>167.406738</ele>
        <time>2009-05-16T12:15:36Z</time>
      </trkpt>
      <trkpt lat="49.86565" lon="1.5326">
        <ele>167.887329</ele>
        <time>2009-05-16T12:15:44Z</time>
      </trkpt>
      <trkpt lat="49.86571" lon="1.53243">
        <ele>168.368042</ele>
        <time>2009-05-16T12:15:47Z</time>
      </trkpt>
      <trkpt lat="49.86578" lon="1.53227">
        <ele>168.368042</ele>
        <time>2009-05-16T12:15:50Z</time>
      </trkpt>
      <trkpt lat="49.86603" lon="1.53159">
        <ele>169.329468</ele>
        <time>2009-05-16T12:16:00Z</time>
      </trkpt>
      <trkpt lat="49.86608" lon="1.53145">
        <ele>169.329468</ele>
        <time>2009-05-16T12:16:02Z</time>
      </trkpt>
      <trkpt lat="49.8665" lon="1.53027">
        <ele>170.290649</ele>
        <time>2009-05-16T12:16:18Z</time>
      </trkpt>
      <trkpt lat="49.86692" lon="1.52885">
        <ele>171.252075</ele>
        <time>2009-05-16T12:16:31Z</time>
      </trkpt>
      <trkpt lat="49.86695" lon="1.52872">
        <ele>171.252075</ele>
        <time>2009-05-16T12:16:32Z</time>
      </trkpt>
      <trkpt lat="49.86755" lon="1.52753">
        <ele>172.69397</ele>
        <time>2009-05-16T12:16:44Z</time>
      </trkpt>
      <trkpt lat="49.86826" lon="1.52674">
        <ele>174.616577</ele>
        <time>2009-05-16T12:16:58Z</time>
      </trkpt>
      <trkpt lat="49.869" lon="1.52586">
        <ele>175.09729</ele>
        <time>2009-05-16T12:17:14Z</time>
      </trkpt>
      <trkpt lat="49.86976" lon="1.52485">
        <ele>175.577881</ele>
        <time>2009-05-16T12:17:29Z</time>
      </trkpt>
      <trkpt lat="49.87042" lon="1.52359">
        <ele>177.02002</ele>
        <time>2009-05-16T12:17:44Z</time>
      </trkpt>
      <trkpt lat="49.87077" lon="1.52241">
        <ele>177.50061</ele>
        <time>2009-05-16T12:17:56Z</time>
      </trkpt>
      <trkpt lat="49.87105" lon="1.52095">
        <ele>178.461914</ele>
        <time>2009-05-16T12:18:11Z</time>
      </trkpt>
      <trkpt lat="49.87112" lon="1.52067">
        <ele>178.461914</ele>
        <time>2009-05-16T12:18:14Z</time>
      </trkpt>
      <trkpt lat="49.87138" lon="1.52015">
        <ele>178.942627</ele>
        <time>2009-05-16T12:18:21Z</time>
      </trkpt>
      <trkpt lat="49.87145" lon="1.51998">
        <ele>178.942627</ele>
        <time>2009-05-16T12:18:23Z</time>
      </trkpt>
      <trkpt lat="49.87153" lon="1.51936">
        <ele>179.423218</ele>
        <time>2009-05-16T12:18:30Z</time>
      </trkpt>
      <trkpt lat="49.8715" lon="1.51884">
        <ele>179.423218</ele>
        <time>2009-05-16T12:18:36Z</time>
      </trkpt>
      <trkpt lat="49.87126" lon="1.51763">
        <ele>180.865234</ele>
        <time>2009-05-16T12:18:51Z</time>
      </trkpt>
      <trkpt lat="49.87101" lon="1.51654">
        <ele>181.826416</ele>
        <time>2009-05-16T12:19:05Z</time>
      </trkpt>
      <trkpt lat="49.87091" lon="1.51609">
        <ele>182.787842</ele>
        <time>2009-05-16T12:19:11Z</time>
      </trkpt>
      <trkpt lat="49.87108" lon="1.51578">
        <ele>182.787842</ele>
        <time>2009-05-16T12:19:18Z</time>
      </trkpt>
      <trkpt lat="49.87124" lon="1.51587">
        <ele>182.787842</ele>
        <time>2009-05-16T12:19:21Z</time>
      </trkpt>
      <trkpt lat="49.8721" lon="1.51598">
        <ele>183.268433</ele>
        <time>2009-05-16T12:19:35Z</time>
      </trkpt>
      <trkpt lat="49.87305" lon="1.5157">
        <ele>183.268433</ele>
        <time>2009-05-16T12:19:49Z</time>
      </trkpt>
      <trkpt lat="49.87416" lon="1.51488">
        <ele>183.749023</ele>
        <time>2009-05-16T12:20:06Z</time>
      </trkpt>
      <trkpt lat="49.87516" lon="1.51423">
        <ele>183.749023</ele>
        <time>2009-05-16T12:20:21Z</time>
      </trkpt>
      <trkpt lat="49.87554" lon="1.51409">
        <ele>184.229858</ele>
        <time>2009-05-16T12:20:26Z</time>
      </trkpt>
      <trkpt lat="49.87579" lon="1.51377">
        <ele>184.229858</ele>
        <time>2009-05-16T12:20:30Z</time>
      </trkpt>
      <trkpt lat="49.87666" lon="1.51197">
        <ele>185.671753</ele>
        <time>2009-05-16T12:20:49Z</time>
      </trkpt>
      <trkpt lat="49.87718" lon="1.51097">
        <ele>186.633179</ele>
        <time>2009-05-16T12:21:02Z</time>
      </trkpt>
      <trkpt lat="49.87779" lon="1.51">
        <ele>187.11377</ele>
        <time>2009-05-16T12:21:15Z</time>
      </trkpt>
      <trkpt lat="49.87805" lon="1.50957">
        <ele>187.11377</ele>
        <time>2009-05-16T12:21:20Z</time>
      </trkpt>
      <trkpt lat="49.87835" lon="1.50882">
        <ele>187.59436</ele>
        <time>2009-05-16T12:21:28Z</time>
      </trkpt>
      <trkpt lat="49.87855" lon="1.50823">
        <ele>187.11377</ele>
        <time>2009-05-16T12:21:34Z</time>
      </trkpt>
      <trkpt lat="49.87868" lon="1.50793">
        <ele>187.11377</ele>
        <time>2009-05-16T12:21:37Z</time>
      </trkpt>
      <trkpt lat="49.87948" lon="1.5074">
        <ele>186.633179</ele>
        <time>2009-05-16T12:21:47Z</time>
      </trkpt>
      <trkpt lat="49.88065" lon="1.50648">
        <ele>187.11377</ele>
        <time>2009-05-16T12:22:00Z</time>
      </trkpt>
      <trkpt lat="49.88099" lon="1.50576">
        <ele>187.59436</ele>
        <time>2009-05-16T12:22:05Z</time>
      </trkpt>
      <trkpt lat="49.88167" lon="1.50458">
        <ele>187.59436</ele>
        <time>2009-05-16T12:22:14Z</time>
      </trkpt>
      <trkpt lat="49.8817" lon="1.50441">
        <ele>188.075073</ele>
        <time>2009-05-16T12:22:15Z</time>
      </trkpt>
      <trkpt lat="49.88228" lon="1.50322">
        <ele>188.075073</ele>
        <time>2009-05-16T12:22:24Z</time>
      </trkpt>
      <trkpt lat="49.88246" lon="1.50252">
        <ele>188.555786</ele>
        <time>2009-05-16T12:22:29Z</time>
      </trkpt>
      <trkpt lat="49.88234" lon="1.50207">
        <ele>188.555786</ele>
        <time>2009-05-16T12:22:32Z</time>
      </trkpt>
      <trkpt lat="49.88205" lon="1.49975">
        <ele>189.036377</ele>
        <time>2009-05-16T12:22:45Z</time>
      </trkpt>
      <trkpt lat="49.88212" lon="1.4983">
        <ele>188.555786</ele>
        <time>2009-05-16T12:22:53Z</time>
      </trkpt>
      <trkpt lat="49.88234" lon="1.49767">
        <ele>188.555786</ele>
        <time>2009-05-16T12:22:57Z</time>
      </trkpt>
      <trkpt lat="49.8836" lon="1.49596">
        <ele>188.555786</ele>
        <time>2009-05-16T12:23:11Z</time>
      </trkpt>
      <trkpt lat="49.88429" lon="1.49555">
        <ele>188.555786</ele>
        <time>2009-05-16T12:23:17Z</time>
      </trkpt>
      <trkpt lat="49.8848" lon="1.49558">
        <ele>188.075073</ele>
        <time>2009-05-16T12:23:21Z</time>
      </trkpt>
      <trkpt lat="49.88562" lon="1.49577">
        <ele>188.075073</ele>
        <time>2009-05-16T12:23:27Z</time>
      </trkpt>
      <trkpt lat="49.88664" lon="1.4952">
        <ele>187.59436</ele>
        <time>2009-05-16T12:23:35Z</time>
      </trkpt>
      <trkpt lat="49.88682" lon="1.49492">
        <ele>187.59436</ele>
        <time>2009-05-16T12:23:37Z</time>
      </trkpt>
      <trkpt lat="49.8881" lon="1.49252">
        <ele>187.11377</ele>
        <time>2009-05-16T12:23:53Z</time>
      </trkpt>
      <trkpt lat="49.88844" lon="1.49187">
        <ele>186.633179</ele>
        <time>2009-05-16T12:23:58Z</time>
      </trkpt>
      <trkpt lat="49.88905" lon="1.49149">
        <ele>186.152466</ele>
        <time>2009-05-16T12:24:05Z</time>
      </trkpt>
      <trkpt lat="49.89021" lon="1.49132">
        <ele>185.671753</ele>
        <time>2009-05-16T12:24:18Z</time>
      </trkpt>
      <trkpt lat="49.89141" lon="1.49108">
        <ele>185.191162</ele>
        <time>2009-05-16T12:24:31Z</time>
      </trkpt>
      <trkpt lat="49.89182" lon="1.49096">
        <ele>185.191162</ele>
        <time>2009-05-16T12:24:35Z</time>
      </trkpt>
      <trkpt lat="49.89231" lon="1.49035">
        <ele>185.191162</ele>
        <time>2009-05-16T12:24:41Z</time>
      </trkpt>
      <trkpt lat="49.89265" lon="1.48996">
        <ele>184.710571</ele>
        <time>2009-05-16T12:24:45Z</time>
      </trkpt>
      <trkpt lat="49.89408" lon="1.48965">
        <ele>184.229858</ele>
        <time>2009-05-16T12:25:00Z</time>
      </trkpt>
      <trkpt lat="49.89425" lon="1.48962">
        <ele>183.749023</ele>
        <time>2009-05-16T12:25:02Z</time>
      </trkpt>
      <trkpt lat="49.89463" lon="1.48998">
        <ele>183.749023</ele>
        <time>2009-05-16T12:25:08Z</time>
      </trkpt>
      <trkpt lat="49.89487" lon="1.49106">
        <ele>183.268433</ele>
        <time>2009-05-16T12:25:18Z</time>
      </trkpt>
      <trkpt lat="49.89521" lon="1.4915">
        <ele>182.787842</ele>
        <time>2009-05-16T12:25:26Z</time>
      </trkpt>
      <trkpt lat="49.89538" lon="1.49144">
        <ele>182.787842</ele>
        <time>2009-05-16T12:25:29Z</time>
      </trkpt>
      <trkpt lat="49.89577" lon="1.49109">
        <ele>182.307129</ele>
        <time>2009-05-16T12:25:37Z</time>
      </trkpt>
      <trkpt lat="49.89661" lon="1.49065">
        <ele>181.826416</ele>
        <time>2009-05-16T12:25:50Z</time>
      </trkpt>
      <trkpt lat="49.89758" lon="1.49028">
        <ele>180.865234</ele>
        <time>2009-05-16T12:26:04Z</time>
      </trkpt>
      <trkpt lat="49.89872" lon="1.48993">
        <ele>180.384521</ele>
        <time>2009-05-16T12:26:20Z</time>
      </trkpt>
      <trkpt lat="49.89983" lon="1.48979">
        <ele>179.423218</ele>
        <time>2009-05-16T12:26:37Z</time>
      </trkpt>
      <trkpt lat="49.90089" lon="1.48974">
        <ele>177.981201</ele>
        <time>2009-05-16T12:26:54Z</time>
      </trkpt>
      <trkpt lat="49.90172" lon="1.48998">
        <ele>176.539307</ele>
        <time>2009-05-16T12:27:07Z</time>
      </trkpt>
      <trkpt lat="49.90289" lon="1.4903">
        <ele>175.577881</ele>
        <time>2009-05-16T12:27:22Z</time>
      </trkpt>
      <trkpt lat="49.90387" lon="1.49065">
        <ele>174.135864</ele>
        <time>2009-05-16T12:27:33Z</time>
      </trkpt>
      <trkpt lat="49.90459" lon="1.49109">
        <ele>173.655273</ele>
        <time>2009-05-16T12:27:40Z</time>
      </trkpt>
      <trkpt lat="49.90505" lon="1.4912">
        <ele>173.174683</ele>
        <time>2009-05-16T12:27:44Z</time>
      </trkpt>
      <trkpt lat="49.90671" lon="1.49128">
        <ele>172.213257</ele>
        <time>2009-05-16T12:27:58Z</time>
      </trkpt>
      <trkpt lat="49.908" lon="1.49118">
        <ele>171.732666</ele>
        <time>2009-05-16T12:28:10Z</time>
      </trkpt>
      <trkpt lat="49.90927" lon="1.49096">
        <ele>171.252075</ele>
        <time>2009-05-16T12:28:24Z</time>
      </trkpt>
      <trkpt lat="49.9104" lon="1.49076">
        <ele>170.290649</ele>
        <time>2009-05-16T12:28:38Z</time>
      </trkpt>
      <trkpt lat="49.91137" lon="1.49074">
        <ele>169.329468</ele>
        <time>2009-05-16T12:28:51Z</time>
      </trkpt>
      <trkpt lat="49.91183" lon="1.49088">
        <ele>169.329468</ele>
        <time>2009-05-16T12:28:57Z</time>
      </trkpt>
      <trkpt lat="49.91223" lon="1.49143">
        <ele>168.848755</ele>
        <time>2009-05-16T12:29:04Z</time>
      </trkpt>
      <trkpt lat="49.91234" lon="1.4917">
        <ele>168.848755</ele>
        <time>2009-05-16T12:29:07Z</time>
      </trkpt>
      <trkpt lat="49.91253" lon="1.49189">
        <ele>168.368042</ele>
        <time>2009-05-16T12:29:11Z</time>
      </trkpt>
      <trkpt lat="49.91273" lon="1.492">
        <ele>168.368042</ele>
        <time>2009-05-16T12:29:14Z</time>
      </trkpt>
      <trkpt lat="49.91288" lon="1.49206">
        <ele>168.368042</ele>
        <time>2009-05-16T12:29:16Z</time>
      </trkpt>
      <trkpt lat="49.91363" lon="1.49206">
        <ele>167.406738</ele>
        <time>2009-05-16T12:29:26Z</time>
      </trkpt>
      <trkpt lat="49.9143" lon="1.49211">
        <ele>166.926025</ele>
        <time>2009-05-16T12:29:36Z</time>
      </trkpt>
      <trkpt lat="49.91455" lon="1.4921">
        <ele>166.926025</ele>
        <time>2009-05-16T12:29:40Z</time>
      </trkpt>
      <trkpt lat="49.91516" lon="1.49214">
        <ele>165.964722</ele>
        <time>2009-05-16T12:29:49Z</time>
      </trkpt>
      <trkpt lat="49.91555" lon="1.49203">
        <ele>165.484131</ele>
        <time>2009-05-16T12:29:55Z</time>
      </trkpt>
      <trkpt lat="49.91573" lon="1.49205">
        <ele>165.484131</ele>
        <time>2009-05-16T12:29:58Z</time>
      </trkpt>
      <trkpt lat="49.91672" lon="1.49245">
        <ele>164.522705</ele>
        <time>2009-05-16T12:30:12Z</time>
      </trkpt>
      <trkpt lat="49.91752" lon="1.49279">
        <ele>163.561523</ele>
        <time>2009-05-16T12:30:23Z</time>
      </trkpt>
      <trkpt lat="49.9181" lon="1.493">
        <ele>162.600098</ele>
        <time>2009-05-16T12:30:31Z</time>
      </trkpt>
      <trkpt lat="49.91823" lon="1.49301">
        <ele>162.600098</ele>
        <time>2009-05-16T12:30:33Z</time>
      </trkpt>
      <trkpt lat="49.91854" lon="1.49292">
        <ele>162.600098</ele>
        <time>2009-05-16T12:30:37Z</time>
      </trkpt>
      <trkpt lat="49.91917" lon="1.49229">
        <ele>161.638916</ele>
        <time>2009-05-16T12:30:48Z</time>
      </trkpt>
      <trkpt lat="49.91924" lon="1.49213">
        <ele>161.638916</ele>
        <time>2009-05-16T12:30:50Z</time>
      </trkpt>
      <trkpt lat="49.91959" lon="1.4907">
        <ele>160.67749</ele>
        <time>2009-05-16T12:31:04Z</time>
      </trkpt>
      <trkpt lat="49.9199" lon="1.48922">
        <ele>159.716187</ele>
        <time>2009-05-16T12:31:18Z</time>
      </trkpt>
      <trkpt lat="49.91994" lon="1.48903">
        <ele>159.235474</ele>
        <time>2009-05-16T12:31:20Z</time>
      </trkpt>
      <trkpt lat="49.92006" lon="1.48865">
        <ele>159.235474</ele>
        <time>2009-05-16T12:31:24Z</time>
      </trkpt>
      <trkpt lat="49.92066" lon="1.48778">
        <ele>158.27417</ele>
        <time>2009-05-16T12:31:37Z</time>
      </trkpt>
      <trkpt lat="49.92076" lon="1.48771">
        <ele>158.27417</ele>
        <time>2009-05-16T12:31:39Z</time>
      </trkpt>
      <trkpt lat="49.92149" lon="1.4875">
        <ele>157.793579</ele>
        <time>2009-05-16T12:31:54Z</time>
      </trkpt>
      <trkpt lat="49.92216" lon="1.48756">
        <ele>156.351563</ele>
        <time>2009-05-16T12:32:09Z</time>
      </trkpt>
      <trkpt lat="49.92245" lon="1.48758">
        <ele>155.870972</ele>
        <time>2009-05-16T12:32:16Z</time>
      </trkpt>
      <trkpt lat="49.92301" lon="1.48777">
        <ele>154.428955</ele>
        <time>2009-05-16T12:32:30Z</time>
      </trkpt>
      <trkpt lat="49.92361" lon="1.48798">
        <ele>153.467651</ele>
        <time>2009-05-16T12:32:46Z</time>
      </trkpt>
      <trkpt lat="49.92428" lon="1.48822">
        <ele>152.025757</ele>
        <time>2009-05-16T12:33:04Z</time>
      </trkpt>
      <trkpt lat="49.92468" lon="1.48857">
        <ele>151.064209</ele>
        <time>2009-05-16T12:33:16Z</time>
      </trkpt>
      <trkpt lat="49.92479" lon="1.48875">
        <ele>150.583618</ele>
        <time>2009-05-16T12:33:20Z</time>
      </trkpt>
      <trkpt lat="49.9251" lon="1.4896">
        <ele>149.622314</ele>
        <time>2009-05-16T12:33:36Z</time>
      </trkpt>
      <trkpt lat="49.92512" lon="1.48965">
        <ele>149.622314</ele>
        <time>2009-05-16T12:33:37Z</time>
      </trkpt>
      <trkpt lat="49.9252" lon="1.48996">
        <ele>149.622314</ele>
        <time>2009-05-16T12:33:41Z</time>
      </trkpt>
      <trkpt lat="49.9255" lon="1.49108">
        <ele>149.622314</ele>
        <time>2009-05-16T12:33:57Z</time>
      </trkpt>
      <trkpt lat="49.92565" lon="1.49174">
        <ele>149.141602</ele>
        <time>2009-05-16T12:34:07Z</time>
      </trkpt>
      <trkpt lat="49.92575" lon="1.49204">
        <ele>149.141602</ele>
        <time>2009-05-16T12:34:12Z</time>
      </trkpt>
      <trkpt lat="49.92621" lon="1.493">
        <ele>149.141602</ele>
        <time>2009-05-16T12:34:30Z</time>
      </trkpt>
      <trkpt lat="49.92658" lon="1.49396">
        <ele>148.661011</ele>
        <time>2009-05-16T12:34:47Z</time>
      </trkpt>
      <trkpt lat="49.92688" lon="1.49457">
        <ele>148.661011</ele>
        <time>2009-05-16T12:35:00Z</time>
      </trkpt>
      <trkpt lat="49.92726" lon="1.49465">
        <ele>148.661011</ele>
        <time>2009-05-16T12:35:12Z</time>
      </trkpt>
      <trkpt lat="49.92728" lon="1.49465">
        <ele>147.218994</ele>
        <time>2009-05-16T12:35:28Z</time>
      </trkpt>
      <trkpt lat="49.92727" lon="1.49465">
        <ele>144.335205</ele>
        <time>2009-05-16T12:36:04Z</time>
      </trkpt>
      <trkpt lat="49.92729" lon="1.49464">
        <ele>140.970459</ele>
        <time>2009-05-16T12:36:31Z</time>
      </trkpt>
      <trkpt lat="49.92748" lon="1.49452">
        <ele>140.009155</ele>
        <time>2009-05-16T12:36:37Z</time>
      </trkpt>
      <trkpt lat="49.92788" lon="1.49433">
        <ele>139.528442</ele>
        <time>2009-05-16T12:36:44Z</time>
      </trkpt>
      <trkpt lat="49.92863" lon="1.49361">
        <ele>140.489868</ele>
        <time>2009-05-16T12:36:58Z</time>
      </trkpt>
      <trkpt lat="49.9295" lon="1.49259">
        <ele>141.45105</ele>
        <time>2009-05-16T12:37:15Z</time>
      </trkpt>
      <trkpt lat="49.93032" lon="1.49153">
        <ele>141.931763</ele>
        <time>2009-05-16T12:37:31Z</time>
      </trkpt>
      <trkpt lat="49.93083" lon="1.49037">
        <ele>142.893066</ele>
        <time>2009-05-16T12:37:44Z</time>
      </trkpt>
      <trkpt lat="49.93138" lon="1.489">
        <ele>143.85437</ele>
        <time>2009-05-16T12:38:00Z</time>
      </trkpt>
      <trkpt lat="49.93179" lon="1.48819">
        <ele>143.85437</ele>
        <time>2009-05-16T12:38:11Z</time>
      </trkpt>
      <trkpt lat="49.93199" lon="1.48787">
        <ele>144.335205</ele>
        <time>2009-05-16T12:38:16Z</time>
      </trkpt>
      <trkpt lat="49.93272" lon="1.48736">
        <ele>144.335205</ele>
        <time>2009-05-16T12:38:30Z</time>
      </trkpt>
      <trkpt lat="49.93356" lon="1.48676">
        <ele>144.335205</ele>
        <time>2009-05-16T12:38:45Z</time>
      </trkpt>
      <trkpt lat="49.93454" lon="1.48562">
        <ele>144.815796</ele>
        <time>2009-05-16T12:39:02Z</time>
      </trkpt>
      <trkpt lat="49.93512" lon="1.48499">
        <ele>144.815796</ele>
        <time>2009-05-16T12:39:12Z</time>
      </trkpt>
      <trkpt lat="49.93567" lon="1.48507">
        <ele>144.815796</ele>
        <time>2009-05-16T12:39:20Z</time>
      </trkpt>
      <trkpt lat="49.93585" lon="1.48545">
        <ele>144.815796</ele>
        <time>2009-05-16T12:39:24Z</time>
      </trkpt>
      <trkpt lat="49.93608" lon="1.48625">
        <ele>144.815796</ele>
        <time>2009-05-16T12:39:32Z</time>
      </trkpt>
      <trkpt lat="49.93614" lon="1.48719">
        <ele>145.7771</ele>
        <time>2009-05-16T12:39:42Z</time>
      </trkpt>
      <trkpt lat="49.93616" lon="1.48754">
        <ele>145.7771</ele>
        <time>2009-05-16T12:39:46Z</time>
      </trkpt>
      <trkpt lat="49.93624" lon="1.48801">
        <ele>146.738403</ele>
        <time>2009-05-16T12:39:52Z</time>
      </trkpt>
      <trkpt lat="49.93628" lon="1.48814">
        <ele>146.738403</ele>
        <time>2009-05-16T12:39:54Z</time>
      </trkpt>
      <trkpt lat="49.93633" lon="1.48826">
        <ele>147.218994</ele>
        <time>2009-05-16T12:39:56Z</time>
      </trkpt>
      <trkpt lat="49.93642" lon="1.48861">
        <ele>147.699707</ele>
        <time>2009-05-16T12:40:01Z</time>
      </trkpt>
      <trkpt lat="49.93652" lon="1.4894">
        <ele>149.141602</ele>
        <time>2009-05-16T12:40:13Z</time>
      </trkpt>
      <trkpt lat="49.93651" lon="1.49013">
        <ele>150.583618</ele>
        <time>2009-05-16T12:40:24Z</time>
      </trkpt>
      <trkpt lat="49.93646" lon="1.49037">
        <ele>151.064209</ele>
        <time>2009-05-16T12:40:27Z</time>
      </trkpt>
      <trkpt lat="49.93621" lon="1.49106">
        <ele>152.025757</ele>
        <time>2009-05-16T12:40:37Z</time>
      </trkpt>
      <trkpt lat="49.936" lon="1.49167">
        <ele>153.467651</ele>
        <time>2009-05-16T12:40:46Z</time>
      </trkpt>
      <trkpt lat="49.93579" lon="1.49245">
        <ele>154.428955</ele>
        <time>2009-05-16T12:40:57Z</time>
      </trkpt>
      <trkpt lat="49.93542" lon="1.49321">
        <ele>155.390259</ele>
        <time>2009-05-16T12:41:07Z</time>
      </trkpt>
      <trkpt lat="49.93539" lon="1.49334">
        <ele>155.870972</ele>
        <time>2009-05-16T12:41:09Z</time>
      </trkpt>
      <trkpt lat="49.93519" lon="1.49372">
        <ele>156.351563</ele>
        <time>2009-05-16T12:41:15Z</time>
      </trkpt>
      <trkpt lat="49.93509" lon="1.49422">
        <ele>156.832153</ele>
        <time>2009-05-16T12:41:21Z</time>
      </trkpt>
      <trkpt lat="49.93501" lon="1.49456">
        <ele>156.832153</ele>
        <time>2009-05-16T12:41:26Z</time>
      </trkpt>
      <trkpt lat="49.93497" lon="1.49491">
        <ele>156.832153</ele>
        <time>2009-05-16T12:41:30Z</time>
      </trkpt>
      <trkpt lat="49.93482" lon="1.49511">
        <ele>157.312866</ele>
        <time>2009-05-16T12:41:34Z</time>
      </trkpt>
      <trkpt lat="49.93419" lon="1.4955">
        <ele>158.27417</ele>
        <time>2009-05-16T12:41:46Z</time>
      </trkpt>
      <trkpt lat="49.93364" lon="1.49582">
        <ele>158.754761</ele>
        <time>2009-05-16T12:41:58Z</time>
      </trkpt>
      <trkpt lat="49.93349" lon="1.49596">
        <ele>159.235474</ele>
        <time>2009-05-16T12:42:01Z</time>
      </trkpt>
      <trkpt lat="49.9333" lon="1.49622">
        <ele>159.235474</ele>
        <time>2009-05-16T12:42:06Z</time>
      </trkpt>
      <trkpt lat="49.93311" lon="1.49649">
        <ele>160.196899</ele>
        <time>2009-05-16T12:42:11Z</time>
      </trkpt>
      <trkpt lat="49.93299" lon="1.49667">
        <ele>149.622314</ele>
        <time>2009-05-16T12:42:14Z</time>
      </trkpt>
      <trkpt lat="49.93293" lon="1.49681">
        <ele>134.241211</ele>
        <time>2009-05-16T12:42:16Z</time>
      </trkpt>
      <trkpt lat="49.93284" lon="1.49691">
        <ele>131.3573</ele>
        <time>2009-05-16T12:42:18Z</time>
      </trkpt>
      <trkpt lat="49.9328" lon="1.49695">
        <ele>130.876709</ele>
        <time>2009-05-16T12:42:19Z</time>
      </trkpt>
      <trkpt lat="49.93274" lon="1.49711">
        <ele>130.395996</ele>
        <time>2009-05-16T12:42:21Z</time>
      </trkpt>
      <trkpt lat="49.93259" lon="1.49774">
        <ele>131.837891</ele>
        <time>2009-05-16T12:42:32Z</time>
      </trkpt>
      <trkpt lat="49.93261" lon="1.49785">
        <ele>131.837891</ele>
        <time>2009-05-16T12:42:34Z</time>
      </trkpt>
      <trkpt lat="49.9329" lon="1.49811">
        <ele>133.279907</ele>
        <time>2009-05-16T12:42:44Z</time>
      </trkpt>
      <trkpt lat="49.93326" lon="1.49795">
        <ele>134.721924</ele>
        <time>2009-05-16T12:42:55Z</time>
      </trkpt>
      <trkpt lat="49.93371" lon="1.49796">
        <ele>135.683105</ele>
        <time>2009-05-16T12:43:04Z</time>
      </trkpt>
      <trkpt lat="49.9342" lon="1.4983">
        <ele>136.644653</ele>
        <time>2009-05-16T12:43:14Z</time>
      </trkpt>
      <trkpt lat="49.93446" lon="1.49856">
        <ele>137.605835</ele>
        <time>2009-05-16T12:43:21Z</time>
      </trkpt>
      <trkpt lat="49.93463" lon="1.49878">
        <ele>138.086548</ele>
        <time>2009-05-16T12:43:24Z</time>
      </trkpt>
      <trkpt lat="49.9347" lon="1.49894">
        <ele>132.318604</ele>
        <time>2009-05-16T12:43:27Z</time>
      </trkpt>
      <trkpt lat="49.93471" lon="1.49899">
        <ele>140.489868</ele>
        <time>2009-05-16T12:43:28Z</time>
      </trkpt>
      <trkpt lat="49.93472" lon="1.49909">
        <ele>141.45105</ele>
        <time>2009-05-16T12:43:30Z</time>
      </trkpt>
      <trkpt lat="49.9347" lon="1.49921">
        <ele>140.009155</ele>
        <time>2009-05-16T12:43:32Z</time>
      </trkpt>
      <trkpt lat="49.93478" lon="1.49949">
        <ele>137.605835</ele>
        <time>2009-05-16T12:43:35Z</time>
      </trkpt>
      <trkpt lat="49.93483" lon="1.49982">
        <ele>140.009155</ele>
        <time>2009-05-16T12:43:39Z</time>
      </trkpt>
      <trkpt lat="49.93494" lon="1.50016">
        <ele>139.528442</ele>
        <time>2009-05-16T12:43:46Z</time>
      </trkpt>
      <trkpt lat="49.93521" lon="1.50045">
        <ele>143.373657</ele>
        <time>2009-05-16T12:43:54Z</time>
      </trkpt>
      <trkpt lat="49.93529" lon="1.50052">
        <ele>144.815796</ele>
        <time>2009-05-16T12:43:56Z</time>
      </trkpt>
      <trkpt lat="49.93533" lon="1.50055">
        <ele>141.45105</ele>
        <time>2009-05-16T12:43:57Z</time>
      </trkpt>
      <trkpt lat="49.93544" lon="1.5006">
        <ele>145.7771</ele>
        <time>2009-05-16T12:44:00Z</time>
      </trkpt>
      <trkpt lat="49.93562" lon="1.5006">
        <ele>145.296387</ele>
        <time>2009-05-16T12:44:04Z</time>
      </trkpt>
      <trkpt lat="49.93603" lon="1.50027">
        <ele>146.257813</ele>
        <time>2009-05-16T12:44:15Z</time>
      </trkpt>
      <trkpt lat="49.93616" lon="1.50023">
        <ele>146.257813</ele>
        <time>2009-05-16T12:44:17Z</time>
      </trkpt>
      <trkpt lat="49.93658" lon="1.50015">
        <ele>146.738403</ele>
        <time>2009-05-16T12:44:28Z</time>
      </trkpt>
      <trkpt lat="49.93698" lon="1.50035">
        <ele>147.218994</ele>
        <time>2009-05-16T12:44:38Z</time>
      </trkpt>
      <trkpt lat="49.93706" lon="1.50043">
        <ele>147.218994</ele>
        <time>2009-05-16T12:44:40Z</time>
      </trkpt>
      <trkpt lat="49.9375" lon="1.50135">
        <ele>147.218994</ele>
        <time>2009-05-16T12:44:54Z</time>
      </trkpt>
      <trkpt lat="49.93789" lon="1.5014">
        <ele>148.18042</ele>
        <time>2009-05-16T12:45:05Z</time>
      </trkpt>
      <trkpt lat="49.93835" lon="1.50118">
        <ele>149.141602</ele>
        <time>2009-05-16T12:45:16Z</time>
      </trkpt>
      <trkpt lat="49.93887" lon="1.50111">
        <ele>150.103027</ele>
        <time>2009-05-16T12:45:28Z</time>
      </trkpt>
      <trkpt lat="49.93928" lon="1.5011">
        <ele>150.583618</ele>
        <time>2009-05-16T12:45:35Z</time>
      </trkpt>
      <trkpt lat="49.93981" lon="1.50131">
        <ele>151.544922</ele>
        <time>2009-05-16T12:45:47Z</time>
      </trkpt>
      <trkpt lat="49.94027" lon="1.50145">
        <ele>152.986938</ele>
        <time>2009-05-16T12:45:59Z</time>
      </trkpt>
      <trkpt lat="49.9407" lon="1.50163">
        <ele>153.948364</ele>
        <time>2009-05-16T12:46:09Z</time>
      </trkpt>
      <trkpt lat="49.94084" lon="1.5017">
        <ele>153.948364</ele>
        <time>2009-05-16T12:46:12Z</time>
      </trkpt>
      <trkpt lat="49.94102" lon="1.50162">
        <ele>154.428955</ele>
        <time>2009-05-16T12:46:17Z</time>
      </trkpt>
      <trkpt lat="49.94151" lon="1.50141">
        <ele>155.390259</ele>
        <time>2009-05-16T12:46:27Z</time>
      </trkpt>
      <trkpt lat="49.9419" lon="1.50127">
        <ele>156.351563</ele>
        <time>2009-05-16T12:46:37Z</time>
      </trkpt>
      <trkpt lat="49.94231" lon="1.50128">
        <ele>157.312866</ele>
        <time>2009-05-16T12:46:44Z</time>
      </trkpt>
      <trkpt lat="49.94269" lon="1.50127">
        <ele>157.793579</ele>
        <time>2009-05-16T12:46:52Z</time>
      </trkpt>
      <trkpt lat="49.94275" lon="1.5013">
        <ele>157.793579</ele>
        <time>2009-05-16T12:46:53Z</time>
      </trkpt>
      <trkpt lat="49.94314" lon="1.50134">
        <ele>158.27417</ele>
        <time>2009-05-16T12:47:00Z</time>
      </trkpt>
      <trkpt lat="49.94339" lon="1.50135">
        <ele>158.754761</ele>
        <time>2009-05-16T12:47:05Z</time>
      </trkpt>
      <trkpt lat="49.94382" lon="1.50133">
        <ele>159.235474</ele>
        <time>2009-05-16T12:47:14Z</time>
      </trkpt>
      <trkpt lat="49.9439" lon="1.50135">
        <ele>159.716187</ele>
        <time>2009-05-16T12:47:16Z</time>
      </trkpt>
      <trkpt lat="49.94463" lon="1.50137">
        <ele>160.196899</ele>
        <time>2009-05-16T12:47:30Z</time>
      </trkpt>
      <trkpt lat="49.94491" lon="1.50138">
        <ele>160.196899</ele>
        <time>2009-05-16T12:47:35Z</time>
      </trkpt>
      <trkpt lat="49.94572" lon="1.50144">
        <ele>161.158203</ele>
        <time>2009-05-16T12:47:47Z</time>
      </trkpt>
      <trkpt lat="49.9465" lon="1.50152">
        <ele>161.638916</ele>
        <time>2009-05-16T12:47:58Z</time>
      </trkpt>
      <trkpt lat="49.94741" lon="1.50203">
        <ele>159.235474</ele>
        <time>2009-05-16T12:48:09Z</time>
      </trkpt>
      <trkpt lat="49.94782" lon="1.50223">
        <ele>156.832153</ele>
        <time>2009-05-16T12:48:14Z</time>
      </trkpt>
      <trkpt lat="49.94825" lon="1.50246">
        <ele>153.467651</ele>
        <time>2009-05-16T12:48:19Z</time>
      </trkpt>
      <trkpt lat="49.94857" lon="1.50266">
        <ele>150.103027</ele>
        <time>2009-05-16T12:48:23Z</time>
      </trkpt>
      <trkpt lat="49.94889" lon="1.50289">
        <ele>147.218994</ele>
        <time>2009-05-16T12:48:27Z</time>
      </trkpt>
      <trkpt lat="49.9493" lon="1.50317">
        <ele>143.373657</ele>
        <time>2009-05-16T12:48:32Z</time>
      </trkpt>
      <trkpt lat="49.94973" lon="1.50346">
        <ele>140.489868</ele>
        <time>2009-05-16T12:48:37Z</time>
      </trkpt>
      <trkpt lat="49.95009" lon="1.50366">
        <ele>137.125244</ele>
        <time>2009-05-16T12:48:41Z</time>
      </trkpt>
      <trkpt lat="49.95056" lon="1.50393">
        <ele>133.760498</ele>
        <time>2009-05-16T12:48:46Z</time>
      </trkpt>
      <trkpt lat="49.95093" lon="1.50417">
        <ele>130.876709</ele>
        <time>2009-05-16T12:48:50Z</time>
      </trkpt>
      <trkpt lat="49.95131" lon="1.50441">
        <ele>128.473389</ele>
        <time>2009-05-16T12:48:54Z</time>
      </trkpt>
      <trkpt lat="49.95177" lon="1.5047">
        <ele>124.628052</ele>
        <time>2009-05-16T12:48:59Z</time>
      </trkpt>
      <trkpt lat="49.95222" lon="1.50504">
        <ele>121.26355</ele>
        <time>2009-05-16T12:49:04Z</time>
      </trkpt>
      <trkpt lat="49.95268" lon="1.50542">
        <ele>117.898804</ele>
        <time>2009-05-16T12:49:09Z</time>
      </trkpt>
      <trkpt lat="49.95278" lon="1.50549">
        <ele>117.898804</ele>
        <time>2009-05-16T12:49:10Z</time>
      </trkpt>
      <trkpt lat="49.95329" lon="1.50573">
        <ele>114.53418</ele>
        <time>2009-05-16T12:49:15Z</time>
      </trkpt>
      <trkpt lat="49.95359" lon="1.50587">
        <ele>113.092285</ele>
        <time>2009-05-16T12:49:18Z</time>
      </trkpt>
      <trkpt lat="49.95396" lon="1.50603">
        <ele>110.688843</ele>
        <time>2009-05-16T12:49:22Z</time>
      </trkpt>
      <trkpt lat="49.95433" lon="1.50613">
        <ele>108.766235</ele>
        <time>2009-05-16T12:49:26Z</time>
      </trkpt>
      <trkpt lat="49.95476" lon="1.50624">
        <ele>105.401733</ele>
        <time>2009-05-16T12:49:31Z</time>
      </trkpt>
      <trkpt lat="49.95527" lon="1.50634">
        <ele>102.037109</ele>
        <time>2009-05-16T12:49:37Z</time>
      </trkpt>
      <trkpt lat="49.95568" lon="1.50644">
        <ele>99.633789</ele>
        <time>2009-05-16T12:49:42Z</time>
      </trkpt>
      <trkpt lat="49.956" lon="1.5065">
        <ele>97.230469</ele>
        <time>2009-05-16T12:49:46Z</time>
      </trkpt>
      <trkpt lat="49.95631" lon="1.50656">
        <ele>94.827148</ele>
        <time>2009-05-16T12:49:50Z</time>
      </trkpt>
      <trkpt lat="49.95714" lon="1.50664">
        <ele>92.42395</ele>
        <time>2009-05-16T12:50:02Z</time>
      </trkpt>
      <trkpt lat="49.95798" lon="1.50673">
        <ele>93.865845</ele>
        <time>2009-05-16T12:50:14Z</time>
      </trkpt>
      <trkpt lat="49.95824" lon="1.50699">
        <ele>94.827148</ele>
        <time>2009-05-16T12:50:18Z</time>
      </trkpt>
      <trkpt lat="49.95852" lon="1.50774">
        <ele>95.788452</ele>
        <time>2009-05-16T12:50:26Z</time>
      </trkpt>
      <trkpt lat="49.95879" lon="1.50852">
        <ele>91.943237</ele>
        <time>2009-05-16T12:50:35Z</time>
      </trkpt>
      <trkpt lat="49.95885" lon="1.50882">
        <ele>90.981934</ele>
        <time>2009-05-16T12:50:38Z</time>
      </trkpt>
      <trkpt lat="49.95901" lon="1.50927">
        <ele>87.617188</ele>
        <time>2009-05-16T12:50:43Z</time>
      </trkpt>
      <trkpt lat="49.95915" lon="1.50983">
        <ele>84.733398</ele>
        <time>2009-05-16T12:50:49Z</time>
      </trkpt>
      <trkpt lat="49.95916" lon="1.50992">
        <ele>84.252686</ele>
        <time>2009-05-16T12:50:50Z</time>
      </trkpt>
      <trkpt lat="49.9592" lon="1.5102">
        <ele>90.501343</ele>
        <time>2009-05-16T12:50:53Z</time>
      </trkpt>
      <trkpt lat="49.95921" lon="1.51029">
        <ele>98.191895</ele>
        <time>2009-05-16T12:50:54Z</time>
      </trkpt>
      <trkpt lat="49.95921" lon="1.51038">
        <ele>110.688843</ele>
        <time>2009-05-16T12:50:55Z</time>
      </trkpt>
      <trkpt lat="49.95922" lon="1.51047">
        <ele>120.302124</ele>
        <time>2009-05-16T12:50:56Z</time>
      </trkpt>
      <trkpt lat="49.95922" lon="1.51057">
        <ele>127.031372</ele>
        <time>2009-05-16T12:50:57Z</time>
      </trkpt>
      <trkpt lat="49.95922" lon="1.51076">
        <ele>134.241211</ele>
        <time>2009-05-16T12:50:59Z</time>
      </trkpt>
      <trkpt lat="49.95922" lon="1.51093">
        <ele>139.528442</ele>
        <time>2009-05-16T12:51:01Z</time>
      </trkpt>
      <trkpt lat="49.95924" lon="1.5112">
        <ele>143.85437</ele>
        <time>2009-05-16T12:51:04Z</time>
      </trkpt>
      <trkpt lat="49.95928" lon="1.51154">
        <ele>146.738403</ele>
        <time>2009-05-16T12:51:08Z</time>
      </trkpt>
      <trkpt lat="49.95928" lon="1.51162">
        <ele>147.699707</ele>
        <time>2009-05-16T12:51:09Z</time>
      </trkpt>
      <trkpt lat="49.95935" lon="1.5129">
        <ele>146.738403</ele>
        <time>2009-05-16T12:51:22Z</time>
      </trkpt>
      <trkpt lat="49.95937" lon="1.51331">
        <ele>144.815796</ele>
        <time>2009-05-16T12:51:26Z</time>
      </trkpt>
      <trkpt lat="49.9594" lon="1.51371">
        <ele>142.412476</ele>
        <time>2009-05-16T12:51:30Z</time>
      </trkpt>
      <trkpt lat="49.95937" lon="1.5142">
        <ele>140.489868</ele>
        <time>2009-05-16T12:51:35Z</time>
      </trkpt>
      <trkpt lat="49.95929" lon="1.5146">
        <ele>138.086548</ele>
        <time>2009-05-16T12:51:39Z</time>
      </trkpt>
      <trkpt lat="49.95905" lon="1.5153">
        <ele>134.241211</ele>
        <time>2009-05-16T12:51:48Z</time>
      </trkpt>
      <trkpt lat="49.959" lon="1.51545">
        <ele>133.279907</ele>
        <time>2009-05-16T12:51:50Z</time>
      </trkpt>
      <trkpt lat="49.95891" lon="1.51565">
        <ele>132.318604</ele>
        <time>2009-05-16T12:51:53Z</time>
      </trkpt>
      <trkpt lat="49.95883" lon="1.51598">
        <ele>129.915283</ele>
        <time>2009-05-16T12:51:57Z</time>
      </trkpt>
      <trkpt lat="49.95874" lon="1.51646">
        <ele>127.992554</ele>
        <time>2009-05-16T12:52:02Z</time>
      </trkpt>
      <trkpt lat="49.9586" lon="1.51725">
        <ele>124.628052</ele>
        <time>2009-05-16T12:52:10Z</time>
      </trkpt>
      <trkpt lat="49.95849" lon="1.51802">
        <ele>122.224731</ele>
        <time>2009-05-16T12:52:17Z</time>
      </trkpt>
      <trkpt lat="49.95862" lon="1.5187">
        <ele>119.821411</ele>
        <time>2009-05-16T12:52:23Z</time>
      </trkpt>
      <trkpt lat="49.95901" lon="1.51944">
        <ele>117.898804</ele>
        <time>2009-05-16T12:52:30Z</time>
      </trkpt>
      <trkpt lat="49.95986" lon="1.52113">
        <ele>114.53418</ele>
        <time>2009-05-16T12:52:44Z</time>
      </trkpt>
      <trkpt lat="49.96069" lon="1.52272">
        <ele>111.650269</ele>
        <time>2009-05-16T12:52:56Z</time>
      </trkpt>
      <trkpt lat="49.96163" lon="1.5243">
        <ele>108.766235</ele>
        <time>2009-05-16T12:53:08Z</time>
      </trkpt>
      <trkpt lat="49.96293" lon="1.52554">
        <ele>105.401733</ele>
        <time>2009-05-16T12:53:20Z</time>
      </trkpt>
      <trkpt lat="49.96412" lon="1.52633">
        <ele>102.037109</ele>
        <time>2009-05-16T12:53:30Z</time>
      </trkpt>
      <trkpt lat="49.96581" lon="1.52733">
        <ele>99.153076</ele>
        <time>2009-05-16T12:53:43Z</time>
      </trkpt>
      <trkpt lat="49.96705" lon="1.52854">
        <ele>96.269287</ele>
        <time>2009-05-16T12:53:54Z</time>
      </trkpt>
      <trkpt lat="49.96821" lon="1.52906">
        <ele>93.865845</ele>
        <time>2009-05-16T12:54:03Z</time>
      </trkpt>
      <trkpt lat="49.96959" lon="1.5301">
        <ele>90.981934</ele>
        <time>2009-05-16T12:54:14Z</time>
      </trkpt>
      <trkpt lat="49.97067" lon="1.53155">
        <ele>88.098022</ele>
        <time>2009-05-16T12:54:24Z</time>
      </trkpt>
      <trkpt lat="49.9713" lon="1.533">
        <ele>84.733398</ele>
        <time>2009-05-16T12:54:32Z</time>
      </trkpt>
      <trkpt lat="49.97147" lon="1.53334">
        <ele>84.252686</ele>
        <time>2009-05-16T12:54:34Z</time>
      </trkpt>
      <trkpt lat="49.97167" lon="1.53361">
        <ele>83.291382</ele>
        <time>2009-05-16T12:54:36Z</time>
      </trkpt>
      <trkpt lat="49.97277" lon="1.53462">
        <ele>79.926636</ele>
        <time>2009-05-16T12:54:46Z</time>
      </trkpt>
      <trkpt lat="49.97378" lon="1.5355">
        <ele>77.042847</ele>
        <time>2009-05-16T12:54:55Z</time>
      </trkpt>
      <trkpt lat="49.97493" lon="1.53633">
        <ele>73.678223</ele>
        <time>2009-05-16T12:55:05Z</time>
      </trkpt>
      <trkpt lat="49.97646" lon="1.53687">
        <ele>71.274902</ele>
        <time>2009-05-16T12:55:18Z</time>
      </trkpt>
      <trkpt lat="49.97751" lon="1.53792">
        <ele>68.390869</ele>
        <time>2009-05-16T12:55:29Z</time>
      </trkpt>
      <trkpt lat="49.97838" lon="1.53889">
        <ele>65.50708</ele>
        <time>2009-05-16T12:55:39Z</time>
      </trkpt>
      <trkpt lat="49.97873" lon="1.53928">
        <ele>63.584351</ele>
        <time>2009-05-16T12:55:43Z</time>
      </trkpt>
      <trkpt lat="49.97943" lon="1.54007">
        <ele>60.700317</ele>
        <time>2009-05-16T12:55:51Z</time>
      </trkpt>
      <trkpt lat="49.98073" lon="1.54151">
        <ele>58.297119</ele>
        <time>2009-05-16T12:56:06Z</time>
      </trkpt>
      <trkpt lat="49.982" lon="1.54297">
        <ele>54.932373</ele>
        <time>2009-05-16T12:56:21Z</time>
      </trkpt>
      <trkpt lat="49.98296" lon="1.54407">
        <ele>52.048584</ele>
        <time>2009-05-16T12:56:32Z</time>
      </trkpt>
      <trkpt lat="49.98383" lon="1.54511">
        <ele>48.68396</ele>
        <time>2009-05-16T12:56:42Z</time>
      </trkpt>
      <trkpt lat="49.98416" lon="1.54585">
        <ele>46.76123</ele>
        <time>2009-05-16T12:56:48Z</time>
      </trkpt>
      <trkpt lat="49.98424" lon="1.54625">
        <ele>45.319214</ele>
        <time>2009-05-16T12:56:53Z</time>
      </trkpt>
      <trkpt lat="49.98435" lon="1.54659">
        <ele>44.838623</ele>
        <time>2009-05-16T12:56:57Z</time>
      </trkpt>
      <trkpt lat="49.98436" lon="1.54764">
        <ele>41.954712</ele>
        <time>2009-05-16T12:57:06Z</time>
      </trkpt>
      <trkpt lat="49.98428" lon="1.54806">
        <ele>40.512817</ele>
        <time>2009-05-16T12:57:10Z</time>
      </trkpt>
      <trkpt lat="49.98398" lon="1.5489">
        <ele>38.590088</ele>
        <time>2009-05-16T12:57:19Z</time>
      </trkpt>
      <trkpt lat="49.9835" lon="1.54954">
        <ele>36.66748</ele>
        <time>2009-05-16T12:57:29Z</time>
      </trkpt>
      <trkpt lat="49.98335" lon="1.54973">
        <ele>36.186768</ele>
        <time>2009-05-16T12:57:33Z</time>
      </trkpt>
      <trkpt lat="49.98332" lon="1.55005">
        <ele>34.26416</ele>
        <time>2009-05-16T12:57:39Z</time>
      </trkpt>
      <trkpt lat="49.98362" lon="1.55054">
        <ele>33.783447</ele>
        <time>2009-05-16T12:57:47Z</time>
      </trkpt>
      <trkpt lat="49.98408" lon="1.55145">
        <ele>32.822266</ele>
        <time>2009-05-16T12:57:59Z</time>
      </trkpt>
      <trkpt lat="49.98459" lon="1.55247">
        <ele>30.418823</ele>
        <time>2009-05-16T12:58:12Z</time>
      </trkpt>
      <trkpt lat="49.98501" lon="1.55327">
        <ele>28.015503</ele>
        <time>2009-05-16T12:58:23Z</time>
      </trkpt>
      <trkpt lat="49.98562" lon="1.55443">
        <ele>25.612305</ele>
        <time>2009-05-16T12:58:39Z</time>
      </trkpt>
      <trkpt lat="49.98577" lon="1.55468">
        <ele>24.651001</ele>
        <time>2009-05-16T12:58:43Z</time>
      </trkpt>
      <trkpt lat="49.98599" lon="1.55511">
        <ele>23.208984</ele>
        <time>2009-05-16T12:58:50Z</time>
      </trkpt>
      <trkpt lat="49.98624" lon="1.55571">
        <ele>21.286377</ele>
        <time>2009-05-16T12:59:00Z</time>
      </trkpt>
      <trkpt lat="49.98678" lon="1.55662">
        <ele>21.286377</ele>
        <time>2009-05-16T12:59:15Z</time>
      </trkpt>
      <trkpt lat="49.98711" lon="1.5571">
        <ele>21.766968</ele>
        <time>2009-05-16T12:59:24Z</time>
      </trkpt>
      <trkpt lat="49.98722" lon="1.55728">
        <ele>20.805664</ele>
        <time>2009-05-16T12:59:27Z</time>
      </trkpt>
      <trkpt lat="49.98758" lon="1.55787">
        <ele>21.286377</ele>
        <time>2009-05-16T12:59:37Z</time>
      </trkpt>
      <trkpt lat="49.98773" lon="1.55813">
        <ele>21.286377</ele>
        <time>2009-05-16T12:59:41Z</time>
      </trkpt>
      <trkpt lat="49.98829" lon="1.55915">
        <ele>18.402344</ele>
        <time>2009-05-16T12:59:57Z</time>
      </trkpt>
      <trkpt lat="49.98872" lon="1.55993">
        <ele>15.03772</ele>
        <time>2009-05-16T13:00:09Z</time>
      </trkpt>
      <trkpt lat="49.98902" lon="1.56033">
        <ele>13.115112</ele>
        <time>2009-05-16T13:00:16Z</time>
      </trkpt>
      <trkpt lat="49.98921" lon="1.56057">
        <ele>11.673218</ele>
        <time>2009-05-16T13:00:20Z</time>
      </trkpt>
      <trkpt lat="49.98974" lon="1.56141">
        <ele>10.231201</ele>
        <time>2009-05-16T13:00:32Z</time>
      </trkpt>
      <trkpt lat="49.98995" lon="1.56177">
        <ele>10.231201</ele>
        <time>2009-05-16T13:00:37Z</time>
      </trkpt>
      <trkpt lat="49.99017" lon="1.56243">
        <ele>8.308594</ele>
        <time>2009-05-16T13:00:46Z</time>
      </trkpt>
      <trkpt lat="49.99002" lon="1.56264">
        <ele>6.385864</ele>
        <time>2009-05-16T13:00:51Z</time>
      </trkpt>
      <trkpt lat="49.98997" lon="1.56271">
        <ele>6.385864</ele>
        <time>2009-05-16T13:00:52Z</time>
      </trkpt>
      <trkpt lat="49.98936" lon="1.56313">
        <ele>3.982666</ele>
        <time>2009-05-16T13:01:02Z</time>
      </trkpt>
      <trkpt lat="49.98919" lon="1.56341">
        <ele>3.02124</ele>
        <time>2009-05-16T13:01:06Z</time>
      </trkpt>
      <trkpt lat="49.98885" lon="1.56427">
        <ele>0.618042</ele>
        <time>2009-05-16T13:01:16Z</time>
      </trkpt>
      <trkpt lat="49.98876" lon="1.5644">
        <ele>-0.343384</ele>
        <time>2009-05-16T13:01:18Z</time>
      </trkpt>
      <trkpt lat="49.98865" lon="1.56452">
        <ele>-0.343384</ele>
        <time>2009-05-16T13:01:20Z</time>
      </trkpt>
      <trkpt lat="49.98823" lon="1.56448">
        <ele>-1.304688</ele>
        <time>2009-05-16T13:01:28Z</time>
      </trkpt>
      <trkpt lat="49.98795" lon="1.56375">
        <ele>-2.746704</ele>
        <time>2009-05-16T13:01:37Z</time>
      </trkpt>
      <trkpt lat="49.98791" lon="1.56349">
        <ele>-3.707886</ele>
        <time>2009-05-16T13:01:40Z</time>
      </trkpt>
      <trkpt lat="49.98788" lon="1.56323">
        <ele>-4.188599</ele>
        <time>2009-05-16T13:01:43Z</time>
      </trkpt>
      <trkpt lat="49.98775" lon="1.56274">
        <ele>-4.669312</ele>
        <time>2009-05-16T13:01:52Z</time>
      </trkpt>
      <trkpt lat="49.98776" lon="1.56282">
        <ele>-5.630493</ele>
        <time>2009-05-16T13:01:59Z</time>
      </trkpt>
      <trkpt lat="49.98777" lon="1.56281">
        <ele>-8.514648</ele>
        <time>2009-05-16T13:02:16Z</time>
      </trkpt>
      <trkpt lat="49.98777" lon="1.56281">
        <ele>-11.87915</ele>
        <time>2009-05-16T13:02:25Z</time>
      </trkpt>
      <trkpt lat="49.98777" lon="1.56281">
        <ele>-15.243652</ele>
        <time>2009-05-16T13:02:36Z</time>
      </trkpt>
      <trkpt lat="49.98777" lon="1.56281">
        <ele>-16.2052</ele>
        <time>2009-05-16T13:02:38Z</time>
      </trkpt>
      <trkpt lat="49.98777" lon="1.56281">
        <ele>-19.088989</ele>
        <time>2009-05-16T13:02:46Z</time>
      </trkpt>
      <trkpt lat="49.98777" lon="1.56281">
        <ele>-20.050415</ele>
        <time>2009-05-16T13:02:48Z</time>
      </trkpt>
      <trkpt lat="49.98777" lon="1.56281">
        <ele>-22.934204</ele>
        <time>2009-05-16T13:02:54Z</time>
      </trkpt>
      <trkpt lat="49.98777" lon="1.56281">
        <ele>-23.89563</ele>
        <time>2009-05-16T13:02:56Z</time>
      </trkpt>
      <trkpt lat="49.98777" lon="1.56281">
        <ele>-25.818359</ele>
        <time>2009-05-16T13:03:00Z</time>
      </trkpt>
      <trkpt lat="49.98777" lon="1.56281">
        <ele>-27.740967</ele>
        <time>2009-05-16T13:03:04Z</time>
      </trkpt>
      <trkpt lat="49.98777" lon="1.56281">
        <ele>-30.624756</ele>
        <time>2009-05-16T13:03:10Z</time>
      </trkpt>
      <trkpt lat="49.98777" lon="1.56281">
        <ele>-33.989502</ele>
        <time>2009-05-16T13:03:17Z</time>
      </trkpt>
      <trkpt lat="49.98777" lon="1.56281">
        <ele>-35.431519</ele>
        <time>2009-05-16T13:03:20Z</time>
      </trkpt>
      <trkpt lat="49.98777" lon="1.56281">
        <ele>-38.796021</ele>
        <time>2009-05-16T13:03:25Z</time>
      </trkpt>
      <trkpt lat="49.98777" lon="1.56281">
        <ele>-40.238037</ele>
        <time>2009-05-16T13:03:28Z</time>
      </trkpt>
      <trkpt lat="49.98777" lon="1.56281">
        <ele>-43.12207</ele>
        <time>2009-05-16T13:03:33Z</time>
      </trkpt>
      <trkpt lat="49.98777" lon="1.56281">
        <ele>-43.602661</ele>
        <time>2009-05-16T13:03:34Z</time>
      </trkpt>
      <trkpt lat="49.98778" lon="1.56289">
        <ele>-47.447876</ele>
        <time>2009-05-16T13:03:40Z</time>
      </trkpt>
      <trkpt lat="49.98778" lon="1.56299">
        <ele>-49.370605</ele>
        <time>2009-05-16T13:03:44Z</time>
      </trkpt>
      <trkpt lat="49.98782" lon="1.56327">
        <ele>-35.912109</ele>
        <time>2009-05-16T13:03:49Z</time>
      </trkpt>
      <trkpt lat="49.98783" lon="1.56332">
        <ele>-23.89563</ele>
        <time>2009-05-16T13:03:50Z</time>
      </trkpt>
      <trkpt lat="49.98784" lon="1.56338">
        <ele>-14.763062</ele>
        <time>2009-05-16T13:03:51Z</time>
      </trkpt>
      <trkpt lat="49.98786" lon="1.56343">
        <ele>-10.437256</ele>
        <time>2009-05-16T13:03:52Z</time>
      </trkpt>
      <trkpt lat="49.98787" lon="1.56349">
        <ele>-3.707886</ele>
        <time>2009-05-16T13:03:53Z</time>
      </trkpt>
      <trkpt lat="49.98788" lon="1.56361">
        <ele>5.905273</ele>
        <time>2009-05-16T13:03:55Z</time>
      </trkpt>
      <trkpt lat="49.98792" lon="1.56376">
        <ele>10.711792</ele>
        <time>2009-05-16T13:03:57Z</time>
      </trkpt>
      <trkpt lat="49.98795" lon="1.5639">
        <ele>14.557007</ele>
        <time>2009-05-16T13:03:59Z</time>
      </trkpt>
      <trkpt lat="49.98801" lon="1.56412">
        <ele>18.883057</ele>
        <time>2009-05-16T13:04:02Z</time>
      </trkpt>
      <trkpt lat="49.98803" lon="1.56419">
        <ele>20.324951</ele>
        <time>2009-05-16T13:04:03Z</time>
      </trkpt>
      <trkpt lat="49.98809" lon="1.56431">
        <ele>21.286377</ele>
        <time>2009-05-16T13:04:05Z</time>
      </trkpt>
      <trkpt lat="49.98816" lon="1.56443">
        <ele>22.247559</ele>
        <time>2009-05-16T13:04:07Z</time>
      </trkpt>
      <trkpt lat="49.98839" lon="1.56501">
        <ele>21.766968</ele>
        <time>2009-05-16T13:04:16Z</time>
      </trkpt>
      <trkpt lat="49.98836" lon="1.56531">
        <ele>21.286377</ele>
        <time>2009-05-16T13:04:21Z</time>
      </trkpt>
      <trkpt lat="49.98811" lon="1.56532">
        <ele>20.805664</ele>
        <time>2009-05-16T13:04:27Z</time>
      </trkpt>
      <trkpt lat="49.98744" lon="1.56444">
        <ele>20.324951</ele>
        <time>2009-05-16T13:04:42Z</time>
      </trkpt>
      <trkpt lat="49.98729" lon="1.56424">
        <ele>20.805664</ele>
        <time>2009-05-16T13:04:46Z</time>
      </trkpt>
      <trkpt lat="49.98704" lon="1.56439">
        <ele>24.651001</ele>
        <time>2009-05-16T13:04:54Z</time>
      </trkpt>
      <trkpt lat="49.9871" lon="1.56473">
        <ele>27.534912</ele>
        <time>2009-05-16T13:04:59Z</time>
      </trkpt>
      <trkpt lat="49.98714" lon="1.56481">
        <ele>27.534912</ele>
        <time>2009-05-16T13:05:00Z</time>
      </trkpt>
      <trkpt lat="49.98748" lon="1.56549">
        <ele>30.899536</ele>
        <time>2009-05-16T13:05:08Z</time>
      </trkpt>
      <trkpt lat="49.98784" lon="1.56609">
        <ele>34.26416</ele>
        <time>2009-05-16T13:05:16Z</time>
      </trkpt>
      <trkpt lat="49.98816" lon="1.56663">
        <ele>37.628662</ele>
        <time>2009-05-16T13:05:24Z</time>
      </trkpt>
      <trkpt lat="49.9882" lon="1.5667">
        <ele>37.628662</ele>
        <time>2009-05-16T13:05:25Z</time>
      </trkpt>
      <trkpt lat="49.98848" lon="1.5671">
        <ele>40.993408</ele>
        <time>2009-05-16T13:05:31Z</time>
      </trkpt>
      <trkpt lat="49.98858" lon="1.56724">
        <ele>41.473999</ele>
        <time>2009-05-16T13:05:33Z</time>
      </trkpt>
      <trkpt lat="49.98895" lon="1.56775">
        <ele>44.838623</ele>
        <time>2009-05-16T13:05:41Z</time>
      </trkpt>
      <trkpt lat="49.98941" lon="1.56838">
        <ele>48.203369</ele>
        <time>2009-05-16T13:05:51Z</time>
      </trkpt>
      <trkpt lat="49.98984" lon="1.56893">
        <ele>51.567871</ele>
        <time>2009-05-16T13:06:00Z</time>
      </trkpt>
      <trkpt lat="49.98989" lon="1.56898">
        <ele>51.567871</ele>
        <time>2009-05-16T13:06:01Z</time>
      </trkpt>
      <trkpt lat="49.9905" lon="1.56967">
        <ele>54.932373</ele>
        <time>2009-05-16T13:06:13Z</time>
      </trkpt>
      <trkpt lat="49.99095" lon="1.57022">
        <ele>57.816528</ele>
        <time>2009-05-16T13:06:23Z</time>
      </trkpt>
      <trkpt lat="49.99137" lon="1.57079">
        <ele>61.18103</ele>
        <time>2009-05-16T13:06:33Z</time>
      </trkpt>
      <trkpt lat="49.9918" lon="1.57154">
        <ele>64.545654</ele>
        <time>2009-05-16T13:06:46Z</time>
      </trkpt>
      <trkpt lat="49.99211" lon="1.57205">
        <ele>67.429688</ele>
        <time>2009-05-16T13:06:56Z</time>
      </trkpt>
      <trkpt lat="49.99275" lon="1.57286">
        <ele>68.390869</ele>
        <time>2009-05-16T13:07:14Z</time>
      </trkpt>
      <trkpt lat="49.99338" lon="1.57361">
        <ele>67.910278</ele>
        <time>2009-05-16T13:07:30Z</time>
      </trkpt>
      <trkpt lat="49.99405" lon="1.57445">
        <ele>71.274902</ele>
        <time>2009-05-16T13:07:44Z</time>
      </trkpt>
      <trkpt lat="49.99456" lon="1.57545">
        <ele>74.158813</ele>
        <time>2009-05-16T13:07:57Z</time>
      </trkpt>
      <trkpt lat="49.99486" lon="1.57665">
        <ele>77.523438</ele>
        <time>2009-05-16T13:08:10Z</time>
      </trkpt>
      <trkpt lat="49.99524" lon="1.57777">
        <ele>80.407471</ele>
        <time>2009-05-16T13:08:22Z</time>
      </trkpt>
      <trkpt lat="49.99566" lon="1.57883">
        <ele>83.771973</ele>
        <time>2009-05-16T13:08:33Z</time>
      </trkpt>
      <trkpt lat="49.99608" lon="1.57967">
        <ele>87.136597</ele>
        <time>2009-05-16T13:08:43Z</time>
      </trkpt>
      <trkpt lat="49.99639" lon="1.58047">
        <ele>90.02063</ele>
        <time>2009-05-16T13:08:53Z</time>
      </trkpt>
      <trkpt lat="49.99653" lon="1.5808">
        <ele>91.462524</ele>
        <time>2009-05-16T13:08:57Z</time>
      </trkpt>
      <trkpt lat="49.99702" lon="1.58151">
        <ele>94.827148</ele>
        <time>2009-05-16T13:09:08Z</time>
      </trkpt>
      <trkpt lat="49.99762" lon="1.58241">
        <ele>97.711182</ele>
        <time>2009-05-16T13:09:21Z</time>
      </trkpt>
      <trkpt lat="49.99773" lon="1.58266">
        <ele>98.672485</ele>
        <time>2009-05-16T13:09:24Z</time>
      </trkpt>
      <trkpt lat="49.9982" lon="1.58371">
        <ele>102.037109</ele>
        <time>2009-05-16T13:09:37Z</time>
      </trkpt>
      <trkpt lat="49.9983" lon="1.58385">
        <ele>102.5177</ele>
        <time>2009-05-16T13:09:39Z</time>
      </trkpt>
      <trkpt lat="49.99895" lon="1.58454">
        <ele>105.882446</ele>
        <time>2009-05-16T13:09:52Z</time>
      </trkpt>
      <trkpt lat="49.99898" lon="1.58459">
        <ele>106.363037</ele>
        <time>2009-05-16T13:09:53Z</time>
      </trkpt>
      <trkpt lat="49.99935" lon="1.58516">
        <ele>108.285645</ele>
        <time>2009-05-16T13:10:04Z</time>
      </trkpt>
      <trkpt lat="49.99934" lon="1.58516">
        <ele>110.208252</ele>
        <time>2009-05-16T13:10:23Z</time>
      </trkpt>
      <trkpt lat="49.99934" lon="1.58516">
        <ele>113.092285</ele>
        <time>2009-05-16T13:11:16Z</time>
      </trkpt>
      <trkpt lat="49.99934" lon="1.58516">
        <ele>115.014893</ele>
        <time>2009-05-16T13:11:40Z</time>
      </trkpt>
      <trkpt lat="49.99947" lon="1.58575">
        <ele>115.495605</ele>
        <time>2009-05-16T13:11:50Z</time>
      </trkpt>
      <trkpt lat="49.99989" lon="1.58718">
        <ele>116.456787</ele>
        <time>2009-05-16T13:12:03Z</time>
      </trkpt>
      <trkpt lat="50.00047" lon="1.58855">
        <ele>118.860107</ele>
        <time>2009-05-16T13:12:18Z</time>
      </trkpt>
      <trkpt lat="50.00122" lon="1.58962">
        <ele>120.782837</ele>
        <time>2009-05-16T13:12:32Z</time>
      </trkpt>
      <trkpt lat="50.00204" lon="1.59109">
        <ele>122.705444</ele>
        <time>2009-05-16T13:12:48Z</time>
      </trkpt>
      <trkpt lat="50.0031" lon="1.59249">
        <ele>125.108765</ele>
        <time>2009-05-16T13:13:05Z</time>
      </trkpt>
      <trkpt lat="50.00413" lon="1.59402">
        <ele>126.069946</ele>
        <time>2009-05-16T13:13:23Z</time>
      </trkpt>
      <trkpt lat="50.00481" lon="1.59533">
        <ele>124.628052</ele>
        <time>2009-05-16T13:13:38Z</time>
      </trkpt>
      <trkpt lat="50.00506" lon="1.59607">
        <ele>121.26355</ele>
        <time>2009-05-16T13:13:45Z</time>
      </trkpt>
      <trkpt lat="50.00513" lon="1.59628">
        <ele>120.302124</ele>
        <time>2009-05-16T13:13:47Z</time>
      </trkpt>
      <trkpt lat="50.0055" lon="1.59719">
        <ele>119.821411</ele>
        <time>2009-05-16T13:13:57Z</time>
      </trkpt>
      <trkpt lat="50.00616" lon="1.59835">
        <ele>121.744141</ele>
        <time>2009-05-16T13:14:10Z</time>
      </trkpt>
      <trkpt lat="50.00692" lon="1.5992">
        <ele>118.860107</ele>
        <time>2009-05-16T13:14:23Z</time>
      </trkpt>
      <trkpt lat="50.00698" lon="1.59925">
        <ele>118.379395</ele>
        <time>2009-05-16T13:14:24Z</time>
      </trkpt>
      <trkpt lat="50.00783" lon="1.60005">
        <ele>117.418213</ele>
        <time>2009-05-16T13:14:39Z</time>
      </trkpt>
      <trkpt lat="50.00833" lon="1.60077">
        <ele>117.418213</ele>
        <time>2009-05-16T13:14:49Z</time>
      </trkpt>
      <trkpt lat="50.00846" lon="1.60113">
        <ele>117.898804</ele>
        <time>2009-05-16T13:14:53Z</time>
      </trkpt>
      <trkpt lat="50.0088" lon="1.60287">
        <ele>117.418213</ele>
        <time>2009-05-16T13:15:09Z</time>
      </trkpt>
      <trkpt lat="50.00935" lon="1.60411">
        <ele>116.9375</ele>
        <time>2009-05-16T13:15:21Z</time>
      </trkpt>
      <trkpt lat="50.0102" lon="1.60581">
        <ele>117.898804</ele>
        <time>2009-05-16T13:15:38Z</time>
      </trkpt>
      <trkpt lat="50.01084" lon="1.60754">
        <ele>117.898804</ele>
        <time>2009-05-16T13:15:54Z</time>
      </trkpt>
      <trkpt lat="50.01111" lon="1.60872">
        <ele>117.418213</ele>
        <time>2009-05-16T13:16:07Z</time>
      </trkpt>
      <trkpt lat="50.0112" lon="1.60871">
        <ele>116.9375</ele>
        <time>2009-05-16T13:16:12Z</time>
      </trkpt>
      <trkpt lat="50.01184" lon="1.60803">
        <ele>116.456787</ele>
        <time>2009-05-16T13:16:26Z</time>
      </trkpt>
      <trkpt lat="50.01197" lon="1.60784">
        <ele>115.976196</ele>
        <time>2009-05-16T13:16:29Z</time>
      </trkpt>
      <trkpt lat="50.01217" lon="1.60732">
        <ele>112.611572</ele>
        <time>2009-05-16T13:16:36Z</time>
      </trkpt>
      <trkpt lat="50.01235" lon="1.60704">
        <ele>110.688843</ele>
        <time>2009-05-16T13:16:41Z</time>
      </trkpt>
      <trkpt lat="50.01248" lon="1.60693">
        <ele>109.246948</ele>
        <time>2009-05-16T13:16:44Z</time>
      </trkpt>
      <trkpt lat="50.01257" lon="1.60685">
        <ele>109.246948</ele>
        <time>2009-05-16T13:16:46Z</time>
      </trkpt>
      <trkpt lat="50.01326" lon="1.60647">
        <ele>108.285645</ele>
        <time>2009-05-16T13:17:02Z</time>
      </trkpt>
      <trkpt lat="50.01366" lon="1.6062">
        <ele>108.766235</ele>
        <time>2009-05-16T13:17:13Z</time>
      </trkpt>
      <trkpt lat="50.01411" lon="1.60608">
        <ele>110.208252</ele>
        <time>2009-05-16T13:17:23Z</time>
      </trkpt>
      <trkpt lat="50.01444" lon="1.606">
        <ele>110.688843</ele>
        <time>2009-05-16T13:17:30Z</time>
      </trkpt>
      <trkpt lat="50.0149" lon="1.60595">
        <ele>112.130981</ele>
        <time>2009-05-16T13:17:40Z</time>
      </trkpt>
      <trkpt lat="50.01542" lon="1.60614">
        <ele>110.208252</ele>
        <time>2009-05-16T13:17:51Z</time>
      </trkpt>
      <trkpt lat="50.01556" lon="1.60616">
        <ele>109.246948</ele>
        <time>2009-05-16T13:17:54Z</time>
      </trkpt>
      <trkpt lat="50.01628" lon="1.60608">
        <ele>106.843628</ele>
        <time>2009-05-16T13:18:11Z</time>
      </trkpt>
      <trkpt lat="50.01685" lon="1.60612">
        <ele>103.959717</ele>
        <time>2009-05-16T13:18:26Z</time>
      </trkpt>
      <trkpt lat="50.01748" lon="1.60635">
        <ele>102.5177</ele>
        <time>2009-05-16T13:18:44Z</time>
      </trkpt>
      <trkpt lat="50.01803" lon="1.60655">
        <ele>101.556396</ele>
        <time>2009-05-16T13:19:00Z</time>
      </trkpt>
      <trkpt lat="50.01852" lon="1.6067">
        <ele>100.114502</ele>
        <time>2009-05-16T13:19:14Z</time>
      </trkpt>
      <trkpt lat="50.019" lon="1.60688">
        <ele>100.114502</ele>
        <time>2009-05-16T13:19:28Z</time>
      </trkpt>
      <trkpt lat="50.01943" lon="1.60705">
        <ele>100.114502</ele>
        <time>2009-05-16T13:19:43Z</time>
      </trkpt>
      <trkpt lat="50.01976" lon="1.60734">
        <ele>99.633789</ele>
        <time>2009-05-16T13:19:55Z</time>
      </trkpt>
      <trkpt lat="50.01991" lon="1.60749">
        <ele>99.633789</ele>
        <time>2009-05-16T13:20:01Z</time>
      </trkpt>
      <trkpt lat="50.0204" lon="1.60792">
        <ele>100.114502</ele>
        <time>2009-05-16T13:20:14Z</time>
      </trkpt>
      <trkpt lat="50.02094" lon="1.60828">
        <ele>101.075684</ele>
        <time>2009-05-16T13:20:29Z</time>
      </trkpt>
      <trkpt lat="50.02139" lon="1.60858">
        <ele>102.037109</ele>
        <time>2009-05-16T13:20:42Z</time>
      </trkpt>
      <trkpt lat="50.02197" lon="1.60907">
        <ele>102.5177</ele>
        <time>2009-05-16T13:20:58Z</time>
      </trkpt>
      <trkpt lat="50.02252" lon="1.60965">
        <ele>102.5177</ele>
        <time>2009-05-16T13:21:13Z</time>
      </trkpt>
      <trkpt lat="50.02259" lon="1.60974">
        <ele>102.998291</ele>
        <time>2009-05-16T13:21:15Z</time>
      </trkpt>
      <trkpt lat="50.0231" lon="1.61029">
        <ele>103.479004</ele>
        <time>2009-05-16T13:21:28Z</time>
      </trkpt>
      <trkpt lat="50.02369" lon="1.61105">
        <ele>103.479004</ele>
        <time>2009-05-16T13:21:42Z</time>
      </trkpt>
      <trkpt lat="50.02436" lon="1.61199">
        <ele>104.44043</ele>
        <time>2009-05-16T13:21:58Z</time>
      </trkpt>
      <trkpt lat="50.02493" lon="1.61259">
        <ele>105.882446</ele>
        <time>2009-05-16T13:22:12Z</time>
      </trkpt>
      <trkpt lat="50.02555" lon="1.61305">
        <ele>105.401733</ele>
        <time>2009-05-16T13:22:28Z</time>
      </trkpt>
      <trkpt lat="50.02628" lon="1.61363">
        <ele>103.479004</ele>
        <time>2009-05-16T13:22:43Z</time>
      </trkpt>
      <trkpt lat="50.0268" lon="1.6144">
        <ele>102.5177</ele>
        <time>2009-05-16T13:22:55Z</time>
      </trkpt>
      <trkpt lat="50.02737" lon="1.61538">
        <ele>102.998291</ele>
        <time>2009-05-16T13:23:10Z</time>
      </trkpt>
      <trkpt lat="50.02749" lon="1.61556">
        <ele>102.998291</ele>
        <time>2009-05-16T13:23:13Z</time>
      </trkpt>
      <trkpt lat="50.02817" lon="1.61606">
        <ele>103.959717</ele>
        <time>2009-05-16T13:23:27Z</time>
      </trkpt>
      <trkpt lat="50.02903" lon="1.61659">
        <ele>103.959717</ele>
        <time>2009-05-16T13:23:44Z</time>
      </trkpt>
      <trkpt lat="50.02973" lon="1.61699">
        <ele>103.479004</ele>
        <time>2009-05-16T13:23:57Z</time>
      </trkpt>
      <trkpt lat="50.03053" lon="1.61738">
        <ele>104.921021</ele>
        <time>2009-05-16T13:24:11Z</time>
      </trkpt>
      <trkpt lat="50.03141" lon="1.61785">
        <ele>107.324341</ele>
        <time>2009-05-16T13:24:26Z</time>
      </trkpt>
      <trkpt lat="50.03206" lon="1.61825">
        <ele>109.246948</ele>
        <time>2009-05-16T13:24:39Z</time>
      </trkpt>
      <trkpt lat="50.0321" lon="1.61829">
        <ele>109.246948</ele>
        <time>2009-05-16T13:24:40Z</time>
      </trkpt>
      <trkpt lat="50.03223" lon="1.6183">
        <ele>109.246948</ele>
        <time>2009-05-16T13:24:43Z</time>
      </trkpt>
      <trkpt lat="50.03292" lon="1.61823">
        <ele>111.169556</ele>
        <time>2009-05-16T13:24:55Z</time>
      </trkpt>
      <trkpt lat="50.03317" lon="1.61824">
        <ele>111.650269</ele>
        <time>2009-05-16T13:24:59Z</time>
      </trkpt>
      <trkpt lat="50.03336" lon="1.61861">
        <ele>112.611572</ele>
        <time>2009-05-16T13:25:05Z</time>
      </trkpt>
      <trkpt lat="50.03333" lon="1.61944">
        <ele>114.53418</ele>
        <time>2009-05-16T13:25:13Z</time>
      </trkpt>
      <trkpt lat="50.03355" lon="1.62028">
        <ele>115.976196</ele>
        <time>2009-05-16T13:25:22Z</time>
      </trkpt>
      <trkpt lat="50.03395" lon="1.62158">
        <ele>118.860107</ele>
        <time>2009-05-16T13:25:36Z</time>
      </trkpt>
      <trkpt lat="50.03422" lon="1.62239">
        <ele>120.302124</ele>
        <time>2009-05-16T13:25:45Z</time>
      </trkpt>
      <trkpt lat="50.03456" lon="1.62337">
        <ele>121.744141</ele>
        <time>2009-05-16T13:25:56Z</time>
      </trkpt>
      <trkpt lat="50.03486" lon="1.62491">
        <ele>123.666748</ele>
        <time>2009-05-16T13:26:12Z</time>
      </trkpt>
      <trkpt lat="50.03515" lon="1.62588">
        <ele>124.628052</ele>
        <time>2009-05-16T13:26:22Z</time>
      </trkpt>
      <trkpt lat="50.03577" lon="1.62689">
        <ele>126.069946</ele>
        <time>2009-05-16T13:26:35Z</time>
      </trkpt>
      <trkpt lat="50.0366" lon="1.6275">
        <ele>127.031372</ele>
        <time>2009-05-16T13:26:48Z</time>
      </trkpt>
      <trkpt lat="50.03785" lon="1.62849">
        <ele>127.992554</ele>
        <time>2009-05-16T13:27:06Z</time>
      </trkpt>
      <trkpt lat="50.03914" lon="1.62934">
        <ele>128.954102</ele>
        <time>2009-05-16T13:27:23Z</time>
      </trkpt>
      <trkpt lat="50.04058" lon="1.62974">
        <ele>130.395996</ele>
        <time>2009-05-16T13:27:41Z</time>
      </trkpt>
      <trkpt lat="50.04189" lon="1.63022">
        <ele>130.876709</ele>
        <time>2009-05-16T13:27:58Z</time>
      </trkpt>
      <trkpt lat="50.04314" lon="1.63077">
        <ele>131.837891</ele>
        <time>2009-05-16T13:28:14Z</time>
      </trkpt>
      <trkpt lat="50.04416" lon="1.63172">
        <ele>131.837891</ele>
        <time>2009-05-16T13:28:28Z</time>
      </trkpt>
      <trkpt lat="50.04539" lon="1.63292">
        <ele>131.837891</ele>
        <time>2009-05-16T13:28:45Z</time>
      </trkpt>
      <trkpt lat="50.04662" lon="1.63435">
        <ele>131.3573</ele>
        <time>2009-05-16T13:29:03Z</time>
      </trkpt>
      <trkpt lat="50.04767" lon="1.63563">
        <ele>131.3573</ele>
        <time>2009-05-16T13:29:19Z</time>
      </trkpt>
      <trkpt lat="50.04881" lon="1.63637">
        <ele>131.3573</ele>
        <time>2009-05-16T13:29:33Z</time>
      </trkpt>
      <trkpt lat="50.05014" lon="1.63661">
        <ele>131.3573</ele>
        <time>2009-05-16T13:29:48Z</time>
      </trkpt>
      <trkpt lat="50.05046" lon="1.63684">
        <ele>131.3573</ele>
        <time>2009-05-16T13:29:52Z</time>
      </trkpt>
      <trkpt lat="50.05136" lon="1.63777">
        <ele>131.3573</ele>
        <time>2009-05-16T13:30:05Z</time>
      </trkpt>
      <trkpt lat="50.05224" lon="1.63808">
        <ele>131.3573</ele>
        <time>2009-05-16T13:30:17Z</time>
      </trkpt>
      <trkpt lat="50.05252" lon="1.63824">
        <ele>131.3573</ele>
        <time>2009-05-16T13:30:24Z</time>
      </trkpt>
      <trkpt lat="50.05325" lon="1.63856">
        <ele>130.395996</ele>
        <time>2009-05-16T13:30:34Z</time>
      </trkpt>
      <trkpt lat="50.05447" lon="1.63918">
        <ele>130.395996</ele>
        <time>2009-05-16T13:30:49Z</time>
      </trkpt>
      <trkpt lat="50.0553" lon="1.64007">
        <ele>129.915283</ele>
        <time>2009-05-16T13:31:01Z</time>
      </trkpt>
      <trkpt lat="50.05608" lon="1.64109">
        <ele>129.434692</ele>
        <time>2009-05-16T13:31:14Z</time>
      </trkpt>
      <trkpt lat="50.05652" lon="1.6415">
        <ele>128.473389</ele>
        <time>2009-05-16T13:31:21Z</time>
      </trkpt>
      <trkpt lat="50.05698" lon="1.64168">
        <ele>128.473389</ele>
        <time>2009-05-16T13:31:27Z</time>
      </trkpt>
      <trkpt lat="50.05781" lon="1.6418">
        <ele>128.954102</ele>
        <time>2009-05-16T13:31:38Z</time>
      </trkpt>
      <trkpt lat="50.05839" lon="1.64177">
        <ele>129.434692</ele>
        <time>2009-05-16T13:31:45Z</time>
      </trkpt>
      <trkpt lat="50.05869" lon="1.64195">
        <ele>129.434692</ele>
        <time>2009-05-16T13:31:49Z</time>
      </trkpt>
      <trkpt lat="50.05919" lon="1.64258">
        <ele>129.915283</ele>
        <time>2009-05-16T13:31:57Z</time>
      </trkpt>
      <trkpt lat="50.05998" lon="1.64367">
        <ele>129.915283</ele>
        <time>2009-05-16T13:32:10Z</time>
      </trkpt>
      <trkpt lat="50.06078" lon="1.6446">
        <ele>129.915283</ele>
        <time>2009-05-16T13:32:22Z</time>
      </trkpt>
      <trkpt lat="50.06178" lon="1.64568">
        <ele>130.395996</ele>
        <time>2009-05-16T13:32:37Z</time>
      </trkpt>
      <trkpt lat="50.06204" lon="1.64594">
        <ele>130.876709</ele>
        <time>2009-05-16T13:32:41Z</time>
      </trkpt>
      <trkpt lat="50.06236" lon="1.64611">
        <ele>130.876709</ele>
        <time>2009-05-16T13:32:45Z</time>
      </trkpt>
      <trkpt lat="50.06325" lon="1.64642">
        <ele>131.3573</ele>
        <time>2009-05-16T13:32:56Z</time>
      </trkpt>
      <trkpt lat="50.06344" lon="1.64659">
        <ele>131.3573</ele>
        <time>2009-05-16T13:32:59Z</time>
      </trkpt>
      <trkpt lat="50.0636" lon="1.64703">
        <ele>131.3573</ele>
        <time>2009-05-16T13:33:04Z</time>
      </trkpt>
      <trkpt lat="50.06408" lon="1.64765">
        <ele>131.3573</ele>
        <time>2009-05-16T13:33:12Z</time>
      </trkpt>
      <trkpt lat="50.06432" lon="1.64771">
        <ele>128.473389</ele>
        <time>2009-05-16T13:33:15Z</time>
      </trkpt>
      <trkpt lat="50.0644" lon="1.64773">
        <ele>128.954102</ele>
        <time>2009-05-16T13:33:16Z</time>
      </trkpt>
      <trkpt lat="50.06535" lon="1.64843">
        <ele>129.434692</ele>
        <time>2009-05-16T13:33:29Z</time>
      </trkpt>
      <trkpt lat="50.06549" lon="1.64857">
        <ele>128.954102</ele>
        <time>2009-05-16T13:33:31Z</time>
      </trkpt>
      <trkpt lat="50.06633" lon="1.64966">
        <ele>128.954102</ele>
        <time>2009-05-16T13:33:44Z</time>
      </trkpt>
      <trkpt lat="50.06743" lon="1.65122">
        <ele>128.473389</ele>
        <time>2009-05-16T13:34:01Z</time>
      </trkpt>
      <trkpt lat="50.0678" lon="1.65177">
        <ele>128.473389</ele>
        <time>2009-05-16T13:34:07Z</time>
      </trkpt>
      <trkpt lat="50.06827" lon="1.65194">
        <ele>127.992554</ele>
        <time>2009-05-16T13:34:13Z</time>
      </trkpt>
      <trkpt lat="50.06963" lon="1.65162">
        <ele>127.992554</ele>
        <time>2009-05-16T13:34:29Z</time>
      </trkpt>
      <trkpt lat="50.07076" lon="1.65174">
        <ele>127.511963</ele>
        <time>2009-05-16T13:34:42Z</time>
      </trkpt>
      <trkpt lat="50.07196" lon="1.65224">
        <ele>124.628052</ele>
        <time>2009-05-16T13:34:56Z</time>
      </trkpt>
      <trkpt lat="50.0728" lon="1.65271">
        <ele>121.744141</ele>
        <time>2009-05-16T13:35:06Z</time>
      </trkpt>
      <trkpt lat="50.07321" lon="1.65303">
        <ele>118.379395</ele>
        <time>2009-05-16T13:35:11Z</time>
      </trkpt>
      <trkpt lat="50.07365" lon="1.6534">
        <ele>115.014893</ele>
        <time>2009-05-16T13:35:16Z</time>
      </trkpt>
      <trkpt lat="50.07383" lon="1.65356">
        <ele>114.53418</ele>
        <time>2009-05-16T13:35:18Z</time>
      </trkpt>
      <trkpt lat="50.07441" lon="1.65421">
        <ele>111.169556</ele>
        <time>2009-05-16T13:35:25Z</time>
      </trkpt>
      <trkpt lat="50.07449" lon="1.65431">
        <ele>110.688843</ele>
        <time>2009-05-16T13:35:26Z</time>
      </trkpt>
      <trkpt lat="50.07465" lon="1.65451">
        <ele>109.727661</ele>
        <time>2009-05-16T13:35:28Z</time>
      </trkpt>
      <trkpt lat="50.07482" lon="1.65467">
        <ele>109.246948</ele>
        <time>2009-05-16T13:35:30Z</time>
      </trkpt>
      <trkpt lat="50.07536" lon="1.65503">
        <ele>106.363037</ele>
        <time>2009-05-16T13:35:36Z</time>
      </trkpt>
      <trkpt lat="50.07554" lon="1.65515">
        <ele>105.401733</ele>
        <time>2009-05-16T13:35:38Z</time>
      </trkpt>
      <trkpt lat="50.07614" lon="1.65555">
        <ele>102.037109</ele>
        <time>2009-05-16T13:35:45Z</time>
      </trkpt>
      <trkpt lat="50.07686" lon="1.65573">
        <ele>99.633789</ele>
        <time>2009-05-16T13:35:53Z</time>
      </trkpt>
      <trkpt lat="50.07711" lon="1.65578">
        <ele>98.191895</ele>
        <time>2009-05-16T13:35:56Z</time>
      </trkpt>
      <trkpt lat="50.07808" lon="1.65577">
        <ele>99.633789</ele>
        <time>2009-05-16T13:36:08Z</time>
      </trkpt>
      <trkpt lat="50.07903" lon="1.65585">
        <ele>101.556396</ele>
        <time>2009-05-16T13:36:20Z</time>
      </trkpt>
      <trkpt lat="50.0801" lon="1.65652">
        <ele>100.595093</ele>
        <time>2009-05-16T13:36:32Z</time>
      </trkpt>
      <trkpt lat="50.08094" lon="1.65724">
        <ele>97.230469</ele>
        <time>2009-05-16T13:36:41Z</time>
      </trkpt>
      <trkpt lat="50.08153" lon="1.65792">
        <ele>93.865845</ele>
        <time>2009-05-16T13:36:49Z</time>
      </trkpt>
      <trkpt lat="50.08175" lon="1.65816">
        <ele>90.501343</ele>
        <time>2009-05-16T13:36:55Z</time>
      </trkpt>
      <trkpt lat="50.08183" lon="1.65816">
        <ele>89.539917</ele>
        <time>2009-05-16T13:36:58Z</time>
      </trkpt>
      <trkpt lat="50.08187" lon="1.65812">
        <ele>89.539917</ele>
        <time>2009-05-16T13:36:59Z</time>
      </trkpt>
      <trkpt lat="50.08193" lon="1.65803">
        <ele>89.059326</ele>
        <time>2009-05-16T13:37:01Z</time>
      </trkpt>
      <trkpt lat="50.08247" lon="1.65738">
        <ele>87.136597</ele>
        <time>2009-05-16T13:37:14Z</time>
      </trkpt>
      <trkpt lat="50.08257" lon="1.65722">
        <ele>85.69458</ele>
        <time>2009-05-16T13:37:17Z</time>
      </trkpt>
      <trkpt lat="50.0828" lon="1.65736">
        <ele>83.771973</ele>
        <time>2009-05-16T13:37:23Z</time>
      </trkpt>
      <trkpt lat="50.08298" lon="1.65789">
        <ele>81.849365</ele>
        <time>2009-05-16T13:37:29Z</time>
      </trkpt>
      <trkpt lat="50.08305" lon="1.65807">
        <ele>80.888184</ele>
        <time>2009-05-16T13:37:31Z</time>
      </trkpt>
      <trkpt lat="50.0832" lon="1.6584">
        <ele>78.484741</ele>
        <time>2009-05-16T13:37:35Z</time>
      </trkpt>
      <trkpt lat="50.08351" lon="1.659">
        <ele>75.60083</ele>
        <time>2009-05-16T13:37:43Z</time>
      </trkpt>
      <trkpt lat="50.08368" lon="1.65942">
        <ele>72.236206</ele>
        <time>2009-05-16T13:37:48Z</time>
      </trkpt>
      <trkpt lat="50.08392" lon="1.66002">
        <ele>68.871582</ele>
        <time>2009-05-16T13:37:54Z</time>
      </trkpt>
      <trkpt lat="50.08401" lon="1.66022">
        <ele>67.910278</ele>
        <time>2009-05-16T13:37:56Z</time>
      </trkpt>
      <trkpt lat="50.08433" lon="1.66064">
        <ele>64.545654</ele>
        <time>2009-05-16T13:38:02Z</time>
      </trkpt>
      <trkpt lat="50.0845" lon="1.66074">
        <ele>63.103638</ele>
        <time>2009-05-16T13:38:05Z</time>
      </trkpt>
      <trkpt lat="50.08529" lon="1.66098">
        <ele>60.219727</ele>
        <time>2009-05-16T13:38:19Z</time>
      </trkpt>
      <trkpt lat="50.08554" lon="1.66101">
        <ele>60.219727</ele>
        <time>2009-05-16T13:38:26Z</time>
      </trkpt>
      <trkpt lat="50.08618" lon="1.66126">
        <ele>59.739136</ele>
        <time>2009-05-16T13:38:37Z</time>
      </trkpt>
      <trkpt lat="50.08708" lon="1.66155">
        <ele>58.77771</ele>
        <time>2009-05-16T13:38:51Z</time>
      </trkpt>
      <trkpt lat="50.0879" lon="1.6617">
        <ele>58.77771</ele>
        <time>2009-05-16T13:39:02Z</time>
      </trkpt>
      <trkpt lat="50.08905" lon="1.66224">
        <ele>57.335815</ele>
        <time>2009-05-16T13:39:17Z</time>
      </trkpt>
      <trkpt lat="50.0892" lon="1.66234">
        <ele>56.374512</ele>
        <time>2009-05-16T13:39:19Z</time>
      </trkpt>
      <trkpt lat="50.08947" lon="1.66254">
        <ele>54.932373</ele>
        <time>2009-05-16T13:39:23Z</time>
      </trkpt>
      <trkpt lat="50.08975" lon="1.66273">
        <ele>53.009766</ele>
        <time>2009-05-16T13:39:27Z</time>
      </trkpt>
      <trkpt lat="50.0903" lon="1.66312">
        <ele>49.645264</ele>
        <time>2009-05-16T13:39:35Z</time>
      </trkpt>
      <trkpt lat="50.0913" lon="1.66389">
        <ele>48.68396</ele>
        <time>2009-05-16T13:39:50Z</time>
      </trkpt>
      <trkpt lat="50.09197" lon="1.66443">
        <ele>45.799927</ele>
        <time>2009-05-16T13:40:00Z</time>
      </trkpt>
      <trkpt lat="50.09225" lon="1.66465">
        <ele>43.877319</ele>
        <time>2009-05-16T13:40:04Z</time>
      </trkpt>
      <trkpt lat="50.0929" lon="1.66512">
        <ele>40.512817</ele>
        <time>2009-05-16T13:40:13Z</time>
      </trkpt>
      <trkpt lat="50.09348" lon="1.66556">
        <ele>37.628662</ele>
        <time>2009-05-16T13:40:21Z</time>
      </trkpt>
      <trkpt lat="50.09389" lon="1.66593">
        <ele>34.26416</ele>
        <time>2009-05-16T13:40:27Z</time>
      </trkpt>
      <trkpt lat="50.09446" lon="1.66647">
        <ele>30.899536</ele>
        <time>2009-05-16T13:40:35Z</time>
      </trkpt>
      <trkpt lat="50.09452" lon="1.66653">
        <ele>30.899536</ele>
        <time>2009-05-16T13:40:36Z</time>
      </trkpt>
      <trkpt lat="50.09549" lon="1.66748">
        <ele>31.380127</ele>
        <time>2009-05-16T13:40:51Z</time>
      </trkpt>
      <trkpt lat="50.0964" lon="1.66839">
        <ele>28.015503</ele>
        <time>2009-05-16T13:41:04Z</time>
      </trkpt>
      <trkpt lat="50.0972" lon="1.66898">
        <ele>31.860718</ele>
        <time>2009-05-16T13:41:14Z</time>
      </trkpt>
      <trkpt lat="50.09734" lon="1.6691">
        <ele>34.744873</ele>
        <time>2009-05-16T13:41:16Z</time>
      </trkpt>
      <trkpt lat="50.09765" lon="1.66935">
        <ele>38.109375</ele>
        <time>2009-05-16T13:41:20Z</time>
      </trkpt>
      <trkpt lat="50.0986" lon="1.66999">
        <ele>38.109375</ele>
        <time>2009-05-16T13:41:32Z</time>
      </trkpt>
      <trkpt lat="50.09978" lon="1.67058">
        <ele>37.148071</ele>
        <time>2009-05-16T13:41:47Z</time>
      </trkpt>
      <trkpt lat="50.10095" lon="1.67122">
        <ele>36.66748</ele>
        <time>2009-05-16T13:42:02Z</time>
      </trkpt>
      <trkpt lat="50.1018" lon="1.67198">
        <ele>34.744873</ele>
        <time>2009-05-16T13:42:14Z</time>
      </trkpt>
      <trkpt lat="50.10253" lon="1.67326">
        <ele>34.26416</ele>
        <time>2009-05-16T13:42:27Z</time>
      </trkpt>
      <trkpt lat="50.10335" lon="1.67473">
        <ele>34.26416</ele>
        <time>2009-05-16T13:42:43Z</time>
      </trkpt>
      <trkpt lat="50.10407" lon="1.67668">
        <ele>32.341553</ele>
        <time>2009-05-16T13:43:02Z</time>
      </trkpt>
      <trkpt lat="50.10479" lon="1.67823">
        <ele>29.93811</ele>
        <time>2009-05-16T13:43:17Z</time>
      </trkpt>
      <trkpt lat="50.10564" lon="1.67988">
        <ele>27.054321</ele>
        <time>2009-05-16T13:43:32Z</time>
      </trkpt>
      <trkpt lat="50.10641" lon="1.68141">
        <ele>25.612305</ele>
        <time>2009-05-16T13:43:46Z</time>
      </trkpt>
      <trkpt lat="50.10689" lon="1.68226">
        <ele>26.573608</ele>
        <time>2009-05-16T13:43:55Z</time>
      </trkpt>
      <trkpt lat="50.10761" lon="1.68274">
        <ele>29.45752</ele>
        <time>2009-05-16T13:44:06Z</time>
      </trkpt>
      <trkpt lat="50.10782" lon="1.68301">
        <ele>30.418823</ele>
        <time>2009-05-16T13:44:10Z</time>
      </trkpt>
      <trkpt lat="50.10846" lon="1.68433">
        <ele>28.976929</ele>
        <time>2009-05-16T13:44:24Z</time>
      </trkpt>
      <trkpt lat="50.1091" lon="1.68571">
        <ele>29.45752</ele>
        <time>2009-05-16T13:44:38Z</time>
      </trkpt>
      <trkpt lat="50.10948" lon="1.68653">
        <ele>29.45752</ele>
        <time>2009-05-16T13:44:47Z</time>
      </trkpt>
      <trkpt lat="50.11006" lon="1.68755">
        <ele>28.976929</ele>
        <time>2009-05-16T13:44:58Z</time>
      </trkpt>
      <trkpt lat="50.1108" lon="1.68859">
        <ele>29.45752</ele>
        <time>2009-05-16T13:45:11Z</time>
      </trkpt>
      <trkpt lat="50.11131" lon="1.68993">
        <ele>30.418823</ele>
        <time>2009-05-16T13:45:24Z</time>
      </trkpt>
      <trkpt lat="50.11175" lon="1.69131">
        <ele>31.380127</ele>
        <time>2009-05-16T13:45:38Z</time>
      </trkpt>
      <trkpt lat="50.11207" lon="1.69228">
        <ele>30.418823</ele>
        <time>2009-05-16T13:45:50Z</time>
      </trkpt>
      <trkpt lat="50.11208" lon="1.69232">
        <ele>30.418823</ele>
        <time>2009-05-16T13:45:51Z</time>
      </trkpt>
      <trkpt lat="50.11201" lon="1.69281">
        <ele>30.418823</ele>
        <time>2009-05-16T13:45:59Z</time>
      </trkpt>
      <trkpt lat="50.11186" lon="1.69399">
        <ele>30.418823</ele>
        <time>2009-05-16T13:46:11Z</time>
      </trkpt>
      <trkpt lat="50.11177" lon="1.69563">
        <ele>28.976929</ele>
        <time>2009-05-16T13:46:25Z</time>
      </trkpt>
      <trkpt lat="50.11168" lon="1.69733">
        <ele>27.054321</ele>
        <time>2009-05-16T13:46:39Z</time>
      </trkpt>
      <trkpt lat="50.11167" lon="1.6984">
        <ele>24.170288</ele>
        <time>2009-05-16T13:46:47Z</time>
      </trkpt>
      <trkpt lat="50.11209" lon="1.69982">
        <ele>21.766968</ele>
        <time>2009-05-16T13:46:59Z</time>
      </trkpt>
      <trkpt lat="50.11264" lon="1.70147">
        <ele>21.286377</ele>
        <time>2009-05-16T13:47:15Z</time>
      </trkpt>
      <trkpt lat="50.11269" lon="1.70183">
        <ele>21.286377</ele>
        <time>2009-05-16T13:47:18Z</time>
      </trkpt>
      <trkpt lat="50.11323" lon="1.70312">
        <ele>21.286377</ele>
        <time>2009-05-16T13:47:31Z</time>
      </trkpt>
      <trkpt lat="50.11387" lon="1.70451">
        <ele>23.208984</ele>
        <time>2009-05-16T13:47:46Z</time>
      </trkpt>
      <trkpt lat="50.11435" lon="1.70556">
        <ele>22.728271</ele>
        <time>2009-05-16T13:47:57Z</time>
      </trkpt>
      <trkpt lat="50.11453" lon="1.70696">
        <ele>19.84436</ele>
        <time>2009-05-16T13:48:08Z</time>
      </trkpt>
      <trkpt lat="50.11497" lon="1.70856">
        <ele>18.883057</ele>
        <time>2009-05-16T13:48:21Z</time>
      </trkpt>
      <trkpt lat="50.11552" lon="1.71031">
        <ele>18.883057</ele>
        <time>2009-05-16T13:48:37Z</time>
      </trkpt>
      <trkpt lat="50.11587" lon="1.71179">
        <ele>17.441162</ele>
        <time>2009-05-16T13:48:50Z</time>
      </trkpt>
      <trkpt lat="50.11623" lon="1.71324">
        <ele>15.03772</ele>
        <time>2009-05-16T13:49:02Z</time>
      </trkpt>
      <trkpt lat="50.11677" lon="1.71507">
        <ele>12.153809</ele>
        <time>2009-05-16T13:49:17Z</time>
      </trkpt>
      <trkpt lat="50.11732" lon="1.71632">
        <ele>9.269897</ele>
        <time>2009-05-16T13:49:28Z</time>
      </trkpt>
      <trkpt lat="50.11741" lon="1.71712">
        <ele>5.424561</ele>
        <time>2009-05-16T13:49:33Z</time>
      </trkpt>
      <trkpt lat="50.11734" lon="1.71745">
        <ele>2.060059</ele>
        <time>2009-05-16T13:49:35Z</time>
      </trkpt>
      <trkpt lat="50.11737" lon="1.71833">
        <ele>-1.785278</ele>
        <time>2009-05-16T13:49:40Z</time>
      </trkpt>
      <trkpt lat="50.11768" lon="1.71916">
        <ele>-5.630493</ele>
        <time>2009-05-16T13:49:45Z</time>
      </trkpt>
      <trkpt lat="50.11795" lon="1.71983">
        <ele>-8.995239</ele>
        <time>2009-05-16T13:49:49Z</time>
      </trkpt>
      <trkpt lat="50.11829" lon="1.72063">
        <ele>-12.359863</ele>
        <time>2009-05-16T13:49:54Z</time>
      </trkpt>
      <trkpt lat="50.1185" lon="1.72148">
        <ele>-13.801758</ele>
        <time>2009-05-16T13:49:59Z</time>
      </trkpt>
      <trkpt lat="50.11892" lon="1.72215">
        <ele>-12.359863</ele>
        <time>2009-05-16T13:50:06Z</time>
      </trkpt>
      <trkpt lat="50.11899" lon="1.72218">
        <ele>-11.87915</ele>
        <time>2009-05-16T13:50:07Z</time>
      </trkpt>
      <trkpt lat="50.1193" lon="1.72233">
        <ele>-11.398438</ele>
        <time>2009-05-16T13:50:11Z</time>
      </trkpt>
      <trkpt lat="50.11947" lon="1.72243">
        <ele>-11.87915</ele>
        <time>2009-05-16T13:50:13Z</time>
      </trkpt>
      <trkpt lat="50.12037" lon="1.72332">
        <ele>-14.763062</ele>
        <time>2009-05-16T13:50:25Z</time>
      </trkpt>
      <trkpt lat="50.12107" lon="1.72401">
        <ele>-16.2052</ele>
        <time>2009-05-16T13:50:34Z</time>
      </trkpt>
      <trkpt lat="50.1214" lon="1.72419">
        <ele>-17.166382</ele>
        <time>2009-05-16T13:50:38Z</time>
      </trkpt>
      <trkpt lat="50.12168" lon="1.72423">
        <ele>-17.647095</ele>
        <time>2009-05-16T13:50:41Z</time>
      </trkpt>
      <trkpt lat="50.12283" lon="1.72505">
        <ele>-18.608398</ele>
        <time>2009-05-16T13:50:55Z</time>
      </trkpt>
      <trkpt lat="50.12327" lon="1.72571">
        <ele>-19.088989</ele>
        <time>2009-05-16T13:51:02Z</time>
      </trkpt>
      <trkpt lat="50.12387" lon="1.72744">
        <ele>-20.531006</ele>
        <time>2009-05-16T13:51:17Z</time>
      </trkpt>
      <trkpt lat="50.12454" lon="1.72867">
        <ele>-21.011597</ele>
        <time>2009-05-16T13:51:30Z</time>
      </trkpt>
      <trkpt lat="50.12547" lon="1.72978">
        <ele>-18.608398</ele>
        <time>2009-05-16T13:51:45Z</time>
      </trkpt>
      <trkpt lat="50.1263" lon="1.73077">
        <ele>-19.569702</ele>
        <time>2009-05-16T13:51:59Z</time>
      </trkpt>
      <trkpt lat="50.12735" lon="1.73196">
        <ele>-20.050415</ele>
        <time>2009-05-16T13:52:16Z</time>
      </trkpt>
      <trkpt lat="50.12851" lon="1.73296">
        <ele>-19.569702</ele>
        <time>2009-05-16T13:52:33Z</time>
      </trkpt>
      <trkpt lat="50.12929" lon="1.7335">
        <ele>-20.531006</ele>
        <time>2009-05-16T13:52:45Z</time>
      </trkpt>
      <trkpt lat="50.12959" lon="1.73386">
        <ele>-20.531006</ele>
        <time>2009-05-16T13:52:52Z</time>
      </trkpt>
      <trkpt lat="50.12957" lon="1.73395">
        <ele>-20.050415</ele>
        <time>2009-05-16T13:52:53Z</time>
      </trkpt>
      <trkpt lat="50.12922" lon="1.7349">
        <ele>-19.569702</ele>
        <time>2009-05-16T13:53:04Z</time>
      </trkpt>
      <trkpt lat="50.12896" lon="1.73528">
        <ele>-18.608398</ele>
        <time>2009-05-16T13:53:10Z</time>
      </trkpt>
      <trkpt lat="50.12888" lon="1.73543">
        <ele>-18.127808</ele>
        <time>2009-05-16T13:53:12Z</time>
      </trkpt>
      <trkpt lat="50.12882" lon="1.73559">
        <ele>-18.608398</ele>
        <time>2009-05-16T13:53:14Z</time>
      </trkpt>
      <trkpt lat="50.12877" lon="1.73575">
        <ele>-18.608398</ele>
        <time>2009-05-16T13:53:16Z</time>
      </trkpt>
      <trkpt lat="50.12881" lon="1.73602">
        <ele>-18.608398</ele>
        <time>2009-05-16T13:53:20Z</time>
      </trkpt>
      <trkpt lat="50.12891" lon="1.73611">
        <ele>-18.608398</ele>
        <time>2009-05-16T13:53:22Z</time>
      </trkpt>
      <trkpt lat="50.12916" lon="1.73624">
        <ele>-19.088989</ele>
        <time>2009-05-16T13:53:26Z</time>
      </trkpt>
      <trkpt lat="50.12942" lon="1.73631">
        <ele>-20.050415</ele>
        <time>2009-05-16T13:53:30Z</time>
      </trkpt>
      <trkpt lat="50.13018" lon="1.73669">
        <ele>-19.569702</ele>
        <time>2009-05-16T13:53:41Z</time>
      </trkpt>
      <trkpt lat="50.13118" lon="1.73743">
        <ele>-19.569702</ele>
        <time>2009-05-16T13:53:56Z</time>
      </trkpt>
      <trkpt lat="50.1316" lon="1.73794">
        <ele>-19.569702</ele>
        <time>2009-05-16T13:54:03Z</time>
      </trkpt>
      <trkpt lat="50.132" lon="1.73822">
        <ele>-19.569702</ele>
        <time>2009-05-16T13:54:09Z</time>
      </trkpt>
      <trkpt lat="50.13274" lon="1.73884">
        <ele>-20.531006</ele>
        <time>2009-05-16T13:54:21Z</time>
      </trkpt>
      <trkpt lat="50.13366" lon="1.73977">
        <ele>-20.531006</ele>
        <time>2009-05-16T13:54:36Z</time>
      </trkpt>
      <trkpt lat="50.1337" lon="1.73984">
        <ele>-20.531006</ele>
        <time>2009-05-16T13:54:37Z</time>
      </trkpt>
      <trkpt lat="50.13421" lon="1.74067">
        <ele>-20.050415</ele>
        <time>2009-05-16T13:54:47Z</time>
      </trkpt>
      <trkpt lat="50.13483" lon="1.7418">
        <ele>-20.050415</ele>
        <time>2009-05-16T13:55:00Z</time>
      </trkpt>
      <trkpt lat="50.13514" lon="1.74244">
        <ele>-20.531006</ele>
        <time>2009-05-16T13:55:07Z</time>
      </trkpt>
      <trkpt lat="50.13525" lon="1.74259">
        <ele>-20.531006</ele>
        <time>2009-05-16T13:55:09Z</time>
      </trkpt>
      <trkpt lat="50.13535" lon="1.74272">
        <ele>-20.531006</ele>
        <time>2009-05-16T13:55:11Z</time>
      </trkpt>
      <trkpt lat="50.13552" lon="1.74284">
        <ele>-20.050415</ele>
        <time>2009-05-16T13:55:14Z</time>
      </trkpt>
      <trkpt lat="50.13577" lon="1.74309">
        <ele>-20.531006</ele>
        <time>2009-05-16T13:55:18Z</time>
      </trkpt>
      <trkpt lat="50.13626" lon="1.74388">
        <ele>-20.531006</ele>
        <time>2009-05-16T13:55:28Z</time>
      </trkpt>
      <trkpt lat="50.13669" lon="1.74509">
        <ele>-20.050415</ele>
        <time>2009-05-16T13:55:41Z</time>
      </trkpt>
      <trkpt lat="50.13687" lon="1.74533">
        <ele>-19.088989</ele>
        <time>2009-05-16T13:55:45Z</time>
      </trkpt>
      <trkpt lat="50.1371" lon="1.74556">
        <ele>-18.608398</ele>
        <time>2009-05-16T13:55:50Z</time>
      </trkpt>
      <trkpt lat="50.13732" lon="1.74627">
        <ele>-19.569702</ele>
        <time>2009-05-16T13:55:58Z</time>
      </trkpt>
      <trkpt lat="50.13766" lon="1.74771">
        <ele>-20.050415</ele>
        <time>2009-05-16T13:56:12Z</time>
      </trkpt>
      <trkpt lat="50.13821" lon="1.74909">
        <ele>-20.050415</ele>
        <time>2009-05-16T13:56:27Z</time>
      </trkpt>
      <trkpt lat="50.13854" lon="1.7495">
        <ele>-20.050415</ele>
        <time>2009-05-16T13:56:33Z</time>
      </trkpt>
      <trkpt lat="50.13944" lon="1.74977">
        <ele>-20.050415</ele>
        <time>2009-05-16T13:56:46Z</time>
      </trkpt>
      <trkpt lat="50.13978" lon="1.7499">
        <ele>-19.569702</ele>
        <time>2009-05-16T13:56:51Z</time>
      </trkpt>
      <trkpt lat="50.14001" lon="1.75013">
        <ele>-19.569702</ele>
        <time>2009-05-16T13:56:55Z</time>
      </trkpt>
      <trkpt lat="50.14032" lon="1.75058">
        <ele>-19.569702</ele>
        <time>2009-05-16T13:57:01Z</time>
      </trkpt>
      <trkpt lat="50.14103" lon="1.75189">
        <ele>-19.088989</ele>
        <time>2009-05-16T13:57:17Z</time>
      </trkpt>
      <trkpt lat="50.14188" lon="1.753">
        <ele>-18.608398</ele>
        <time>2009-05-16T13:57:33Z</time>
      </trkpt>
      <trkpt lat="50.14268" lon="1.75391">
        <ele>-19.569702</ele>
        <time>2009-05-16T13:57:47Z</time>
      </trkpt>
      <trkpt lat="50.14369" lon="1.75514">
        <ele>-20.050415</ele>
        <time>2009-05-16T13:58:05Z</time>
      </trkpt>
      <trkpt lat="50.14448" lon="1.75613">
        <ele>-18.608398</ele>
        <time>2009-05-16T13:58:20Z</time>
      </trkpt>
      <trkpt lat="50.14474" lon="1.75644">
        <ele>-19.088989</ele>
        <time>2009-05-16T13:58:25Z</time>
      </trkpt>
      <trkpt lat="50.14504" lon="1.75681">
        <ele>-18.127808</ele>
        <time>2009-05-16T13:58:32Z</time>
      </trkpt>
      <trkpt lat="50.14538" lon="1.75725">
        <ele>-16.2052</ele>
        <time>2009-05-16T13:58:43Z</time>
      </trkpt>
      <trkpt lat="50.14541" lon="1.75729">
        <ele>-16.2052</ele>
        <time>2009-05-16T13:59:01Z</time>
      </trkpt>
      <trkpt lat="50.14541" lon="1.7573">
        <ele>-16.2052</ele>
        <time>2009-05-16T13:59:32Z</time>
      </trkpt>
      <trkpt lat="50.14557" lon="1.75721">
        <ele>-16.685791</ele>
        <time>2009-05-16T13:59:38Z</time>
      </trkpt>
      <trkpt lat="50.1458" lon="1.75691">
        <ele>-16.2052</ele>
        <time>2009-05-16T13:59:43Z</time>
      </trkpt>
      <trkpt lat="50.14666" lon="1.75592">
        <ele>-15.724365</ele>
        <time>2009-05-16T13:59:59Z</time>
      </trkpt>
      <trkpt lat="50.14762" lon="1.75465">
        <ele>-16.2052</ele>
        <time>2009-05-16T14:00:17Z</time>
      </trkpt>
      <trkpt lat="50.14838" lon="1.7534">
        <ele>-16.685791</ele>
        <time>2009-05-16T14:00:32Z</time>
      </trkpt>
      <trkpt lat="50.14911" lon="1.75217">
        <ele>-16.2052</ele>
        <time>2009-05-16T14:00:47Z</time>
      </trkpt>
      <trkpt lat="50.14965" lon="1.75056">
        <ele>-16.685791</ele>
        <time>2009-05-16T14:01:04Z</time>
      </trkpt>
      <trkpt lat="50.1497" lon="1.75041">
        <ele>-16.685791</ele>
        <time>2009-05-16T14:01:06Z</time>
      </trkpt>
      <trkpt lat="50.14992" lon="1.7503">
        <ele>-16.2052</ele>
        <time>2009-05-16T14:01:12Z</time>
      </trkpt>
      <trkpt lat="50.15017" lon="1.75055">
        <ele>-14.763062</ele>
        <time>2009-05-16T14:01:18Z</time>
      </trkpt>
      <trkpt lat="50.15045" lon="1.75083">
        <ele>-13.321045</ele>
        <time>2009-05-16T14:01:24Z</time>
      </trkpt>
      <trkpt lat="50.15055" lon="1.75094">
        <ele>-12.840454</ele>
        <time>2009-05-16T14:01:26Z</time>
      </trkpt>
      <trkpt lat="50.15089" lon="1.75108">
        <ele>-9.47583</ele>
        <time>2009-05-16T14:01:34Z</time>
      </trkpt>
      <trkpt lat="50.15091" lon="1.75101">
        <ele>-9.47583</ele>
        <time>2009-05-16T14:01:35Z</time>
      </trkpt>
      <trkpt lat="50.15095" lon="1.75088">
        <ele>-8.995239</ele>
        <time>2009-05-16T14:01:37Z</time>
      </trkpt>
      <trkpt lat="50.15102" lon="1.75068">
        <ele>-8.514648</ele>
        <time>2009-05-16T14:01:40Z</time>
      </trkpt>
      <trkpt lat="50.15116" lon="1.7502">
        <ele>-7.553101</ele>
        <time>2009-05-16T14:01:47Z</time>
      </trkpt>
      <trkpt lat="50.15145" lon="1.7494">
        <ele>-5.630493</ele>
        <time>2009-05-16T14:01:59Z</time>
      </trkpt>
      <trkpt lat="50.15201" lon="1.7485">
        <ele>-2.265991</ele>
        <time>2009-05-16T14:02:16Z</time>
      </trkpt>
      <trkpt lat="50.15228" lon="1.74814">
        <ele>-1.304688</ele>
        <time>2009-05-16T14:02:24Z</time>
      </trkpt>
      <trkpt lat="50.15287" lon="1.7478">
        <ele>0.137451</ele>
        <time>2009-05-16T14:02:38Z</time>
      </trkpt>
      <trkpt lat="50.15305" lon="1.74786">
        <ele>1.579346</ele>
        <time>2009-05-16T14:02:43Z</time>
      </trkpt>
      <trkpt lat="50.15313" lon="1.7479">
        <ele>2.060059</ele>
        <time>2009-05-16T14:02:45Z</time>
      </trkpt>
      <trkpt lat="50.15359" lon="1.74848">
        <ele>5.424561</ele>
        <time>2009-05-16T14:03:00Z</time>
      </trkpt>
      <trkpt lat="50.15382" lon="1.74886">
        <ele>8.789185</ele>
        <time>2009-05-16T14:03:10Z</time>
      </trkpt>
      <trkpt lat="50.15386" lon="1.7489">
        <ele>9.269897</ele>
        <time>2009-05-16T14:03:12Z</time>
      </trkpt>
      <trkpt lat="50.15394" lon="1.74894">
        <ele>10.711792</ele>
        <time>2009-05-16T14:03:15Z</time>
      </trkpt>
      <trkpt lat="50.15401" lon="1.74901">
        <ele>12.153809</ele>
        <time>2009-05-16T14:03:18Z</time>
      </trkpt>
      <trkpt lat="50.15438" lon="1.74934">
        <ele>15.518433</ele>
        <time>2009-05-16T14:03:28Z</time>
      </trkpt>
      <trkpt lat="50.15459" lon="1.74952">
        <ele>18.402344</ele>
        <time>2009-05-16T14:03:35Z</time>
      </trkpt>
      <trkpt lat="50.15487" lon="1.74976">
        <ele>21.766968</ele>
        <time>2009-05-16T14:03:44Z</time>
      </trkpt>
      <trkpt lat="50.15504" lon="1.74989">
        <ele>24.651001</ele>
        <time>2009-05-16T14:03:50Z</time>
      </trkpt>
      <trkpt lat="50.15507" lon="1.74991">
        <ele>25.131714</ele>
        <time>2009-05-16T14:03:51Z</time>
      </trkpt>
      <trkpt lat="50.15531" lon="1.75015">
        <ele>28.015503</ele>
        <time>2009-05-16T14:04:04Z</time>
      </trkpt>
      <trkpt lat="50.15579" lon="1.75058">
        <ele>29.45752</ele>
        <time>2009-05-16T14:04:18Z</time>
      </trkpt>
      <trkpt lat="50.15607" lon="1.75081">
        <ele>29.45752</ele>
        <time>2009-05-16T14:04:24Z</time>
      </trkpt>
      <trkpt lat="50.15682" lon="1.75142">
        <ele>29.45752</ele>
        <time>2009-05-16T14:04:39Z</time>
      </trkpt>
      <trkpt lat="50.15781" lon="1.75223">
        <ele>28.496216</ele>
        <time>2009-05-16T14:04:54Z</time>
      </trkpt>
      <trkpt lat="50.15843" lon="1.75273">
        <ele>28.015503</ele>
        <time>2009-05-16T14:05:03Z</time>
      </trkpt>
      <trkpt lat="50.15945" lon="1.75329">
        <ele>27.534912</ele>
        <time>2009-05-16T14:05:17Z</time>
      </trkpt>
      <trkpt lat="50.16051" lon="1.75384">
        <ele>27.054321</ele>
        <time>2009-05-16T14:05:31Z</time>
      </trkpt>
      <trkpt lat="50.16166" lon="1.75501">
        <ele>28.976929</ele>
        <time>2009-05-16T14:05:48Z</time>
      </trkpt>
      <trkpt lat="50.16269" lon="1.75575">
        <ele>30.418823</ele>
        <time>2009-05-16T14:06:03Z</time>
      </trkpt>
      <trkpt lat="50.16369" lon="1.75637">
        <ele>31.380127</ele>
        <time>2009-05-16T14:06:17Z</time>
      </trkpt>
      <trkpt lat="50.16489" lon="1.75712">
        <ele>32.341553</ele>
        <time>2009-05-16T14:06:33Z</time>
      </trkpt>
      <trkpt lat="50.16513" lon="1.75728">
        <ele>32.341553</ele>
        <time>2009-05-16T14:06:36Z</time>
      </trkpt>
      <trkpt lat="50.16538" lon="1.7576">
        <ele>32.341553</ele>
        <time>2009-05-16T14:06:40Z</time>
      </trkpt>
      <trkpt lat="50.1663" lon="1.7592">
        <ele>34.26416</ele>
        <time>2009-05-16T14:06:57Z</time>
      </trkpt>
      <trkpt lat="50.16693" lon="1.76023">
        <ele>36.66748</ele>
        <time>2009-05-16T14:07:11Z</time>
      </trkpt>
      <trkpt lat="50.16768" lon="1.76155">
        <ele>33.783447</ele>
        <time>2009-05-16T14:07:25Z</time>
      </trkpt>
      <trkpt lat="50.16865" lon="1.76293">
        <ele>32.822266</ele>
        <time>2009-05-16T14:07:41Z</time>
      </trkpt>
      <trkpt lat="50.16961" lon="1.76425">
        <ele>31.380127</ele>
        <time>2009-05-16T14:07:57Z</time>
      </trkpt>
      <trkpt lat="50.17052" lon="1.76557">
        <ele>30.899536</ele>
        <time>2009-05-16T14:08:13Z</time>
      </trkpt>
      <trkpt lat="50.17113" lon="1.76623">
        <ele>29.45752</ele>
        <time>2009-05-16T14:08:22Z</time>
      </trkpt>
      <trkpt lat="50.17152" lon="1.76644">
        <ele>28.976929</ele>
        <time>2009-05-16T14:08:27Z</time>
      </trkpt>
      <trkpt lat="50.1727" lon="1.76626">
        <ele>26.573608</ele>
        <time>2009-05-16T14:08:40Z</time>
      </trkpt>
      <trkpt lat="50.17288" lon="1.76621">
        <ele>26.573608</ele>
        <time>2009-05-16T14:08:42Z</time>
      </trkpt>
      <trkpt lat="50.17321" lon="1.76624">
        <ele>26.092896</ele>
        <time>2009-05-16T14:08:46Z</time>
      </trkpt>
      <trkpt lat="50.17369" lon="1.76645">
        <ele>26.573608</ele>
        <time>2009-05-16T14:08:52Z</time>
      </trkpt>
      <trkpt lat="50.17466" lon="1.76616">
        <ele>25.612305</ele>
        <time>2009-05-16T14:09:04Z</time>
      </trkpt>
      <trkpt lat="50.17506" lon="1.76598">
        <ele>23.689575</ele>
        <time>2009-05-16T14:09:09Z</time>
      </trkpt>
      <trkpt lat="50.17541" lon="1.76597">
        <ele>23.689575</ele>
        <time>2009-05-16T14:09:13Z</time>
      </trkpt>
      <trkpt lat="50.17647" lon="1.76655">
        <ele>22.247559</ele>
        <time>2009-05-16T14:09:26Z</time>
      </trkpt>
      <trkpt lat="50.17763" lon="1.76706">
        <ele>21.286377</ele>
        <time>2009-05-16T14:09:40Z</time>
      </trkpt>
      <trkpt lat="50.17787" lon="1.76712">
        <ele>21.286377</ele>
        <time>2009-05-16T14:09:43Z</time>
      </trkpt>
      <trkpt lat="50.17806" lon="1.76757">
        <ele>21.286377</ele>
        <time>2009-05-16T14:09:49Z</time>
      </trkpt>
      <trkpt lat="50.17805" lon="1.76813">
        <ele>21.766968</ele>
        <time>2009-05-16T14:09:54Z</time>
      </trkpt>
      <trkpt lat="50.17808" lon="1.76839">
        <ele>22.728271</ele>
        <time>2009-05-16T14:09:56Z</time>
      </trkpt>
      <trkpt lat="50.17837" lon="1.76883">
        <ele>23.208984</ele>
        <time>2009-05-16T14:10:02Z</time>
      </trkpt>
      <trkpt lat="50.17843" lon="1.76886">
        <ele>23.208984</ele>
        <time>2009-05-16T14:10:03Z</time>
      </trkpt>
      <trkpt lat="50.17955" lon="1.76918">
        <ele>22.247559</ele>
        <time>2009-05-16T14:10:19Z</time>
      </trkpt>
      <trkpt lat="50.18068" lon="1.76952">
        <ele>21.286377</ele>
        <time>2009-05-16T14:10:34Z</time>
      </trkpt>
      <trkpt lat="50.18194" lon="1.76977">
        <ele>19.84436</ele>
        <time>2009-05-16T14:10:50Z</time>
      </trkpt>
      <trkpt lat="50.18312" lon="1.77007">
        <ele>17.441162</ele>
        <time>2009-05-16T14:11:05Z</time>
      </trkpt>
      <trkpt lat="50.18404" lon="1.77028">
        <ele>16.479736</ele>
        <time>2009-05-16T14:11:16Z</time>
      </trkpt>
      <trkpt lat="50.18442" lon="1.77062">
        <ele>14.557007</ele>
        <time>2009-05-16T14:11:21Z</time>
      </trkpt>
      <trkpt lat="50.18489" lon="1.77116">
        <ele>10.711792</ele>
        <time>2009-05-16T14:11:27Z</time>
      </trkpt>
      <trkpt lat="50.18541" lon="1.77177">
        <ele>7.827881</ele>
        <time>2009-05-16T14:11:33Z</time>
      </trkpt>
      <trkpt lat="50.18597" lon="1.77266">
        <ele>7.827881</ele>
        <time>2009-05-16T14:11:41Z</time>
      </trkpt>
      <trkpt lat="50.18609" lon="1.77301">
        <ele>9.269897</ele>
        <time>2009-05-16T14:11:44Z</time>
      </trkpt>
      <trkpt lat="50.18627" lon="1.77351">
        <ele>12.153809</ele>
        <time>2009-05-16T14:11:49Z</time>
      </trkpt>
      <trkpt lat="50.18632" lon="1.7736">
        <ele>12.634399</ele>
        <time>2009-05-16T14:11:50Z</time>
      </trkpt>
      <trkpt lat="50.1868" lon="1.77407">
        <ele>15.518433</ele>
        <time>2009-05-16T14:11:57Z</time>
      </trkpt>
      <trkpt lat="50.18688" lon="1.77414">
        <ele>15.999023</ele>
        <time>2009-05-16T14:11:58Z</time>
      </trkpt>
      <trkpt lat="50.18707" lon="1.77441">
        <ele>17.921753</ele>
        <time>2009-05-16T14:12:01Z</time>
      </trkpt>
      <trkpt lat="50.1878" lon="1.77563">
        <ele>18.883057</ele>
        <time>2009-05-16T14:12:15Z</time>
      </trkpt>
      <trkpt lat="50.18813" lon="1.77612">
        <ele>18.402344</ele>
        <time>2009-05-16T14:12:21Z</time>
      </trkpt>
      <trkpt lat="50.18838" lon="1.77639">
        <ele>16.960449</ele>
        <time>2009-05-16T14:12:25Z</time>
      </trkpt>
      <trkpt lat="50.18906" lon="1.77654">
        <ele>13.115112</ele>
        <time>2009-05-16T14:12:33Z</time>
      </trkpt>
      <trkpt lat="50.18953" lon="1.77661">
        <ele>10.231201</ele>
        <time>2009-05-16T14:12:38Z</time>
      </trkpt>
      <trkpt lat="50.19037" lon="1.7767">
        <ele>10.231201</ele>
        <time>2009-05-16T14:12:48Z</time>
      </trkpt>
      <trkpt lat="50.19085" lon="1.77669">
        <ele>13.115112</ele>
        <time>2009-05-16T14:12:56Z</time>
      </trkpt>
      <trkpt lat="50.19108" lon="1.77666">
        <ele>14.557007</ele>
        <time>2009-05-16T14:13:01Z</time>
      </trkpt>
      <trkpt lat="50.19118" lon="1.77666">
        <ele>15.518433</ele>
        <time>2009-05-16T14:13:03Z</time>
      </trkpt>
      <trkpt lat="50.19182" lon="1.7766">
        <ele>18.402344</ele>
        <time>2009-05-16T14:13:14Z</time>
      </trkpt>
      <trkpt lat="50.19251" lon="1.7765">
        <ele>21.286377</ele>
        <time>2009-05-16T14:13:27Z</time>
      </trkpt>
      <trkpt lat="50.19339" lon="1.77639">
        <ele>22.728271</ele>
        <time>2009-05-16T14:13:42Z</time>
      </trkpt>
      <trkpt lat="50.19445" lon="1.7763">
        <ele>21.766968</ele>
        <time>2009-05-16T14:13:57Z</time>
      </trkpt>
      <trkpt lat="50.19588" lon="1.77612">
        <ele>21.286377</ele>
        <time>2009-05-16T14:14:15Z</time>
      </trkpt>
      <trkpt lat="50.19684" lon="1.77601">
        <ele>23.208984</ele>
        <time>2009-05-16T14:14:28Z</time>
      </trkpt>
      <trkpt lat="50.19799" lon="1.77588">
        <ele>22.728271</ele>
        <time>2009-05-16T14:14:42Z</time>
      </trkpt>
      <trkpt lat="50.19912" lon="1.77578">
        <ele>22.728271</ele>
        <time>2009-05-16T14:14:56Z</time>
      </trkpt>
      <trkpt lat="50.20013" lon="1.77611">
        <ele>22.247559</ele>
        <time>2009-05-16T14:15:08Z</time>
      </trkpt>
      <trkpt lat="50.20021" lon="1.77617">
        <ele>22.247559</ele>
        <time>2009-05-16T14:15:09Z</time>
      </trkpt>
      <trkpt lat="50.20125" lon="1.77723">
        <ele>21.766968</ele>
        <time>2009-05-16T14:15:24Z</time>
      </trkpt>
      <trkpt lat="50.2021" lon="1.77825">
        <ele>21.286377</ele>
        <time>2009-05-16T14:15:37Z</time>
      </trkpt>
      <trkpt lat="50.20305" lon="1.7791">
        <ele>20.324951</ele>
        <time>2009-05-16T14:15:50Z</time>
      </trkpt>
      <trkpt lat="50.20432" lon="1.77959">
        <ele>18.883057</ele>
        <time>2009-05-16T14:16:05Z</time>
      </trkpt>
      <trkpt lat="50.20561" lon="1.78009">
        <ele>15.518433</ele>
        <time>2009-05-16T14:16:20Z</time>
      </trkpt>
      <trkpt lat="50.20689" lon="1.78076">
        <ele>12.153809</ele>
        <time>2009-05-16T14:16:34Z</time>
      </trkpt>
      <trkpt lat="50.20772" lon="1.78137">
        <ele>8.308594</ele>
        <time>2009-05-16T14:16:43Z</time>
      </trkpt>
      <trkpt lat="50.2084" lon="1.78184">
        <ele>5.424561</ele>
        <time>2009-05-16T14:16:50Z</time>
      </trkpt>
      <trkpt lat="50.20937" lon="1.78246">
        <ele>2.060059</ele>
        <time>2009-05-16T14:17:00Z</time>
      </trkpt>
      <trkpt lat="50.20946" lon="1.78253">
        <ele>2.060059</ele>
        <time>2009-05-16T14:17:01Z</time>
      </trkpt>
      <trkpt lat="50.20973" lon="1.7829">
        <ele>1.579346</ele>
        <time>2009-05-16T14:17:07Z</time>
      </trkpt>
      <trkpt lat="50.20963" lon="1.78311">
        <ele>1.098633</ele>
        <time>2009-05-16T14:17:12Z</time>
      </trkpt>
      <trkpt lat="50.20948" lon="1.78321">
        <ele>0.137451</ele>
        <time>2009-05-16T14:17:15Z</time>
      </trkpt>
      <trkpt lat="50.20908" lon="1.78355">
        <ele>0.618042</ele>
        <time>2009-05-16T14:17:22Z</time>
      </trkpt>
      <trkpt lat="50.20896" lon="1.78367">
        <ele>2.060059</ele>
        <time>2009-05-16T14:17:26Z</time>
      </trkpt>
      <trkpt lat="50.20899" lon="1.78384">
        <ele>2.060059</ele>
        <time>2009-05-16T14:17:29Z</time>
      </trkpt>
      <trkpt lat="50.2091" lon="1.78415">
        <ele>0.618042</ele>
        <time>2009-05-16T14:17:33Z</time>
      </trkpt>
      <trkpt lat="50.20957" lon="1.78483">
        <ele>0.137451</ele>
        <time>2009-05-16T14:17:42Z</time>
      </trkpt>
      <trkpt lat="50.21051" lon="1.78525">
        <ele>0.137451</ele>
        <time>2009-05-16T14:17:55Z</time>
      </trkpt>
      <trkpt lat="50.21071" lon="1.78536">
        <ele>0.618042</ele>
        <time>2009-05-16T14:17:58Z</time>
      </trkpt>
      <trkpt lat="50.2114" lon="1.78612">
        <ele>3.02124</ele>
        <time>2009-05-16T14:18:11Z</time>
      </trkpt>
      <trkpt lat="50.21219" lon="1.78684">
        <ele>5.905273</ele>
        <time>2009-05-16T14:18:26Z</time>
      </trkpt>
      <trkpt lat="50.21258" lon="1.78721">
        <ele>8.789185</ele>
        <time>2009-05-16T14:18:34Z</time>
      </trkpt>
      <trkpt lat="50.21297" lon="1.78766">
        <ele>12.153809</ele>
        <time>2009-05-16T14:18:43Z</time>
      </trkpt>
      <trkpt lat="50.21334" lon="1.78812">
        <ele>15.03772</ele>
        <time>2009-05-16T14:18:52Z</time>
      </trkpt>
      <trkpt lat="50.21375" lon="1.78863">
        <ele>18.402344</ele>
        <time>2009-05-16T14:19:02Z</time>
      </trkpt>
      <trkpt lat="50.21414" lon="1.78911">
        <ele>21.286377</ele>
        <time>2009-05-16T14:19:12Z</time>
      </trkpt>
      <trkpt lat="50.21462" lon="1.78976">
        <ele>24.651001</ele>
        <time>2009-05-16T14:19:25Z</time>
      </trkpt>
      <trkpt lat="50.21512" lon="1.7907">
        <ele>26.573608</ele>
        <time>2009-05-16T14:19:41Z</time>
      </trkpt>
      <trkpt lat="50.21524" lon="1.79113">
        <ele>28.015503</ele>
        <time>2009-05-16T14:19:47Z</time>
      </trkpt>
      <trkpt lat="50.21535" lon="1.79186">
        <ele>28.496216</ele>
        <time>2009-05-16T14:19:56Z</time>
      </trkpt>
      <trkpt lat="50.21539" lon="1.79229">
        <ele>28.496216</ele>
        <time>2009-05-16T14:20:01Z</time>
      </trkpt>
      <trkpt lat="50.21534" lon="1.79344">
        <ele>28.496216</ele>
        <time>2009-05-16T14:20:14Z</time>
      </trkpt>
      <trkpt lat="50.21532" lon="1.79476">
        <ele>28.976929</ele>
        <time>2009-05-16T14:20:29Z</time>
      </trkpt>
      <trkpt lat="50.21529" lon="1.79504">
        <ele>28.976929</ele>
        <time>2009-05-16T14:20:32Z</time>
      </trkpt>
      <trkpt lat="50.21524" lon="1.79618">
        <ele>29.45752</ele>
        <time>2009-05-16T14:20:45Z</time>
      </trkpt>
      <trkpt lat="50.21518" lon="1.79737">
        <ele>28.976929</ele>
        <time>2009-05-16T14:20:58Z</time>
      </trkpt>
      <trkpt lat="50.21518" lon="1.79755">
        <ele>28.976929</ele>
        <time>2009-05-16T14:21:00Z</time>
      </trkpt>
      <trkpt lat="50.21514" lon="1.7983">
        <ele>27.534912</ele>
        <time>2009-05-16T14:21:08Z</time>
      </trkpt>
      <trkpt lat="50.21505" lon="1.79974">
        <ele>26.092896</ele>
        <time>2009-05-16T14:21:21Z</time>
      </trkpt>
      <trkpt lat="50.215" lon="1.80104">
        <ele>26.573608</ele>
        <time>2009-05-16T14:21:33Z</time>
      </trkpt>
      <trkpt lat="50.21499" lon="1.80143">
        <ele>27.534912</ele>
        <time>2009-05-16T14:21:37Z</time>
      </trkpt>
      <trkpt lat="50.215" lon="1.8018">
        <ele>28.015503</ele>
        <time>2009-05-16T14:21:41Z</time>
      </trkpt>
      <trkpt lat="50.21499" lon="1.80226">
        <ele>28.496216</ele>
        <time>2009-05-16T14:21:46Z</time>
      </trkpt>
      <trkpt lat="50.21493" lon="1.80362">
        <ele>29.93811</ele>
        <time>2009-05-16T14:22:00Z</time>
      </trkpt>
      <trkpt lat="50.21486" lon="1.80494">
        <ele>30.899536</ele>
        <time>2009-05-16T14:22:14Z</time>
      </trkpt>
      <trkpt lat="50.21477" lon="1.80627">
        <ele>31.380127</ele>
        <time>2009-05-16T14:22:27Z</time>
      </trkpt>
      <trkpt lat="50.21472" lon="1.80808">
        <ele>31.860718</ele>
        <time>2009-05-16T14:22:44Z</time>
      </trkpt>
      <trkpt lat="50.21466" lon="1.80975">
        <ele>30.418823</ele>
        <time>2009-05-16T14:22:58Z</time>
      </trkpt>
      <trkpt lat="50.21458" lon="1.81121">
        <ele>28.976929</ele>
        <time>2009-05-16T14:23:09Z</time>
      </trkpt>
      <trkpt lat="50.2145" lon="1.8132">
        <ele>27.534912</ele>
        <time>2009-05-16T14:23:24Z</time>
      </trkpt>
      <trkpt lat="50.21443" lon="1.81414">
        <ele>30.899536</ele>
        <time>2009-05-16T14:23:33Z</time>
      </trkpt>
      <trkpt lat="50.21439" lon="1.81543">
        <ele>33.302856</ele>
        <time>2009-05-16T14:23:46Z</time>
      </trkpt>
      <trkpt lat="50.21432" lon="1.81679">
        <ele>35.225464</ele>
        <time>2009-05-16T14:24:00Z</time>
      </trkpt>
      <trkpt lat="50.21425" lon="1.81845">
        <ele>36.186768</ele>
        <time>2009-05-16T14:24:17Z</time>
      </trkpt>
      <trkpt lat="50.21419" lon="1.81981">
        <ele>36.66748</ele>
        <time>2009-05-16T14:24:31Z</time>
      </trkpt>
      <trkpt lat="50.21412" lon="1.82125">
        <ele>37.628662</ele>
        <time>2009-05-16T14:24:44Z</time>
      </trkpt>
      <trkpt lat="50.21405" lon="1.82286">
        <ele>36.186768</ele>
        <time>2009-05-16T14:24:58Z</time>
      </trkpt>
      <trkpt lat="50.21405" lon="1.8243">
        <ele>36.66748</ele>
        <time>2009-05-16T14:25:11Z</time>
      </trkpt>
      <trkpt lat="50.21397" lon="1.82551">
        <ele>38.109375</ele>
        <time>2009-05-16T14:25:22Z</time>
      </trkpt>
      <trkpt lat="50.21388" lon="1.8271">
        <ele>39.070679</ele>
        <time>2009-05-16T14:25:36Z</time>
      </trkpt>
      <trkpt lat="50.21382" lon="1.82862">
        <ele>38.109375</ele>
        <time>2009-05-16T14:25:49Z</time>
      </trkpt>
      <trkpt lat="50.21377" lon="1.82984">
        <ele>36.66748</ele>
        <time>2009-05-16T14:25:59Z</time>
      </trkpt>
      <trkpt lat="50.21367" lon="1.83155">
        <ele>34.26416</ele>
        <time>2009-05-16T14:26:13Z</time>
      </trkpt>
      <trkpt lat="50.21365" lon="1.83198">
        <ele>34.744873</ele>
        <time>2009-05-16T14:26:17Z</time>
      </trkpt>
      <trkpt lat="50.21355" lon="1.83256">
        <ele>33.783447</ele>
        <time>2009-05-16T14:26:25Z</time>
      </trkpt>
      <trkpt lat="50.21371" lon="1.83286">
        <ele>34.26416</ele>
        <time>2009-05-16T14:26:30Z</time>
      </trkpt>
      <trkpt lat="50.21393" lon="1.83308">
        <ele>34.744873</ele>
        <time>2009-05-16T14:26:34Z</time>
      </trkpt>
      <trkpt lat="50.2141" lon="1.83339">
        <ele>36.66748</ele>
        <time>2009-05-16T14:26:39Z</time>
      </trkpt>
      <trkpt lat="50.21452" lon="1.83387">
        <ele>38.590088</ele>
        <time>2009-05-16T14:26:48Z</time>
      </trkpt>
      <trkpt lat="50.21529" lon="1.83468">
        <ele>39.55127</ele>
        <time>2009-05-16T14:27:01Z</time>
      </trkpt>
      <trkpt lat="50.21543" lon="1.83487">
        <ele>39.55127</ele>
        <time>2009-05-16T14:27:04Z</time>
      </trkpt>
      <trkpt lat="50.21616" lon="1.8356">
        <ele>39.55127</ele>
        <time>2009-05-16T14:27:16Z</time>
      </trkpt>
      <trkpt lat="50.21682" lon="1.83631">
        <ele>40.993408</ele>
        <time>2009-05-16T14:27:28Z</time>
      </trkpt>
      <trkpt lat="50.21702" lon="1.83651">
        <ele>41.473999</ele>
        <time>2009-05-16T14:27:32Z</time>
      </trkpt>
      <trkpt lat="50.21713" lon="1.83664">
        <ele>41.954712</ele>
        <time>2009-05-16T14:27:34Z</time>
      </trkpt>
      <trkpt lat="50.2173" lon="1.8368">
        <ele>42.916016</ele>
        <time>2009-05-16T14:27:37Z</time>
      </trkpt>
      <trkpt lat="50.21755" lon="1.83694">
        <ele>43.396606</ele>
        <time>2009-05-16T14:27:41Z</time>
      </trkpt>
      <trkpt lat="50.21813" lon="1.83753">
        <ele>44.838623</ele>
        <time>2009-05-16T14:27:51Z</time>
      </trkpt>
      <trkpt lat="50.21869" lon="1.83815">
        <ele>45.799927</ele>
        <time>2009-05-16T14:28:00Z</time>
      </trkpt>
      <trkpt lat="50.219" lon="1.83846">
        <ele>45.799927</ele>
        <time>2009-05-16T14:28:05Z</time>
      </trkpt>
      <trkpt lat="50.21976" lon="1.83931">
        <ele>46.28064</ele>
        <time>2009-05-16T14:28:18Z</time>
      </trkpt>
      <trkpt lat="50.22024" lon="1.83982">
        <ele>46.28064</ele>
        <time>2009-05-16T14:28:26Z</time>
      </trkpt>
      <trkpt lat="50.22098" lon="1.84063">
        <ele>45.799927</ele>
        <time>2009-05-16T14:28:39Z</time>
      </trkpt>
      <trkpt lat="50.22131" lon="1.84101">
        <ele>44.838623</ele>
        <time>2009-05-16T14:28:45Z</time>
      </trkpt>
      <trkpt lat="50.22216" lon="1.84192">
        <ele>45.799927</ele>
        <time>2009-05-16T14:28:59Z</time>
      </trkpt>
      <trkpt lat="50.22262" lon="1.84238">
        <ele>46.28064</ele>
        <time>2009-05-16T14:29:07Z</time>
      </trkpt>
      <trkpt lat="50.22334" lon="1.84314">
        <ele>47.722534</ele>
        <time>2009-05-16T14:29:19Z</time>
      </trkpt>
      <trkpt lat="50.22345" lon="1.84327">
        <ele>47.722534</ele>
        <time>2009-05-16T14:29:21Z</time>
      </trkpt>
      <trkpt lat="50.22397" lon="1.84387">
        <ele>48.203369</ele>
        <time>2009-05-16T14:29:32Z</time>
      </trkpt>
      <trkpt lat="50.22459" lon="1.84447">
        <ele>48.203369</ele>
        <time>2009-05-16T14:29:41Z</time>
      </trkpt>
      <trkpt lat="50.22498" lon="1.84491">
        <ele>49.164551</ele>
        <time>2009-05-16T14:29:49Z</time>
      </trkpt>
      <trkpt lat="50.22523" lon="1.8451">
        <ele>49.164551</ele>
        <time>2009-05-16T14:29:52Z</time>
      </trkpt>
      <trkpt lat="50.22549" lon="1.84534">
        <ele>49.645264</ele>
        <time>2009-05-16T14:29:56Z</time>
      </trkpt>
      <trkpt lat="50.22564" lon="1.84547">
        <ele>50.125977</ele>
        <time>2009-05-16T14:29:59Z</time>
      </trkpt>
      <trkpt lat="50.22583" lon="1.8458">
        <ele>50.125977</ele>
        <time>2009-05-16T14:30:04Z</time>
      </trkpt>
      <trkpt lat="50.22625" lon="1.84628">
        <ele>51.087158</ele>
        <time>2009-05-16T14:30:11Z</time>
      </trkpt>
      <trkpt lat="50.22635" lon="1.84639">
        <ele>51.087158</ele>
        <time>2009-05-16T14:30:13Z</time>
      </trkpt>
      <trkpt lat="50.22643" lon="1.84651">
        <ele>51.567871</ele>
        <time>2009-05-16T14:30:15Z</time>
      </trkpt>
      <trkpt lat="50.22691" lon="1.8469">
        <ele>52.529175</ele>
        <time>2009-05-16T14:30:22Z</time>
      </trkpt>
      <trkpt lat="50.22701" lon="1.84698">
        <ele>52.048584</ele>
        <time>2009-05-16T14:30:24Z</time>
      </trkpt>
      <trkpt lat="50.2271" lon="1.84708">
        <ele>52.048584</ele>
        <time>2009-05-16T14:30:26Z</time>
      </trkpt>
      <trkpt lat="50.22742" lon="1.84743">
        <ele>53.009766</ele>
        <time>2009-05-16T14:30:31Z</time>
      </trkpt>
      <trkpt lat="50.22772" lon="1.8477">
        <ele>53.009766</ele>
        <time>2009-05-16T14:30:36Z</time>
      </trkpt>
      <trkpt lat="50.2281" lon="1.84813">
        <ele>53.490479</ele>
        <time>2009-05-16T14:30:44Z</time>
      </trkpt>
      <trkpt lat="50.22832" lon="1.8483">
        <ele>53.971191</ele>
        <time>2009-05-16T14:30:48Z</time>
      </trkpt>
      <trkpt lat="50.22855" lon="1.84852">
        <ele>53.971191</ele>
        <time>2009-05-16T14:30:52Z</time>
      </trkpt>
      <trkpt lat="50.22879" lon="1.84871">
        <ele>53.971191</ele>
        <time>2009-05-16T14:30:56Z</time>
      </trkpt>
      <trkpt lat="50.22888" lon="1.84882">
        <ele>54.451782</ele>
        <time>2009-05-16T14:30:58Z</time>
      </trkpt>
      <trkpt lat="50.22948" lon="1.84949">
        <ele>54.451782</ele>
        <time>2009-05-16T14:31:10Z</time>
      </trkpt>
      <trkpt lat="50.22963" lon="1.84963">
        <ele>54.932373</ele>
        <time>2009-05-16T14:31:13Z</time>
      </trkpt>
      <trkpt lat="50.2301" lon="1.85014">
        <ele>55.413086</ele>
        <time>2009-05-16T14:31:23Z</time>
      </trkpt>
      <trkpt lat="50.2305" lon="1.85059">
        <ele>56.855103</ele>
        <time>2009-05-16T14:31:33Z</time>
      </trkpt>
      <trkpt lat="50.23059" lon="1.85067">
        <ele>56.374512</ele>
        <time>2009-05-16T14:31:34Z</time>
      </trkpt>
      <trkpt lat="50.2308" lon="1.85095">
        <ele>56.374512</ele>
        <time>2009-05-16T14:31:39Z</time>
      </trkpt>
      <trkpt lat="50.2311" lon="1.85127">
        <ele>56.855103</ele>
        <time>2009-05-16T14:31:45Z</time>
      </trkpt>
      <trkpt lat="50.23129" lon="1.85149">
        <ele>56.855103</ele>
        <time>2009-05-16T14:31:49Z</time>
      </trkpt>
      <trkpt lat="50.2318" lon="1.85195">
        <ele>57.335815</ele>
        <time>2009-05-16T14:31:58Z</time>
      </trkpt>
      <trkpt lat="50.23217" lon="1.85237">
        <ele>57.335815</ele>
        <time>2009-05-16T14:32:05Z</time>
      </trkpt>
      <trkpt lat="50.23251" lon="1.85268">
        <ele>57.335815</ele>
        <time>2009-05-16T14:32:11Z</time>
      </trkpt>
      <trkpt lat="50.23272" lon="1.85293">
        <ele>57.335815</ele>
        <time>2009-05-16T14:32:15Z</time>
      </trkpt>
      <trkpt lat="50.2332" lon="1.85342">
        <ele>56.855103</ele>
        <time>2009-05-16T14:32:23Z</time>
      </trkpt>
      <trkpt lat="50.23372" lon="1.85397">
        <ele>56.374512</ele>
        <time>2009-05-16T14:32:32Z</time>
      </trkpt>
      <trkpt lat="50.23382" lon="1.85411">
        <ele>56.374512</ele>
        <time>2009-05-16T14:32:34Z</time>
      </trkpt>
      <trkpt lat="50.23397" lon="1.85429">
        <ele>56.374512</ele>
        <time>2009-05-16T14:32:37Z</time>
      </trkpt>
      <trkpt lat="50.23473" lon="1.85502">
        <ele>54.932373</ele>
        <time>2009-05-16T14:32:49Z</time>
      </trkpt>
      <trkpt lat="50.23555" lon="1.85587">
        <ele>54.451782</ele>
        <time>2009-05-16T14:33:01Z</time>
      </trkpt>
      <trkpt lat="50.23593" lon="1.85626">
        <ele>53.971191</ele>
        <time>2009-05-16T14:33:07Z</time>
      </trkpt>
      <trkpt lat="50.23653" lon="1.85688">
        <ele>53.971191</ele>
        <time>2009-05-16T14:33:17Z</time>
      </trkpt>
      <trkpt lat="50.23676" lon="1.85703">
        <ele>53.971191</ele>
        <time>2009-05-16T14:33:20Z</time>
      </trkpt>
      <trkpt lat="50.23754" lon="1.85791">
        <ele>53.971191</ele>
        <time>2009-05-16T14:33:33Z</time>
      </trkpt>
      <trkpt lat="50.23834" lon="1.85877">
        <ele>53.971191</ele>
        <time>2009-05-16T14:33:46Z</time>
      </trkpt>
      <trkpt lat="50.23921" lon="1.85967">
        <ele>54.451782</ele>
        <time>2009-05-16T14:34:00Z</time>
      </trkpt>
      <trkpt lat="50.23997" lon="1.86041">
        <ele>54.932373</ele>
        <time>2009-05-16T14:34:12Z</time>
      </trkpt>
      <trkpt lat="50.24093" lon="1.86123">
        <ele>53.490479</ele>
        <time>2009-05-16T14:34:26Z</time>
      </trkpt>
      <trkpt lat="50.24196" lon="1.86225">
        <ele>53.490479</ele>
        <time>2009-05-16T14:34:42Z</time>
      </trkpt>
      <trkpt lat="50.24296" lon="1.86349">
        <ele>52.048584</ele>
        <time>2009-05-16T14:34:58Z</time>
      </trkpt>
      <trkpt lat="50.24361" lon="1.86474">
        <ele>50.125977</ele>
        <time>2009-05-16T14:35:10Z</time>
      </trkpt>
      <trkpt lat="50.24421" lon="1.86623">
        <ele>46.76123</ele>
        <time>2009-05-16T14:35:22Z</time>
      </trkpt>
      <trkpt lat="50.24461" lon="1.86698">
        <ele>43.396606</ele>
        <time>2009-05-16T14:35:28Z</time>
      </trkpt>
      <trkpt lat="50.24501" lon="1.86763">
        <ele>39.55127</ele>
        <time>2009-05-16T14:35:33Z</time>
      </trkpt>
      <trkpt lat="50.24543" lon="1.86833">
        <ele>35.706055</ele>
        <time>2009-05-16T14:35:38Z</time>
      </trkpt>
      <trkpt lat="50.24571" lon="1.86877">
        <ele>32.822266</ele>
        <time>2009-05-16T14:35:41Z</time>
      </trkpt>
      <trkpt lat="50.24588" lon="1.86907">
        <ele>31.380127</ele>
        <time>2009-05-16T14:35:43Z</time>
      </trkpt>
      <trkpt lat="50.24624" lon="1.86966">
        <ele>28.976929</ele>
        <time>2009-05-16T14:35:47Z</time>
      </trkpt>
      <trkpt lat="50.24689" lon="1.87059">
        <ele>26.092896</ele>
        <time>2009-05-16T14:35:54Z</time>
      </trkpt>
      <trkpt lat="50.24746" lon="1.87125">
        <ele>22.728271</ele>
        <time>2009-05-16T14:36:00Z</time>
      </trkpt>
      <trkpt lat="50.24869" lon="1.87247">
        <ele>19.84436</ele>
        <time>2009-05-16T14:36:13Z</time>
      </trkpt>
      <trkpt lat="50.24878" lon="1.87256">
        <ele>19.36377</ele>
        <time>2009-05-16T14:36:14Z</time>
      </trkpt>
      <trkpt lat="50.24934" lon="1.8731">
        <ele>17.921753</ele>
        <time>2009-05-16T14:36:20Z</time>
      </trkpt>
      <trkpt lat="50.24957" lon="1.87381">
        <ele>16.960449</ele>
        <time>2009-05-16T14:36:25Z</time>
      </trkpt>
      <trkpt lat="50.24953" lon="1.87475">
        <ele>14.076416</ele>
        <time>2009-05-16T14:36:31Z</time>
      </trkpt>
      <trkpt lat="50.24939" lon="1.87534">
        <ele>14.076416</ele>
        <time>2009-05-16T14:36:35Z</time>
      </trkpt>
      <trkpt lat="50.24949" lon="1.87651">
        <ele>12.634399</ele>
        <time>2009-05-16T14:36:43Z</time>
      </trkpt>
      <trkpt lat="50.24993" lon="1.87704">
        <ele>11.673218</ele>
        <time>2009-05-16T14:36:49Z</time>
      </trkpt>
      <trkpt lat="50.2512" lon="1.87759">
        <ele>11.192505</ele>
        <time>2009-05-16T14:37:04Z</time>
      </trkpt>
      <trkpt lat="50.25178" lon="1.87791">
        <ele>11.673218</ele>
        <time>2009-05-16T14:37:12Z</time>
      </trkpt>
      <trkpt lat="50.25223" lon="1.87877">
        <ele>14.076416</ele>
        <time>2009-05-16T14:37:22Z</time>
      </trkpt>
      <trkpt lat="50.25253" lon="1.8796">
        <ele>16.960449</ele>
        <time>2009-05-16T14:37:31Z</time>
      </trkpt>
      <trkpt lat="50.25257" lon="1.8801">
        <ele>19.84436</ele>
        <time>2009-05-16T14:37:36Z</time>
      </trkpt>
      <trkpt lat="50.25247" lon="1.88034">
        <ele>20.805664</ele>
        <time>2009-05-16T14:37:39Z</time>
      </trkpt>
      <trkpt lat="50.25227" lon="1.88083">
        <ele>21.766968</ele>
        <time>2009-05-16T14:37:47Z</time>
      </trkpt>
      <trkpt lat="50.25218" lon="1.88099">
        <ele>22.247559</ele>
        <time>2009-05-16T14:37:50Z</time>
      </trkpt>
      <trkpt lat="50.25213" lon="1.8811">
        <ele>22.247559</ele>
        <time>2009-05-16T14:37:52Z</time>
      </trkpt>
      <trkpt lat="50.25207" lon="1.88143">
        <ele>22.728271</ele>
        <time>2009-05-16T14:37:57Z</time>
      </trkpt>
      <trkpt lat="50.25208" lon="1.88151">
        <ele>22.728271</ele>
        <time>2009-05-16T14:37:59Z</time>
      </trkpt>
      <trkpt lat="50.25212" lon="1.88143">
        <ele>23.208984</ele>
        <time>2009-05-16T14:38:10Z</time>
      </trkpt>
      <trkpt lat="50.25202" lon="1.88149">
        <ele>24.170288</ele>
        <time>2009-05-16T14:42:03Z</time>
      </trkpt>
      <trkpt lat="50.25174" lon="1.88179">
        <ele>24.170288</ele>
        <time>2009-05-16T14:44:54Z</time>
      </trkpt>
      <trkpt lat="50.25181" lon="1.88172">
        <ele>24.651001</ele>
        <time>2009-05-16T14:45:26Z</time>
      </trkpt>
      <trkpt lat="50.25185" lon="1.88167">
        <ele>24.651001</ele>
        <time>2009-05-16T14:46:25Z</time>
      </trkpt>
      <trkpt lat="50.25164" lon="1.88185">
        <ele>24.651001</ele>
        <time>2009-05-16T14:47:29Z</time>
      </trkpt>
      <trkpt lat="50.2516" lon="1.88189">
        <ele>25.612305</ele>
        <time>2009-05-16T14:48:52Z</time>
      </trkpt>
      <trkpt lat="50.25188" lon="1.88163">
        <ele>26.092896</ele>
        <time>2009-05-16T14:50:36Z</time>
      </trkpt>
      <trkpt lat="50.25188" lon="1.88164">
        <ele>26.573608</ele>
        <time>2009-05-16T14:51:32Z</time>
      </trkpt>
      <trkpt lat="50.25185" lon="1.88167">
        <ele>29.45752</ele>
        <time>2009-05-16T14:56:22Z</time>
      </trkpt>
      <trkpt lat="50.252" lon="1.88154">
        <ele>30.899536</ele>
        <time>2009-05-16T14:58:41Z</time>
      </trkpt>
      <trkpt lat="50.25207" lon="1.88151">
        <ele>30.899536</ele>
        <time>2009-05-16T14:58:58Z</time>
      </trkpt>
      <trkpt lat="50.25212" lon="1.88163">
        <ele>30.899536</ele>
        <time>2009-05-16T14:59:04Z</time>
      </trkpt>
      <trkpt lat="50.25215" lon="1.88187">
        <ele>31.860718</ele>
        <time>2009-05-16T14:59:10Z</time>
      </trkpt>
      <trkpt lat="50.25214" lon="1.88236">
        <ele>32.822266</ele>
        <time>2009-05-16T14:59:16Z</time>
      </trkpt>
      <trkpt lat="50.25212" lon="1.8826">
        <ele>32.822266</ele>
        <time>2009-05-16T14:59:19Z</time>
      </trkpt>
      <trkpt lat="50.25207" lon="1.883">
        <ele>32.822266</ele>
        <time>2009-05-16T14:59:24Z</time>
      </trkpt>
      <trkpt lat="50.25195" lon="1.88412">
        <ele>31.860718</ele>
        <time>2009-05-16T14:59:38Z</time>
      </trkpt>
      <trkpt lat="50.25185" lon="1.8851">
        <ele>30.418823</ele>
        <time>2009-05-16T14:59:49Z</time>
      </trkpt>
      <trkpt lat="50.25205" lon="1.88549">
        <ele>30.418823</ele>
        <time>2009-05-16T14:59:56Z</time>
      </trkpt>
      <trkpt lat="50.2525" lon="1.88554">
        <ele>33.783447</ele>
        <time>2009-05-16T15:00:07Z</time>
      </trkpt>
      <trkpt lat="50.25293" lon="1.88547">
        <ele>36.66748</ele>
        <time>2009-05-16T15:00:18Z</time>
      </trkpt>
      <trkpt lat="50.25333" lon="1.88538">
        <ele>40.032104</ele>
        <time>2009-05-16T15:00:28Z</time>
      </trkpt>
      <trkpt lat="50.25337" lon="1.88537">
        <ele>40.032104</ele>
        <time>2009-05-16T15:00:29Z</time>
      </trkpt>
      <trkpt lat="50.25378" lon="1.88528">
        <ele>43.396606</ele>
        <time>2009-05-16T15:00:40Z</time>
      </trkpt>
      <trkpt lat="50.25419" lon="1.88519">
        <ele>46.76123</ele>
        <time>2009-05-16T15:00:52Z</time>
      </trkpt>
      <trkpt lat="50.25465" lon="1.88517">
        <ele>50.125977</ele>
        <time>2009-05-16T15:01:06Z</time>
      </trkpt>
      <trkpt lat="50.25497" lon="1.88531">
        <ele>53.490479</ele>
        <time>2009-05-16T15:01:17Z</time>
      </trkpt>
      <trkpt lat="50.25513" lon="1.8856">
        <ele>55.413086</ele>
        <time>2009-05-16T15:01:30Z</time>
      </trkpt>
      <trkpt lat="50.25537" lon="1.88603">
        <ele>57.816528</ele>
        <time>2009-05-16T15:01:45Z</time>
      </trkpt>
      <trkpt lat="50.25565" lon="1.8864">
        <ele>59.258423</ele>
        <time>2009-05-16T15:01:59Z</time>
      </trkpt>
      <trkpt lat="50.25603" lon="1.88698">
        <ele>62.142334</ele>
        <time>2009-05-16T15:02:14Z</time>
      </trkpt>
      <trkpt lat="50.25661" lon="1.88775">
        <ele>64.065063</ele>
        <time>2009-05-16T15:02:33Z</time>
      </trkpt>
      <trkpt lat="50.2572" lon="1.88847">
        <ele>65.026367</ele>
        <time>2009-05-16T15:02:49Z</time>
      </trkpt>
      <trkpt lat="50.25782" lon="1.88903">
        <ele>65.987671</ele>
        <time>2009-05-16T15:03:03Z</time>
      </trkpt>
      <trkpt lat="50.25856" lon="1.88992">
        <ele>66.948975</ele>
        <time>2009-05-16T15:03:19Z</time>
      </trkpt>
      <trkpt lat="50.2592" lon="1.89077">
        <ele>67.429688</ele>
        <time>2009-05-16T15:03:33Z</time>
      </trkpt>
      <trkpt lat="50.25979" lon="1.89174">
        <ele>67.429688</ele>
        <time>2009-05-16T15:03:46Z</time>
      </trkpt>
      <trkpt lat="50.26033" lon="1.8929">
        <ele>66.468262</ele>
        <time>2009-05-16T15:03:59Z</time>
      </trkpt>
      <trkpt lat="50.26107" lon="1.89439">
        <ele>66.948975</ele>
        <time>2009-05-16T15:04:17Z</time>
      </trkpt>
      <trkpt lat="50.2618" lon="1.89567">
        <ele>66.468262</ele>
        <time>2009-05-16T15:04:33Z</time>
      </trkpt>
      <trkpt lat="50.26261" lon="1.89704">
        <ele>65.026367</ele>
        <time>2009-05-16T15:04:50Z</time>
      </trkpt>
      <trkpt lat="50.26326" lon="1.89812">
        <ele>65.026367</ele>
        <time>2009-05-16T15:05:04Z</time>
      </trkpt>
      <trkpt lat="50.26385" lon="1.89907">
        <ele>65.50708</ele>
        <time>2009-05-16T15:05:18Z</time>
      </trkpt>
      <trkpt lat="50.26405" lon="1.89937">
        <ele>65.50708</ele>
        <time>2009-05-16T15:05:23Z</time>
      </trkpt>
      <trkpt lat="50.26472" lon="1.8999">
        <ele>66.948975</ele>
        <time>2009-05-16T15:05:36Z</time>
      </trkpt>
      <trkpt lat="50.2655" lon="1.90065">
        <ele>67.910278</ele>
        <time>2009-05-16T15:05:50Z</time>
      </trkpt>
      <trkpt lat="50.2663" lon="1.90176">
        <ele>67.910278</ele>
        <time>2009-05-16T15:06:06Z</time>
      </trkpt>
      <trkpt lat="50.2666" lon="1.90224">
        <ele>68.390869</ele>
        <time>2009-05-16T15:06:12Z</time>
      </trkpt>
      <trkpt lat="50.26719" lon="1.90309">
        <ele>68.390869</ele>
        <time>2009-05-16T15:06:24Z</time>
      </trkpt>
      <trkpt lat="50.26789" lon="1.90449">
        <ele>67.429688</ele>
        <time>2009-05-16T15:06:40Z</time>
      </trkpt>
      <trkpt lat="50.26804" lon="1.90487">
        <ele>67.429688</ele>
        <time>2009-05-16T15:06:44Z</time>
      </trkpt>
      <trkpt lat="50.26834" lon="1.90503">
        <ele>65.987671</ele>
        <time>2009-05-16T15:06:49Z</time>
      </trkpt>
      <trkpt lat="50.26873" lon="1.90489">
        <ele>65.987671</ele>
        <time>2009-05-16T15:06:55Z</time>
      </trkpt>
      <trkpt lat="50.26898" lon="1.90487">
        <ele>66.468262</ele>
        <time>2009-05-16T15:06:59Z</time>
      </trkpt>
      <trkpt lat="50.2699" lon="1.90533">
        <ele>65.026367</ele>
        <time>2009-05-16T15:07:13Z</time>
      </trkpt>
      <trkpt lat="50.27093" lon="1.90592">
        <ele>63.584351</ele>
        <time>2009-05-16T15:07:28Z</time>
      </trkpt>
      <trkpt lat="50.27182" lon="1.9061">
        <ele>60.700317</ele>
        <time>2009-05-16T15:07:40Z</time>
      </trkpt>
      <trkpt lat="50.27301" lon="1.90609">
        <ele>59.258423</ele>
        <time>2009-05-16T15:07:56Z</time>
      </trkpt>
      <trkpt lat="50.27413" lon="1.90609">
        <ele>56.855103</ele>
        <time>2009-05-16T15:08:11Z</time>
      </trkpt>
      <trkpt lat="50.27533" lon="1.90592">
        <ele>54.451782</ele>
        <time>2009-05-16T15:08:27Z</time>
      </trkpt>
      <trkpt lat="50.27669" lon="1.90529">
        <ele>51.567871</ele>
        <time>2009-05-16T15:08:46Z</time>
      </trkpt>
      <trkpt lat="50.2779" lon="1.90493">
        <ele>51.087158</ele>
        <time>2009-05-16T15:09:03Z</time>
      </trkpt>
      <trkpt lat="50.27892" lon="1.90524">
        <ele>51.087158</ele>
        <time>2009-05-16T15:09:18Z</time>
      </trkpt>
      <trkpt lat="50.28004" lon="1.90558">
        <ele>52.048584</ele>
        <time>2009-05-16T15:09:35Z</time>
      </trkpt>
      <trkpt lat="50.28108" lon="1.90579">
        <ele>52.529175</ele>
        <time>2009-05-16T15:09:51Z</time>
      </trkpt>
      <trkpt lat="50.28218" lon="1.90589">
        <ele>52.048584</ele>
        <time>2009-05-16T15:10:08Z</time>
      </trkpt>
      <trkpt lat="50.28305" lon="1.90636">
        <ele>50.606567</ele>
        <time>2009-05-16T15:10:20Z</time>
      </trkpt>
      <trkpt lat="50.28384" lon="1.90698">
        <ele>53.490479</ele>
        <time>2009-05-16T15:10:33Z</time>
      </trkpt>
      <trkpt lat="50.28469" lon="1.90751">
        <ele>56.374512</ele>
        <time>2009-05-16T15:10:48Z</time>
      </trkpt>
      <trkpt lat="50.28565" lon="1.90801">
        <ele>56.374512</ele>
        <time>2009-05-16T15:11:04Z</time>
      </trkpt>
      <trkpt lat="50.28668" lon="1.90856">
        <ele>54.932373</ele>
        <time>2009-05-16T15:11:19Z</time>
      </trkpt>
      <trkpt lat="50.28772" lon="1.90919">
        <ele>53.971191</ele>
        <time>2009-05-16T15:11:34Z</time>
      </trkpt>
      <trkpt lat="50.28892" lon="1.90989">
        <ele>52.048584</ele>
        <time>2009-05-16T15:11:51Z</time>
      </trkpt>
      <trkpt lat="50.29007" lon="1.91038">
        <ele>51.567871</ele>
        <time>2009-05-16T15:12:08Z</time>
      </trkpt>
      <trkpt lat="50.29109" lon="1.91101">
        <ele>52.529175</ele>
        <time>2009-05-16T15:12:24Z</time>
      </trkpt>
      <trkpt lat="50.29198" lon="1.91182">
        <ele>53.490479</ele>
        <time>2009-05-16T15:12:39Z</time>
      </trkpt>
      <trkpt lat="50.29299" lon="1.91264">
        <ele>54.451782</ele>
        <time>2009-05-16T15:12:56Z</time>
      </trkpt>
      <trkpt lat="50.29387" lon="1.91318">
        <ele>55.413086</ele>
        <time>2009-05-16T15:13:11Z</time>
      </trkpt>
      <trkpt lat="50.29462" lon="1.91368">
        <ele>56.374512</ele>
        <time>2009-05-16T15:13:24Z</time>
      </trkpt>
      <trkpt lat="50.29468" lon="1.91372">
        <ele>56.374512</ele>
        <time>2009-05-16T15:13:25Z</time>
      </trkpt>
      <trkpt lat="50.29572" lon="1.9141">
        <ele>53.009766</ele>
        <time>2009-05-16T15:13:40Z</time>
      </trkpt>
      <trkpt lat="50.29696" lon="1.91418">
        <ele>50.125977</ele>
        <time>2009-05-16T15:13:56Z</time>
      </trkpt>
      <trkpt lat="50.2983" lon="1.91413">
        <ele>46.76123</ele>
        <time>2009-05-16T15:14:13Z</time>
      </trkpt>
      <trkpt lat="50.29878" lon="1.91405">
        <ele>43.396606</ele>
        <time>2009-05-16T15:14:18Z</time>
      </trkpt>
      <trkpt lat="50.2991" lon="1.9139">
        <ele>40.032104</ele>
        <time>2009-05-16T15:14:21Z</time>
      </trkpt>
      <trkpt lat="50.29943" lon="1.91371">
        <ele>37.148071</ele>
        <time>2009-05-16T15:14:24Z</time>
      </trkpt>
      <trkpt lat="50.29966" lon="1.91364">
        <ele>35.225464</ele>
        <time>2009-05-16T15:14:26Z</time>
      </trkpt>
      <trkpt lat="50.30027" lon="1.91367">
        <ele>29.93811</ele>
        <time>2009-05-16T15:14:31Z</time>
      </trkpt>
      <trkpt lat="50.30075" lon="1.91377">
        <ele>26.573608</ele>
        <time>2009-05-16T15:14:35Z</time>
      </trkpt>
      <trkpt lat="50.30123" lon="1.91386">
        <ele>23.208984</ele>
        <time>2009-05-16T15:14:39Z</time>
      </trkpt>
      <trkpt lat="50.30172" lon="1.91399">
        <ele>18.883057</ele>
        <time>2009-05-16T15:14:43Z</time>
      </trkpt>
      <trkpt lat="50.30224" lon="1.91423">
        <ele>15.03772</ele>
        <time>2009-05-16T15:14:47Z</time>
      </trkpt>
      <trkpt lat="50.30299" lon="1.91503">
        <ele>10.711792</ele>
        <time>2009-05-16T15:14:54Z</time>
      </trkpt>
      <trkpt lat="50.30314" lon="1.91526">
        <ele>9.269897</ele>
        <time>2009-05-16T15:14:56Z</time>
      </trkpt>
      <trkpt lat="50.30342" lon="1.9159">
        <ele>7.347168</ele>
        <time>2009-05-16T15:15:01Z</time>
      </trkpt>
      <trkpt lat="50.30371" lon="1.91627">
        <ele>5.905273</ele>
        <time>2009-05-16T15:15:05Z</time>
      </trkpt>
      <trkpt lat="50.30403" lon="1.91652">
        <ele>5.424561</ele>
        <time>2009-05-16T15:15:09Z</time>
      </trkpt>
      <trkpt lat="50.30418" lon="1.917">
        <ele>3.982666</ele>
        <time>2009-05-16T15:15:13Z</time>
      </trkpt>
      <trkpt lat="50.30417" lon="1.91756">
        <ele>3.501953</ele>
        <time>2009-05-16T15:15:17Z</time>
      </trkpt>
      <trkpt lat="50.30436" lon="1.91829">
        <ele>3.02124</ele>
        <time>2009-05-16T15:15:24Z</time>
      </trkpt>
      <trkpt lat="50.30466" lon="1.91847">
        <ele>3.501953</ele>
        <time>2009-05-16T15:15:28Z</time>
      </trkpt>
      <trkpt lat="50.30488" lon="1.91902">
        <ele>3.02124</ele>
        <time>2009-05-16T15:15:34Z</time>
      </trkpt>
      <trkpt lat="50.30485" lon="1.91931">
        <ele>2.540649</ele>
        <time>2009-05-16T15:15:36Z</time>
      </trkpt>
      <trkpt lat="50.30473" lon="1.9203">
        <ele>2.540649</ele>
        <time>2009-05-16T15:15:44Z</time>
      </trkpt>
      <trkpt lat="50.30484" lon="1.92112">
        <ele>2.060059</ele>
        <time>2009-05-16T15:15:51Z</time>
      </trkpt>
      <trkpt lat="50.30555" lon="1.92277">
        <ele>3.02124</ele>
        <time>2009-05-16T15:16:07Z</time>
      </trkpt>
      <trkpt lat="50.30614" lon="1.92399">
        <ele>2.540649</ele>
        <time>2009-05-16T15:16:20Z</time>
      </trkpt>
      <trkpt lat="50.30689" lon="1.92554">
        <ele>3.02124</ele>
        <time>2009-05-16T15:16:37Z</time>
      </trkpt>
      <trkpt lat="50.30727" lon="1.92634">
        <ele>2.540649</ele>
        <time>2009-05-16T15:16:46Z</time>
      </trkpt>
      <trkpt lat="50.30737" lon="1.92648">
        <ele>2.540649</ele>
        <time>2009-05-16T15:16:48Z</time>
      </trkpt>
      <trkpt lat="50.30819" lon="1.92707">
        <ele>4.463257</ele>
        <time>2009-05-16T15:17:02Z</time>
      </trkpt>
      <trkpt lat="50.30889" lon="1.92753">
        <ele>5.905273</ele>
        <time>2009-05-16T15:17:16Z</time>
      </trkpt>
      <trkpt lat="50.3092" lon="1.92786">
        <ele>8.308594</ele>
        <time>2009-05-16T15:17:24Z</time>
      </trkpt>
      <trkpt lat="50.30936" lon="1.92801">
        <ele>9.75061</ele>
        <time>2009-05-16T15:17:28Z</time>
      </trkpt>
      <trkpt lat="50.30977" lon="1.92833">
        <ele>13.115112</ele>
        <time>2009-05-16T15:17:39Z</time>
      </trkpt>
      <trkpt lat="50.31015" lon="1.92865">
        <ele>16.479736</ele>
        <time>2009-05-16T15:17:51Z</time>
      </trkpt>
      <trkpt lat="50.31037" lon="1.92881">
        <ele>18.883057</ele>
        <time>2009-05-16T15:17:58Z</time>
      </trkpt>
      <trkpt lat="50.31066" lon="1.92908">
        <ele>22.247559</ele>
        <time>2009-05-16T15:18:08Z</time>
      </trkpt>
      <trkpt lat="50.31069" lon="1.92909">
        <ele>22.247559</ele>
        <time>2009-05-16T15:18:09Z</time>
      </trkpt>
      <trkpt lat="50.311" lon="1.92936">
        <ele>25.131714</ele>
        <time>2009-05-16T15:18:20Z</time>
      </trkpt>
      <trkpt lat="50.31118" lon="1.92967">
        <ele>28.496216</ele>
        <time>2009-05-16T15:18:29Z</time>
      </trkpt>
      <trkpt lat="50.31136" lon="1.9304">
        <ele>31.380127</ele>
        <time>2009-05-16T15:18:45Z</time>
      </trkpt>
      <trkpt lat="50.31149" lon="1.93105">
        <ele>34.744873</ele>
        <time>2009-05-16T15:18:58Z</time>
      </trkpt>
      <trkpt lat="50.3116" lon="1.93167">
        <ele>38.109375</ele>
        <time>2009-05-16T15:19:11Z</time>
      </trkpt>
      <trkpt lat="50.31171" lon="1.9323">
        <ele>40.993408</ele>
        <time>2009-05-16T15:19:25Z</time>
      </trkpt>
      <trkpt lat="50.3118" lon="1.93283">
        <ele>44.358032</ele>
        <time>2009-05-16T15:19:36Z</time>
      </trkpt>
      <trkpt lat="50.31189" lon="1.93322">
        <ele>47.722534</ele>
        <time>2009-05-16T15:19:45Z</time>
      </trkpt>
      <trkpt lat="50.31204" lon="1.93379">
        <ele>50.606567</ele>
        <time>2009-05-16T15:19:58Z</time>
      </trkpt>
      <trkpt lat="50.31217" lon="1.93424">
        <ele>53.490479</ele>
        <time>2009-05-16T15:20:11Z</time>
      </trkpt>
      <trkpt lat="50.31229" lon="1.93475">
        <ele>56.855103</ele>
        <time>2009-05-16T15:20:25Z</time>
      </trkpt>
      <trkpt lat="50.31253" lon="1.93535">
        <ele>59.739136</ele>
        <time>2009-05-16T15:20:39Z</time>
      </trkpt>
      <trkpt lat="50.31278" lon="1.9359">
        <ele>61.661743</ele>
        <time>2009-05-16T15:20:51Z</time>
      </trkpt>
      <trkpt lat="50.31319" lon="1.93682">
        <ele>63.584351</ele>
        <time>2009-05-16T15:21:09Z</time>
      </trkpt>
      <trkpt lat="50.31365" lon="1.93771">
        <ele>65.50708</ele>
        <time>2009-05-16T15:21:27Z</time>
      </trkpt>
      <trkpt lat="50.31406" lon="1.93849">
        <ele>66.948975</ele>
        <time>2009-05-16T15:21:43Z</time>
      </trkpt>
      <trkpt lat="50.31416" lon="1.93871">
        <ele>67.429688</ele>
        <time>2009-05-16T15:21:47Z</time>
      </trkpt>
      <trkpt lat="50.31451" lon="1.93965">
        <ele>67.910278</ele>
        <time>2009-05-16T15:22:03Z</time>
      </trkpt>
      <trkpt lat="50.31483" lon="1.94058">
        <ele>69.352295</ele>
        <time>2009-05-16T15:22:17Z</time>
      </trkpt>
      <trkpt lat="50.31491" lon="1.94088">
        <ele>69.352295</ele>
        <time>2009-05-16T15:22:21Z</time>
      </trkpt>
      <trkpt lat="50.31499" lon="1.94145">
        <ele>69.832886</ele>
        <time>2009-05-16T15:22:28Z</time>
      </trkpt>
      <trkpt lat="50.31516" lon="1.94273">
        <ele>70.313477</ele>
        <time>2009-05-16T15:22:42Z</time>
      </trkpt>
      <trkpt lat="50.31518" lon="1.94293">
        <ele>70.313477</ele>
        <time>2009-05-16T15:22:44Z</time>
      </trkpt>
      <trkpt lat="50.3153" lon="1.94415">
        <ele>70.794189</ele>
        <time>2009-05-16T15:22:56Z</time>
      </trkpt>
      <trkpt lat="50.31541" lon="1.94473">
        <ele>71.274902</ele>
        <time>2009-05-16T15:23:02Z</time>
      </trkpt>
      <trkpt lat="50.31551" lon="1.94509">
        <ele>71.274902</ele>
        <time>2009-05-16T15:23:06Z</time>
      </trkpt>
      <trkpt lat="50.31561" lon="1.94555">
        <ele>71.755493</ele>
        <time>2009-05-16T15:23:11Z</time>
      </trkpt>
      <trkpt lat="50.31608" lon="1.9472">
        <ele>73.197632</ele>
        <time>2009-05-16T15:23:31Z</time>
      </trkpt>
      <trkpt lat="50.31644" lon="1.94846">
        <ele>75.60083</ele>
        <time>2009-05-16T15:23:47Z</time>
      </trkpt>
      <trkpt lat="50.31678" lon="1.94983">
        <ele>78.484741</ele>
        <time>2009-05-16T15:24:04Z</time>
      </trkpt>
      <trkpt lat="50.31698" lon="1.95122">
        <ele>80.888184</ele>
        <time>2009-05-16T15:24:21Z</time>
      </trkpt>
      <trkpt lat="50.317" lon="1.95254">
        <ele>82.330078</ele>
        <time>2009-05-16T15:24:36Z</time>
      </trkpt>
      <trkpt lat="50.31697" lon="1.95413">
        <ele>83.291382</ele>
        <time>2009-05-16T15:24:52Z</time>
      </trkpt>
      <trkpt lat="50.31698" lon="1.95591">
        <ele>85.69458</ele>
        <time>2009-05-16T15:25:10Z</time>
      </trkpt>
      <trkpt lat="50.31707" lon="1.95739">
        <ele>86.175293</ele>
        <time>2009-05-16T15:25:25Z</time>
      </trkpt>
      <trkpt lat="50.31716" lon="1.95906">
        <ele>85.213989</ele>
        <time>2009-05-16T15:25:41Z</time>
      </trkpt>
      <trkpt lat="50.31731" lon="1.96064">
        <ele>83.771973</ele>
        <time>2009-05-16T15:25:55Z</time>
      </trkpt>
      <trkpt lat="50.31757" lon="1.96222">
        <ele>82.810791</ele>
        <time>2009-05-16T15:26:09Z</time>
      </trkpt>
      <trkpt lat="50.31761" lon="1.96271">
        <ele>81.368774</ele>
        <time>2009-05-16T15:26:13Z</time>
      </trkpt>
      <trkpt lat="50.31768" lon="1.96336">
        <ele>79.926636</ele>
        <time>2009-05-16T15:26:18Z</time>
      </trkpt>
      <trkpt lat="50.31795" lon="1.96382">
        <ele>78.484741</ele>
        <time>2009-05-16T15:26:23Z</time>
      </trkpt>
      <trkpt lat="50.31876" lon="1.96464">
        <ele>75.120239</ele>
        <time>2009-05-16T15:26:34Z</time>
      </trkpt>
      <trkpt lat="50.31952" lon="1.96622">
        <ele>72.236206</ele>
        <time>2009-05-16T15:26:48Z</time>
      </trkpt>
      <trkpt lat="50.31998" lon="1.96799">
        <ele>70.313477</ele>
        <time>2009-05-16T15:27:02Z</time>
      </trkpt>
      <trkpt lat="50.32054" lon="1.97026">
        <ele>68.390869</ele>
        <time>2009-05-16T15:27:20Z</time>
      </trkpt>
      <trkpt lat="50.32102" lon="1.97215">
        <ele>67.910278</ele>
        <time>2009-05-16T15:27:36Z</time>
      </trkpt>
      <trkpt lat="50.32157" lon="1.9737">
        <ele>70.313477</ele>
        <time>2009-05-16T15:27:51Z</time>
      </trkpt>
      <trkpt lat="50.32201" lon="1.97489">
        <ele>71.274902</ele>
        <time>2009-05-16T15:28:04Z</time>
      </trkpt>
      <trkpt lat="50.32246" lon="1.97616">
        <ele>70.313477</ele>
        <time>2009-05-16T15:28:17Z</time>
      </trkpt>
      <trkpt lat="50.32318" lon="1.97787">
        <ele>70.313477</ele>
        <time>2009-05-16T15:28:35Z</time>
      </trkpt>
      <trkpt lat="50.32383" lon="1.97929">
        <ele>70.794189</ele>
        <time>2009-05-16T15:28:50Z</time>
      </trkpt>
      <trkpt lat="50.32471" lon="1.98082">
        <ele>70.794189</ele>
        <time>2009-05-16T15:29:08Z</time>
      </trkpt>
      <trkpt lat="50.32537" lon="1.98199">
        <ele>71.755493</ele>
        <time>2009-05-16T15:29:22Z</time>
      </trkpt>
      <trkpt lat="50.32572" lon="1.9829">
        <ele>72.236206</ele>
        <time>2009-05-16T15:29:32Z</time>
      </trkpt>
      <trkpt lat="50.32617" lon="1.98463">
        <ele>72.716919</ele>
        <time>2009-05-16T15:29:50Z</time>
      </trkpt>
      <trkpt lat="50.32667" lon="1.98633">
        <ele>73.197632</ele>
        <time>2009-05-16T15:30:07Z</time>
      </trkpt>
      <trkpt lat="50.32716" lon="1.98816">
        <ele>73.197632</ele>
        <time>2009-05-16T15:30:25Z</time>
      </trkpt>
      <trkpt lat="50.32765" lon="1.99005">
        <ele>73.678223</ele>
        <time>2009-05-16T15:30:43Z</time>
      </trkpt>
      <trkpt lat="50.3281" lon="1.99161">
        <ele>73.678223</ele>
        <time>2009-05-16T15:30:58Z</time>
      </trkpt>
      <trkpt lat="50.32855" lon="1.99324">
        <ele>73.678223</ele>
        <time>2009-05-16T15:31:14Z</time>
      </trkpt>
      <trkpt lat="50.32904" lon="1.99486">
        <ele>73.197632</ele>
        <time>2009-05-16T15:31:30Z</time>
      </trkpt>
      <trkpt lat="50.32965" lon="1.99581">
        <ele>73.197632</ele>
        <time>2009-05-16T15:31:42Z</time>
      </trkpt>
      <trkpt lat="50.32979" lon="1.99606">
        <ele>72.716919</ele>
        <time>2009-05-16T15:31:45Z</time>
      </trkpt>
      <trkpt lat="50.32987" lon="1.99688">
        <ele>73.197632</ele>
        <time>2009-05-16T15:31:53Z</time>
      </trkpt>
      <trkpt lat="50.3298" lon="1.99756">
        <ele>72.236206</ele>
        <time>2009-05-16T15:31:59Z</time>
      </trkpt>
      <trkpt lat="50.32981" lon="1.99791">
        <ele>72.236206</ele>
        <time>2009-05-16T15:32:02Z</time>
      </trkpt>
      <trkpt lat="50.33015" lon="1.99955">
        <ele>71.755493</ele>
        <time>2009-05-16T15:32:17Z</time>
      </trkpt>
      <trkpt lat="50.33057" lon="2.00081">
        <ele>71.274902</ele>
        <time>2009-05-16T15:32:30Z</time>
      </trkpt>
      <trkpt lat="50.3307" lon="2.00113">
        <ele>69.832886</ele>
        <time>2009-05-16T15:32:33Z</time>
      </trkpt>
      <trkpt lat="50.33075" lon="2.00125">
        <ele>69.352295</ele>
        <time>2009-05-16T15:32:34Z</time>
      </trkpt>
      <trkpt lat="50.33093" lon="2.00194">
        <ele>64.065063</ele>
        <time>2009-05-16T15:32:39Z</time>
      </trkpt>
      <trkpt lat="50.331" lon="2.00246">
        <ele>60.219727</ele>
        <time>2009-05-16T15:32:42Z</time>
      </trkpt>
      <trkpt lat="50.33108" lon="2.00321">
        <ele>56.855103</ele>
        <time>2009-05-16T15:32:46Z</time>
      </trkpt>
      <trkpt lat="50.33125" lon="2.00411">
        <ele>53.971191</ele>
        <time>2009-05-16T15:32:51Z</time>
      </trkpt>
      <trkpt lat="50.33127" lon="2.00513">
        <ele>56.374512</ele>
        <time>2009-05-16T15:32:57Z</time>
      </trkpt>
      <trkpt lat="50.33132" lon="2.00563">
        <ele>59.258423</ele>
        <time>2009-05-16T15:33:01Z</time>
      </trkpt>
      <trkpt lat="50.33136" lon="2.00582">
        <ele>60.700317</ele>
        <time>2009-05-16T15:33:03Z</time>
      </trkpt>
      <trkpt lat="50.33142" lon="2.006">
        <ele>61.18103</ele>
        <time>2009-05-16T15:33:05Z</time>
      </trkpt>
      <trkpt lat="50.33152" lon="2.00629">
        <ele>62.142334</ele>
        <time>2009-05-16T15:33:08Z</time>
      </trkpt>
      <trkpt lat="50.33172" lon="2.00678">
        <ele>64.065063</ele>
        <time>2009-05-16T15:33:13Z</time>
      </trkpt>
      <trkpt lat="50.33184" lon="2.00703">
        <ele>65.987671</ele>
        <time>2009-05-16T15:33:16Z</time>
      </trkpt>
      <trkpt lat="50.33195" lon="2.00741">
        <ele>66.948975</ele>
        <time>2009-05-16T15:33:21Z</time>
      </trkpt>
      <trkpt lat="50.33207" lon="2.00768">
        <ele>67.429688</ele>
        <time>2009-05-16T15:33:25Z</time>
      </trkpt>
      <trkpt lat="50.33233" lon="2.0083">
        <ele>68.390869</ele>
        <time>2009-05-16T15:33:34Z</time>
      </trkpt>
      <trkpt lat="50.33278" lon="2.00936">
        <ele>71.274902</ele>
        <time>2009-05-16T15:33:49Z</time>
      </trkpt>
      <trkpt lat="50.33314" lon="2.01018">
        <ele>74.158813</ele>
        <time>2009-05-16T15:34:00Z</time>
      </trkpt>
      <trkpt lat="50.33318" lon="2.01034">
        <ele>75.120239</ele>
        <time>2009-05-16T15:34:02Z</time>
      </trkpt>
      <trkpt lat="50.33321" lon="2.01092">
        <ele>78.004028</ele>
        <time>2009-05-16T15:34:09Z</time>
      </trkpt>
      <trkpt lat="50.33324" lon="2.01114">
        <ele>78.965454</ele>
        <time>2009-05-16T15:34:12Z</time>
      </trkpt>
      <trkpt lat="50.33342" lon="2.01161">
        <ele>80.407471</ele>
        <time>2009-05-16T15:34:19Z</time>
      </trkpt>
      <trkpt lat="50.33374" lon="2.01232">
        <ele>81.849365</ele>
        <time>2009-05-16T15:34:32Z</time>
      </trkpt>
      <trkpt lat="50.33445" lon="2.01278">
        <ele>81.849365</ele>
        <time>2009-05-16T15:34:48Z</time>
      </trkpt>
      <trkpt lat="50.33472" lon="2.01296">
        <ele>81.368774</ele>
        <time>2009-05-16T15:34:53Z</time>
      </trkpt>
      <trkpt lat="50.3357" lon="2.01362">
        <ele>79.446045</ele>
        <time>2009-05-16T15:35:10Z</time>
      </trkpt>
      <trkpt lat="50.33592" lon="2.01375">
        <ele>79.446045</ele>
        <time>2009-05-16T15:35:14Z</time>
      </trkpt>
      <trkpt lat="50.33626" lon="2.01384">
        <ele>79.926636</ele>
        <time>2009-05-16T15:35:20Z</time>
      </trkpt>
      <trkpt lat="50.33692" lon="2.01381">
        <ele>83.291382</ele>
        <time>2009-05-16T15:35:33Z</time>
      </trkpt>
      <trkpt lat="50.33753" lon="2.01377">
        <ele>86.175293</ele>
        <time>2009-05-16T15:35:46Z</time>
      </trkpt>
      <trkpt lat="50.33829" lon="2.01369">
        <ele>89.539917</ele>
        <time>2009-05-16T15:36:03Z</time>
      </trkpt>
      <trkpt lat="50.33897" lon="2.01364">
        <ele>92.42395</ele>
        <time>2009-05-16T15:36:18Z</time>
      </trkpt>
      <trkpt lat="50.3396" lon="2.0136">
        <ele>95.788452</ele>
        <time>2009-05-16T15:36:31Z</time>
      </trkpt>
      <trkpt lat="50.34022" lon="2.01355">
        <ele>97.230469</ele>
        <time>2009-05-16T15:36:46Z</time>
      </trkpt>
      <trkpt lat="50.34053" lon="2.01351">
        <ele>98.191895</ele>
        <time>2009-05-16T15:36:54Z</time>
      </trkpt>
      <trkpt lat="50.34093" lon="2.01356">
        <ele>98.672485</ele>
        <time>2009-05-16T15:37:07Z</time>
      </trkpt>
      <trkpt lat="50.34139" lon="2.0138">
        <ele>100.114502</ele>
        <time>2009-05-16T15:37:18Z</time>
      </trkpt>
      <trkpt lat="50.34198" lon="2.01434">
        <ele>102.037109</ele>
        <time>2009-05-16T15:37:31Z</time>
      </trkpt>
      <trkpt lat="50.34217" lon="2.01451">
        <ele>102.5177</ele>
        <time>2009-05-16T15:37:35Z</time>
      </trkpt>
      <trkpt lat="50.34227" lon="2.0146">
        <ele>102.998291</ele>
        <time>2009-05-16T15:37:37Z</time>
      </trkpt>
      <trkpt lat="50.34254" lon="2.01473">
        <ele>103.479004</ele>
        <time>2009-05-16T15:37:42Z</time>
      </trkpt>
      <trkpt lat="50.34278" lon="2.01477">
        <ele>104.44043</ele>
        <time>2009-05-16T15:37:47Z</time>
      </trkpt>
      <trkpt lat="50.34295" lon="2.01474">
        <ele>104.921021</ele>
        <time>2009-05-16T15:37:50Z</time>
      </trkpt>
      <trkpt lat="50.34356" lon="2.01477">
        <ele>105.882446</ele>
        <time>2009-05-16T15:38:02Z</time>
      </trkpt>
      <trkpt lat="50.34416" lon="2.01496">
        <ele>106.843628</ele>
        <time>2009-05-16T15:38:14Z</time>
      </trkpt>
      <trkpt lat="50.34457" lon="2.01507">
        <ele>107.805054</ele>
        <time>2009-05-16T15:38:22Z</time>
      </trkpt>
      <trkpt lat="50.34521" lon="2.01513">
        <ele>109.246948</ele>
        <time>2009-05-16T15:38:35Z</time>
      </trkpt>
      <trkpt lat="50.3453" lon="2.01516">
        <ele>109.246948</ele>
        <time>2009-05-16T15:38:37Z</time>
      </trkpt>
      <trkpt lat="50.34548" lon="2.0153">
        <ele>109.727661</ele>
        <time>2009-05-16T15:38:41Z</time>
      </trkpt>
      <trkpt lat="50.34597" lon="2.01587">
        <ele>110.208252</ele>
        <time>2009-05-16T15:38:53Z</time>
      </trkpt>
      <trkpt lat="50.34664" lon="2.01634">
        <ele>111.650269</ele>
        <time>2009-05-16T15:39:08Z</time>
      </trkpt>
      <trkpt lat="50.34673" lon="2.01642">
        <ele>111.650269</ele>
        <time>2009-05-16T15:39:10Z</time>
      </trkpt>
      <trkpt lat="50.34745" lon="2.01697">
        <ele>112.611572</ele>
        <time>2009-05-16T15:39:25Z</time>
      </trkpt>
      <trkpt lat="50.3481" lon="2.01731">
        <ele>113.572998</ele>
        <time>2009-05-16T15:39:38Z</time>
      </trkpt>
      <trkpt lat="50.34826" lon="2.01739">
        <ele>113.572998</ele>
        <time>2009-05-16T15:39:41Z</time>
      </trkpt>
      <trkpt lat="50.34904" lon="2.01803">
        <ele>115.014893</ele>
        <time>2009-05-16T15:39:57Z</time>
      </trkpt>
      <trkpt lat="50.34948" lon="2.01842">
        <ele>115.976196</ele>
        <time>2009-05-16T15:40:07Z</time>
      </trkpt>
      <trkpt lat="50.35012" lon="2.01901">
        <ele>115.014893</ele>
        <time>2009-05-16T15:40:21Z</time>
      </trkpt>
      <trkpt lat="50.35018" lon="2.01906">
        <ele>115.014893</ele>
        <time>2009-05-16T15:40:22Z</time>
      </trkpt>
      <trkpt lat="50.35062" lon="2.01966">
        <ele>111.650269</ele>
        <time>2009-05-16T15:40:30Z</time>
      </trkpt>
      <trkpt lat="50.35097" lon="2.02018">
        <ele>108.285645</ele>
        <time>2009-05-16T15:40:35Z</time>
      </trkpt>
      <trkpt lat="50.35119" lon="2.0206">
        <ele>104.921021</ele>
        <time>2009-05-16T15:40:38Z</time>
      </trkpt>
      <trkpt lat="50.35148" lon="2.02101">
        <ele>101.075684</ele>
        <time>2009-05-16T15:40:41Z</time>
      </trkpt>
      <trkpt lat="50.3518" lon="2.02139">
        <ele>97.711182</ele>
        <time>2009-05-16T15:40:44Z</time>
      </trkpt>
      <trkpt lat="50.35212" lon="2.02179">
        <ele>94.827148</ele>
        <time>2009-05-16T15:40:47Z</time>
      </trkpt>
      <trkpt lat="50.35246" lon="2.02221">
        <ele>90.501343</ele>
        <time>2009-05-16T15:40:50Z</time>
      </trkpt>
      <trkpt lat="50.3528" lon="2.0226">
        <ele>86.656006</ele>
        <time>2009-05-16T15:40:53Z</time>
      </trkpt>
      <trkpt lat="50.35317" lon="2.02294">
        <ele>81.849365</ele>
        <time>2009-05-16T15:40:56Z</time>
      </trkpt>
      <trkpt lat="50.35358" lon="2.02323">
        <ele>78.004028</ele>
        <time>2009-05-16T15:40:59Z</time>
      </trkpt>
      <trkpt lat="50.35386" lon="2.02342">
        <ele>74.158813</ele>
        <time>2009-05-16T15:41:01Z</time>
      </trkpt>
      <trkpt lat="50.35443" lon="2.02386">
        <ele>69.832886</ele>
        <time>2009-05-16T15:41:05Z</time>
      </trkpt>
      <trkpt lat="50.35481" lon="2.02425">
        <ele>66.468262</ele>
        <time>2009-05-16T15:41:08Z</time>
      </trkpt>
      <trkpt lat="50.3553" lon="2.02485">
        <ele>63.103638</ele>
        <time>2009-05-16T15:41:12Z</time>
      </trkpt>
      <trkpt lat="50.35565" lon="2.02529">
        <ele>61.661743</ele>
        <time>2009-05-16T15:41:15Z</time>
      </trkpt>
      <trkpt lat="50.35601" lon="2.0257">
        <ele>58.297119</ele>
        <time>2009-05-16T15:41:18Z</time>
      </trkpt>
      <trkpt lat="50.35652" lon="2.0262">
        <ele>54.451782</ele>
        <time>2009-05-16T15:41:22Z</time>
      </trkpt>
      <trkpt lat="50.35685" lon="2.02668">
        <ele>51.087158</ele>
        <time>2009-05-16T15:41:25Z</time>
      </trkpt>
      <trkpt lat="50.3572" lon="2.02741">
        <ele>48.68396</ele>
        <time>2009-05-16T15:41:29Z</time>
      </trkpt>
      <trkpt lat="50.35781" lon="2.02852">
        <ele>46.28064</ele>
        <time>2009-05-16T15:41:36Z</time>
      </trkpt>
      <trkpt lat="50.35875" lon="2.02968">
        <ele>42.916016</ele>
        <time>2009-05-16T15:41:46Z</time>
      </trkpt>
      <trkpt lat="50.35999" lon="2.03064">
        <ele>40.993408</ele>
        <time>2009-05-16T15:41:59Z</time>
      </trkpt>
      <trkpt lat="50.36069" lon="2.03087">
        <ele>37.628662</ele>
        <time>2009-05-16T15:42:06Z</time>
      </trkpt>
      <trkpt lat="50.36088" lon="2.03093">
        <ele>40.512817</ele>
        <time>2009-05-16T15:42:08Z</time>
      </trkpt>
      <trkpt lat="50.36097" lon="2.03097">
        <ele>40.512817</ele>
        <time>2009-05-16T15:42:09Z</time>
      </trkpt>
      <trkpt lat="50.36187" lon="2.0316">
        <ele>41.954712</ele>
        <time>2009-05-16T15:42:20Z</time>
      </trkpt>
      <trkpt lat="50.36244" lon="2.03232">
        <ele>38.590088</ele>
        <time>2009-05-16T15:42:28Z</time>
      </trkpt>
      <trkpt lat="50.36259" lon="2.03285">
        <ele>38.109375</ele>
        <time>2009-05-16T15:42:32Z</time>
      </trkpt>
      <trkpt lat="50.36262" lon="2.03354">
        <ele>37.628662</ele>
        <time>2009-05-16T15:42:37Z</time>
      </trkpt>
      <trkpt lat="50.36234" lon="2.03507">
        <ele>40.032104</ele>
        <time>2009-05-16T15:42:51Z</time>
      </trkpt>
      <trkpt lat="50.36203" lon="2.03646">
        <ele>41.954712</ele>
        <time>2009-05-16T15:43:06Z</time>
      </trkpt>
      <trkpt lat="50.36176" lon="2.03731">
        <ele>45.319214</ele>
        <time>2009-05-16T15:43:16Z</time>
      </trkpt>
      <trkpt lat="50.3617" lon="2.03748">
        <ele>45.799927</ele>
        <time>2009-05-16T15:43:18Z</time>
      </trkpt>
      <trkpt lat="50.3614" lon="2.03813">
        <ele>49.164551</ele>
        <time>2009-05-16T15:43:27Z</time>
      </trkpt>
      <trkpt lat="50.36134" lon="2.03827">
        <ele>49.164551</ele>
        <time>2009-05-16T15:43:29Z</time>
      </trkpt>
      <trkpt lat="50.36126" lon="2.03876">
        <ele>49.645264</ele>
        <time>2009-05-16T15:43:37Z</time>
      </trkpt>
      <trkpt lat="50.36134" lon="2.03892">
        <ele>49.164551</ele>
        <time>2009-05-16T15:43:43Z</time>
      </trkpt>
      <trkpt lat="50.36143" lon="2.03897">
        <ele>49.164551</ele>
        <time>2009-05-16T15:43:45Z</time>
      </trkpt>
      <trkpt lat="50.36173" lon="2.03901">
        <ele>47.241821</ele>
        <time>2009-05-16T15:43:50Z</time>
      </trkpt>
      <trkpt lat="50.36244" lon="2.03908">
        <ele>43.877319</ele>
        <time>2009-05-16T15:43:59Z</time>
      </trkpt>
      <trkpt lat="50.36279" lon="2.03901">
        <ele>41.954712</ele>
        <time>2009-05-16T15:44:03Z</time>
      </trkpt>
      <trkpt lat="50.36314" lon="2.03889">
        <ele>39.55127</ele>
        <time>2009-05-16T15:44:07Z</time>
      </trkpt>
      <trkpt lat="50.36359" lon="2.03864">
        <ele>36.66748</ele>
        <time>2009-05-16T15:44:12Z</time>
      </trkpt>
      <trkpt lat="50.36386" lon="2.03848">
        <ele>35.225464</ele>
        <time>2009-05-16T15:44:15Z</time>
      </trkpt>
      <trkpt lat="50.36395" lon="2.03844">
        <ele>34.744873</ele>
        <time>2009-05-16T15:44:16Z</time>
      </trkpt>
      <trkpt lat="50.36425" lon="2.03841">
        <ele>32.822266</ele>
        <time>2009-05-16T15:44:19Z</time>
      </trkpt>
      <trkpt lat="50.36456" lon="2.03875">
        <ele>31.380127</ele>
        <time>2009-05-16T15:44:23Z</time>
      </trkpt>
      <trkpt lat="50.36462" lon="2.03889">
        <ele>31.380127</ele>
        <time>2009-05-16T15:44:24Z</time>
      </trkpt>
      <trkpt lat="50.36472" lon="2.03995">
        <ele>29.93811</ele>
        <time>2009-05-16T15:44:31Z</time>
      </trkpt>
      <trkpt lat="50.36419" lon="2.04126">
        <ele>30.418823</ele>
        <time>2009-05-16T15:44:43Z</time>
      </trkpt>
      <trkpt lat="50.36413" lon="2.04135">
        <ele>30.899536</ele>
        <time>2009-05-16T15:44:51Z</time>
      </trkpt>
      <trkpt lat="50.36413" lon="2.04135">
        <ele>30.899536</ele>
        <time>2009-05-16T15:44:55Z</time>
      </trkpt>
      <trkpt lat="50.3642" lon="2.04146">
        <ele>30.418823</ele>
        <time>2009-05-16T15:45:00Z</time>
      </trkpt>
      <trkpt lat="50.36426" lon="2.04153">
        <ele>29.93811</ele>
        <time>2009-05-16T15:45:02Z</time>
      </trkpt>
      <trkpt lat="50.36445" lon="2.0417">
        <ele>29.45752</ele>
        <time>2009-05-16T15:45:06Z</time>
      </trkpt>
      <trkpt lat="50.36526" lon="2.04249">
        <ele>26.573608</ele>
        <time>2009-05-16T15:45:18Z</time>
      </trkpt>
      <trkpt lat="50.36612" lon="2.04319">
        <ele>23.208984</ele>
        <time>2009-05-16T15:45:29Z</time>
      </trkpt>
      <trkpt lat="50.36646" lon="2.04341">
        <ele>21.766968</ele>
        <time>2009-05-16T15:45:33Z</time>
      </trkpt>
      <trkpt lat="50.36749" lon="2.04463">
        <ele>20.324951</ele>
        <time>2009-05-16T15:45:48Z</time>
      </trkpt>
      <trkpt lat="50.36845" lon="2.04537">
        <ele>19.84436</ele>
        <time>2009-05-16T15:46:02Z</time>
      </trkpt>
      <trkpt lat="50.36928" lon="2.04599">
        <ele>20.324951</ele>
        <time>2009-05-16T15:46:15Z</time>
      </trkpt>
      <trkpt lat="50.36972" lon="2.04624">
        <ele>19.84436</ele>
        <time>2009-05-16T15:46:22Z</time>
      </trkpt>
      <trkpt lat="50.37002" lon="2.04628">
        <ele>19.84436</ele>
        <time>2009-05-16T15:46:27Z</time>
      </trkpt>
      <trkpt lat="50.37034" lon="2.04674">
        <ele>18.402344</ele>
        <time>2009-05-16T15:46:34Z</time>
      </trkpt>
      <trkpt lat="50.37038" lon="2.04695">
        <ele>18.402344</ele>
        <time>2009-05-16T15:46:36Z</time>
      </trkpt>
      <trkpt lat="50.37042" lon="2.04743">
        <ele>17.921753</ele>
        <time>2009-05-16T15:46:40Z</time>
      </trkpt>
      <trkpt lat="50.37043" lon="2.04767">
        <ele>17.441162</ele>
        <time>2009-05-16T15:46:42Z</time>
      </trkpt>
      <trkpt lat="50.37056" lon="2.04917">
        <ele>16.960449</ele>
        <time>2009-05-16T15:46:56Z</time>
      </trkpt>
      <trkpt lat="50.37068" lon="2.05052">
        <ele>17.441162</ele>
        <time>2009-05-16T15:47:09Z</time>
      </trkpt>
      <trkpt lat="50.3707" lon="2.05072">
        <ele>17.441162</ele>
        <time>2009-05-16T15:47:11Z</time>
      </trkpt>
      <trkpt lat="50.37094" lon="2.05133">
        <ele>18.402344</ele>
        <time>2009-05-16T15:47:18Z</time>
      </trkpt>
      <trkpt lat="50.37108" lon="2.05151">
        <ele>18.883057</ele>
        <time>2009-05-16T15:47:21Z</time>
      </trkpt>
      <trkpt lat="50.37131" lon="2.05162">
        <ele>20.324951</ele>
        <time>2009-05-16T15:47:26Z</time>
      </trkpt>
      <trkpt lat="50.37169" lon="2.05173">
        <ele>22.728271</ele>
        <time>2009-05-16T15:47:34Z</time>
      </trkpt>
      <trkpt lat="50.37212" lon="2.05213">
        <ele>26.092896</ele>
        <time>2009-05-16T15:47:44Z</time>
      </trkpt>
      <trkpt lat="50.37216" lon="2.05219">
        <ele>26.573608</ele>
        <time>2009-05-16T15:47:45Z</time>
      </trkpt>
      <trkpt lat="50.37253" lon="2.05266">
        <ele>29.93811</ele>
        <time>2009-05-16T15:47:56Z</time>
      </trkpt>
      <trkpt lat="50.37293" lon="2.05304">
        <ele>31.860718</ele>
        <time>2009-05-16T15:48:07Z</time>
      </trkpt>
      <trkpt lat="50.37312" lon="2.0532">
        <ele>32.341553</ele>
        <time>2009-05-16T15:48:12Z</time>
      </trkpt>
      <trkpt lat="50.37373" lon="2.05386">
        <ele>32.822266</ele>
        <time>2009-05-16T15:48:26Z</time>
      </trkpt>
      <trkpt lat="50.37433" lon="2.05434">
        <ele>31.860718</ele>
        <time>2009-05-16T15:48:39Z</time>
      </trkpt>
      <trkpt lat="50.3745" lon="2.05461">
        <ele>31.860718</ele>
        <time>2009-05-16T15:48:46Z</time>
      </trkpt>
      <trkpt lat="50.37467" lon="2.05484">
        <ele>31.860718</ele>
        <time>2009-05-16T15:48:50Z</time>
      </trkpt>
      <trkpt lat="50.3753" lon="2.05625">
        <ele>29.93811</ele>
        <time>2009-05-16T15:49:05Z</time>
      </trkpt>
      <trkpt lat="50.37602" lon="2.05742">
        <ele>31.860718</ele>
        <time>2009-05-16T15:49:21Z</time>
      </trkpt>
      <trkpt lat="50.37672" lon="2.05841">
        <ele>32.822266</ele>
        <time>2009-05-16T15:49:36Z</time>
      </trkpt>
      <trkpt lat="50.37734" lon="2.05976">
        <ele>30.899536</ele>
        <time>2009-05-16T15:49:52Z</time>
      </trkpt>
      <trkpt lat="50.37789" lon="2.06114">
        <ele>28.015503</ele>
        <time>2009-05-16T15:50:05Z</time>
      </trkpt>
      <trkpt lat="50.3786" lon="2.06294">
        <ele>26.573608</ele>
        <time>2009-05-16T15:50:21Z</time>
      </trkpt>
      <trkpt lat="50.37918" lon="2.06458">
        <ele>26.092896</ele>
        <time>2009-05-16T15:50:36Z</time>
      </trkpt>
      <trkpt lat="50.3798" lon="2.06642">
        <ele>26.092896</ele>
        <time>2009-05-16T15:50:53Z</time>
      </trkpt>
      <trkpt lat="50.38034" lon="2.068">
        <ele>28.015503</ele>
        <time>2009-05-16T15:51:09Z</time>
      </trkpt>
      <trkpt lat="50.38093" lon="2.06976">
        <ele>28.015503</ele>
        <time>2009-05-16T15:51:26Z</time>
      </trkpt>
      <trkpt lat="50.38155" lon="2.07111">
        <ele>27.054321</ele>
        <time>2009-05-16T15:51:40Z</time>
      </trkpt>
      <trkpt lat="50.38227" lon="2.07259">
        <ele>28.015503</ele>
        <time>2009-05-16T15:51:56Z</time>
      </trkpt>
      <trkpt lat="50.38311" lon="2.07424">
        <ele>30.418823</ele>
        <time>2009-05-16T15:52:15Z</time>
      </trkpt>
      <trkpt lat="50.38366" lon="2.07533">
        <ele>33.302856</ele>
        <time>2009-05-16T15:52:29Z</time>
      </trkpt>
      <trkpt lat="50.38426" lon="2.07646">
        <ele>34.744873</ele>
        <time>2009-05-16T15:52:44Z</time>
      </trkpt>
      <trkpt lat="50.38511" lon="2.07794">
        <ele>32.822266</ele>
        <time>2009-05-16T15:53:02Z</time>
      </trkpt>
      <trkpt lat="50.38517" lon="2.07803">
        <ele>32.822266</ele>
        <time>2009-05-16T15:53:03Z</time>
      </trkpt>
      <trkpt lat="50.38597" lon="2.07944">
        <ele>29.45752</ele>
        <time>2009-05-16T15:53:17Z</time>
      </trkpt>
      <trkpt lat="50.38704" lon="2.08125">
        <ele>28.976929</ele>
        <time>2009-05-16T15:53:35Z</time>
      </trkpt>
      <trkpt lat="50.38799" lon="2.08294">
        <ele>28.496216</ele>
        <time>2009-05-16T15:53:52Z</time>
      </trkpt>
      <trkpt lat="50.38894" lon="2.0849">
        <ele>25.612305</ele>
        <time>2009-05-16T15:54:10Z</time>
      </trkpt>
      <trkpt lat="50.38988" lon="2.087">
        <ele>25.612305</ele>
        <time>2009-05-16T15:54:29Z</time>
      </trkpt>
      <trkpt lat="50.39049" lon="2.0887">
        <ele>23.208984</ele>
        <time>2009-05-16T15:54:43Z</time>
      </trkpt>
      <trkpt lat="50.39107" lon="2.09034">
        <ele>25.612305</ele>
        <time>2009-05-16T15:54:58Z</time>
      </trkpt>
      <trkpt lat="50.39165" lon="2.09168">
        <ele>26.092896</ele>
        <time>2009-05-16T15:55:11Z</time>
      </trkpt>
      <trkpt lat="50.39236" lon="2.09335">
        <ele>27.054321</ele>
        <time>2009-05-16T15:55:28Z</time>
      </trkpt>
      <trkpt lat="50.393" lon="2.09489">
        <ele>28.015503</ele>
        <time>2009-05-16T15:55:44Z</time>
      </trkpt>
      <trkpt lat="50.39349" lon="2.0964">
        <ele>28.976929</ele>
        <time>2009-05-16T15:55:59Z</time>
      </trkpt>
      <trkpt lat="50.39399" lon="2.09789">
        <ele>28.496216</ele>
        <time>2009-05-16T15:56:14Z</time>
      </trkpt>
      <trkpt lat="50.3946" lon="2.09921">
        <ele>27.534912</ele>
        <time>2009-05-16T15:56:28Z</time>
      </trkpt>
      <trkpt lat="50.39535" lon="2.10071">
        <ele>26.573608</ele>
        <time>2009-05-16T15:56:44Z</time>
      </trkpt>
      <trkpt lat="50.39598" lon="2.10209">
        <ele>27.534912</ele>
        <time>2009-05-16T15:56:59Z</time>
      </trkpt>
      <trkpt lat="50.39655" lon="2.1036">
        <ele>26.573608</ele>
        <time>2009-05-16T15:57:14Z</time>
      </trkpt>
      <trkpt lat="50.39711" lon="2.1051">
        <ele>28.015503</ele>
        <time>2009-05-16T15:57:29Z</time>
      </trkpt>
      <trkpt lat="50.39735" lon="2.10652">
        <ele>28.015503</ele>
        <time>2009-05-16T15:57:41Z</time>
      </trkpt>
      <trkpt lat="50.39759" lon="2.10862">
        <ele>26.573608</ele>
        <time>2009-05-16T15:57:58Z</time>
      </trkpt>
      <trkpt lat="50.39782" lon="2.1106">
        <ele>27.054321</ele>
        <time>2009-05-16T15:58:14Z</time>
      </trkpt>
      <trkpt lat="50.39785" lon="2.11095">
        <ele>27.054321</ele>
        <time>2009-05-16T15:58:17Z</time>
      </trkpt>
      <trkpt lat="50.39788" lon="2.11268">
        <ele>28.015503</ele>
        <time>2009-05-16T15:58:32Z</time>
      </trkpt>
      <trkpt lat="50.39801" lon="2.11436">
        <ele>28.976929</ele>
        <time>2009-05-16T15:58:47Z</time>
      </trkpt>
      <trkpt lat="50.3983" lon="2.1162">
        <ele>30.899536</ele>
        <time>2009-05-16T15:59:04Z</time>
      </trkpt>
      <trkpt lat="50.39835" lon="2.11642">
        <ele>30.899536</ele>
        <time>2009-05-16T15:59:06Z</time>
      </trkpt>
      <trkpt lat="50.39899" lon="2.11816">
        <ele>29.93811</ele>
        <time>2009-05-16T15:59:23Z</time>
      </trkpt>
      <trkpt lat="50.39962" lon="2.11981">
        <ele>30.418823</ele>
        <time>2009-05-16T15:59:39Z</time>
      </trkpt>
      <trkpt lat="50.40023" lon="2.12137">
        <ele>32.822266</ele>
        <time>2009-05-16T15:59:55Z</time>
      </trkpt>
      <trkpt lat="50.40079" lon="2.12251">
        <ele>34.26416</ele>
        <time>2009-05-16T16:00:09Z</time>
      </trkpt>
      <trkpt lat="50.40169" lon="2.12398">
        <ele>31.860718</ele>
        <time>2009-05-16T16:00:26Z</time>
      </trkpt>
      <trkpt lat="50.40213" lon="2.12528">
        <ele>31.860718</ele>
        <time>2009-05-16T16:00:38Z</time>
      </trkpt>
      <trkpt lat="50.40258" lon="2.1272">
        <ele>31.860718</ele>
        <time>2009-05-16T16:00:55Z</time>
      </trkpt>
      <trkpt lat="50.403" lon="2.12894">
        <ele>31.860718</ele>
        <time>2009-05-16T16:01:11Z</time>
      </trkpt>
      <trkpt lat="50.40339" lon="2.13013">
        <ele>31.380127</ele>
        <time>2009-05-16T16:01:23Z</time>
      </trkpt>
      <trkpt lat="50.40387" lon="2.13155">
        <ele>31.380127</ele>
        <time>2009-05-16T16:01:36Z</time>
      </trkpt>
      <trkpt lat="50.40457" lon="2.13369">
        <ele>31.860718</ele>
        <time>2009-05-16T16:01:55Z</time>
      </trkpt>
      <trkpt lat="50.40511" lon="2.13556">
        <ele>33.302856</ele>
        <time>2009-05-16T16:02:12Z</time>
      </trkpt>
      <trkpt lat="50.40563" lon="2.13748">
        <ele>33.783447</ele>
        <time>2009-05-16T16:02:29Z</time>
      </trkpt>
      <trkpt lat="50.40598" lon="2.13932">
        <ele>33.783447</ele>
        <time>2009-05-16T16:02:44Z</time>
      </trkpt>
      <trkpt lat="50.4062" lon="2.14126">
        <ele>35.225464</ele>
        <time>2009-05-16T16:03:01Z</time>
      </trkpt>
      <trkpt lat="50.40637" lon="2.14273">
        <ele>35.706055</ele>
        <time>2009-05-16T16:03:14Z</time>
      </trkpt>
      <trkpt lat="50.40638" lon="2.14283">
        <ele>35.706055</ele>
        <time>2009-05-16T16:03:15Z</time>
      </trkpt>
      <trkpt lat="50.40646" lon="2.14464">
        <ele>35.225464</ele>
        <time>2009-05-16T16:03:31Z</time>
      </trkpt>
      <trkpt lat="50.40652" lon="2.14641">
        <ele>34.744873</ele>
        <time>2009-05-16T16:03:46Z</time>
      </trkpt>
      <trkpt lat="50.40656" lon="2.14822">
        <ele>36.186768</ele>
        <time>2009-05-16T16:04:03Z</time>
      </trkpt>
      <trkpt lat="50.40659" lon="2.14938">
        <ele>37.628662</ele>
        <time>2009-05-16T16:04:14Z</time>
      </trkpt>
      <trkpt lat="50.40686" lon="2.15051">
        <ele>40.032104</ele>
        <time>2009-05-16T16:04:25Z</time>
      </trkpt>
      <trkpt lat="50.40725" lon="2.15203">
        <ele>40.032104</ele>
        <time>2009-05-16T16:04:41Z</time>
      </trkpt>
      <trkpt lat="50.40785" lon="2.15309">
        <ele>39.070679</ele>
        <time>2009-05-16T16:04:53Z</time>
      </trkpt>
      <trkpt lat="50.40886" lon="2.15444">
        <ele>37.148071</ele>
        <time>2009-05-16T16:05:10Z</time>
      </trkpt>
      <trkpt lat="50.40994" lon="2.15594">
        <ele>36.66748</ele>
        <time>2009-05-16T16:05:29Z</time>
      </trkpt>
      <trkpt lat="50.41087" lon="2.15719">
        <ele>35.706055</ele>
        <time>2009-05-16T16:05:46Z</time>
      </trkpt>
      <trkpt lat="50.41198" lon="2.15868">
        <ele>34.26416</ele>
        <time>2009-05-16T16:06:05Z</time>
      </trkpt>
      <trkpt lat="50.4126" lon="2.1595">
        <ele>34.26416</ele>
        <time>2009-05-16T16:06:17Z</time>
      </trkpt>
      <trkpt lat="50.41328" lon="2.16042">
        <ele>35.706055</ele>
        <time>2009-05-16T16:06:30Z</time>
      </trkpt>
      <trkpt lat="50.41404" lon="2.16146">
        <ele>36.186768</ele>
        <time>2009-05-16T16:06:45Z</time>
      </trkpt>
      <trkpt lat="50.41489" lon="2.16262">
        <ele>37.148071</ele>
        <time>2009-05-16T16:07:02Z</time>
      </trkpt>
      <trkpt lat="50.4157" lon="2.16369">
        <ele>38.109375</ele>
        <time>2009-05-16T16:07:18Z</time>
      </trkpt>
      <trkpt lat="50.41647" lon="2.16417">
        <ele>38.109375</ele>
        <time>2009-05-16T16:07:31Z</time>
      </trkpt>
      <trkpt lat="50.41754" lon="2.16445">
        <ele>37.628662</ele>
        <time>2009-05-16T16:07:47Z</time>
      </trkpt>
      <trkpt lat="50.41844" lon="2.16465">
        <ele>37.148071</ele>
        <time>2009-05-16T16:08:00Z</time>
      </trkpt>
      <trkpt lat="50.41946" lon="2.1649">
        <ele>37.148071</ele>
        <time>2009-05-16T16:08:15Z</time>
      </trkpt>
      <trkpt lat="50.42016" lon="2.16538">
        <ele>37.148071</ele>
        <time>2009-05-16T16:08:26Z</time>
      </trkpt>
      <trkpt lat="50.42079" lon="2.16619">
        <ele>38.590088</ele>
        <time>2009-05-16T16:08:38Z</time>
      </trkpt>
      <trkpt lat="50.4215" lon="2.16715">
        <ele>38.590088</ele>
        <time>2009-05-16T16:08:52Z</time>
      </trkpt>
      <trkpt lat="50.42188" lon="2.1683">
        <ele>39.55127</ele>
        <time>2009-05-16T16:09:05Z</time>
      </trkpt>
      <trkpt lat="50.42204" lon="2.16962">
        <ele>41.954712</ele>
        <time>2009-05-16T16:09:19Z</time>
      </trkpt>
      <trkpt lat="50.42205" lon="2.16971">
        <ele>41.954712</ele>
        <time>2009-05-16T16:09:20Z</time>
      </trkpt>
      <trkpt lat="50.42183" lon="2.17042">
        <ele>40.993408</ele>
        <time>2009-05-16T16:09:28Z</time>
      </trkpt>
      <trkpt lat="50.42112" lon="2.17123">
        <ele>40.512817</ele>
        <time>2009-05-16T16:09:41Z</time>
      </trkpt>
      <trkpt lat="50.42091" lon="2.17159">
        <ele>40.032104</ele>
        <time>2009-05-16T16:09:46Z</time>
      </trkpt>
      <trkpt lat="50.42084" lon="2.17217">
        <ele>40.032104</ele>
        <time>2009-05-16T16:09:52Z</time>
      </trkpt>
      <trkpt lat="50.42141" lon="2.1733">
        <ele>41.473999</ele>
        <time>2009-05-16T16:10:06Z</time>
      </trkpt>
      <trkpt lat="50.42209" lon="2.17436">
        <ele>42.435425</ele>
        <time>2009-05-16T16:10:21Z</time>
      </trkpt>
      <trkpt lat="50.42267" lon="2.17559">
        <ele>42.916016</ele>
        <time>2009-05-16T16:10:36Z</time>
      </trkpt>
      <trkpt lat="50.42323" lon="2.17702">
        <ele>42.435425</ele>
        <time>2009-05-16T16:10:51Z</time>
      </trkpt>
      <trkpt lat="50.42399" lon="2.17884">
        <ele>40.512817</ele>
        <time>2009-05-16T16:11:09Z</time>
      </trkpt>
      <trkpt lat="50.4246" lon="2.18038">
        <ele>40.032104</ele>
        <time>2009-05-16T16:11:25Z</time>
      </trkpt>
      <trkpt lat="50.42513" lon="2.18209">
        <ele>40.032104</ele>
        <time>2009-05-16T16:11:42Z</time>
      </trkpt>
      <trkpt lat="50.4255" lon="2.18355">
        <ele>40.993408</ele>
        <time>2009-05-16T16:11:56Z</time>
      </trkpt>
      <trkpt lat="50.42595" lon="2.18507">
        <ele>41.954712</ele>
        <time>2009-05-16T16:12:12Z</time>
      </trkpt>
      <trkpt lat="50.4265" lon="2.18682">
        <ele>41.473999</ele>
        <time>2009-05-16T16:12:29Z</time>
      </trkpt>
      <trkpt lat="50.42702" lon="2.18846">
        <ele>40.993408</ele>
        <time>2009-05-16T16:12:44Z</time>
      </trkpt>
      <trkpt lat="50.42776" lon="2.19016">
        <ele>40.032104</ele>
        <time>2009-05-16T16:13:00Z</time>
      </trkpt>
      <trkpt lat="50.42853" lon="2.1916">
        <ele>39.55127</ele>
        <time>2009-05-16T16:13:15Z</time>
      </trkpt>
      <trkpt lat="50.42936" lon="2.19278">
        <ele>40.993408</ele>
        <time>2009-05-16T16:13:30Z</time>
      </trkpt>
      <trkpt lat="50.43019" lon="2.19397">
        <ele>43.396606</ele>
        <time>2009-05-16T16:13:47Z</time>
      </trkpt>
      <trkpt lat="50.43085" lon="2.19492">
        <ele>46.76123</ele>
        <time>2009-05-16T16:14:01Z</time>
      </trkpt>
      <trkpt lat="50.43152" lon="2.19604">
        <ele>46.76123</ele>
        <time>2009-05-16T16:14:16Z</time>
      </trkpt>
      <trkpt lat="50.43211" lon="2.19762">
        <ele>44.838623</ele>
        <time>2009-05-16T16:14:32Z</time>
      </trkpt>
      <trkpt lat="50.43266" lon="2.19864">
        <ele>45.799927</ele>
        <time>2009-05-16T16:14:44Z</time>
      </trkpt>
      <trkpt lat="50.43321" lon="2.1993">
        <ele>48.68396</ele>
        <time>2009-05-16T16:14:55Z</time>
      </trkpt>
      <trkpt lat="50.43379" lon="2.20044">
        <ele>51.567871</ele>
        <time>2009-05-16T16:15:10Z</time>
      </trkpt>
      <trkpt lat="50.43424" lon="2.20154">
        <ele>52.529175</ele>
        <time>2009-05-16T16:15:23Z</time>
      </trkpt>
      <trkpt lat="50.43482" lon="2.20308">
        <ele>52.048584</ele>
        <time>2009-05-16T16:15:40Z</time>
      </trkpt>
      <trkpt lat="50.43544" lon="2.20469">
        <ele>49.645264</ele>
        <time>2009-05-16T16:15:55Z</time>
      </trkpt>
      <trkpt lat="50.43614" lon="2.20621">
        <ele>47.241821</ele>
        <time>2009-05-16T16:16:10Z</time>
      </trkpt>
      <trkpt lat="50.43673" lon="2.20735">
        <ele>48.203369</ele>
        <time>2009-05-16T16:16:23Z</time>
      </trkpt>
      <trkpt lat="50.43719" lon="2.20826">
        <ele>49.164551</ele>
        <time>2009-05-16T16:16:35Z</time>
      </trkpt>
      <trkpt lat="50.4378" lon="2.20925">
        <ele>50.606567</ele>
        <time>2009-05-16T16:16:49Z</time>
      </trkpt>
      <trkpt lat="50.43849" lon="2.21028">
        <ele>51.087158</ele>
        <time>2009-05-16T16:17:03Z</time>
      </trkpt>
      <trkpt lat="50.43854" lon="2.21037">
        <ele>47.241821</ele>
        <time>2009-05-16T16:17:04Z</time>
      </trkpt>
      <trkpt lat="50.43864" lon="2.21054">
        <ele>50.606567</ele>
        <time>2009-05-16T16:17:06Z</time>
      </trkpt>
      <trkpt lat="50.43868" lon="2.21062">
        <ele>50.125977</ele>
        <time>2009-05-16T16:17:07Z</time>
      </trkpt>
      <trkpt lat="50.4394" lon="2.2121">
        <ele>48.203369</ele>
        <time>2009-05-16T16:17:23Z</time>
      </trkpt>
      <trkpt lat="50.44" lon="2.21351">
        <ele>49.645264</ele>
        <time>2009-05-16T16:17:39Z</time>
      </trkpt>
      <trkpt lat="50.44054" lon="2.21475">
        <ele>52.529175</ele>
        <time>2009-05-16T16:17:55Z</time>
      </trkpt>
      <trkpt lat="50.44109" lon="2.21599">
        <ele>53.971191</ele>
        <time>2009-05-16T16:18:11Z</time>
      </trkpt>
      <trkpt lat="50.44158" lon="2.21708">
        <ele>54.451782</ele>
        <time>2009-05-16T16:18:25Z</time>
      </trkpt>
      <trkpt lat="50.44207" lon="2.21821">
        <ele>54.451782</ele>
        <time>2009-05-16T16:18:39Z</time>
      </trkpt>
      <trkpt lat="50.44255" lon="2.21931">
        <ele>54.932373</ele>
        <time>2009-05-16T16:18:52Z</time>
      </trkpt>
      <trkpt lat="50.44304" lon="2.22043">
        <ele>54.451782</ele>
        <time>2009-05-16T16:19:05Z</time>
      </trkpt>
      <trkpt lat="50.44354" lon="2.22154">
        <ele>50.606567</ele>
        <time>2009-05-16T16:19:18Z</time>
      </trkpt>
      <trkpt lat="50.44358" lon="2.22162">
        <ele>55.893799</ele>
        <time>2009-05-16T16:19:19Z</time>
      </trkpt>
      <trkpt lat="50.44362" lon="2.2217">
        <ele>54.932373</ele>
        <time>2009-05-16T16:19:20Z</time>
      </trkpt>
      <trkpt lat="50.44409" lon="2.22277">
        <ele>55.413086</ele>
        <time>2009-05-16T16:19:34Z</time>
      </trkpt>
      <trkpt lat="50.44444" lon="2.22358">
        <ele>55.893799</ele>
        <time>2009-05-16T16:19:44Z</time>
      </trkpt>
      <trkpt lat="50.44496" lon="2.22474">
        <ele>56.374512</ele>
        <time>2009-05-16T16:19:59Z</time>
      </trkpt>
      <trkpt lat="50.44544" lon="2.22587">
        <ele>57.335815</ele>
        <time>2009-05-16T16:20:12Z</time>
      </trkpt>
      <trkpt lat="50.44597" lon="2.22707">
        <ele>56.374512</ele>
        <time>2009-05-16T16:20:25Z</time>
      </trkpt>
      <trkpt lat="50.44647" lon="2.22875">
        <ele>54.932373</ele>
        <time>2009-05-16T16:20:40Z</time>
      </trkpt>
      <trkpt lat="50.4469" lon="2.23042">
        <ele>54.451782</ele>
        <time>2009-05-16T16:20:54Z</time>
      </trkpt>
      <trkpt lat="50.44729" lon="2.23191">
        <ele>55.893799</ele>
        <time>2009-05-16T16:21:08Z</time>
      </trkpt>
      <trkpt lat="50.44772" lon="2.23348">
        <ele>57.816528</ele>
        <time>2009-05-16T16:21:24Z</time>
      </trkpt>
      <trkpt lat="50.44813" lon="2.23503">
        <ele>54.451782</ele>
        <time>2009-05-16T16:21:38Z</time>
      </trkpt>
      <trkpt lat="50.4483" lon="2.23577">
        <ele>52.529175</ele>
        <time>2009-05-16T16:21:44Z</time>
      </trkpt>
      <trkpt lat="50.44834" lon="2.23603">
        <ele>52.048584</ele>
        <time>2009-05-16T16:21:46Z</time>
      </trkpt>
      <trkpt lat="50.44835" lon="2.23629">
        <ele>52.048584</ele>
        <time>2009-05-16T16:21:48Z</time>
      </trkpt>
      <trkpt lat="50.44828" lon="2.23856">
        <ele>50.125977</ele>
        <time>2009-05-16T16:22:06Z</time>
      </trkpt>
      <trkpt lat="50.4482" lon="2.24047">
        <ele>50.125977</ele>
        <time>2009-05-16T16:22:22Z</time>
      </trkpt>
      <trkpt lat="50.4482" lon="2.24059">
        <ele>50.606567</ele>
        <time>2009-05-16T16:22:23Z</time>
      </trkpt>
      <trkpt lat="50.4481" lon="2.24249">
        <ele>50.125977</ele>
        <time>2009-05-16T16:22:39Z</time>
      </trkpt>
      <trkpt lat="50.44803" lon="2.2441">
        <ele>50.125977</ele>
        <time>2009-05-16T16:22:52Z</time>
      </trkpt>
      <trkpt lat="50.44793" lon="2.24608">
        <ele>51.087158</ele>
        <time>2009-05-16T16:23:09Z</time>
      </trkpt>
      <trkpt lat="50.44774" lon="2.24764">
        <ele>53.971191</ele>
        <time>2009-05-16T16:23:24Z</time>
      </trkpt>
      <trkpt lat="50.44743" lon="2.24906">
        <ele>54.932373</ele>
        <time>2009-05-16T16:23:38Z</time>
      </trkpt>
      <trkpt lat="50.44714" lon="2.25034">
        <ele>56.374512</ele>
        <time>2009-05-16T16:23:51Z</time>
      </trkpt>
      <trkpt lat="50.44683" lon="2.2518">
        <ele>57.816528</ele>
        <time>2009-05-16T16:24:06Z</time>
      </trkpt>
      <trkpt lat="50.44655" lon="2.25314">
        <ele>55.413086</ele>
        <time>2009-05-16T16:24:19Z</time>
      </trkpt>
      <trkpt lat="50.4462" lon="2.25467">
        <ele>53.971191</ele>
        <time>2009-05-16T16:24:32Z</time>
      </trkpt>
      <trkpt lat="50.4461" lon="2.25512">
        <ele>53.009766</ele>
        <time>2009-05-16T16:24:36Z</time>
      </trkpt>
      <trkpt lat="50.44609" lon="2.25576">
        <ele>52.529175</ele>
        <time>2009-05-16T16:24:42Z</time>
      </trkpt>
      <trkpt lat="50.44624" lon="2.25599">
        <ele>51.567871</ele>
        <time>2009-05-16T16:24:46Z</time>
      </trkpt>
      <trkpt lat="50.44636" lon="2.25608">
        <ele>52.048584</ele>
        <time>2009-05-16T16:24:48Z</time>
      </trkpt>
      <trkpt lat="50.44653" lon="2.25625">
        <ele>52.048584</ele>
        <time>2009-05-16T16:24:51Z</time>
      </trkpt>
      <trkpt lat="50.44662" lon="2.2564">
        <ele>51.087158</ele>
        <time>2009-05-16T16:24:53Z</time>
      </trkpt>
      <trkpt lat="50.44718" lon="2.25729">
        <ele>52.048584</ele>
        <time>2009-05-16T16:25:05Z</time>
      </trkpt>
      <trkpt lat="50.44791" lon="2.25841">
        <ele>52.048584</ele>
        <time>2009-05-16T16:25:20Z</time>
      </trkpt>
      <trkpt lat="50.4486" lon="2.25907">
        <ele>51.567871</ele>
        <time>2009-05-16T16:25:32Z</time>
      </trkpt>
      <trkpt lat="50.44887" lon="2.25914">
        <ele>51.567871</ele>
        <time>2009-05-16T16:25:36Z</time>
      </trkpt>
      <trkpt lat="50.44913" lon="2.25943">
        <ele>51.567871</ele>
        <time>2009-05-16T16:25:41Z</time>
      </trkpt>
      <trkpt lat="50.44951" lon="2.26054">
        <ele>52.529175</ele>
        <time>2009-05-16T16:25:53Z</time>
      </trkpt>
      <trkpt lat="50.45001" lon="2.26168">
        <ele>52.529175</ele>
        <time>2009-05-16T16:26:06Z</time>
      </trkpt>
      <trkpt lat="50.45017" lon="2.26189">
        <ele>52.529175</ele>
        <time>2009-05-16T16:26:09Z</time>
      </trkpt>
      <trkpt lat="50.45065" lon="2.2623">
        <ele>51.087158</ele>
        <time>2009-05-16T16:26:17Z</time>
      </trkpt>
      <trkpt lat="50.45071" lon="2.26233">
        <ele>53.971191</ele>
        <time>2009-05-16T16:26:18Z</time>
      </trkpt>
      <trkpt lat="50.45078" lon="2.26236">
        <ele>53.971191</ele>
        <time>2009-05-16T16:26:19Z</time>
      </trkpt>
      <trkpt lat="50.45169" lon="2.26249">
        <ele>53.971191</ele>
        <time>2009-05-16T16:26:33Z</time>
      </trkpt>
      <trkpt lat="50.45276" lon="2.26262">
        <ele>54.932373</ele>
        <time>2009-05-16T16:26:50Z</time>
      </trkpt>
      <trkpt lat="50.45373" lon="2.26318">
        <ele>55.893799</ele>
        <time>2009-05-16T16:27:06Z</time>
      </trkpt>
      <trkpt lat="50.45453" lon="2.26377">
        <ele>56.374512</ele>
        <time>2009-05-16T16:27:20Z</time>
      </trkpt>
      <trkpt lat="50.45534" lon="2.2644">
        <ele>56.855103</ele>
        <time>2009-05-16T16:27:34Z</time>
      </trkpt>
      <trkpt lat="50.45618" lon="2.26477">
        <ele>56.855103</ele>
        <time>2009-05-16T16:27:47Z</time>
      </trkpt>
      <trkpt lat="50.4571" lon="2.26481">
        <ele>57.335815</ele>
        <time>2009-05-16T16:28:01Z</time>
      </trkpt>
      <trkpt lat="50.45805" lon="2.26437">
        <ele>57.335815</ele>
        <time>2009-05-16T16:28:16Z</time>
      </trkpt>
      <trkpt lat="50.45916" lon="2.26352">
        <ele>57.335815</ele>
        <time>2009-05-16T16:28:35Z</time>
      </trkpt>
      <trkpt lat="50.46006" lon="2.26281">
        <ele>57.816528</ele>
        <time>2009-05-16T16:28:51Z</time>
      </trkpt>
      <trkpt lat="50.46095" lon="2.26209">
        <ele>58.297119</ele>
        <time>2009-05-16T16:29:07Z</time>
      </trkpt>
      <trkpt lat="50.46184" lon="2.26141">
        <ele>59.739136</ele>
        <time>2009-05-16T16:29:23Z</time>
      </trkpt>
      <trkpt lat="50.46276" lon="2.26066">
        <ele>60.700317</ele>
        <time>2009-05-16T16:29:40Z</time>
      </trkpt>
      <trkpt lat="50.46359" lon="2.2599">
        <ele>62.142334</ele>
        <time>2009-05-16T16:29:56Z</time>
      </trkpt>
      <trkpt lat="50.46427" lon="2.25877">
        <ele>64.065063</ele>
        <time>2009-05-16T16:30:13Z</time>
      </trkpt>
      <trkpt lat="50.465" lon="2.25754">
        <ele>63.103638</ele>
        <time>2009-05-16T16:30:30Z</time>
      </trkpt>
      <trkpt lat="50.46575" lon="2.25671">
        <ele>63.103638</ele>
        <time>2009-05-16T16:30:44Z</time>
      </trkpt>
      <trkpt lat="50.46655" lon="2.25593">
        <ele>63.584351</ele>
        <time>2009-05-16T16:30:59Z</time>
      </trkpt>
      <trkpt lat="50.46724" lon="2.25527">
        <ele>64.545654</ele>
        <time>2009-05-16T16:31:12Z</time>
      </trkpt>
      <trkpt lat="50.46815" lon="2.25443">
        <ele>65.987671</ele>
        <time>2009-05-16T16:31:29Z</time>
      </trkpt>
      <trkpt lat="50.46821" lon="2.25439">
        <ele>65.987671</ele>
        <time>2009-05-16T16:31:30Z</time>
      </trkpt>
      <trkpt lat="50.46895" lon="2.25439">
        <ele>66.468262</ele>
        <time>2009-05-16T16:31:42Z</time>
      </trkpt>
      <trkpt lat="50.46913" lon="2.25446">
        <ele>66.948975</ele>
        <time>2009-05-16T16:31:45Z</time>
      </trkpt>
      <trkpt lat="50.46953" lon="2.25507">
        <ele>68.390869</ele>
        <time>2009-05-16T16:31:55Z</time>
      </trkpt>
      <trkpt lat="50.46971" lon="2.25653">
        <ele>67.910278</ele>
        <time>2009-05-16T16:32:10Z</time>
      </trkpt>
      <trkpt lat="50.46999" lon="2.25801">
        <ele>67.429688</ele>
        <time>2009-05-16T16:32:24Z</time>
      </trkpt>
      <trkpt lat="50.47054" lon="2.25961">
        <ele>68.390869</ele>
        <time>2009-05-16T16:32:41Z</time>
      </trkpt>
      <trkpt lat="50.47111" lon="2.26095">
        <ele>69.352295</ele>
        <time>2009-05-16T16:32:57Z</time>
      </trkpt>
      <trkpt lat="50.47164" lon="2.2621">
        <ele>70.794189</ele>
        <time>2009-05-16T16:33:11Z</time>
      </trkpt>
      <trkpt lat="50.47217" lon="2.26335">
        <ele>71.755493</ele>
        <time>2009-05-16T16:33:26Z</time>
      </trkpt>
      <trkpt lat="50.47263" lon="2.26483">
        <ele>72.236206</ele>
        <time>2009-05-16T16:33:42Z</time>
      </trkpt>
      <trkpt lat="50.47316" lon="2.26592">
        <ele>72.716919</ele>
        <time>2009-05-16T16:33:56Z</time>
      </trkpt>
      <trkpt lat="50.47367" lon="2.26689">
        <ele>75.60083</ele>
        <time>2009-05-16T16:34:10Z</time>
      </trkpt>
      <trkpt lat="50.47377" lon="2.26699">
        <ele>75.60083</ele>
        <time>2009-05-16T16:34:12Z</time>
      </trkpt>
      <trkpt lat="50.47391" lon="2.26712">
        <ele>75.60083</ele>
        <time>2009-05-16T16:34:15Z</time>
      </trkpt>
      <trkpt lat="50.47415" lon="2.2673">
        <ele>77.042847</ele>
        <time>2009-05-16T16:34:20Z</time>
      </trkpt>
      <trkpt lat="50.47448" lon="2.26758">
        <ele>77.523438</ele>
        <time>2009-05-16T16:34:27Z</time>
      </trkpt>
      <trkpt lat="50.47479" lon="2.26796">
        <ele>78.484741</ele>
        <time>2009-05-16T16:34:35Z</time>
      </trkpt>
      <trkpt lat="50.47498" lon="2.26824">
        <ele>78.004028</ele>
        <time>2009-05-16T16:34:40Z</time>
      </trkpt>
      <trkpt lat="50.47508" lon="2.2685">
        <ele>78.004028</ele>
        <time>2009-05-16T16:34:49Z</time>
      </trkpt>
      <trkpt lat="50.47523" lon="2.26878">
        <ele>79.926636</ele>
        <time>2009-05-16T16:37:50Z</time>
      </trkpt>
      <trkpt lat="50.47574" lon="2.26946">
        <ele>80.407471</ele>
        <time>2009-05-16T16:38:02Z</time>
      </trkpt>
      <trkpt lat="50.4764" lon="2.27029">
        <ele>81.368774</ele>
        <time>2009-05-16T16:38:17Z</time>
      </trkpt>
      <trkpt lat="50.47701" lon="2.27102">
        <ele>82.330078</ele>
        <time>2009-05-16T16:38:31Z</time>
      </trkpt>
      <trkpt lat="50.47779" lon="2.27194">
        <ele>82.810791</ele>
        <time>2009-05-16T16:38:48Z</time>
      </trkpt>
      <trkpt lat="50.47855" lon="2.27287">
        <ele>82.810791</ele>
        <time>2009-05-16T16:39:04Z</time>
      </trkpt>
      <trkpt lat="50.47922" lon="2.27362">
        <ele>84.733398</ele>
        <time>2009-05-16T16:39:19Z</time>
      </trkpt>
      <trkpt lat="50.47975" lon="2.27398">
        <ele>87.617188</ele>
        <time>2009-05-16T16:39:31Z</time>
      </trkpt>
      <trkpt lat="50.48003" lon="2.27406">
        <ele>88.578735</ele>
        <time>2009-05-16T16:39:37Z</time>
      </trkpt>
      <trkpt lat="50.48021" lon="2.27405">
        <ele>89.539917</ele>
        <time>2009-05-16T16:39:41Z</time>
      </trkpt>
      <trkpt lat="50.48052" lon="2.27392">
        <ele>90.981934</ele>
        <time>2009-05-16T16:39:48Z</time>
      </trkpt>
      <trkpt lat="50.48061" lon="2.27386">
        <ele>91.462524</ele>
        <time>2009-05-16T16:39:50Z</time>
      </trkpt>
      <trkpt lat="50.48128" lon="2.2735">
        <ele>95.788452</ele>
        <time>2009-05-16T16:40:06Z</time>
      </trkpt>
      <trkpt lat="50.48132" lon="2.27347">
        <ele>95.307739</ele>
        <time>2009-05-16T16:40:07Z</time>
      </trkpt>
      <trkpt lat="50.48191" lon="2.27309">
        <ele>97.230469</ele>
        <time>2009-05-16T16:40:22Z</time>
      </trkpt>
      <trkpt lat="50.48265" lon="2.27269">
        <ele>98.672485</ele>
        <time>2009-05-16T16:40:38Z</time>
      </trkpt>
      <trkpt lat="50.48289" lon="2.27262">
        <ele>99.153076</ele>
        <time>2009-05-16T16:40:43Z</time>
      </trkpt>
      <trkpt lat="50.4832" lon="2.27262">
        <ele>99.153076</ele>
        <time>2009-05-16T16:40:49Z</time>
      </trkpt>
      <trkpt lat="50.48407" lon="2.27262">
        <ele>97.230469</ele>
        <time>2009-05-16T16:41:03Z</time>
      </trkpt>
      <trkpt lat="50.48519" lon="2.27267">
        <ele>94.827148</ele>
        <time>2009-05-16T16:41:19Z</time>
      </trkpt>
      <trkpt lat="50.48643" lon="2.27269">
        <ele>95.307739</ele>
        <time>2009-05-16T16:41:37Z</time>
      </trkpt>
      <trkpt lat="50.48701" lon="2.27271">
        <ele>96.269287</ele>
        <time>2009-05-16T16:41:47Z</time>
      </trkpt>
      <trkpt lat="50.48793" lon="2.27277">
        <ele>98.191895</ele>
        <time>2009-05-16T16:42:03Z</time>
      </trkpt>
      <trkpt lat="50.48893" lon="2.27319">
        <ele>100.595093</ele>
        <time>2009-05-16T16:42:21Z</time>
      </trkpt>
      <trkpt lat="50.48969" lon="2.27346">
        <ele>102.037109</ele>
        <time>2009-05-16T16:42:35Z</time>
      </trkpt>
      <trkpt lat="50.4906" lon="2.27357">
        <ele>103.959717</ele>
        <time>2009-05-16T16:42:51Z</time>
      </trkpt>
      <trkpt lat="50.49144" lon="2.27369">
        <ele>106.363037</ele>
        <time>2009-05-16T16:43:07Z</time>
      </trkpt>
      <trkpt lat="50.4922" lon="2.27406">
        <ele>109.246948</ele>
        <time>2009-05-16T16:43:22Z</time>
      </trkpt>
      <trkpt lat="50.4923" lon="2.27412">
        <ele>109.727661</ele>
        <time>2009-05-16T16:43:24Z</time>
      </trkpt>
      <trkpt lat="50.49304" lon="2.27437">
        <ele>109.727661</ele>
        <time>2009-05-16T16:43:37Z</time>
      </trkpt>
      <trkpt lat="50.49322" lon="2.2744">
        <ele>109.246948</ele>
        <time>2009-05-16T16:43:40Z</time>
      </trkpt>
      <trkpt lat="50.4943" lon="2.27455">
        <ele>108.766235</ele>
        <time>2009-05-16T16:43:56Z</time>
      </trkpt>
      <trkpt lat="50.49509" lon="2.27498">
        <ele>109.246948</ele>
        <time>2009-05-16T16:44:09Z</time>
      </trkpt>
      <trkpt lat="50.496" lon="2.2754">
        <ele>108.285645</ele>
        <time>2009-05-16T16:44:23Z</time>
      </trkpt>
      <trkpt lat="50.49694" lon="2.27543">
        <ele>109.727661</ele>
        <time>2009-05-16T16:44:38Z</time>
      </trkpt>
      <trkpt lat="50.49785" lon="2.27506">
        <ele>111.169556</ele>
        <time>2009-05-16T16:44:53Z</time>
      </trkpt>
      <trkpt lat="50.49858" lon="2.27483">
        <ele>112.611572</ele>
        <time>2009-05-16T16:45:05Z</time>
      </trkpt>
      <trkpt lat="50.49949" lon="2.27496">
        <ele>114.053589</ele>
        <time>2009-05-16T16:45:20Z</time>
      </trkpt>
      <trkpt lat="50.50022" lon="2.27512">
        <ele>115.014893</ele>
        <time>2009-05-16T16:45:33Z</time>
      </trkpt>
      <trkpt lat="50.50089" lon="2.27584">
        <ele>116.456787</ele>
        <time>2009-05-16T16:45:47Z</time>
      </trkpt>
      <trkpt lat="50.50116" lon="2.27646">
        <ele>117.898804</ele>
        <time>2009-05-16T16:45:55Z</time>
      </trkpt>
      <trkpt lat="50.5016" lon="2.27787">
        <ele>119.821411</ele>
        <time>2009-05-16T16:46:12Z</time>
      </trkpt>
      <trkpt lat="50.50198" lon="2.2791">
        <ele>121.26355</ele>
        <time>2009-05-16T16:46:27Z</time>
      </trkpt>
      <trkpt lat="50.50251" lon="2.28014">
        <ele>122.705444</ele>
        <time>2009-05-16T16:46:42Z</time>
      </trkpt>
      <trkpt lat="50.50321" lon="2.28087">
        <ele>124.147339</ele>
        <time>2009-05-16T16:46:57Z</time>
      </trkpt>
      <trkpt lat="50.50394" lon="2.28157">
        <ele>125.589355</ele>
        <time>2009-05-16T16:47:12Z</time>
      </trkpt>
      <trkpt lat="50.5047" lon="2.28224">
        <ele>127.511963</ele>
        <time>2009-05-16T16:47:27Z</time>
      </trkpt>
      <trkpt lat="50.5055" lon="2.28298">
        <ele>130.395996</ele>
        <time>2009-05-16T16:47:44Z</time>
      </trkpt>
      <trkpt lat="50.50601" lon="2.28343">
        <ele>133.760498</ele>
        <time>2009-05-16T16:47:56Z</time>
      </trkpt>
      <trkpt lat="50.50617" lon="2.28359">
        <ele>134.241211</ele>
        <time>2009-05-16T16:48:00Z</time>
      </trkpt>
      <trkpt lat="50.50696" lon="2.28426">
        <ele>136.644653</ele>
        <time>2009-05-16T16:48:17Z</time>
      </trkpt>
      <trkpt lat="50.50769" lon="2.28486">
        <ele>138.086548</ele>
        <time>2009-05-16T16:48:32Z</time>
      </trkpt>
      <trkpt lat="50.50846" lon="2.2855">
        <ele>140.009155</ele>
        <time>2009-05-16T16:48:48Z</time>
      </trkpt>
      <trkpt lat="50.50946" lon="2.28631">
        <ele>142.412476</ele>
        <time>2009-05-16T16:49:09Z</time>
      </trkpt>
      <trkpt lat="50.51026" lon="2.28696">
        <ele>144.335205</ele>
        <time>2009-05-16T16:49:26Z</time>
      </trkpt>
      <trkpt lat="50.51103" lon="2.28745">
        <ele>147.218994</ele>
        <time>2009-05-16T16:49:43Z</time>
      </trkpt>
      <trkpt lat="50.51169" lon="2.28811">
        <ele>149.622314</ele>
        <time>2009-05-16T16:49:58Z</time>
      </trkpt>
      <trkpt lat="50.51245" lon="2.28887">
        <ele>152.506348</ele>
        <time>2009-05-16T16:50:16Z</time>
      </trkpt>
      <trkpt lat="50.51302" lon="2.28956">
        <ele>154.909546</ele>
        <time>2009-05-16T16:50:31Z</time>
      </trkpt>
      <trkpt lat="50.51383" lon="2.29055">
        <ele>157.312866</ele>
        <time>2009-05-16T16:50:52Z</time>
      </trkpt>
      <trkpt lat="50.51455" lon="2.29152">
        <ele>160.196899</ele>
        <time>2009-05-16T16:51:11Z</time>
      </trkpt>
      <trkpt lat="50.51522" lon="2.29254">
        <ele>163.080811</ele>
        <time>2009-05-16T16:51:30Z</time>
      </trkpt>
      <trkpt lat="50.51583" lon="2.29325">
        <ele>164.522705</ele>
        <time>2009-05-16T16:51:46Z</time>
      </trkpt>
      <trkpt lat="50.51599" lon="2.29343">
        <ele>165.003418</ele>
        <time>2009-05-16T16:51:50Z</time>
      </trkpt>
      <trkpt lat="50.5163" lon="2.29383">
        <ele>166.445313</ele>
        <time>2009-05-16T16:51:58Z</time>
      </trkpt>
      <trkpt lat="50.51688" lon="2.29496">
        <ele>168.848755</ele>
        <time>2009-05-16T16:52:14Z</time>
      </trkpt>
      <trkpt lat="50.51726" lon="2.2958">
        <ele>170.290649</ele>
        <time>2009-05-16T16:52:26Z</time>
      </trkpt>
      <trkpt lat="50.51789" lon="2.29713">
        <ele>172.213257</ele>
        <time>2009-05-16T16:52:45Z</time>
      </trkpt>
      <trkpt lat="50.51853" lon="2.29829">
        <ele>174.616577</ele>
        <time>2009-05-16T16:53:02Z</time>
      </trkpt>
      <trkpt lat="50.51918" lon="2.29939">
        <ele>176.539307</ele>
        <time>2009-05-16T16:53:19Z</time>
      </trkpt>
      <trkpt lat="50.51929" lon="2.29959">
        <ele>177.02002</ele>
        <time>2009-05-16T16:53:22Z</time>
      </trkpt>
      <trkpt lat="50.51959" lon="2.30067">
        <ele>178.461914</ele>
        <time>2009-05-16T16:53:35Z</time>
      </trkpt>
      <trkpt lat="50.51993" lon="2.30218">
        <ele>179.903809</ele>
        <time>2009-05-16T16:53:53Z</time>
      </trkpt>
      <trkpt lat="50.52028" lon="2.30369">
        <ele>181.826416</ele>
        <time>2009-05-16T16:54:10Z</time>
      </trkpt>
      <trkpt lat="50.52063" lon="2.30517">
        <ele>183.749023</ele>
        <time>2009-05-16T16:54:26Z</time>
      </trkpt>
      <trkpt lat="50.5207" lon="2.30545">
        <ele>184.229858</ele>
        <time>2009-05-16T16:54:29Z</time>
      </trkpt>
      <trkpt lat="50.5212" lon="2.30717">
        <ele>184.710571</ele>
        <time>2009-05-16T16:54:46Z</time>
      </trkpt>
      <trkpt lat="50.52161" lon="2.3086">
        <ele>185.191162</ele>
        <time>2009-05-16T16:55:00Z</time>
      </trkpt>
      <trkpt lat="50.5222" lon="2.31054">
        <ele>186.152466</ele>
        <time>2009-05-16T16:55:20Z</time>
      </trkpt>
      <trkpt lat="50.52225" lon="2.31091">
        <ele>186.633179</ele>
        <time>2009-05-16T16:55:24Z</time>
      </trkpt>
      <trkpt lat="50.52225" lon="2.3111">
        <ele>187.11377</ele>
        <time>2009-05-16T16:55:26Z</time>
      </trkpt>
      <trkpt lat="50.52248" lon="2.31149">
        <ele>186.633179</ele>
        <time>2009-05-16T16:55:32Z</time>
      </trkpt>
      <trkpt lat="50.52318" lon="2.31242">
        <ele>185.671753</ele>
        <time>2009-05-16T16:55:45Z</time>
      </trkpt>
      <trkpt lat="50.52363" lon="2.31311">
        <ele>182.787842</ele>
        <time>2009-05-16T16:55:52Z</time>
      </trkpt>
      <trkpt lat="50.52401" lon="2.3137">
        <ele>179.423218</ele>
        <time>2009-05-16T16:55:57Z</time>
      </trkpt>
      <trkpt lat="50.52443" lon="2.31433">
        <ele>176.058594</ele>
        <time>2009-05-16T16:56:02Z</time>
      </trkpt>
      <trkpt lat="50.52478" lon="2.31488">
        <ele>172.69397</ele>
        <time>2009-05-16T16:56:06Z</time>
      </trkpt>
      <trkpt lat="50.52514" lon="2.31544">
        <ele>169.329468</ele>
        <time>2009-05-16T16:56:10Z</time>
      </trkpt>
      <trkpt lat="50.52553" lon="2.31604">
        <ele>165.003418</ele>
        <time>2009-05-16T16:56:14Z</time>
      </trkpt>
      <trkpt lat="50.52572" lon="2.31634">
        <ele>162.119507</ele>
        <time>2009-05-16T16:56:16Z</time>
      </trkpt>
      <trkpt lat="50.52603" lon="2.3168">
        <ele>158.754761</ele>
        <time>2009-05-16T16:56:19Z</time>
      </trkpt>
      <trkpt lat="50.52644" lon="2.31742">
        <ele>154.909546</ele>
        <time>2009-05-16T16:56:23Z</time>
      </trkpt>
      <trkpt lat="50.52694" lon="2.31816">
        <ele>151.544922</ele>
        <time>2009-05-16T16:56:28Z</time>
      </trkpt>
      <trkpt lat="50.52743" lon="2.3189">
        <ele>148.18042</ele>
        <time>2009-05-16T16:56:33Z</time>
      </trkpt>
      <trkpt lat="50.52781" lon="2.31949">
        <ele>145.7771</ele>
        <time>2009-05-16T16:56:37Z</time>
      </trkpt>
      <trkpt lat="50.52819" lon="2.32008">
        <ele>143.373657</ele>
        <time>2009-05-16T16:56:41Z</time>
      </trkpt>
      <trkpt lat="50.52885" lon="2.32108">
        <ele>140.489868</ele>
        <time>2009-05-16T16:56:48Z</time>
      </trkpt>
      <trkpt lat="50.52931" lon="2.3218">
        <ele>137.125244</ele>
        <time>2009-05-16T16:56:53Z</time>
      </trkpt>
      <trkpt lat="50.52952" lon="2.3221">
        <ele>136.644653</ele>
        <time>2009-05-16T16:56:55Z</time>
      </trkpt>
      <trkpt lat="50.53022" lon="2.32315">
        <ele>133.279907</ele>
        <time>2009-05-16T16:57:02Z</time>
      </trkpt>
      <trkpt lat="50.5305" lon="2.32359">
        <ele>132.318604</ele>
        <time>2009-05-16T16:57:05Z</time>
      </trkpt>
      <trkpt lat="50.53087" lon="2.32417">
        <ele>129.915283</ele>
        <time>2009-05-16T16:57:09Z</time>
      </trkpt>
      <trkpt lat="50.53218" lon="2.32616">
        <ele>128.473389</ele>
        <time>2009-05-16T16:57:24Z</time>
      </trkpt>
      <trkpt lat="50.53329" lon="2.32786">
        <ele>126.550659</ele>
        <time>2009-05-16T16:57:39Z</time>
      </trkpt>
      <trkpt lat="50.53408" lon="2.32907">
        <ele>122.705444</ele>
        <time>2009-05-16T16:57:50Z</time>
      </trkpt>
      <trkpt lat="50.53506" lon="2.33058">
        <ele>119.821411</ele>
        <time>2009-05-16T16:58:04Z</time>
      </trkpt>
      <trkpt lat="50.53625" lon="2.33237">
        <ele>117.418213</ele>
        <time>2009-05-16T16:58:20Z</time>
      </trkpt>
      <trkpt lat="50.53714" lon="2.33378">
        <ele>117.898804</ele>
        <time>2009-05-16T16:58:34Z</time>
      </trkpt>
      <trkpt lat="50.53781" lon="2.33541">
        <ele>115.014893</ele>
        <time>2009-05-16T16:58:47Z</time>
      </trkpt>
      <trkpt lat="50.53853" lon="2.33724">
        <ele>115.014893</ele>
        <time>2009-05-16T16:59:03Z</time>
      </trkpt>
      <trkpt lat="50.53895" lon="2.33824">
        <ele>115.014893</ele>
        <time>2009-05-16T16:59:13Z</time>
      </trkpt>
      <trkpt lat="50.53983" lon="2.3393">
        <ele>113.572998</ele>
        <time>2009-05-16T16:59:26Z</time>
      </trkpt>
      <trkpt lat="50.54077" lon="2.34004">
        <ele>110.688843</ele>
        <time>2009-05-16T16:59:38Z</time>
      </trkpt>
      <trkpt lat="50.54181" lon="2.34109">
        <ele>108.766235</ele>
        <time>2009-05-16T16:59:52Z</time>
      </trkpt>
      <trkpt lat="50.54292" lon="2.34238">
        <ele>107.324341</ele>
        <time>2009-05-16T17:00:07Z</time>
      </trkpt>
      <trkpt lat="50.54401" lon="2.34368">
        <ele>106.363037</ele>
        <time>2009-05-16T17:00:23Z</time>
      </trkpt>
      <trkpt lat="50.54448" lon="2.34444">
        <ele>105.401733</ele>
        <time>2009-05-16T17:00:31Z</time>
      </trkpt>
      <trkpt lat="50.54476" lon="2.34463">
        <ele>105.882446</ele>
        <time>2009-05-16T17:00:35Z</time>
      </trkpt>
      <trkpt lat="50.54493" lon="2.34464">
        <ele>105.401733</ele>
        <time>2009-05-16T17:00:37Z</time>
      </trkpt>
      <trkpt lat="50.54521" lon="2.34485">
        <ele>104.921021</ele>
        <time>2009-05-16T17:00:41Z</time>
      </trkpt>
      <trkpt lat="50.54591" lon="2.34586">
        <ele>104.921021</ele>
        <time>2009-05-16T17:00:53Z</time>
      </trkpt>
      <trkpt lat="50.54642" lon="2.34592">
        <ele>103.959717</ele>
        <time>2009-05-16T17:01:00Z</time>
      </trkpt>
      <trkpt lat="50.54659" lon="2.34598">
        <ele>103.479004</ele>
        <time>2009-05-16T17:01:02Z</time>
      </trkpt>
      <trkpt lat="50.54798" lon="2.34677">
        <ele>101.556396</ele>
        <time>2009-05-16T17:01:19Z</time>
      </trkpt>
      <trkpt lat="50.54806" lon="2.34682">
        <ele>101.556396</ele>
        <time>2009-05-16T17:01:20Z</time>
      </trkpt>
      <trkpt lat="50.54921" lon="2.34766">
        <ele>102.5177</ele>
        <time>2009-05-16T17:01:36Z</time>
      </trkpt>
      <trkpt lat="50.55012" lon="2.34821">
        <ele>102.037109</ele>
        <time>2009-05-16T17:01:48Z</time>
      </trkpt>
      <trkpt lat="50.55027" lon="2.34834">
        <ele>101.556396</ele>
        <time>2009-05-16T17:01:50Z</time>
      </trkpt>
      <trkpt lat="50.55102" lon="2.34962">
        <ele>100.595093</ele>
        <time>2009-05-16T17:02:03Z</time>
      </trkpt>
      <trkpt lat="50.55169" lon="2.35124">
        <ele>98.672485</ele>
        <time>2009-05-16T17:02:17Z</time>
      </trkpt>
      <trkpt lat="50.55258" lon="2.35336">
        <ele>96.269287</ele>
        <time>2009-05-16T17:02:34Z</time>
      </trkpt>
      <trkpt lat="50.55314" lon="2.35517">
        <ele>95.788452</ele>
        <time>2009-05-16T17:02:48Z</time>
      </trkpt>
      <trkpt lat="50.55353" lon="2.35715">
        <ele>96.269287</ele>
        <time>2009-05-16T17:03:03Z</time>
      </trkpt>
      <trkpt lat="50.55437" lon="2.35861">
        <ele>94.346558</ele>
        <time>2009-05-16T17:03:17Z</time>
      </trkpt>
      <trkpt lat="50.55529" lon="2.36026">
        <ele>95.307739</ele>
        <time>2009-05-16T17:03:33Z</time>
      </trkpt>
      <trkpt lat="50.55601" lon="2.36182">
        <ele>96.269287</ele>
        <time>2009-05-16T17:03:48Z</time>
      </trkpt>
      <trkpt lat="50.55631" lon="2.36332">
        <ele>96.749878</ele>
        <time>2009-05-16T17:03:59Z</time>
      </trkpt>
      <trkpt lat="50.55678" lon="2.36469">
        <ele>97.230469</ele>
        <time>2009-05-16T17:04:11Z</time>
      </trkpt>
      <trkpt lat="50.55756" lon="2.36664">
        <ele>95.788452</ele>
        <time>2009-05-16T17:04:28Z</time>
      </trkpt>
      <trkpt lat="50.55764" lon="2.36688">
        <ele>95.307739</ele>
        <time>2009-05-16T17:04:30Z</time>
      </trkpt>
      <trkpt lat="50.55796" lon="2.36857">
        <ele>92.42395</ele>
        <time>2009-05-16T17:04:43Z</time>
      </trkpt>
      <trkpt lat="50.55814" lon="2.36959">
        <ele>91.943237</ele>
        <time>2009-05-16T17:04:52Z</time>
      </trkpt>
      <trkpt lat="50.55817" lon="2.36985">
        <ele>90.981934</ele>
        <time>2009-05-16T17:04:56Z</time>
      </trkpt>
      <trkpt lat="50.55818" lon="2.36991">
        <ele>90.981934</ele>
        <time>2009-05-16T17:05:09Z</time>
      </trkpt>
      <trkpt lat="50.55825" lon="2.3703">
        <ele>90.501343</ele>
        <time>2009-05-16T17:05:17Z</time>
      </trkpt>
      <trkpt lat="50.55829" lon="2.37049">
        <ele>90.501343</ele>
        <time>2009-05-16T17:05:19Z</time>
      </trkpt>
      <trkpt lat="50.55833" lon="2.37081">
        <ele>90.02063</ele>
        <time>2009-05-16T17:05:22Z</time>
      </trkpt>
      <trkpt lat="50.55844" lon="2.37246">
        <ele>86.656006</ele>
        <time>2009-05-16T17:05:33Z</time>
      </trkpt>
      <trkpt lat="50.5587" lon="2.37446">
        <ele>84.733398</ele>
        <time>2009-05-16T17:05:47Z</time>
      </trkpt>
      <trkpt lat="50.55887" lon="2.37493">
        <ele>84.252686</ele>
        <time>2009-05-16T17:05:51Z</time>
      </trkpt>
      <trkpt lat="50.55939" lon="2.37639">
        <ele>84.252686</ele>
        <time>2009-05-16T17:06:04Z</time>
      </trkpt>
      <trkpt lat="50.55965" lon="2.37786">
        <ele>84.252686</ele>
        <time>2009-05-16T17:06:16Z</time>
      </trkpt>
      <trkpt lat="50.55967" lon="2.37799">
        <ele>84.733398</ele>
        <time>2009-05-16T17:06:17Z</time>
      </trkpt>
      <trkpt lat="50.56019" lon="2.37965">
        <ele>84.252686</ele>
        <time>2009-05-16T17:06:31Z</time>
      </trkpt>
      <trkpt lat="50.56081" lon="2.38115">
        <ele>85.213989</ele>
        <time>2009-05-16T17:06:45Z</time>
      </trkpt>
      <trkpt lat="50.56154" lon="2.38282">
        <ele>84.733398</ele>
        <time>2009-05-16T17:07:01Z</time>
      </trkpt>
      <trkpt lat="50.56209" lon="2.38457">
        <ele>84.733398</ele>
        <time>2009-05-16T17:07:16Z</time>
      </trkpt>
      <trkpt lat="50.56267" lon="2.38641">
        <ele>84.733398</ele>
        <time>2009-05-16T17:07:32Z</time>
      </trkpt>
      <trkpt lat="50.56312" lon="2.38814">
        <ele>83.771973</ele>
        <time>2009-05-16T17:07:46Z</time>
      </trkpt>
      <trkpt lat="50.56351" lon="2.39008">
        <ele>82.810791</ele>
        <time>2009-05-16T17:08:02Z</time>
      </trkpt>
      <trkpt lat="50.56395" lon="2.39237">
        <ele>80.888184</ele>
        <time>2009-05-16T17:08:20Z</time>
      </trkpt>
      <trkpt lat="50.56447" lon="2.395">
        <ele>78.004028</ele>
        <time>2009-05-16T17:08:40Z</time>
      </trkpt>
      <trkpt lat="50.56488" lon="2.39708">
        <ele>76.081421</ele>
        <time>2009-05-16T17:08:56Z</time>
      </trkpt>
      <trkpt lat="50.56527" lon="2.39918">
        <ele>72.716919</ele>
        <time>2009-05-16T17:09:11Z</time>
      </trkpt>
      <trkpt lat="50.56554" lon="2.40107">
        <ele>69.832886</ele>
        <time>2009-05-16T17:09:24Z</time>
      </trkpt>
      <trkpt lat="50.56597" lon="2.4026">
        <ele>66.468262</ele>
        <time>2009-05-16T17:09:35Z</time>
      </trkpt>
      <trkpt lat="50.56635" lon="2.40342">
        <ele>63.584351</ele>
        <time>2009-05-16T17:09:42Z</time>
      </trkpt>
      <trkpt lat="50.56634" lon="2.40378">
        <ele>63.584351</ele>
        <time>2009-05-16T17:09:46Z</time>
      </trkpt>
      <trkpt lat="50.56572" lon="2.40492">
        <ele>63.584351</ele>
        <time>2009-05-16T17:09:59Z</time>
      </trkpt>
      <trkpt lat="50.56511" lon="2.40615">
        <ele>64.545654</ele>
        <time>2009-05-16T17:10:12Z</time>
      </trkpt>
      <trkpt lat="50.56447" lon="2.40754">
        <ele>64.065063</ele>
        <time>2009-05-16T17:10:27Z</time>
      </trkpt>
      <trkpt lat="50.56393" lon="2.40868">
        <ele>61.18103</ele>
        <time>2009-05-16T17:10:39Z</time>
      </trkpt>
      <trkpt lat="50.56389" lon="2.4088">
        <ele>60.700317</ele>
        <time>2009-05-16T17:10:40Z</time>
      </trkpt>
      <trkpt lat="50.56391" lon="2.40957">
        <ele>59.739136</ele>
        <time>2009-05-16T17:10:46Z</time>
      </trkpt>
      <trkpt lat="50.56463" lon="2.41154">
        <ele>60.219727</ele>
        <time>2009-05-16T17:11:05Z</time>
      </trkpt>
      <trkpt lat="50.56522" lon="2.41314">
        <ele>60.700317</ele>
        <time>2009-05-16T17:11:20Z</time>
      </trkpt>
      <trkpt lat="50.56579" lon="2.41478">
        <ele>61.661743</ele>
        <time>2009-05-16T17:11:36Z</time>
      </trkpt>
      <trkpt lat="50.56628" lon="2.41619">
        <ele>60.219727</ele>
        <time>2009-05-16T17:11:50Z</time>
      </trkpt>
      <trkpt lat="50.56654" lon="2.41683">
        <ele>58.297119</ele>
        <time>2009-05-16T17:12:00Z</time>
      </trkpt>
      <trkpt lat="50.56654" lon="2.41685">
        <ele>58.297119</ele>
        <time>2009-05-16T17:12:04Z</time>
      </trkpt>
      <trkpt lat="50.56657" lon="2.41699">
        <ele>57.816528</ele>
        <time>2009-05-16T17:12:08Z</time>
      </trkpt>
      <trkpt lat="50.56668" lon="2.41726">
        <ele>56.855103</ele>
        <time>2009-05-16T17:12:12Z</time>
      </trkpt>
      <trkpt lat="50.56715" lon="2.41848">
        <ele>53.971191</ele>
        <time>2009-05-16T17:12:25Z</time>
      </trkpt>
      <trkpt lat="50.56745" lon="2.4198">
        <ele>50.606567</ele>
        <time>2009-05-16T17:12:36Z</time>
      </trkpt>
      <trkpt lat="50.56797" lon="2.42067">
        <ele>50.606567</ele>
        <time>2009-05-16T17:12:46Z</time>
      </trkpt>
      <trkpt lat="50.5688" lon="2.42177">
        <ele>47.241821</ele>
        <time>2009-05-16T17:13:00Z</time>
      </trkpt>
      <trkpt lat="50.56916" lon="2.42273">
        <ele>44.358032</ele>
        <time>2009-05-16T17:13:08Z</time>
      </trkpt>
      <trkpt lat="50.56972" lon="2.42402">
        <ele>40.993408</ele>
        <time>2009-05-16T17:13:19Z</time>
      </trkpt>
      <trkpt lat="50.57025" lon="2.42508">
        <ele>38.109375</ele>
        <time>2009-05-16T17:13:28Z</time>
      </trkpt>
      <trkpt lat="50.57073" lon="2.42608">
        <ele>34.744873</ele>
        <time>2009-05-16T17:13:36Z</time>
      </trkpt>
      <trkpt lat="50.57149" lon="2.42718">
        <ele>32.822266</ele>
        <time>2009-05-16T17:13:47Z</time>
      </trkpt>
      <trkpt lat="50.57217" lon="2.42855">
        <ele>30.899536</ele>
        <time>2009-05-16T17:14:00Z</time>
      </trkpt>
      <trkpt lat="50.57241" lon="2.42904">
        <ele>30.418823</ele>
        <time>2009-05-16T17:14:06Z</time>
      </trkpt>
      <trkpt lat="50.5725" lon="2.42939">
        <ele>29.93811</ele>
        <time>2009-05-16T17:14:10Z</time>
      </trkpt>
      <trkpt lat="50.57271" lon="2.42974">
        <ele>28.976929</ele>
        <time>2009-05-16T17:14:16Z</time>
      </trkpt>
      <trkpt lat="50.57291" lon="2.4297">
        <ele>28.496216</ele>
        <time>2009-05-16T17:14:19Z</time>
      </trkpt>
      <trkpt lat="50.57331" lon="2.42997">
        <ele>28.015503</ele>
        <time>2009-05-16T17:14:25Z</time>
      </trkpt>
      <trkpt lat="50.57375" lon="2.43075">
        <ele>27.534912</ele>
        <time>2009-05-16T17:14:34Z</time>
      </trkpt>
      <trkpt lat="50.57386" lon="2.43111">
        <ele>27.054321</ele>
        <time>2009-05-16T17:14:38Z</time>
      </trkpt>
      <trkpt lat="50.574" lon="2.43139">
        <ele>27.534912</ele>
        <time>2009-05-16T17:14:46Z</time>
      </trkpt>
      <trkpt lat="50.57407" lon="2.43152">
        <ele>27.534912</ele>
        <time>2009-05-16T17:14:55Z</time>
      </trkpt>
      <trkpt lat="50.57437" lon="2.4318">
        <ele>26.092896</ele>
        <time>2009-05-16T17:15:01Z</time>
      </trkpt>
      <trkpt lat="50.57519" lon="2.43291">
        <ele>25.131714</ele>
        <time>2009-05-16T17:15:15Z</time>
      </trkpt>
      <trkpt lat="50.57584" lon="2.43396">
        <ele>25.131714</ele>
        <time>2009-05-16T17:15:28Z</time>
      </trkpt>
      <trkpt lat="50.57678" lon="2.43547">
        <ele>24.651001</ele>
        <time>2009-05-16T17:15:46Z</time>
      </trkpt>
      <trkpt lat="50.57758" lon="2.43676">
        <ele>24.170288</ele>
        <time>2009-05-16T17:16:01Z</time>
      </trkpt>
      <trkpt lat="50.57853" lon="2.4381">
        <ele>23.689575</ele>
        <time>2009-05-16T17:16:18Z</time>
      </trkpt>
      <trkpt lat="50.57935" lon="2.43925">
        <ele>23.689575</ele>
        <time>2009-05-16T17:16:33Z</time>
      </trkpt>
      <trkpt lat="50.58024" lon="2.44072">
        <ele>24.651001</ele>
        <time>2009-05-16T17:16:51Z</time>
      </trkpt>
      <trkpt lat="50.58118" lon="2.44172">
        <ele>25.131714</ele>
        <time>2009-05-16T17:17:07Z</time>
      </trkpt>
      <trkpt lat="50.58164" lon="2.44207">
        <ele>25.612305</ele>
        <time>2009-05-16T17:17:14Z</time>
      </trkpt>
      <trkpt lat="50.58197" lon="2.44219">
        <ele>25.131714</ele>
        <time>2009-05-16T17:17:19Z</time>
      </trkpt>
      <trkpt lat="50.58266" lon="2.44214">
        <ele>25.131714</ele>
        <time>2009-05-16T17:17:29Z</time>
      </trkpt>
      <trkpt lat="50.58298" lon="2.44232">
        <ele>25.612305</ele>
        <time>2009-05-16T17:17:34Z</time>
      </trkpt>
      <trkpt lat="50.58324" lon="2.44273">
        <ele>25.612305</ele>
        <time>2009-05-16T17:17:39Z</time>
      </trkpt>
      <trkpt lat="50.58346" lon="2.44404">
        <ele>26.092896</ele>
        <time>2009-05-16T17:17:51Z</time>
      </trkpt>
      <trkpt lat="50.58377" lon="2.4448">
        <ele>26.092896</ele>
        <time>2009-05-16T17:17:59Z</time>
      </trkpt>
      <trkpt lat="50.58454" lon="2.44554">
        <ele>26.573608</ele>
        <time>2009-05-16T17:18:13Z</time>
      </trkpt>
      <trkpt lat="50.5849" lon="2.4454">
        <ele>26.092896</ele>
        <time>2009-05-16T17:18:19Z</time>
      </trkpt>
      <trkpt lat="50.58527" lon="2.44522">
        <ele>27.534912</ele>
        <time>2009-05-16T17:18:26Z</time>
      </trkpt>
      <trkpt lat="50.58601" lon="2.4464">
        <ele>28.015503</ele>
        <time>2009-05-16T17:18:41Z</time>
      </trkpt>
      <trkpt lat="50.58684" lon="2.44772">
        <ele>27.534912</ele>
        <time>2009-05-16T17:18:57Z</time>
      </trkpt>
      <trkpt lat="50.58752" lon="2.44877">
        <ele>28.015503</ele>
        <time>2009-05-16T17:19:10Z</time>
      </trkpt>
      <trkpt lat="50.58833" lon="2.45003">
        <ele>27.054321</ele>
        <time>2009-05-16T17:19:25Z</time>
      </trkpt>
      <trkpt lat="50.58907" lon="2.45119">
        <ele>26.573608</ele>
        <time>2009-05-16T17:19:39Z</time>
      </trkpt>
      <trkpt lat="50.58985" lon="2.45243">
        <ele>26.092896</ele>
        <time>2009-05-16T17:19:54Z</time>
      </trkpt>
      <trkpt lat="50.58989" lon="2.45251">
        <ele>26.092896</ele>
        <time>2009-05-16T17:19:55Z</time>
      </trkpt>
      <trkpt lat="50.58991" lon="2.45293">
        <ele>25.131714</ele>
        <time>2009-05-16T17:19:59Z</time>
      </trkpt>
      <trkpt lat="50.58954" lon="2.45421">
        <ele>23.689575</ele>
        <time>2009-05-16T17:20:11Z</time>
      </trkpt>
      <trkpt lat="50.58937" lon="2.45476">
        <ele>23.208984</ele>
        <time>2009-05-16T17:20:16Z</time>
      </trkpt>
      <trkpt lat="50.58966" lon="2.45537">
        <ele>20.805664</ele>
        <time>2009-05-16T17:20:23Z</time>
      </trkpt>
      <trkpt lat="50.58973" lon="2.45554">
        <ele>19.84436</ele>
        <time>2009-05-16T17:20:25Z</time>
      </trkpt>
      <trkpt lat="50.58968" lon="2.45572">
        <ele>19.84436</ele>
        <time>2009-05-16T17:20:27Z</time>
      </trkpt>
      <trkpt lat="50.58922" lon="2.45664">
        <ele>20.324951</ele>
        <time>2009-05-16T17:20:39Z</time>
      </trkpt>
      <trkpt lat="50.58884" lon="2.45769">
        <ele>18.883057</ele>
        <time>2009-05-16T17:20:50Z</time>
      </trkpt>
      <trkpt lat="50.58875" lon="2.45784">
        <ele>18.883057</ele>
        <time>2009-05-16T17:20:52Z</time>
      </trkpt>
      <trkpt lat="50.58862" lon="2.45837">
        <ele>17.441162</ele>
        <time>2009-05-16T17:20:59Z</time>
      </trkpt>
      <trkpt lat="50.58902" lon="2.45936">
        <ele>15.03772</ele>
        <time>2009-05-16T17:21:09Z</time>
      </trkpt>
      <trkpt lat="50.58908" lon="2.45958">
        <ele>15.03772</ele>
        <time>2009-05-16T17:21:11Z</time>
      </trkpt>
      <trkpt lat="50.58909" lon="2.46017">
        <ele>15.03772</ele>
        <time>2009-05-16T17:21:16Z</time>
      </trkpt>
      <trkpt lat="50.58938" lon="2.46162">
        <ele>15.03772</ele>
        <time>2009-05-16T17:21:28Z</time>
      </trkpt>
      <trkpt lat="50.58979" lon="2.46341">
        <ele>14.557007</ele>
        <time>2009-05-16T17:21:43Z</time>
      </trkpt>
      <trkpt lat="50.59011" lon="2.4649">
        <ele>15.03772</ele>
        <time>2009-05-16T17:21:56Z</time>
      </trkpt>
      <trkpt lat="50.59015" lon="2.46534">
        <ele>15.03772</ele>
        <time>2009-05-16T17:22:00Z</time>
      </trkpt>
      <trkpt lat="50.59006" lon="2.46662">
        <ele>15.03772</ele>
        <time>2009-05-16T17:22:12Z</time>
      </trkpt>
      <trkpt lat="50.58999" lon="2.46722">
        <ele>15.03772</ele>
        <time>2009-05-16T17:22:17Z</time>
      </trkpt>
      <trkpt lat="50.59017" lon="2.4676">
        <ele>15.03772</ele>
        <time>2009-05-16T17:22:22Z</time>
      </trkpt>
      <trkpt lat="50.59047" lon="2.46787">
        <ele>15.03772</ele>
        <time>2009-05-16T17:22:28Z</time>
      </trkpt>
      <trkpt lat="50.59047" lon="2.46797">
        <ele>15.03772</ele>
        <time>2009-05-16T17:22:29Z</time>
      </trkpt>
      <trkpt lat="50.59048" lon="2.46979">
        <ele>15.518433</ele>
        <time>2009-05-16T17:22:44Z</time>
      </trkpt>
      <trkpt lat="50.5905" lon="2.47156">
        <ele>15.518433</ele>
        <time>2009-05-16T17:22:59Z</time>
      </trkpt>
      <trkpt lat="50.59054" lon="2.47202">
        <ele>15.03772</ele>
        <time>2009-05-16T17:23:03Z</time>
      </trkpt>
      <trkpt lat="50.59077" lon="2.47279">
        <ele>15.03772</ele>
        <time>2009-05-16T17:23:10Z</time>
      </trkpt>
      <trkpt lat="50.59099" lon="2.47393">
        <ele>14.076416</ele>
        <time>2009-05-16T17:23:20Z</time>
      </trkpt>
      <trkpt lat="50.59079" lon="2.47439">
        <ele>14.557007</ele>
        <time>2009-05-16T17:23:26Z</time>
      </trkpt>
      <trkpt lat="50.59072" lon="2.47441">
        <ele>14.557007</ele>
        <time>2009-05-16T17:23:27Z</time>
      </trkpt>
      <trkpt lat="50.59059" lon="2.47442">
        <ele>14.076416</ele>
        <time>2009-05-16T17:23:29Z</time>
      </trkpt>
      <trkpt lat="50.59037" lon="2.4744">
        <ele>14.076416</ele>
        <time>2009-05-16T17:23:32Z</time>
      </trkpt>
      <trkpt lat="50.58988" lon="2.47412">
        <ele>14.557007</ele>
        <time>2009-05-16T17:23:39Z</time>
      </trkpt>
      <trkpt lat="50.58944" lon="2.47411">
        <ele>14.557007</ele>
        <time>2009-05-16T17:23:45Z</time>
      </trkpt>
      <trkpt lat="50.58841" lon="2.47465">
        <ele>14.076416</ele>
        <time>2009-05-16T17:24:00Z</time>
      </trkpt>
      <trkpt lat="50.58767" lon="2.47528">
        <ele>14.076416</ele>
        <time>2009-05-16T17:24:12Z</time>
      </trkpt>
      <trkpt lat="50.58753" lon="2.47531">
        <ele>14.076416</ele>
        <time>2009-05-16T17:24:14Z</time>
      </trkpt>
      <trkpt lat="50.58687" lon="2.47577">
        <ele>13.595825</ele>
        <time>2009-05-16T17:24:24Z</time>
      </trkpt>
      <trkpt lat="50.58597" lon="2.47649">
        <ele>13.595825</ele>
        <time>2009-05-16T17:24:38Z</time>
      </trkpt>
      <trkpt lat="50.58571" lon="2.47668">
        <ele>13.595825</ele>
        <time>2009-05-16T17:24:42Z</time>
      </trkpt>
      <trkpt lat="50.58538" lon="2.47658">
        <ele>13.595825</ele>
        <time>2009-05-16T17:24:47Z</time>
      </trkpt>
      <trkpt lat="50.5851" lon="2.47675">
        <ele>14.076416</ele>
        <time>2009-05-16T17:24:52Z</time>
      </trkpt>
      <trkpt lat="50.58444" lon="2.47784">
        <ele>14.076416</ele>
        <time>2009-05-16T17:25:05Z</time>
      </trkpt>
      <trkpt lat="50.58399" lon="2.47815">
        <ele>13.595825</ele>
        <time>2009-05-16T17:25:12Z</time>
      </trkpt>
      <trkpt lat="50.58292" lon="2.47835">
        <ele>14.076416</ele>
        <time>2009-05-16T17:25:27Z</time>
      </trkpt>
      <trkpt lat="50.58221" lon="2.47877">
        <ele>14.076416</ele>
        <time>2009-05-16T17:25:38Z</time>
      </trkpt>
      <trkpt lat="50.58206" lon="2.47941">
        <ele>14.076416</ele>
        <time>2009-05-16T17:25:45Z</time>
      </trkpt>
      <trkpt lat="50.58208" lon="2.47952">
        <ele>14.076416</ele>
        <time>2009-05-16T17:25:46Z</time>
      </trkpt>
      <trkpt lat="50.5825" lon="2.48129">
        <ele>14.076416</ele>
        <time>2009-05-16T17:26:02Z</time>
      </trkpt>
      <trkpt lat="50.5829" lon="2.48292">
        <ele>13.595825</ele>
        <time>2009-05-16T17:26:17Z</time>
      </trkpt>
      <trkpt lat="50.58323" lon="2.48447">
        <ele>13.595825</ele>
        <time>2009-05-16T17:26:31Z</time>
      </trkpt>
      <trkpt lat="50.58362" lon="2.48606">
        <ele>13.115112</ele>
        <time>2009-05-16T17:26:46Z</time>
      </trkpt>
      <trkpt lat="50.58401" lon="2.48769">
        <ele>13.115112</ele>
        <time>2009-05-16T17:27:01Z</time>
      </trkpt>
      <trkpt lat="50.5844" lon="2.4895">
        <ele>13.115112</ele>
        <time>2009-05-16T17:27:18Z</time>
      </trkpt>
      <trkpt lat="50.58479" lon="2.49139">
        <ele>13.115112</ele>
        <time>2009-05-16T17:27:35Z</time>
      </trkpt>
      <trkpt lat="50.58484" lon="2.49161">
        <ele>13.115112</ele>
        <time>2009-05-16T17:27:37Z</time>
      </trkpt>
      <trkpt lat="50.5854" lon="2.49284">
        <ele>12.634399</ele>
        <time>2009-05-16T17:27:50Z</time>
      </trkpt>
      <trkpt lat="50.58613" lon="2.49444">
        <ele>12.634399</ele>
        <time>2009-05-16T17:28:07Z</time>
      </trkpt>
      <trkpt lat="50.58678" lon="2.49588">
        <ele>12.153809</ele>
        <time>2009-05-16T17:28:22Z</time>
      </trkpt>
      <trkpt lat="50.58721" lon="2.49678">
        <ele>12.634399</ele>
        <time>2009-05-16T17:28:32Z</time>
      </trkpt>
      <trkpt lat="50.58745" lon="2.49815">
        <ele>12.634399</ele>
        <time>2009-05-16T17:28:44Z</time>
      </trkpt>
      <trkpt lat="50.5876" lon="2.49976">
        <ele>12.634399</ele>
        <time>2009-05-16T17:28:58Z</time>
      </trkpt>
      <trkpt lat="50.5877" lon="2.50183">
        <ele>12.153809</ele>
        <time>2009-05-16T17:29:16Z</time>
      </trkpt>
      <trkpt lat="50.58779" lon="2.50356">
        <ele>12.153809</ele>
        <time>2009-05-16T17:29:31Z</time>
      </trkpt>
      <trkpt lat="50.58788" lon="2.50529">
        <ele>12.153809</ele>
        <time>2009-05-16T17:29:46Z</time>
      </trkpt>
      <trkpt lat="50.58795" lon="2.507">
        <ele>11.673218</ele>
        <time>2009-05-16T17:30:01Z</time>
      </trkpt>
      <trkpt lat="50.58802" lon="2.50888">
        <ele>12.153809</ele>
        <time>2009-05-16T17:30:17Z</time>
      </trkpt>
      <trkpt lat="50.58809" lon="2.51062">
        <ele>12.153809</ele>
        <time>2009-05-16T17:30:32Z</time>
      </trkpt>
      <trkpt lat="50.58817" lon="2.51233">
        <ele>12.153809</ele>
        <time>2009-05-16T17:30:47Z</time>
      </trkpt>
      <trkpt lat="50.58847" lon="2.51413">
        <ele>11.192505</ele>
        <time>2009-05-16T17:31:03Z</time>
      </trkpt>
      <trkpt lat="50.58893" lon="2.51543">
        <ele>11.673218</ele>
        <time>2009-05-16T17:31:16Z</time>
      </trkpt>
      <trkpt lat="50.58906" lon="2.5158">
        <ele>11.673218</ele>
        <time>2009-05-16T17:31:20Z</time>
      </trkpt>
      <trkpt lat="50.58911" lon="2.51654">
        <ele>11.673218</ele>
        <time>2009-05-16T17:31:28Z</time>
      </trkpt>
      <trkpt lat="50.58903" lon="2.51685">
        <ele>12.153809</ele>
        <time>2009-05-16T17:31:32Z</time>
      </trkpt>
      <trkpt lat="50.58899" lon="2.51701">
        <ele>11.673218</ele>
        <time>2009-05-16T17:31:34Z</time>
      </trkpt>
      <trkpt lat="50.58898" lon="2.51737">
        <ele>11.673218</ele>
        <time>2009-05-16T17:31:38Z</time>
      </trkpt>
      <trkpt lat="50.58906" lon="2.51838">
        <ele>12.153809</ele>
        <time>2009-05-16T17:31:51Z</time>
      </trkpt>
      <trkpt lat="50.58907" lon="2.5184">
        <ele>12.153809</ele>
        <time>2009-05-16T17:32:08Z</time>
      </trkpt>
      <trkpt lat="50.58907" lon="2.51841">
        <ele>12.634399</ele>
        <time>2009-05-16T17:32:33Z</time>
      </trkpt>
      <trkpt lat="50.58938" lon="2.51866">
        <ele>12.153809</ele>
        <time>2009-05-16T17:32:43Z</time>
      </trkpt>
      <trkpt lat="50.58962" lon="2.51879">
        <ele>12.153809</ele>
        <time>2009-05-16T17:32:47Z</time>
      </trkpt>
      <trkpt lat="50.5903" lon="2.5192">
        <ele>12.153809</ele>
        <time>2009-05-16T17:32:58Z</time>
      </trkpt>
      <trkpt lat="50.5912" lon="2.5197">
        <ele>12.153809</ele>
        <time>2009-05-16T17:33:12Z</time>
      </trkpt>
      <trkpt lat="50.5922" lon="2.52023">
        <ele>12.153809</ele>
        <time>2009-05-16T17:33:27Z</time>
      </trkpt>
      <trkpt lat="50.59316" lon="2.52079">
        <ele>11.673218</ele>
        <time>2009-05-16T17:33:42Z</time>
      </trkpt>
      <trkpt lat="50.59411" lon="2.52151">
        <ele>11.673218</ele>
        <time>2009-05-16T17:33:57Z</time>
      </trkpt>
      <trkpt lat="50.59519" lon="2.52211">
        <ele>11.673218</ele>
        <time>2009-05-16T17:34:13Z</time>
      </trkpt>
      <trkpt lat="50.59648" lon="2.52242">
        <ele>11.673218</ele>
        <time>2009-05-16T17:34:31Z</time>
      </trkpt>
      <trkpt lat="50.59756" lon="2.52294">
        <ele>11.673218</ele>
        <time>2009-05-16T17:34:47Z</time>
      </trkpt>
      <trkpt lat="50.59876" lon="2.52307">
        <ele>12.153809</ele>
        <time>2009-05-16T17:35:04Z</time>
      </trkpt>
      <trkpt lat="50.5998" lon="2.52267">
        <ele>13.595825</ele>
        <time>2009-05-16T17:35:20Z</time>
      </trkpt>
      <trkpt lat="50.60073" lon="2.52237">
        <ele>15.999023</ele>
        <time>2009-05-16T17:35:35Z</time>
      </trkpt>
      <trkpt lat="50.60128" lon="2.52241">
        <ele>17.441162</ele>
        <time>2009-05-16T17:35:44Z</time>
      </trkpt>
      <trkpt lat="50.60217" lon="2.52283">
        <ele>18.883057</ele>
        <time>2009-05-16T17:35:59Z</time>
      </trkpt>
      <trkpt lat="50.60319" lon="2.52349">
        <ele>16.960449</ele>
        <time>2009-05-16T17:36:15Z</time>
      </trkpt>
      <trkpt lat="50.60398" lon="2.52456">
        <ele>14.076416</ele>
        <time>2009-05-16T17:36:28Z</time>
      </trkpt>
      <trkpt lat="50.60496" lon="2.52574">
        <ele>11.192505</ele>
        <time>2009-05-16T17:36:43Z</time>
      </trkpt>
      <trkpt lat="50.60598" lon="2.52652">
        <ele>11.673218</ele>
        <time>2009-05-16T17:36:58Z</time>
      </trkpt>
      <trkpt lat="50.60704" lon="2.52735">
        <ele>11.673218</ele>
        <time>2009-05-16T17:37:14Z</time>
      </trkpt>
      <trkpt lat="50.60821" lon="2.52831">
        <ele>11.673218</ele>
        <time>2009-05-16T17:37:32Z</time>
      </trkpt>
      <trkpt lat="50.60908" lon="2.52906">
        <ele>11.673218</ele>
        <time>2009-05-16T17:37:45Z</time>
      </trkpt>
      <trkpt lat="50.61033" lon="2.53019">
        <ele>11.673218</ele>
        <time>2009-05-16T17:38:05Z</time>
      </trkpt>
      <trkpt lat="50.61127" lon="2.53102">
        <ele>11.192505</ele>
        <time>2009-05-16T17:38:20Z</time>
      </trkpt>
      <trkpt lat="50.61224" lon="2.53219">
        <ele>11.673218</ele>
        <time>2009-05-16T17:38:37Z</time>
      </trkpt>
      <trkpt lat="50.61309" lon="2.53328">
        <ele>11.673218</ele>
        <time>2009-05-16T17:38:52Z</time>
      </trkpt>
      <trkpt lat="50.61408" lon="2.53452">
        <ele>11.673218</ele>
        <time>2009-05-16T17:39:09Z</time>
      </trkpt>
      <trkpt lat="50.61508" lon="2.53583">
        <ele>11.673218</ele>
        <time>2009-05-16T17:39:27Z</time>
      </trkpt>
      <trkpt lat="50.61588" lon="2.53706">
        <ele>11.673218</ele>
        <time>2009-05-16T17:39:42Z</time>
      </trkpt>
      <trkpt lat="50.61645" lon="2.53859">
        <ele>12.153809</ele>
        <time>2009-05-16T17:39:58Z</time>
      </trkpt>
      <trkpt lat="50.61686" lon="2.54051">
        <ele>12.634399</ele>
        <time>2009-05-16T17:40:16Z</time>
      </trkpt>
      <trkpt lat="50.61723" lon="2.54229">
        <ele>12.153809</ele>
        <time>2009-05-16T17:40:32Z</time>
      </trkpt>
      <trkpt lat="50.61763" lon="2.54431">
        <ele>11.673218</ele>
        <time>2009-05-16T17:40:50Z</time>
      </trkpt>
      <trkpt lat="50.61797" lon="2.54591">
        <ele>11.192505</ele>
        <time>2009-05-16T17:41:04Z</time>
      </trkpt>
      <trkpt lat="50.61816" lon="2.54688">
        <ele>11.673218</ele>
        <time>2009-05-16T17:41:13Z</time>
      </trkpt>
      <trkpt lat="50.61817" lon="2.54709">
        <ele>11.673218</ele>
        <time>2009-05-16T17:41:15Z</time>
      </trkpt>
      <trkpt lat="50.61815" lon="2.54737">
        <ele>11.673218</ele>
        <time>2009-05-16T17:41:18Z</time>
      </trkpt>
      <trkpt lat="50.61824" lon="2.54781">
        <ele>11.192505</ele>
        <time>2009-05-16T17:41:23Z</time>
      </trkpt>
      <trkpt lat="50.61834" lon="2.54796">
        <ele>11.192505</ele>
        <time>2009-05-16T17:41:25Z</time>
      </trkpt>
      <trkpt lat="50.61872" lon="2.54915">
        <ele>11.673218</ele>
        <time>2009-05-16T17:41:37Z</time>
      </trkpt>
      <trkpt lat="50.61934" lon="2.55042">
        <ele>11.673218</ele>
        <time>2009-05-16T17:41:51Z</time>
      </trkpt>
      <trkpt lat="50.62025" lon="2.55143">
        <ele>11.192505</ele>
        <time>2009-05-16T17:42:06Z</time>
      </trkpt>
      <trkpt lat="50.62123" lon="2.55193">
        <ele>11.192505</ele>
        <time>2009-05-16T17:42:20Z</time>
      </trkpt>
      <trkpt lat="50.62225" lon="2.55199">
        <ele>11.192505</ele>
        <time>2009-05-16T17:42:34Z</time>
      </trkpt>
      <trkpt lat="50.62356" lon="2.55186">
        <ele>10.231201</ele>
        <time>2009-05-16T17:42:51Z</time>
      </trkpt>
      <trkpt lat="50.62458" lon="2.55179">
        <ele>13.115112</ele>
        <time>2009-05-16T17:43:05Z</time>
      </trkpt>
      <trkpt lat="50.62536" lon="2.55163">
        <ele>15.999023</ele>
        <time>2009-05-16T17:43:16Z</time>
      </trkpt>
      <trkpt lat="50.62617" lon="2.55117">
        <ele>17.441162</ele>
        <time>2009-05-16T17:43:29Z</time>
      </trkpt>
      <trkpt lat="50.62707" lon="2.55068">
        <ele>15.518433</ele>
        <time>2009-05-16T17:43:44Z</time>
      </trkpt>
      <trkpt lat="50.62785" lon="2.55023">
        <ele>13.115112</ele>
        <time>2009-05-16T17:43:55Z</time>
      </trkpt>
      <trkpt lat="50.62813" lon="2.5504">
        <ele>11.192505</ele>
        <time>2009-05-16T17:44:01Z</time>
      </trkpt>
      <trkpt lat="50.62815" lon="2.55051">
        <ele>10.711792</ele>
        <time>2009-05-16T17:44:02Z</time>
      </trkpt>
      <trkpt lat="50.62817" lon="2.55077">
        <ele>10.231201</ele>
        <time>2009-05-16T17:44:04Z</time>
      </trkpt>
      <trkpt lat="50.62847" lon="2.55261">
        <ele>10.231201</ele>
        <time>2009-05-16T17:44:20Z</time>
      </trkpt>
      <trkpt lat="50.62894" lon="2.55395">
        <ele>10.711792</ele>
        <time>2009-05-16T17:44:33Z</time>
      </trkpt>
      <trkpt lat="50.62958" lon="2.5555">
        <ele>10.711792</ele>
        <time>2009-05-16T17:44:49Z</time>
      </trkpt>
      <trkpt lat="50.63025" lon="2.55705">
        <ele>10.711792</ele>
        <time>2009-05-16T17:45:05Z</time>
      </trkpt>
      <trkpt lat="50.63084" lon="2.55855">
        <ele>11.192505</ele>
        <time>2009-05-16T17:45:20Z</time>
      </trkpt>
      <trkpt lat="50.63137" lon="2.55983">
        <ele>11.192505</ele>
        <time>2009-05-16T17:45:33Z</time>
      </trkpt>
      <trkpt lat="50.6321" lon="2.56147">
        <ele>11.192505</ele>
        <time>2009-05-16T17:45:50Z</time>
      </trkpt>
      <trkpt lat="50.63273" lon="2.56296">
        <ele>10.711792</ele>
        <time>2009-05-16T17:46:05Z</time>
      </trkpt>
      <trkpt lat="50.63298" lon="2.56437">
        <ele>9.75061</ele>
        <time>2009-05-16T17:46:17Z</time>
      </trkpt>
      <trkpt lat="50.63322" lon="2.56577">
        <ele>9.75061</ele>
        <time>2009-05-16T17:46:29Z</time>
      </trkpt>
      <trkpt lat="50.6337" lon="2.56714">
        <ele>9.75061</ele>
        <time>2009-05-16T17:46:42Z</time>
      </trkpt>
      <trkpt lat="50.63388" lon="2.56874">
        <ele>10.711792</ele>
        <time>2009-05-16T17:46:56Z</time>
      </trkpt>
      <trkpt lat="50.63412" lon="2.57024">
        <ele>10.711792</ele>
        <time>2009-05-16T17:47:09Z</time>
      </trkpt>
      <trkpt lat="50.63425" lon="2.57067">
        <ele>10.711792</ele>
        <time>2009-05-16T17:47:13Z</time>
      </trkpt>
      <trkpt lat="50.63496" lon="2.5723">
        <ele>11.192505</ele>
        <time>2009-05-16T17:47:30Z</time>
      </trkpt>
      <trkpt lat="50.63552" lon="2.5735">
        <ele>10.711792</ele>
        <time>2009-05-16T17:47:43Z</time>
      </trkpt>
      <trkpt lat="50.6362" lon="2.57509">
        <ele>10.231201</ele>
        <time>2009-05-16T17:47:59Z</time>
      </trkpt>
      <trkpt lat="50.637" lon="2.57643">
        <ele>10.711792</ele>
        <time>2009-05-16T17:48:15Z</time>
      </trkpt>
      <trkpt lat="50.63767" lon="2.57772">
        <ele>10.711792</ele>
        <time>2009-05-16T17:48:29Z</time>
      </trkpt>
      <trkpt lat="50.63834" lon="2.57878">
        <ele>11.192505</ele>
        <time>2009-05-16T17:48:42Z</time>
      </trkpt>
      <trkpt lat="50.63853" lon="2.57908">
        <ele>11.192505</ele>
        <time>2009-05-16T17:48:46Z</time>
      </trkpt>
      <trkpt lat="50.63874" lon="2.57917">
        <ele>11.192505</ele>
        <time>2009-05-16T17:48:50Z</time>
      </trkpt>
      <trkpt lat="50.63897" lon="2.57927">
        <ele>11.192505</ele>
        <time>2009-05-16T17:48:57Z</time>
      </trkpt>
      <trkpt lat="50.63904" lon="2.57961">
        <ele>11.192505</ele>
        <time>2009-05-16T17:49:01Z</time>
      </trkpt>
      <trkpt lat="50.63952" lon="2.58092">
        <ele>11.192505</ele>
        <time>2009-05-16T17:49:15Z</time>
      </trkpt>
      <trkpt lat="50.63984" lon="2.5822">
        <ele>10.711792</ele>
        <time>2009-05-16T17:49:27Z</time>
      </trkpt>
      <trkpt lat="50.64028" lon="2.58407">
        <ele>11.192505</ele>
        <time>2009-05-16T17:49:44Z</time>
      </trkpt>
      <trkpt lat="50.64052" lon="2.58575">
        <ele>11.192505</ele>
        <time>2009-05-16T17:49:59Z</time>
      </trkpt>
      <trkpt lat="50.64056" lon="2.5861">
        <ele>11.192505</ele>
        <time>2009-05-16T17:50:02Z</time>
      </trkpt>
      <trkpt lat="50.64087" lon="2.58732">
        <ele>11.192505</ele>
        <time>2009-05-16T17:50:13Z</time>
      </trkpt>
      <trkpt lat="50.64112" lon="2.58939">
        <ele>11.673218</ele>
        <time>2009-05-16T17:50:31Z</time>
      </trkpt>
      <trkpt lat="50.64117" lon="2.5901">
        <ele>11.673218</ele>
        <time>2009-05-16T17:50:37Z</time>
      </trkpt>
      <trkpt lat="50.64109" lon="2.59067">
        <ele>11.192505</ele>
        <time>2009-05-16T17:50:42Z</time>
      </trkpt>
      <trkpt lat="50.64056" lon="2.59271">
        <ele>10.711792</ele>
        <time>2009-05-16T17:51:00Z</time>
      </trkpt>
      <trkpt lat="50.6404" lon="2.59407">
        <ele>11.673218</ele>
        <time>2009-05-16T17:51:12Z</time>
      </trkpt>
      <trkpt lat="50.63991" lon="2.59596">
        <ele>11.192505</ele>
        <time>2009-05-16T17:51:29Z</time>
      </trkpt>
      <trkpt lat="50.63961" lon="2.59717">
        <ele>11.673218</ele>
        <time>2009-05-16T17:51:40Z</time>
      </trkpt>
      <trkpt lat="50.63918" lon="2.59864">
        <ele>11.192505</ele>
        <time>2009-05-16T17:51:54Z</time>
      </trkpt>
      <trkpt lat="50.63881" lon="2.59982">
        <ele>11.192505</ele>
        <time>2009-05-16T17:52:05Z</time>
      </trkpt>
      <trkpt lat="50.63886" lon="2.60136">
        <ele>10.711792</ele>
        <time>2009-05-16T17:52:18Z</time>
      </trkpt>
      <trkpt lat="50.63894" lon="2.60337">
        <ele>10.711792</ele>
        <time>2009-05-16T17:52:35Z</time>
      </trkpt>
      <trkpt lat="50.63906" lon="2.60498">
        <ele>10.711792</ele>
        <time>2009-05-16T17:52:48Z</time>
      </trkpt>
      <trkpt lat="50.63891" lon="2.60625">
        <ele>10.711792</ele>
        <time>2009-05-16T17:52:59Z</time>
      </trkpt>
      <trkpt lat="50.63892" lon="2.6081">
        <ele>10.711792</ele>
        <time>2009-05-16T17:53:15Z</time>
      </trkpt>
      <trkpt lat="50.63915" lon="2.60966">
        <ele>11.192505</ele>
        <time>2009-05-16T17:53:29Z</time>
      </trkpt>
      <trkpt lat="50.63939" lon="2.61111">
        <ele>10.711792</ele>
        <time>2009-05-16T17:53:43Z</time>
      </trkpt>
      <trkpt lat="50.63942" lon="2.61132">
        <ele>10.711792</ele>
        <time>2009-05-16T17:53:45Z</time>
      </trkpt>
      <trkpt lat="50.63946" lon="2.61196">
        <ele>10.231201</ele>
        <time>2009-05-16T17:53:51Z</time>
      </trkpt>
      <trkpt lat="50.63946" lon="2.61242">
        <ele>10.231201</ele>
        <time>2009-05-16T17:53:55Z</time>
      </trkpt>
      <trkpt lat="50.63955" lon="2.61392">
        <ele>10.711792</ele>
        <time>2009-05-16T17:54:08Z</time>
      </trkpt>
      <trkpt lat="50.63983" lon="2.61576">
        <ele>11.192505</ele>
        <time>2009-05-16T17:54:25Z</time>
      </trkpt>
      <trkpt lat="50.64002" lon="2.61713">
        <ele>10.711792</ele>
        <time>2009-05-16T17:54:38Z</time>
      </trkpt>
      <trkpt lat="50.6401" lon="2.6178">
        <ele>10.711792</ele>
        <time>2009-05-16T17:54:44Z</time>
      </trkpt>
      <trkpt lat="50.64015" lon="2.61942">
        <ele>11.192505</ele>
        <time>2009-05-16T17:54:58Z</time>
      </trkpt>
      <trkpt lat="50.6402" lon="2.62112">
        <ele>11.673218</ele>
        <time>2009-05-16T17:55:13Z</time>
      </trkpt>
      <trkpt lat="50.6405" lon="2.62246">
        <ele>11.673218</ele>
        <time>2009-05-16T17:55:25Z</time>
      </trkpt>
      <trkpt lat="50.64092" lon="2.62401">
        <ele>11.673218</ele>
        <time>2009-05-16T17:55:39Z</time>
      </trkpt>
      <trkpt lat="50.64103" lon="2.62543">
        <ele>11.673218</ele>
        <time>2009-05-16T17:55:51Z</time>
      </trkpt>
      <trkpt lat="50.64139" lon="2.62683">
        <ele>11.192505</ele>
        <time>2009-05-16T17:56:04Z</time>
      </trkpt>
      <trkpt lat="50.6412" lon="2.6275">
        <ele>11.192505</ele>
        <time>2009-05-16T17:56:11Z</time>
      </trkpt>
      <trkpt lat="50.64107" lon="2.6278">
        <ele>11.673218</ele>
        <time>2009-05-16T17:56:14Z</time>
      </trkpt>
      <trkpt lat="50.64042" lon="2.62955">
        <ele>11.673218</ele>
        <time>2009-05-16T17:56:31Z</time>
      </trkpt>
      <trkpt lat="50.6403" lon="2.63083">
        <ele>11.673218</ele>
        <time>2009-05-16T17:56:42Z</time>
      </trkpt>
      <trkpt lat="50.64026" lon="2.63127">
        <ele>11.673218</ele>
        <time>2009-05-16T17:56:46Z</time>
      </trkpt>
      <trkpt lat="50.64022" lon="2.63157">
        <ele>11.673218</ele>
        <time>2009-05-16T17:56:49Z</time>
      </trkpt>
      <trkpt lat="50.64025" lon="2.63215">
        <ele>11.192505</ele>
        <time>2009-05-16T17:56:54Z</time>
      </trkpt>
      <trkpt lat="50.64039" lon="2.63388">
        <ele>10.711792</ele>
        <time>2009-05-16T17:57:09Z</time>
      </trkpt>
      <trkpt lat="50.6405" lon="2.63517">
        <ele>11.192505</ele>
        <time>2009-05-16T17:57:21Z</time>
      </trkpt>
      <trkpt lat="50.64052" lon="2.63592">
        <ele>11.192505</ele>
        <time>2009-05-16T17:57:27Z</time>
      </trkpt>
      <trkpt lat="50.64072" lon="2.63657">
        <ele>11.192505</ele>
        <time>2009-05-16T17:57:34Z</time>
      </trkpt>
      <trkpt lat="50.6409" lon="2.63692">
        <ele>11.192505</ele>
        <time>2009-05-16T17:57:38Z</time>
      </trkpt>
      <trkpt lat="50.64159" lon="2.6378">
        <ele>10.711792</ele>
        <time>2009-05-16T17:57:50Z</time>
      </trkpt>
      <trkpt lat="50.64179" lon="2.63802">
        <ele>11.192505</ele>
        <time>2009-05-16T17:57:54Z</time>
      </trkpt>
      <trkpt lat="50.64202" lon="2.63799">
        <ele>11.673218</ele>
        <time>2009-05-16T17:57:59Z</time>
      </trkpt>
      <trkpt lat="50.64233" lon="2.63778">
        <ele>11.673218</ele>
        <time>2009-05-16T17:58:05Z</time>
      </trkpt>
      <trkpt lat="50.64261" lon="2.63774">
        <ele>12.153809</ele>
        <time>2009-05-16T17:58:09Z</time>
      </trkpt>
      <trkpt lat="50.64297" lon="2.63757">
        <ele>11.673218</ele>
        <time>2009-05-16T17:58:14Z</time>
      </trkpt>
      <trkpt lat="50.64376" lon="2.6371">
        <ele>12.153809</ele>
        <time>2009-05-16T17:58:28Z</time>
      </trkpt>
      <trkpt lat="50.64411" lon="2.6369">
        <ele>11.673218</ele>
        <time>2009-05-16T17:58:34Z</time>
      </trkpt>
      <trkpt lat="50.6447" lon="2.63683">
        <ele>11.673218</ele>
        <time>2009-05-16T17:58:42Z</time>
      </trkpt>
      <trkpt lat="50.64561" lon="2.63632">
        <ele>12.634399</ele>
        <time>2009-05-16T17:58:56Z</time>
      </trkpt>
      <trkpt lat="50.64621" lon="2.63624">
        <ele>12.153809</ele>
        <time>2009-05-16T17:59:08Z</time>
      </trkpt>
      <trkpt lat="50.64624" lon="2.63623">
        <ele>12.153809</ele>
        <time>2009-05-16T17:59:20Z</time>
      </trkpt>
      <trkpt lat="50.64644" lon="2.63619">
        <ele>12.153809</ele>
        <time>2009-05-16T17:59:27Z</time>
      </trkpt>
      <trkpt lat="50.64708" lon="2.63603">
        <ele>11.192505</ele>
        <time>2009-05-16T17:59:38Z</time>
      </trkpt>
      <trkpt lat="50.64714" lon="2.63601">
        <ele>11.192505</ele>
        <time>2009-05-16T17:59:39Z</time>
      </trkpt>
      <trkpt lat="50.6481" lon="2.63584">
        <ele>10.231201</ele>
        <time>2009-05-16T17:59:53Z</time>
      </trkpt>
      <trkpt lat="50.64842" lon="2.63577">
        <ele>11.192505</ele>
        <time>2009-05-16T17:59:58Z</time>
      </trkpt>
      <trkpt lat="50.64898" lon="2.63562">
        <ele>11.192505</ele>
        <time>2009-05-16T18:00:08Z</time>
      </trkpt>
      <trkpt lat="50.64908" lon="2.63579">
        <ele>11.192505</ele>
        <time>2009-05-16T18:00:14Z</time>
      </trkpt>
      <trkpt lat="50.6491" lon="2.63623">
        <ele>11.673218</ele>
        <time>2009-05-16T18:00:21Z</time>
      </trkpt>
      <trkpt lat="50.64917" lon="2.6362">
        <ele>12.153809</ele>
        <time>2009-05-16T18:00:27Z</time>
      </trkpt>
      <trkpt lat="50.64917" lon="2.63619">
        <ele>14.076416</ele>
        <time>2009-05-16T18:00:50Z</time>
      </trkpt>
    </trkseg>
  </trk>
</gpx>